<?xml version="1.0" encoding="UTF-8" standalone="no" ?>
<gpx xmlns="http://www.topografix.com/GPX/1/1" xmlns:xsi="http://www.w3.org/2001/XMLSchema-instance" xsi:schemaLocation="http://www.topografix.com/GPX/1/1 http://www.topografix.com/GPX/1/1/gpx.xsd" version="1.1" creator="VisuGPX - https://www.visugpx.com">
  <metadata>
    <name>Janas</name>
    <desc><![CDATA[descente par les 2 frères]]></desc>
  </metadata>
  <trk>
    <name><![CDATA[2021-11-14 Janas]]></name>
    <desc><![CDATA[pas assez de single]]></desc>
    <trkseg>
      <trkpt lat="43.11903" lon="5.87489">
        <ele>29.0234375</ele>
        <time>2021-11-14T07:52:52Z</time>
      </trkpt>
      <trkpt lat="43.11905" lon="5.87484">
        <ele>29.81640625</ele>
        <time>2021-11-14T07:53:12Z</time>
      </trkpt>
      <trkpt lat="43.11905" lon="5.87484">
        <ele>29.78515625</ele>
        <time>2021-11-14T07:53:25Z</time>
      </trkpt>
      <trkpt lat="43.11899" lon="5.87486">
        <ele>29.37109375</ele>
        <time>2021-11-14T07:53:29Z</time>
      </trkpt>
      <trkpt lat="43.1189" lon="5.87485">
        <ele>28.59375</ele>
        <time>2021-11-14T07:53:42Z</time>
      </trkpt>
      <trkpt lat="43.11891" lon="5.87485">
        <ele>28.671875</ele>
        <time>2021-11-14T07:54:02Z</time>
      </trkpt>
      <trkpt lat="43.11891" lon="5.87485">
        <ele>28.671875</ele>
        <time>2021-11-14T07:54:45Z</time>
      </trkpt>
      <trkpt lat="43.1189" lon="5.87485">
        <ele>28.66015625</ele>
        <time>2021-11-14T07:55:18Z</time>
      </trkpt>
      <trkpt lat="43.1189" lon="5.87486">
        <ele>28.46484375</ele>
        <time>2021-11-14T07:55:58Z</time>
      </trkpt>
      <trkpt lat="43.1189" lon="5.87486">
        <ele>28.47265625</ele>
        <time>2021-11-14T07:56:36Z</time>
      </trkpt>
      <trkpt lat="43.1189" lon="5.87487">
        <ele>28.30859375</ele>
        <time>2021-11-14T07:57:16Z</time>
      </trkpt>
      <trkpt lat="43.1189" lon="5.87487">
        <ele>28.30859375</ele>
        <time>2021-11-14T07:57:50Z</time>
      </trkpt>
      <trkpt lat="43.11891" lon="5.87487">
        <ele>28.421875</ele>
        <time>2021-11-14T07:58:31Z</time>
      </trkpt>
      <trkpt lat="43.11891" lon="5.87487">
        <ele>28.43359375</ele>
        <time>2021-11-14T07:59:09Z</time>
      </trkpt>
      <trkpt lat="43.1189" lon="5.87485">
        <ele>28.62109375</ele>
        <time>2021-11-14T07:59:40Z</time>
      </trkpt>
      <trkpt lat="43.1189" lon="5.87485">
        <ele>28.59375</ele>
        <time>2021-11-14T08:00:17Z</time>
      </trkpt>
      <trkpt lat="43.11891" lon="5.87485">
        <ele>28.6796875</ele>
        <time>2021-11-14T08:00:50Z</time>
      </trkpt>
      <trkpt lat="43.11888" lon="5.87483">
        <ele>28.6640625</ele>
        <time>2021-11-14T08:01:33Z</time>
      </trkpt>
      <trkpt lat="43.11888" lon="5.87484">
        <ele>28.61328125</ele>
        <time>2021-11-14T08:02:06Z</time>
      </trkpt>
      <trkpt lat="43.11889" lon="5.87485">
        <ele>28.4453125</ele>
        <time>2021-11-14T08:02:39Z</time>
      </trkpt>
      <trkpt lat="43.11888" lon="5.87487">
        <ele>28.26171875</ele>
        <time>2021-11-14T08:03:09Z</time>
      </trkpt>
      <trkpt lat="43.1189" lon="5.87485">
        <ele>28.6875</ele>
        <time>2021-11-14T08:03:45Z</time>
      </trkpt>
      <trkpt lat="43.11889" lon="5.87484">
        <ele>28.56640625</ele>
        <time>2021-11-14T08:04:20Z</time>
      </trkpt>
      <trkpt lat="43.11888" lon="5.87485">
        <ele>28.50390625</ele>
        <time>2021-11-14T08:04:54Z</time>
      </trkpt>
      <trkpt lat="43.11888" lon="5.87483">
        <ele>28.69140625</ele>
        <time>2021-11-14T08:05:32Z</time>
      </trkpt>
      <trkpt lat="43.11889" lon="5.87484">
        <ele>28.625</ele>
        <time>2021-11-14T08:06:10Z</time>
      </trkpt>
      <trkpt lat="43.11888" lon="5.87482">
        <ele>28.84375</ele>
        <time>2021-11-14T08:06:53Z</time>
      </trkpt>
      <trkpt lat="43.11895" lon="5.87487">
        <ele>28.7265625</ele>
        <time>2021-11-14T08:07:09Z</time>
      </trkpt>
      <trkpt lat="43.11895" lon="5.87487">
        <ele>28.796875</ele>
        <time>2021-11-14T08:07:32Z</time>
      </trkpt>
      <trkpt lat="43.11893" lon="5.87486">
        <ele>28.75</ele>
        <time>2021-11-14T08:07:47Z</time>
      </trkpt>
      <trkpt lat="43.11893" lon="5.87485">
        <ele>28.86328125</ele>
        <time>2021-11-14T08:08:15Z</time>
      </trkpt>
      <trkpt lat="43.11895" lon="5.87485">
        <ele>29.046875</ele>
        <time>2021-11-14T08:08:43Z</time>
      </trkpt>
      <trkpt lat="43.11895" lon="5.87484">
        <ele>29.171875</ele>
        <time>2021-11-14T08:08:55Z</time>
      </trkpt>
      <trkpt lat="43.11897" lon="5.87484">
        <ele>29.41796875</ele>
        <time>2021-11-14T08:08:57Z</time>
      </trkpt>
      <trkpt lat="43.11903" lon="5.8749">
        <ele>28.87109375</ele>
        <time>2021-11-14T08:09:02Z</time>
      </trkpt>
      <trkpt lat="43.11909" lon="5.87491">
        <ele>28.796875</ele>
        <time>2021-11-14T08:09:06Z</time>
      </trkpt>
      <trkpt lat="43.11919" lon="5.87488">
        <ele>29.23828125</ele>
        <time>2021-11-14T08:09:10Z</time>
      </trkpt>
      <trkpt lat="43.11943" lon="5.87495">
        <ele>28.0546875</ele>
        <time>2021-11-14T08:09:17Z</time>
      </trkpt>
      <trkpt lat="43.11956" lon="5.87496">
        <ele>27.8203125</ele>
        <time>2021-11-14T08:09:20Z</time>
      </trkpt>
      <trkpt lat="43.11982" lon="5.87518">
        <ele>22.5546875</ele>
        <time>2021-11-14T08:09:25Z</time>
      </trkpt>
      <trkpt lat="43.11978" lon="5.87549">
        <ele>19.45703125</ele>
        <time>2021-11-14T08:09:28Z</time>
      </trkpt>
      <trkpt lat="43.11971" lon="5.87557">
        <ele>19.12890625</ele>
        <time>2021-11-14T08:09:29Z</time>
      </trkpt>
      <trkpt lat="43.11962" lon="5.87562">
        <ele>19.35546875</ele>
        <time>2021-11-14T08:09:30Z</time>
      </trkpt>
      <trkpt lat="43.11952" lon="5.87563">
        <ele>19.76171875</ele>
        <time>2021-11-14T08:09:31Z</time>
      </trkpt>
      <trkpt lat="43.11943" lon="5.87565">
        <ele>19.94921875</ele>
        <time>2021-11-14T08:09:32Z</time>
      </trkpt>
      <trkpt lat="43.11933" lon="5.87566">
        <ele>20.05859375</ele>
        <time>2021-11-14T08:09:33Z</time>
      </trkpt>
      <trkpt lat="43.11902" lon="5.87573">
        <ele>19.44140625</ele>
        <time>2021-11-14T08:09:38Z</time>
      </trkpt>
      <trkpt lat="43.119" lon="5.87577">
        <ele>19.00390625</ele>
        <time>2021-11-14T08:09:39Z</time>
      </trkpt>
      <trkpt lat="43.11899" lon="5.87582">
        <ele>18.37890625</ele>
        <time>2021-11-14T08:09:40Z</time>
      </trkpt>
      <trkpt lat="43.11899" lon="5.87588">
        <ele>17.80859375</ele>
        <time>2021-11-14T08:09:41Z</time>
      </trkpt>
      <trkpt lat="43.11901" lon="5.87596">
        <ele>17.31640625</ele>
        <time>2021-11-14T08:09:42Z</time>
      </trkpt>
      <trkpt lat="43.11902" lon="5.87604">
        <ele>16.703125</ele>
        <time>2021-11-14T08:09:43Z</time>
      </trkpt>
      <trkpt lat="43.11903" lon="5.87619">
        <ele>15.62109375</ele>
        <time>2021-11-14T08:09:45Z</time>
      </trkpt>
      <trkpt lat="43.11902" lon="5.87626">
        <ele>15.13671875</ele>
        <time>2021-11-14T08:09:46Z</time>
      </trkpt>
      <trkpt lat="43.11901" lon="5.87632">
        <ele>14.6953125</ele>
        <time>2021-11-14T08:09:47Z</time>
      </trkpt>
      <trkpt lat="43.11901" lon="5.87638">
        <ele>14.27734375</ele>
        <time>2021-11-14T08:09:48Z</time>
      </trkpt>
      <trkpt lat="43.11902" lon="5.87644">
        <ele>13.9296875</ele>
        <time>2021-11-14T08:09:49Z</time>
      </trkpt>
      <trkpt lat="43.11903" lon="5.87649">
        <ele>13.73046875</ele>
        <time>2021-11-14T08:09:50Z</time>
      </trkpt>
      <trkpt lat="43.11909" lon="5.87677">
        <ele>12.73046875</ele>
        <time>2021-11-14T08:09:56Z</time>
      </trkpt>
      <trkpt lat="43.11909" lon="5.87683">
        <ele>12.51953125</ele>
        <time>2021-11-14T08:09:57Z</time>
      </trkpt>
      <trkpt lat="43.11908" lon="5.87696">
        <ele>12.06640625</ele>
        <time>2021-11-14T08:09:59Z</time>
      </trkpt>
      <trkpt lat="43.11906" lon="5.87702">
        <ele>11.64453125</ele>
        <time>2021-11-14T08:10:00Z</time>
      </trkpt>
      <trkpt lat="43.11903" lon="5.87708">
        <ele>11.21875</ele>
        <time>2021-11-14T08:10:01Z</time>
      </trkpt>
      <trkpt lat="43.11898" lon="5.87713">
        <ele>10.8984375</ele>
        <time>2021-11-14T08:10:02Z</time>
      </trkpt>
      <trkpt lat="43.11893" lon="5.87715">
        <ele>10.75</ele>
        <time>2021-11-14T08:10:03Z</time>
      </trkpt>
      <trkpt lat="43.11888" lon="5.87716">
        <ele>10.65234375</ele>
        <time>2021-11-14T08:10:04Z</time>
      </trkpt>
      <trkpt lat="43.11882" lon="5.87717">
        <ele>10.59765625</ele>
        <time>2021-11-14T08:10:05Z</time>
      </trkpt>
      <trkpt lat="43.11844" lon="5.87722">
        <ele>10.078125</ele>
        <time>2021-11-14T08:10:12Z</time>
      </trkpt>
      <trkpt lat="43.11839" lon="5.87725">
        <ele>9.796875</ele>
        <time>2021-11-14T08:10:13Z</time>
      </trkpt>
      <trkpt lat="43.11835" lon="5.8773">
        <ele>9.46875</ele>
        <time>2021-11-14T08:10:14Z</time>
      </trkpt>
      <trkpt lat="43.11828" lon="5.8774">
        <ele>8.8515625</ele>
        <time>2021-11-14T08:10:16Z</time>
      </trkpt>
      <trkpt lat="43.11824" lon="5.87743">
        <ele>8.59375</ele>
        <time>2021-11-14T08:10:17Z</time>
      </trkpt>
      <trkpt lat="43.11792" lon="5.87755">
        <ele>7.01953125</ele>
        <time>2021-11-14T08:10:27Z</time>
      </trkpt>
      <trkpt lat="43.1179" lon="5.87756">
        <ele>6.8984375</ele>
        <time>2021-11-14T08:10:49Z</time>
      </trkpt>
      <trkpt lat="43.11789" lon="5.87758">
        <ele>6.7890625</ele>
        <time>2021-11-14T08:10:50Z</time>
      </trkpt>
      <trkpt lat="43.11783" lon="5.87764">
        <ele>6.453125</ele>
        <time>2021-11-14T08:10:52Z</time>
      </trkpt>
      <trkpt lat="43.11778" lon="5.87767">
        <ele>6.296875</ele>
        <time>2021-11-14T08:10:53Z</time>
      </trkpt>
      <trkpt lat="43.11773" lon="5.8777">
        <ele>6.1640625</ele>
        <time>2021-11-14T08:10:54Z</time>
      </trkpt>
      <trkpt lat="43.11758" lon="5.87779">
        <ele>5.87109375</ele>
        <time>2021-11-14T08:10:57Z</time>
      </trkpt>
      <trkpt lat="43.11714" lon="5.87794">
        <ele>5</ele>
        <time>2021-11-14T08:11:04Z</time>
      </trkpt>
      <trkpt lat="43.1171" lon="5.87797">
        <ele>5</ele>
        <time>2021-11-14T08:11:05Z</time>
      </trkpt>
      <trkpt lat="43.11685" lon="5.87822">
        <ele>5</ele>
        <time>2021-11-14T08:11:11Z</time>
      </trkpt>
      <trkpt lat="43.1168" lon="5.87825">
        <ele>5</ele>
        <time>2021-11-14T08:11:12Z</time>
      </trkpt>
      <trkpt lat="43.11674" lon="5.87826">
        <ele>5</ele>
        <time>2021-11-14T08:11:13Z</time>
      </trkpt>
      <trkpt lat="43.11669" lon="5.87827">
        <ele>5</ele>
        <time>2021-11-14T08:11:14Z</time>
      </trkpt>
      <trkpt lat="43.11663" lon="5.87828">
        <ele>5</ele>
        <time>2021-11-14T08:11:15Z</time>
      </trkpt>
      <trkpt lat="43.11658" lon="5.87828">
        <ele>5</ele>
        <time>2021-11-14T08:11:16Z</time>
      </trkpt>
      <trkpt lat="43.11581" lon="5.87834">
        <ele>4</ele>
        <time>2021-11-14T08:11:30Z</time>
      </trkpt>
      <trkpt lat="43.11572" lon="5.87833">
        <ele>4</ele>
        <time>2021-11-14T08:11:32Z</time>
      </trkpt>
      <trkpt lat="43.11568" lon="5.87834">
        <ele>4</ele>
        <time>2021-11-14T08:11:33Z</time>
      </trkpt>
      <trkpt lat="43.11498" lon="5.87832">
        <ele>4.6875</ele>
        <time>2021-11-14T08:11:50Z</time>
      </trkpt>
      <trkpt lat="43.11445" lon="5.87833">
        <ele>5.5390625</ele>
        <time>2021-11-14T08:12:02Z</time>
      </trkpt>
      <trkpt lat="43.1138" lon="5.87831">
        <ele>8.5234375</ele>
        <time>2021-11-14T08:12:15Z</time>
      </trkpt>
      <trkpt lat="43.11371" lon="5.8783">
        <ele>9.078125</ele>
        <time>2021-11-14T08:12:17Z</time>
      </trkpt>
      <trkpt lat="43.11322" lon="5.87819">
        <ele>11.375</ele>
        <time>2021-11-14T08:12:28Z</time>
      </trkpt>
      <trkpt lat="43.11246" lon="5.8779">
        <ele>14.76171875</ele>
        <time>2021-11-14T08:12:43Z</time>
      </trkpt>
      <trkpt lat="43.11183" lon="5.87775">
        <ele>10.30078125</ele>
        <time>2021-11-14T08:12:52Z</time>
      </trkpt>
      <trkpt lat="43.11175" lon="5.87773">
        <ele>9.6171875</ele>
        <time>2021-11-14T08:12:53Z</time>
      </trkpt>
      <trkpt lat="43.11068" lon="5.87754">
        <ele>4.97265625</ele>
        <time>2021-11-14T08:13:07Z</time>
      </trkpt>
      <trkpt lat="43.10974" lon="5.87737">
        <ele>4</ele>
        <time>2021-11-14T08:13:21Z</time>
      </trkpt>
      <trkpt lat="43.10859" lon="5.87719">
        <ele>3</ele>
        <time>2021-11-14T08:13:39Z</time>
      </trkpt>
      <trkpt lat="43.10822" lon="5.87713">
        <ele>3</ele>
        <time>2021-11-14T08:13:48Z</time>
      </trkpt>
      <trkpt lat="43.10779" lon="5.87705">
        <ele>2.73046875</ele>
        <time>2021-11-14T08:14:00Z</time>
      </trkpt>
      <trkpt lat="43.10772" lon="5.87704">
        <ele>2.78125</ele>
        <time>2021-11-14T08:14:12Z</time>
      </trkpt>
      <trkpt lat="43.10775" lon="5.87702">
        <ele>2.82421875</ele>
        <time>2021-11-14T08:14:45Z</time>
      </trkpt>
      <trkpt lat="43.10754" lon="5.87695">
        <ele>2.69921875</ele>
        <time>2021-11-14T08:14:55Z</time>
      </trkpt>
      <trkpt lat="43.10747" lon="5.87692">
        <ele>2.44140625</ele>
        <time>2021-11-14T08:14:57Z</time>
      </trkpt>
      <trkpt lat="43.10743" lon="5.87689">
        <ele>2.30859375</ele>
        <time>2021-11-14T08:14:58Z</time>
      </trkpt>
      <trkpt lat="43.10739" lon="5.87687">
        <ele>2.15625</ele>
        <time>2021-11-14T08:14:59Z</time>
      </trkpt>
      <trkpt lat="43.1073" lon="5.87684">
        <ele>2</ele>
        <time>2021-11-14T08:15:01Z</time>
      </trkpt>
      <trkpt lat="43.10721" lon="5.87682">
        <ele>2</ele>
        <time>2021-11-14T08:15:03Z</time>
      </trkpt>
      <trkpt lat="43.10717" lon="5.8768">
        <ele>2</ele>
        <time>2021-11-14T08:15:04Z</time>
      </trkpt>
      <trkpt lat="43.10712" lon="5.87677">
        <ele>2</ele>
        <time>2021-11-14T08:15:05Z</time>
      </trkpt>
      <trkpt lat="43.10704" lon="5.87671">
        <ele>2</ele>
        <time>2021-11-14T08:15:07Z</time>
      </trkpt>
      <trkpt lat="43.10639" lon="5.87623">
        <ele>2</ele>
        <time>2021-11-14T08:15:22Z</time>
      </trkpt>
      <trkpt lat="43.10597" lon="5.87593">
        <ele>2.94921875</ele>
        <time>2021-11-14T08:15:31Z</time>
      </trkpt>
      <trkpt lat="43.10593" lon="5.8759">
        <ele>3</ele>
        <time>2021-11-14T08:15:32Z</time>
      </trkpt>
      <trkpt lat="43.10543" lon="5.87559">
        <ele>3</ele>
        <time>2021-11-14T08:15:42Z</time>
      </trkpt>
      <trkpt lat="43.10538" lon="5.87556">
        <ele>3</ele>
        <time>2021-11-14T08:15:43Z</time>
      </trkpt>
      <trkpt lat="43.1046" lon="5.87511">
        <ele>3.91015625</ele>
        <time>2021-11-14T08:15:59Z</time>
      </trkpt>
      <trkpt lat="43.10372" lon="5.87463">
        <ele>4</ele>
        <time>2021-11-14T08:16:17Z</time>
      </trkpt>
      <trkpt lat="43.10315" lon="5.87435">
        <ele>4.4609375</ele>
        <time>2021-11-14T08:16:31Z</time>
      </trkpt>
      <trkpt lat="43.10304" lon="5.87432">
        <ele>4.56640625</ele>
        <time>2021-11-14T08:16:41Z</time>
      </trkpt>
      <trkpt lat="43.10302" lon="5.87432">
        <ele>4.5546875</ele>
        <time>2021-11-14T08:17:09Z</time>
      </trkpt>
      <trkpt lat="43.10269" lon="5.87414">
        <ele>5</ele>
        <time>2021-11-14T08:17:19Z</time>
      </trkpt>
      <trkpt lat="43.10241" lon="5.874">
        <ele>5.5625</ele>
        <time>2021-11-14T08:17:26Z</time>
      </trkpt>
      <trkpt lat="43.10237" lon="5.87398">
        <ele>5.74609375</ele>
        <time>2021-11-14T08:17:27Z</time>
      </trkpt>
      <trkpt lat="43.10171" lon="5.87359">
        <ele>7.3515625</ele>
        <time>2021-11-14T08:17:43Z</time>
      </trkpt>
      <trkpt lat="43.10159" lon="5.87351">
        <ele>8.0625</ele>
        <time>2021-11-14T08:17:46Z</time>
      </trkpt>
      <trkpt lat="43.10156" lon="5.87347">
        <ele>8.37890625</ele>
        <time>2021-11-14T08:17:47Z</time>
      </trkpt>
      <trkpt lat="43.10154" lon="5.87341">
        <ele>8.703125</ele>
        <time>2021-11-14T08:17:48Z</time>
      </trkpt>
      <trkpt lat="43.10153" lon="5.87334">
        <ele>8.92578125</ele>
        <time>2021-11-14T08:17:49Z</time>
      </trkpt>
      <trkpt lat="43.10152" lon="5.87328">
        <ele>8.98046875</ele>
        <time>2021-11-14T08:17:50Z</time>
      </trkpt>
      <trkpt lat="43.10151" lon="5.87322">
        <ele>9.01171875</ele>
        <time>2021-11-14T08:17:51Z</time>
      </trkpt>
      <trkpt lat="43.10147" lon="5.87298">
        <ele>9.16015625</ele>
        <time>2021-11-14T08:17:55Z</time>
      </trkpt>
      <trkpt lat="43.10116" lon="5.8722">
        <ele>10.1171875</ele>
        <time>2021-11-14T08:18:09Z</time>
      </trkpt>
      <trkpt lat="43.10113" lon="5.87215">
        <ele>10.40625</ele>
        <time>2021-11-14T08:18:10Z</time>
      </trkpt>
      <trkpt lat="43.1008" lon="5.87139">
        <ele>13.22265625</ele>
        <time>2021-11-14T08:18:26Z</time>
      </trkpt>
      <trkpt lat="43.10073" lon="5.87116">
        <ele>13.828125</ele>
        <time>2021-11-14T08:18:39Z</time>
      </trkpt>
      <trkpt lat="43.10072" lon="5.87115">
        <ele>13.85546875</ele>
        <time>2021-11-14T08:18:42Z</time>
      </trkpt>
      <trkpt lat="43.10072" lon="5.87113">
        <ele>13.87890625</ele>
        <time>2021-11-14T08:18:43Z</time>
      </trkpt>
      <trkpt lat="43.10071" lon="5.87111">
        <ele>13.91015625</ele>
        <time>2021-11-14T08:18:44Z</time>
      </trkpt>
      <trkpt lat="43.1007" lon="5.87108">
        <ele>13.9453125</ele>
        <time>2021-11-14T08:18:45Z</time>
      </trkpt>
      <trkpt lat="43.10069" lon="5.87105">
        <ele>13.98046875</ele>
        <time>2021-11-14T08:18:46Z</time>
      </trkpt>
      <trkpt lat="43.10068" lon="5.87102">
        <ele>14.078125</ele>
        <time>2021-11-14T08:18:47Z</time>
      </trkpt>
      <trkpt lat="43.10065" lon="5.871">
        <ele>14.28125</ele>
        <time>2021-11-14T08:18:48Z</time>
      </trkpt>
      <trkpt lat="43.10063" lon="5.87097">
        <ele>14.5</ele>
        <time>2021-11-14T08:18:49Z</time>
      </trkpt>
      <trkpt lat="43.10025" lon="5.87067">
        <ele>16.0078125</ele>
        <time>2021-11-14T08:19:01Z</time>
      </trkpt>
      <trkpt lat="43.0997" lon="5.87055">
        <ele>17.96875</ele>
        <time>2021-11-14T08:19:14Z</time>
      </trkpt>
      <trkpt lat="43.0992" lon="5.87054">
        <ele>19.2421875</ele>
        <time>2021-11-14T08:19:25Z</time>
      </trkpt>
      <trkpt lat="43.09916" lon="5.87052">
        <ele>18.921875</ele>
        <time>2021-11-14T08:19:26Z</time>
      </trkpt>
      <trkpt lat="43.09912" lon="5.8705">
        <ele>18.5078125</ele>
        <time>2021-11-14T08:19:27Z</time>
      </trkpt>
      <trkpt lat="43.09841" lon="5.87">
        <ele>18.02734375</ele>
        <time>2021-11-14T08:19:45Z</time>
      </trkpt>
      <trkpt lat="43.09806" lon="5.86982">
        <ele>17.78125</ele>
        <time>2021-11-14T08:19:54Z</time>
      </trkpt>
      <trkpt lat="43.09802" lon="5.8698">
        <ele>17.83203125</ele>
        <time>2021-11-14T08:19:55Z</time>
      </trkpt>
      <trkpt lat="43.09785" lon="5.86973">
        <ele>18.2109375</ele>
        <time>2021-11-14T08:19:59Z</time>
      </trkpt>
      <trkpt lat="43.09781" lon="5.86972">
        <ele>18.3671875</ele>
        <time>2021-11-14T08:20:00Z</time>
      </trkpt>
      <trkpt lat="43.09773" lon="5.86969">
        <ele>18.6484375</ele>
        <time>2021-11-14T08:20:02Z</time>
      </trkpt>
      <trkpt lat="43.09769" lon="5.86966">
        <ele>18.77734375</ele>
        <time>2021-11-14T08:20:03Z</time>
      </trkpt>
      <trkpt lat="43.09766" lon="5.86963">
        <ele>18.8984375</ele>
        <time>2021-11-14T08:20:04Z</time>
      </trkpt>
      <trkpt lat="43.09763" lon="5.8696">
        <ele>19.01171875</ele>
        <time>2021-11-14T08:20:05Z</time>
      </trkpt>
      <trkpt lat="43.0976" lon="5.86956">
        <ele>19.125</ele>
        <time>2021-11-14T08:20:06Z</time>
      </trkpt>
      <trkpt lat="43.0974" lon="5.86934">
        <ele>19.9140625</ele>
        <time>2021-11-14T08:20:12Z</time>
      </trkpt>
      <trkpt lat="43.09737" lon="5.8693">
        <ele>19.98046875</ele>
        <time>2021-11-14T08:20:13Z</time>
      </trkpt>
      <trkpt lat="43.09734" lon="5.86927">
        <ele>20.01171875</ele>
        <time>2021-11-14T08:20:14Z</time>
      </trkpt>
      <trkpt lat="43.0972" lon="5.86913">
        <ele>20.12109375</ele>
        <time>2021-11-14T08:20:18Z</time>
      </trkpt>
      <trkpt lat="43.09709" lon="5.86904">
        <ele>20.03125</ele>
        <time>2021-11-14T08:20:21Z</time>
      </trkpt>
      <trkpt lat="43.09706" lon="5.86899">
        <ele>20</ele>
        <time>2021-11-14T08:20:22Z</time>
      </trkpt>
      <trkpt lat="43.09703" lon="5.86895">
        <ele>20</ele>
        <time>2021-11-14T08:20:23Z</time>
      </trkpt>
      <trkpt lat="43.097" lon="5.8689">
        <ele>20.1015625</ele>
        <time>2021-11-14T08:20:24Z</time>
      </trkpt>
      <trkpt lat="43.09698" lon="5.86884">
        <ele>20.30859375</ele>
        <time>2021-11-14T08:20:25Z</time>
      </trkpt>
      <trkpt lat="43.09696" lon="5.86878">
        <ele>20.515625</ele>
        <time>2021-11-14T08:20:26Z</time>
      </trkpt>
      <trkpt lat="43.09692" lon="5.86867">
        <ele>20.8984375</ele>
        <time>2021-11-14T08:20:28Z</time>
      </trkpt>
      <trkpt lat="43.09677" lon="5.86806">
        <ele>22.08984375</ele>
        <time>2021-11-14T08:20:40Z</time>
      </trkpt>
      <trkpt lat="43.09674" lon="5.86785">
        <ele>22.68359375</ele>
        <time>2021-11-14T08:20:44Z</time>
      </trkpt>
      <trkpt lat="43.09672" lon="5.8678">
        <ele>22.7734375</ele>
        <time>2021-11-14T08:20:45Z</time>
      </trkpt>
      <trkpt lat="43.09669" lon="5.86775">
        <ele>22.87109375</ele>
        <time>2021-11-14T08:20:46Z</time>
      </trkpt>
      <trkpt lat="43.09667" lon="5.8677">
        <ele>22.96484375</ele>
        <time>2021-11-14T08:20:47Z</time>
      </trkpt>
      <trkpt lat="43.09665" lon="5.86765">
        <ele>23.05859375</ele>
        <time>2021-11-14T08:20:48Z</time>
      </trkpt>
      <trkpt lat="43.09662" lon="5.8676">
        <ele>23.125</ele>
        <time>2021-11-14T08:20:49Z</time>
      </trkpt>
      <trkpt lat="43.09659" lon="5.86755">
        <ele>23.203125</ele>
        <time>2021-11-14T08:20:50Z</time>
      </trkpt>
      <trkpt lat="43.09657" lon="5.8675">
        <ele>23.3359375</ele>
        <time>2021-11-14T08:20:51Z</time>
      </trkpt>
      <trkpt lat="43.09655" lon="5.86745">
        <ele>23.44140625</ele>
        <time>2021-11-14T08:20:52Z</time>
      </trkpt>
      <trkpt lat="43.09652" lon="5.8674">
        <ele>23.5078125</ele>
        <time>2021-11-14T08:20:53Z</time>
      </trkpt>
      <trkpt lat="43.09628" lon="5.86679">
        <ele>27.0546875</ele>
        <time>2021-11-14T08:21:06Z</time>
      </trkpt>
      <trkpt lat="43.09626" lon="5.86674">
        <ele>27.0625</ele>
        <time>2021-11-14T08:21:07Z</time>
      </trkpt>
      <trkpt lat="43.09623" lon="5.8667">
        <ele>27.12109375</ele>
        <time>2021-11-14T08:21:08Z</time>
      </trkpt>
      <trkpt lat="43.0961" lon="5.86647">
        <ele>27.68359375</ele>
        <time>2021-11-14T08:21:13Z</time>
      </trkpt>
      <trkpt lat="43.09608" lon="5.86642">
        <ele>27.59765625</ele>
        <time>2021-11-14T08:21:14Z</time>
      </trkpt>
      <trkpt lat="43.09585" lon="5.86601">
        <ele>29.70703125</ele>
        <time>2021-11-14T08:21:23Z</time>
      </trkpt>
      <trkpt lat="43.09582" lon="5.86597">
        <ele>30.015625</ele>
        <time>2021-11-14T08:21:24Z</time>
      </trkpt>
      <trkpt lat="43.09579" lon="5.86593">
        <ele>30.296875</ele>
        <time>2021-11-14T08:21:25Z</time>
      </trkpt>
      <trkpt lat="43.09566" lon="5.86577">
        <ele>30.8671875</ele>
        <time>2021-11-14T08:21:29Z</time>
      </trkpt>
      <trkpt lat="43.09563" lon="5.86573">
        <ele>31.0078125</ele>
        <time>2021-11-14T08:21:30Z</time>
      </trkpt>
      <trkpt lat="43.09554" lon="5.8656">
        <ele>31.11328125</ele>
        <time>2021-11-14T08:21:33Z</time>
      </trkpt>
      <trkpt lat="43.09551" lon="5.86555">
        <ele>31.26171875</ele>
        <time>2021-11-14T08:21:34Z</time>
      </trkpt>
      <trkpt lat="43.09534" lon="5.8653">
        <ele>32.00390625</ele>
        <time>2021-11-14T08:21:40Z</time>
      </trkpt>
      <trkpt lat="43.09532" lon="5.86525">
        <ele>32.33203125</ele>
        <time>2021-11-14T08:21:41Z</time>
      </trkpt>
      <trkpt lat="43.09511" lon="5.86481">
        <ele>33.234375</ele>
        <time>2021-11-14T08:21:51Z</time>
      </trkpt>
      <trkpt lat="43.09446" lon="5.86414">
        <ele>35.8671875</ele>
        <time>2021-11-14T08:22:09Z</time>
      </trkpt>
      <trkpt lat="43.09418" lon="5.86392">
        <ele>37.8203125</ele>
        <time>2021-11-14T08:22:16Z</time>
      </trkpt>
      <trkpt lat="43.09414" lon="5.86391">
        <ele>38.12890625</ele>
        <time>2021-11-14T08:22:17Z</time>
      </trkpt>
      <trkpt lat="43.0941" lon="5.86391">
        <ele>38.43359375</ele>
        <time>2021-11-14T08:22:18Z</time>
      </trkpt>
      <trkpt lat="43.09406" lon="5.86393">
        <ele>38.703125</ele>
        <time>2021-11-14T08:22:19Z</time>
      </trkpt>
      <trkpt lat="43.09403" lon="5.86394">
        <ele>38.9375</ele>
        <time>2021-11-14T08:22:20Z</time>
      </trkpt>
      <trkpt lat="43.094" lon="5.86396">
        <ele>39.21875</ele>
        <time>2021-11-14T08:22:21Z</time>
      </trkpt>
      <trkpt lat="43.09382" lon="5.86405">
        <ele>41.45703125</ele>
        <time>2021-11-14T08:22:28Z</time>
      </trkpt>
      <trkpt lat="43.09371" lon="5.8641">
        <ele>43.05078125</ele>
        <time>2021-11-14T08:22:32Z</time>
      </trkpt>
      <trkpt lat="43.09365" lon="5.86413">
        <ele>44.01953125</ele>
        <time>2021-11-14T08:22:34Z</time>
      </trkpt>
      <trkpt lat="43.09351" lon="5.86422">
        <ele>46.33203125</ele>
        <time>2021-11-14T08:22:39Z</time>
      </trkpt>
      <trkpt lat="43.09342" lon="5.86426">
        <ele>47.44140625</ele>
        <time>2021-11-14T08:22:42Z</time>
      </trkpt>
      <trkpt lat="43.09334" lon="5.86427">
        <ele>48.33203125</ele>
        <time>2021-11-14T08:22:45Z</time>
      </trkpt>
      <trkpt lat="43.09308" lon="5.86425">
        <ele>50.78125</ele>
        <time>2021-11-14T08:22:54Z</time>
      </trkpt>
      <trkpt lat="43.09267" lon="5.86428">
        <ele>53.6953125</ele>
        <time>2021-11-14T08:23:07Z</time>
      </trkpt>
      <trkpt lat="43.09266" lon="5.86426">
        <ele>53.8359375</ele>
        <time>2021-11-14T08:23:08Z</time>
      </trkpt>
      <trkpt lat="43.09263" lon="5.86423">
        <ele>53.99609375</ele>
        <time>2021-11-14T08:23:09Z</time>
      </trkpt>
      <trkpt lat="43.09261" lon="5.86419">
        <ele>54.15625</ele>
        <time>2021-11-14T08:23:10Z</time>
      </trkpt>
      <trkpt lat="43.09259" lon="5.86415">
        <ele>54.3671875</ele>
        <time>2021-11-14T08:23:11Z</time>
      </trkpt>
      <trkpt lat="43.09256" lon="5.8641">
        <ele>54.62109375</ele>
        <time>2021-11-14T08:23:12Z</time>
      </trkpt>
      <trkpt lat="43.09223" lon="5.86372">
        <ele>58.6796875</ele>
        <time>2021-11-14T08:23:24Z</time>
      </trkpt>
      <trkpt lat="43.0922" lon="5.8637">
        <ele>58.91796875</ele>
        <time>2021-11-14T08:23:25Z</time>
      </trkpt>
      <trkpt lat="43.09217" lon="5.86371">
        <ele>59.08984375</ele>
        <time>2021-11-14T08:23:26Z</time>
      </trkpt>
      <trkpt lat="43.09215" lon="5.86373">
        <ele>59.21484375</ele>
        <time>2021-11-14T08:23:27Z</time>
      </trkpt>
      <trkpt lat="43.09212" lon="5.86377">
        <ele>59.26171875</ele>
        <time>2021-11-14T08:23:28Z</time>
      </trkpt>
      <trkpt lat="43.0921" lon="5.86381">
        <ele>59.21875</ele>
        <time>2021-11-14T08:23:29Z</time>
      </trkpt>
      <trkpt lat="43.09209" lon="5.86386">
        <ele>59.1796875</ele>
        <time>2021-11-14T08:23:30Z</time>
      </trkpt>
      <trkpt lat="43.09206" lon="5.86391">
        <ele>59.12109375</ele>
        <time>2021-11-14T08:23:31Z</time>
      </trkpt>
      <trkpt lat="43.09204" lon="5.86396">
        <ele>58.95703125</ele>
        <time>2021-11-14T08:23:32Z</time>
      </trkpt>
      <trkpt lat="43.092" lon="5.864">
        <ele>58.80859375</ele>
        <time>2021-11-14T08:23:33Z</time>
      </trkpt>
      <trkpt lat="43.09197" lon="5.86405">
        <ele>58.6953125</ele>
        <time>2021-11-14T08:23:34Z</time>
      </trkpt>
      <trkpt lat="43.09141" lon="5.86471">
        <ele>59.49609375</ele>
        <time>2021-11-14T08:23:50Z</time>
      </trkpt>
      <trkpt lat="43.09135" lon="5.86477">
        <ele>59.796875</ele>
        <time>2021-11-14T08:23:52Z</time>
      </trkpt>
      <trkpt lat="43.09126" lon="5.86487">
        <ele>60.4140625</ele>
        <time>2021-11-14T08:23:55Z</time>
      </trkpt>
      <trkpt lat="43.09122" lon="5.86491">
        <ele>60.69921875</ele>
        <time>2021-11-14T08:23:56Z</time>
      </trkpt>
      <trkpt lat="43.09089" lon="5.86521">
        <ele>62.5390625</ele>
        <time>2021-11-14T08:24:07Z</time>
      </trkpt>
      <trkpt lat="43.09061" lon="5.86544">
        <ele>64.5859375</ele>
        <time>2021-11-14T08:24:17Z</time>
      </trkpt>
      <trkpt lat="43.09044" lon="5.8657">
        <ele>66.1796875</ele>
        <time>2021-11-14T08:24:25Z</time>
      </trkpt>
      <trkpt lat="43.09022" lon="5.86596">
        <ele>66.5859375</ele>
        <time>2021-11-14T08:24:33Z</time>
      </trkpt>
      <trkpt lat="43.09019" lon="5.86602">
        <ele>66.7578125</ele>
        <time>2021-11-14T08:24:34Z</time>
      </trkpt>
      <trkpt lat="43.09003" lon="5.86628">
        <ele>67.796875</ele>
        <time>2021-11-14T08:24:38Z</time>
      </trkpt>
      <trkpt lat="43.09" lon="5.86636">
        <ele>68.0546875</ele>
        <time>2021-11-14T08:24:39Z</time>
      </trkpt>
      <trkpt lat="43.08997" lon="5.86645">
        <ele>68.359375</ele>
        <time>2021-11-14T08:24:40Z</time>
      </trkpt>
      <trkpt lat="43.08993" lon="5.86662">
        <ele>69.16015625</ele>
        <time>2021-11-14T08:24:42Z</time>
      </trkpt>
      <trkpt lat="43.0899" lon="5.86679">
        <ele>69.8203125</ele>
        <time>2021-11-14T08:24:44Z</time>
      </trkpt>
      <trkpt lat="43.0899" lon="5.86687">
        <ele>70.1640625</ele>
        <time>2021-11-14T08:24:45Z</time>
      </trkpt>
      <trkpt lat="43.08991" lon="5.86747">
        <ele>70.5859375</ele>
        <time>2021-11-14T08:24:56Z</time>
      </trkpt>
      <trkpt lat="43.08995" lon="5.86777">
        <ele>69.23828125</ele>
        <time>2021-11-14T08:25:01Z</time>
      </trkpt>
      <trkpt lat="43.08994" lon="5.86784">
        <ele>68.921875</ele>
        <time>2021-11-14T08:25:02Z</time>
      </trkpt>
      <trkpt lat="43.08991" lon="5.86792">
        <ele>68.60546875</ele>
        <time>2021-11-14T08:25:03Z</time>
      </trkpt>
      <trkpt lat="43.08988" lon="5.868">
        <ele>68.3671875</ele>
        <time>2021-11-14T08:25:04Z</time>
      </trkpt>
      <trkpt lat="43.08985" lon="5.86807">
        <ele>68.1328125</ele>
        <time>2021-11-14T08:25:05Z</time>
      </trkpt>
      <trkpt lat="43.08975" lon="5.86829">
        <ele>67.24609375</ele>
        <time>2021-11-14T08:25:08Z</time>
      </trkpt>
      <trkpt lat="43.08971" lon="5.86834">
        <ele>67.2109375</ele>
        <time>2021-11-14T08:25:09Z</time>
      </trkpt>
      <trkpt lat="43.08967" lon="5.86838">
        <ele>67.2265625</ele>
        <time>2021-11-14T08:25:10Z</time>
      </trkpt>
      <trkpt lat="43.08962" lon="5.86841">
        <ele>67.234375</ele>
        <time>2021-11-14T08:25:11Z</time>
      </trkpt>
      <trkpt lat="43.08959" lon="5.86843">
        <ele>67.30859375</ele>
        <time>2021-11-14T08:25:12Z</time>
      </trkpt>
      <trkpt lat="43.08956" lon="5.86844">
        <ele>67.33984375</ele>
        <time>2021-11-14T08:25:13Z</time>
      </trkpt>
      <trkpt lat="43.08946" lon="5.86843">
        <ele>67.8515625</ele>
        <time>2021-11-14T08:25:17Z</time>
      </trkpt>
      <trkpt lat="43.08943" lon="5.86839">
        <ele>68.31640625</ele>
        <time>2021-11-14T08:25:18Z</time>
      </trkpt>
      <trkpt lat="43.08941" lon="5.86835">
        <ele>68.68359375</ele>
        <time>2021-11-14T08:25:19Z</time>
      </trkpt>
      <trkpt lat="43.0894" lon="5.8683">
        <ele>68.91015625</ele>
        <time>2021-11-14T08:25:20Z</time>
      </trkpt>
      <trkpt lat="43.08938" lon="5.86825">
        <ele>69.15234375</ele>
        <time>2021-11-14T08:25:21Z</time>
      </trkpt>
      <trkpt lat="43.0893" lon="5.86784">
        <ele>70.87109375</ele>
        <time>2021-11-14T08:25:27Z</time>
      </trkpt>
      <trkpt lat="43.08927" lon="5.86732">
        <ele>70.79296875</ele>
        <time>2021-11-14T08:25:33Z</time>
      </trkpt>
      <trkpt lat="43.0893" lon="5.86644">
        <ele>69.01953125</ele>
        <time>2021-11-14T08:25:42Z</time>
      </trkpt>
      <trkpt lat="43.08933" lon="5.86602">
        <ele>67.81640625</ele>
        <time>2021-11-14T08:25:46Z</time>
      </trkpt>
      <trkpt lat="43.08937" lon="5.8657">
        <ele>67.12109375</ele>
        <time>2021-11-14T08:25:49Z</time>
      </trkpt>
      <trkpt lat="43.08937" lon="5.86559">
        <ele>66.6796875</ele>
        <time>2021-11-14T08:25:50Z</time>
      </trkpt>
      <trkpt lat="43.08935" lon="5.86548">
        <ele>66.12109375</ele>
        <time>2021-11-14T08:25:51Z</time>
      </trkpt>
      <trkpt lat="43.08933" lon="5.86538">
        <ele>65.5</ele>
        <time>2021-11-14T08:25:52Z</time>
      </trkpt>
      <trkpt lat="43.0893" lon="5.86527">
        <ele>64.8515625</ele>
        <time>2021-11-14T08:25:53Z</time>
      </trkpt>
      <trkpt lat="43.08921" lon="5.86485">
        <ele>61.796875</ele>
        <time>2021-11-14T08:25:57Z</time>
      </trkpt>
      <trkpt lat="43.08917" lon="5.86477">
        <ele>61.05078125</ele>
        <time>2021-11-14T08:25:58Z</time>
      </trkpt>
      <trkpt lat="43.08911" lon="5.8647">
        <ele>60.37890625</ele>
        <time>2021-11-14T08:25:59Z</time>
      </trkpt>
      <trkpt lat="43.08891" lon="5.86452">
        <ele>58.26953125</ele>
        <time>2021-11-14T08:26:02Z</time>
      </trkpt>
      <trkpt lat="43.08885" lon="5.86445">
        <ele>57.66015625</ele>
        <time>2021-11-14T08:26:03Z</time>
      </trkpt>
      <trkpt lat="43.08881" lon="5.86437">
        <ele>57.0390625</ele>
        <time>2021-11-14T08:26:04Z</time>
      </trkpt>
      <trkpt lat="43.08877" lon="5.86428">
        <ele>56.44921875</ele>
        <time>2021-11-14T08:26:05Z</time>
      </trkpt>
      <trkpt lat="43.08874" lon="5.8642">
        <ele>55.9609375</ele>
        <time>2021-11-14T08:26:06Z</time>
      </trkpt>
      <trkpt lat="43.0887" lon="5.86411">
        <ele>55.84765625</ele>
        <time>2021-11-14T08:26:07Z</time>
      </trkpt>
      <trkpt lat="43.08854" lon="5.86363">
        <ele>55.234375</ele>
        <time>2021-11-14T08:26:13Z</time>
      </trkpt>
      <trkpt lat="43.08852" lon="5.86355">
        <ele>55.12109375</ele>
        <time>2021-11-14T08:26:14Z</time>
      </trkpt>
      <trkpt lat="43.08851" lon="5.86347">
        <ele>55.05078125</ele>
        <time>2021-11-14T08:26:15Z</time>
      </trkpt>
      <trkpt lat="43.0885" lon="5.8634">
        <ele>55.01171875</ele>
        <time>2021-11-14T08:26:16Z</time>
      </trkpt>
      <trkpt lat="43.0885" lon="5.86333">
        <ele>54.85546875</ele>
        <time>2021-11-14T08:26:17Z</time>
      </trkpt>
      <trkpt lat="43.0885" lon="5.86327">
        <ele>54.63671875</ele>
        <time>2021-11-14T08:26:18Z</time>
      </trkpt>
      <trkpt lat="43.08853" lon="5.8625">
        <ele>52.7890625</ele>
        <time>2021-11-14T08:26:30Z</time>
      </trkpt>
      <trkpt lat="43.08854" lon="5.86243">
        <ele>52.7578125</ele>
        <time>2021-11-14T08:26:31Z</time>
      </trkpt>
      <trkpt lat="43.08854" lon="5.86236">
        <ele>52.74609375</ele>
        <time>2021-11-14T08:26:32Z</time>
      </trkpt>
      <trkpt lat="43.08857" lon="5.86126">
        <ele>53.04296875</ele>
        <time>2021-11-14T08:26:47Z</time>
      </trkpt>
      <trkpt lat="43.08857" lon="5.86113">
        <ele>53.26953125</ele>
        <time>2021-11-14T08:26:49Z</time>
      </trkpt>
      <trkpt lat="43.08864" lon="5.8601">
        <ele>53.51171875</ele>
        <time>2021-11-14T08:27:06Z</time>
      </trkpt>
      <trkpt lat="43.08865" lon="5.85984">
        <ele>53.7109375</ele>
        <time>2021-11-14T08:27:10Z</time>
      </trkpt>
      <trkpt lat="43.08866" lon="5.85978">
        <ele>53.640625</ele>
        <time>2021-11-14T08:27:11Z</time>
      </trkpt>
      <trkpt lat="43.08867" lon="5.8597">
        <ele>53.578125</ele>
        <time>2021-11-14T08:27:12Z</time>
      </trkpt>
      <trkpt lat="43.08867" lon="5.85963">
        <ele>53.5546875</ele>
        <time>2021-11-14T08:27:13Z</time>
      </trkpt>
      <trkpt lat="43.08867" lon="5.85955">
        <ele>53.5390625</ele>
        <time>2021-11-14T08:27:14Z</time>
      </trkpt>
      <trkpt lat="43.08882" lon="5.85835">
        <ele>50.7109375</ele>
        <time>2021-11-14T08:27:29Z</time>
      </trkpt>
      <trkpt lat="43.08891" lon="5.85755">
        <ele>50.390625</ele>
        <time>2021-11-14T08:27:40Z</time>
      </trkpt>
      <trkpt lat="43.08891" lon="5.85748">
        <ele>50.42578125</ele>
        <time>2021-11-14T08:27:41Z</time>
      </trkpt>
      <trkpt lat="43.08889" lon="5.85742">
        <ele>50.47265625</ele>
        <time>2021-11-14T08:27:42Z</time>
      </trkpt>
      <trkpt lat="43.08887" lon="5.85735">
        <ele>50.54296875</ele>
        <time>2021-11-14T08:27:43Z</time>
      </trkpt>
      <trkpt lat="43.08885" lon="5.85729">
        <ele>50.6328125</ele>
        <time>2021-11-14T08:27:44Z</time>
      </trkpt>
      <trkpt lat="43.08882" lon="5.85723">
        <ele>50.73828125</ele>
        <time>2021-11-14T08:27:45Z</time>
      </trkpt>
      <trkpt lat="43.08878" lon="5.85716">
        <ele>50.8671875</ele>
        <time>2021-11-14T08:27:46Z</time>
      </trkpt>
      <trkpt lat="43.08874" lon="5.85709">
        <ele>50.984375</ele>
        <time>2021-11-14T08:27:47Z</time>
      </trkpt>
      <trkpt lat="43.08869" lon="5.85703">
        <ele>50.81640625</ele>
        <time>2021-11-14T08:27:48Z</time>
      </trkpt>
      <trkpt lat="43.08863" lon="5.85696">
        <ele>50.4765625</ele>
        <time>2021-11-14T08:27:49Z</time>
      </trkpt>
      <trkpt lat="43.08856" lon="5.8569">
        <ele>49.99609375</ele>
        <time>2021-11-14T08:27:50Z</time>
      </trkpt>
      <trkpt lat="43.08824" lon="5.85664">
        <ele>47.94921875</ele>
        <time>2021-11-14T08:27:54Z</time>
      </trkpt>
      <trkpt lat="43.08808" lon="5.8565">
        <ele>46.8671875</ele>
        <time>2021-11-14T08:27:56Z</time>
      </trkpt>
      <trkpt lat="43.08759" lon="5.85597">
        <ele>44</ele>
        <time>2021-11-14T08:28:03Z</time>
      </trkpt>
      <trkpt lat="43.08733" lon="5.85551">
        <ele>44</ele>
        <time>2021-11-14T08:28:11Z</time>
      </trkpt>
      <trkpt lat="43.08731" lon="5.85546">
        <ele>44</ele>
        <time>2021-11-14T08:28:12Z</time>
      </trkpt>
      <trkpt lat="43.08728" lon="5.85542">
        <ele>44</ele>
        <time>2021-11-14T08:28:13Z</time>
      </trkpt>
      <trkpt lat="43.08724" lon="5.85538">
        <ele>44</ele>
        <time>2021-11-14T08:28:14Z</time>
      </trkpt>
      <trkpt lat="43.0872" lon="5.85535">
        <ele>44</ele>
        <time>2021-11-14T08:28:15Z</time>
      </trkpt>
      <trkpt lat="43.08715" lon="5.85533">
        <ele>44</ele>
        <time>2021-11-14T08:28:16Z</time>
      </trkpt>
      <trkpt lat="43.0871" lon="5.85532">
        <ele>44</ele>
        <time>2021-11-14T08:28:17Z</time>
      </trkpt>
      <trkpt lat="43.08704" lon="5.85531">
        <ele>44</ele>
        <time>2021-11-14T08:28:18Z</time>
      </trkpt>
      <trkpt lat="43.08676" lon="5.85532">
        <ele>44</ele>
        <time>2021-11-14T08:28:23Z</time>
      </trkpt>
      <trkpt lat="43.08601" lon="5.85569">
        <ele>44</ele>
        <time>2021-11-14T08:28:38Z</time>
      </trkpt>
      <trkpt lat="43.08585" lon="5.85578">
        <ele>44</ele>
        <time>2021-11-14T08:28:41Z</time>
      </trkpt>
      <trkpt lat="43.08576" lon="5.85585">
        <ele>44</ele>
        <time>2021-11-14T08:28:43Z</time>
      </trkpt>
      <trkpt lat="43.08571" lon="5.85588">
        <ele>44.01171875</ele>
        <time>2021-11-14T08:28:44Z</time>
      </trkpt>
      <trkpt lat="43.08566" lon="5.8559">
        <ele>44.21484375</ele>
        <time>2021-11-14T08:28:45Z</time>
      </trkpt>
      <trkpt lat="43.08488" lon="5.85632">
        <ele>46.93359375</ele>
        <time>2021-11-14T08:29:00Z</time>
      </trkpt>
      <trkpt lat="43.08413" lon="5.85654">
        <ele>48.37109375</ele>
        <time>2021-11-14T08:29:14Z</time>
      </trkpt>
      <trkpt lat="43.08404" lon="5.85654">
        <ele>48.5703125</ele>
        <time>2021-11-14T08:29:16Z</time>
      </trkpt>
      <trkpt lat="43.08396" lon="5.85654">
        <ele>48.71875</ele>
        <time>2021-11-14T08:29:18Z</time>
      </trkpt>
      <trkpt lat="43.08387" lon="5.85654">
        <ele>48.84375</ele>
        <time>2021-11-14T08:29:20Z</time>
      </trkpt>
      <trkpt lat="43.08382" lon="5.85653">
        <ele>48.91796875</ele>
        <time>2021-11-14T08:29:21Z</time>
      </trkpt>
      <trkpt lat="43.08377" lon="5.85652">
        <ele>48.98046875</ele>
        <time>2021-11-14T08:29:22Z</time>
      </trkpt>
      <trkpt lat="43.08371" lon="5.85653">
        <ele>49</ele>
        <time>2021-11-14T08:29:23Z</time>
      </trkpt>
      <trkpt lat="43.08366" lon="5.85653">
        <ele>49</ele>
        <time>2021-11-14T08:29:24Z</time>
      </trkpt>
      <trkpt lat="43.08361" lon="5.85655">
        <ele>49</ele>
        <time>2021-11-14T08:29:25Z</time>
      </trkpt>
      <trkpt lat="43.08321" lon="5.85662">
        <ele>49.94921875</ele>
        <time>2021-11-14T08:29:32Z</time>
      </trkpt>
      <trkpt lat="43.08315" lon="5.85665">
        <ele>50.15234375</ele>
        <time>2021-11-14T08:29:33Z</time>
      </trkpt>
      <trkpt lat="43.08261" lon="5.85697">
        <ele>51.12109375</ele>
        <time>2021-11-14T08:29:43Z</time>
      </trkpt>
      <trkpt lat="43.08204" lon="5.85768">
        <ele>52.16796875</ele>
        <time>2021-11-14T08:29:57Z</time>
      </trkpt>
      <trkpt lat="43.08133" lon="5.85851">
        <ele>53</ele>
        <time>2021-11-14T08:30:13Z</time>
      </trkpt>
      <trkpt lat="43.08108" lon="5.85873">
        <ele>53</ele>
        <time>2021-11-14T08:30:18Z</time>
      </trkpt>
      <trkpt lat="43.08102" lon="5.85876">
        <ele>53</ele>
        <time>2021-11-14T08:30:19Z</time>
      </trkpt>
      <trkpt lat="43.08096" lon="5.85877">
        <ele>53</ele>
        <time>2021-11-14T08:30:20Z</time>
      </trkpt>
      <trkpt lat="43.0809" lon="5.85878">
        <ele>53</ele>
        <time>2021-11-14T08:30:21Z</time>
      </trkpt>
      <trkpt lat="43.08084" lon="5.85878">
        <ele>53</ele>
        <time>2021-11-14T08:30:22Z</time>
      </trkpt>
      <trkpt lat="43.08046" lon="5.85881">
        <ele>52.51953125</ele>
        <time>2021-11-14T08:30:32Z</time>
      </trkpt>
      <trkpt lat="43.08028" lon="5.85884">
        <ele>52.1640625</ele>
        <time>2021-11-14T08:30:36Z</time>
      </trkpt>
      <trkpt lat="43.0799" lon="5.85892">
        <ele>51.16796875</ele>
        <time>2021-11-14T08:30:43Z</time>
      </trkpt>
      <trkpt lat="43.07898" lon="5.8592">
        <ele>55.203125</ele>
        <time>2021-11-14T08:30:59Z</time>
      </trkpt>
      <trkpt lat="43.07802" lon="5.85922">
        <ele>57.60546875</ele>
        <time>2021-11-14T08:31:16Z</time>
      </trkpt>
      <trkpt lat="43.07713" lon="5.85921">
        <ele>59.83984375</ele>
        <time>2021-11-14T08:31:31Z</time>
      </trkpt>
      <trkpt lat="43.07666" lon="5.85905">
        <ele>62.5234375</ele>
        <time>2021-11-14T08:31:40Z</time>
      </trkpt>
      <trkpt lat="43.07613" lon="5.85874">
        <ele>65.125</ele>
        <time>2021-11-14T08:31:51Z</time>
      </trkpt>
      <trkpt lat="43.07546" lon="5.85835">
        <ele>68.07421875</ele>
        <time>2021-11-14T08:32:05Z</time>
      </trkpt>
      <trkpt lat="43.07532" lon="5.85827">
        <ele>68.515625</ele>
        <time>2021-11-14T08:32:08Z</time>
      </trkpt>
      <trkpt lat="43.07528" lon="5.85823">
        <ele>68.7890625</ele>
        <time>2021-11-14T08:32:09Z</time>
      </trkpt>
      <trkpt lat="43.07524" lon="5.85819">
        <ele>69.109375</ele>
        <time>2021-11-14T08:32:10Z</time>
      </trkpt>
      <trkpt lat="43.07519" lon="5.85815">
        <ele>69.46484375</ele>
        <time>2021-11-14T08:32:11Z</time>
      </trkpt>
      <trkpt lat="43.07514" lon="5.85812">
        <ele>69.8359375</ele>
        <time>2021-11-14T08:32:12Z</time>
      </trkpt>
      <trkpt lat="43.0751" lon="5.85809">
        <ele>70</ele>
        <time>2021-11-14T08:32:13Z</time>
      </trkpt>
      <trkpt lat="43.0749" lon="5.85796">
        <ele>70</ele>
        <time>2021-11-14T08:32:17Z</time>
      </trkpt>
      <trkpt lat="43.07486" lon="5.85792">
        <ele>69.98828125</ele>
        <time>2021-11-14T08:32:18Z</time>
      </trkpt>
      <trkpt lat="43.07447" lon="5.85755">
        <ele>70.52734375</ele>
        <time>2021-11-14T08:32:27Z</time>
      </trkpt>
      <trkpt lat="43.07441" lon="5.85753">
        <ele>70.40234375</ele>
        <time>2021-11-14T08:32:28Z</time>
      </trkpt>
      <trkpt lat="43.07348" lon="5.85721">
        <ele>67.18359375</ele>
        <time>2021-11-14T08:32:44Z</time>
      </trkpt>
      <trkpt lat="43.07319" lon="5.85713">
        <ele>67</ele>
        <time>2021-11-14T08:32:49Z</time>
      </trkpt>
      <trkpt lat="43.07314" lon="5.8571">
        <ele>67</ele>
        <time>2021-11-14T08:32:50Z</time>
      </trkpt>
      <trkpt lat="43.07309" lon="5.85705">
        <ele>67</ele>
        <time>2021-11-14T08:32:51Z</time>
      </trkpt>
      <trkpt lat="43.07304" lon="5.857">
        <ele>67</ele>
        <time>2021-11-14T08:32:52Z</time>
      </trkpt>
      <trkpt lat="43.073" lon="5.85694">
        <ele>67.1640625</ele>
        <time>2021-11-14T08:32:53Z</time>
      </trkpt>
      <trkpt lat="43.07296" lon="5.85688">
        <ele>67.3828125</ele>
        <time>2021-11-14T08:32:54Z</time>
      </trkpt>
      <trkpt lat="43.07285" lon="5.85671">
        <ele>68.26171875</ele>
        <time>2021-11-14T08:32:57Z</time>
      </trkpt>
      <trkpt lat="43.0726" lon="5.8562">
        <ele>70.03515625</ele>
        <time>2021-11-14T08:33:06Z</time>
      </trkpt>
      <trkpt lat="43.07231" lon="5.85555">
        <ele>70.609375</ele>
        <time>2021-11-14T08:33:18Z</time>
      </trkpt>
      <trkpt lat="43.07217" lon="5.85513">
        <ele>71.61328125</ele>
        <time>2021-11-14T08:33:31Z</time>
      </trkpt>
      <trkpt lat="43.07205" lon="5.85477">
        <ele>72.26953125</ele>
        <time>2021-11-14T08:33:41Z</time>
      </trkpt>
      <trkpt lat="43.07203" lon="5.85472">
        <ele>72.57421875</ele>
        <time>2021-11-14T08:33:42Z</time>
      </trkpt>
      <trkpt lat="43.07196" lon="5.85461">
        <ele>73.25</ele>
        <time>2021-11-14T08:33:44Z</time>
      </trkpt>
      <trkpt lat="43.07194" lon="5.85455">
        <ele>73.4453125</ele>
        <time>2021-11-14T08:33:45Z</time>
      </trkpt>
      <trkpt lat="43.07194" lon="5.85448">
        <ele>73.55859375</ele>
        <time>2021-11-14T08:33:46Z</time>
      </trkpt>
      <trkpt lat="43.07194" lon="5.8541">
        <ele>74.40625</ele>
        <time>2021-11-14T08:33:55Z</time>
      </trkpt>
      <trkpt lat="43.07199" lon="5.85398">
        <ele>74.828125</ele>
        <time>2021-11-14T08:33:58Z</time>
      </trkpt>
      <trkpt lat="43.0719" lon="5.8539">
        <ele>75.16015625</ele>
        <time>2021-11-14T08:34:06Z</time>
      </trkpt>
      <trkpt lat="43.07192" lon="5.85373">
        <ele>76.0234375</ele>
        <time>2021-11-14T08:34:12Z</time>
      </trkpt>
      <trkpt lat="43.07184" lon="5.85359">
        <ele>76.35546875</ele>
        <time>2021-11-14T08:34:17Z</time>
      </trkpt>
      <trkpt lat="43.0716" lon="5.85327">
        <ele>77.48828125</ele>
        <time>2021-11-14T08:34:29Z</time>
      </trkpt>
      <trkpt lat="43.0715" lon="5.85325">
        <ele>77.46875</ele>
        <time>2021-11-14T08:34:33Z</time>
      </trkpt>
      <trkpt lat="43.07149" lon="5.85322">
        <ele>77.5546875</ele>
        <time>2021-11-14T08:34:34Z</time>
      </trkpt>
      <trkpt lat="43.07148" lon="5.85319">
        <ele>77.66015625</ele>
        <time>2021-11-14T08:34:35Z</time>
      </trkpt>
      <trkpt lat="43.07147" lon="5.85316">
        <ele>77.77734375</ele>
        <time>2021-11-14T08:34:36Z</time>
      </trkpt>
      <trkpt lat="43.07146" lon="5.85313">
        <ele>77.8984375</ele>
        <time>2021-11-14T08:34:37Z</time>
      </trkpt>
      <trkpt lat="43.07146" lon="5.8531">
        <ele>78</ele>
        <time>2021-11-14T08:34:38Z</time>
      </trkpt>
      <trkpt lat="43.07145" lon="5.85307">
        <ele>78.19140625</ele>
        <time>2021-11-14T08:34:39Z</time>
      </trkpt>
      <trkpt lat="43.07145" lon="5.85275">
        <ele>80.43359375</ele>
        <time>2021-11-14T08:34:49Z</time>
      </trkpt>
      <trkpt lat="43.0715" lon="5.85251">
        <ele>82.0078125</ele>
        <time>2021-11-14T08:34:57Z</time>
      </trkpt>
      <trkpt lat="43.07163" lon="5.85212">
        <ele>84.953125</ele>
        <time>2021-11-14T08:35:10Z</time>
      </trkpt>
      <trkpt lat="43.07163" lon="5.85172">
        <ele>88.95703125</ele>
        <time>2021-11-14T08:35:22Z</time>
      </trkpt>
      <trkpt lat="43.07162" lon="5.8513">
        <ele>91.64453125</ele>
        <time>2021-11-14T08:35:34Z</time>
      </trkpt>
      <trkpt lat="43.07166" lon="5.85071">
        <ele>94.51171875</ele>
        <time>2021-11-14T08:35:49Z</time>
      </trkpt>
      <trkpt lat="43.07169" lon="5.85019">
        <ele>95.8046875</ele>
        <time>2021-11-14T08:36:01Z</time>
      </trkpt>
      <trkpt lat="43.07175" lon="5.84974">
        <ele>95.8828125</ele>
        <time>2021-11-14T08:36:12Z</time>
      </trkpt>
      <trkpt lat="43.07181" lon="5.84954">
        <ele>97.0546875</ele>
        <time>2021-11-14T08:36:19Z</time>
      </trkpt>
      <trkpt lat="43.07184" lon="5.84917">
        <ele>96.31640625</ele>
        <time>2021-11-14T08:36:30Z</time>
      </trkpt>
      <trkpt lat="43.07183" lon="5.84914">
        <ele>96.203125</ele>
        <time>2021-11-14T08:36:31Z</time>
      </trkpt>
      <trkpt lat="43.07182" lon="5.84911">
        <ele>96.078125</ele>
        <time>2021-11-14T08:36:32Z</time>
      </trkpt>
      <trkpt lat="43.07181" lon="5.84908">
        <ele>95.96484375</ele>
        <time>2021-11-14T08:36:33Z</time>
      </trkpt>
      <trkpt lat="43.0718" lon="5.84906">
        <ele>95.87109375</ele>
        <time>2021-11-14T08:36:34Z</time>
      </trkpt>
      <trkpt lat="43.0718" lon="5.84903">
        <ele>95.81640625</ele>
        <time>2021-11-14T08:36:35Z</time>
      </trkpt>
      <trkpt lat="43.07179" lon="5.849">
        <ele>95.71484375</ele>
        <time>2021-11-14T08:36:36Z</time>
      </trkpt>
      <trkpt lat="43.07179" lon="5.84897">
        <ele>95.609375</ele>
        <time>2021-11-14T08:36:37Z</time>
      </trkpt>
      <trkpt lat="43.07169" lon="5.84863">
        <ele>96.875</ele>
        <time>2021-11-14T08:36:47Z</time>
      </trkpt>
      <trkpt lat="43.07167" lon="5.84822">
        <ele>99.91796875</ele>
        <time>2021-11-14T08:36:58Z</time>
      </trkpt>
      <trkpt lat="43.07153" lon="5.84774">
        <ele>101.796875</ele>
        <time>2021-11-14T08:37:10Z</time>
      </trkpt>
      <trkpt lat="43.07143" lon="5.84756">
        <ele>102.33203125</ele>
        <time>2021-11-14T08:37:15Z</time>
      </trkpt>
      <trkpt lat="43.07144" lon="5.84753">
        <ele>102.7109375</ele>
        <time>2021-11-14T08:37:16Z</time>
      </trkpt>
      <trkpt lat="43.07146" lon="5.84751">
        <ele>103.109375</ele>
        <time>2021-11-14T08:37:17Z</time>
      </trkpt>
      <trkpt lat="43.07148" lon="5.84751">
        <ele>103.40625</ele>
        <time>2021-11-14T08:37:18Z</time>
      </trkpt>
      <trkpt lat="43.0715" lon="5.84752">
        <ele>103.640625</ele>
        <time>2021-11-14T08:37:19Z</time>
      </trkpt>
      <trkpt lat="43.07153" lon="5.84754">
        <ele>103.90234375</ele>
        <time>2021-11-14T08:37:20Z</time>
      </trkpt>
      <trkpt lat="43.07155" lon="5.84756">
        <ele>104.08984375</ele>
        <time>2021-11-14T08:37:21Z</time>
      </trkpt>
      <trkpt lat="43.07158" lon="5.84757">
        <ele>104.34765625</ele>
        <time>2021-11-14T08:37:22Z</time>
      </trkpt>
      <trkpt lat="43.0716" lon="5.84758">
        <ele>104.72265625</ele>
        <time>2021-11-14T08:37:23Z</time>
      </trkpt>
      <trkpt lat="43.07164" lon="5.84758">
        <ele>105.1640625</ele>
        <time>2021-11-14T08:37:24Z</time>
      </trkpt>
      <trkpt lat="43.07188" lon="5.84777">
        <ele>107.1953125</ele>
        <time>2021-11-14T08:37:34Z</time>
      </trkpt>
      <trkpt lat="43.07188" lon="5.84779">
        <ele>106.97265625</ele>
        <time>2021-11-14T08:37:35Z</time>
      </trkpt>
      <trkpt lat="43.07187" lon="5.84782">
        <ele>106.66015625</ele>
        <time>2021-11-14T08:37:36Z</time>
      </trkpt>
      <trkpt lat="43.07185" lon="5.84785">
        <ele>106.22265625</ele>
        <time>2021-11-14T08:37:37Z</time>
      </trkpt>
      <trkpt lat="43.07184" lon="5.84788">
        <ele>105.734375</ele>
        <time>2021-11-14T08:37:38Z</time>
      </trkpt>
      <trkpt lat="43.07183" lon="5.84791">
        <ele>105.25</ele>
        <time>2021-11-14T08:37:39Z</time>
      </trkpt>
      <trkpt lat="43.07182" lon="5.84795">
        <ele>104.77734375</ele>
        <time>2021-11-14T08:37:40Z</time>
      </trkpt>
      <trkpt lat="43.07182" lon="5.84799">
        <ele>104.35546875</ele>
        <time>2021-11-14T08:37:41Z</time>
      </trkpt>
      <trkpt lat="43.07182" lon="5.84802">
        <ele>104</ele>
        <time>2021-11-14T08:37:42Z</time>
      </trkpt>
      <trkpt lat="43.07183" lon="5.84806">
        <ele>103.69140625</ele>
        <time>2021-11-14T08:37:43Z</time>
      </trkpt>
      <trkpt lat="43.07184" lon="5.84809">
        <ele>103.4375</ele>
        <time>2021-11-14T08:37:44Z</time>
      </trkpt>
      <trkpt lat="43.07186" lon="5.84813">
        <ele>103.16796875</ele>
        <time>2021-11-14T08:37:45Z</time>
      </trkpt>
      <trkpt lat="43.07187" lon="5.84818">
        <ele>102.84765625</ele>
        <time>2021-11-14T08:37:46Z</time>
      </trkpt>
      <trkpt lat="43.07216" lon="5.84852">
        <ele>102.1484375</ele>
        <time>2021-11-14T08:37:57Z</time>
      </trkpt>
      <trkpt lat="43.07256" lon="5.84863">
        <ele>105.33984375</ele>
        <time>2021-11-14T08:38:08Z</time>
      </trkpt>
      <trkpt lat="43.07289" lon="5.84872">
        <ele>108.63671875</ele>
        <time>2021-11-14T08:38:18Z</time>
      </trkpt>
      <trkpt lat="43.07305" lon="5.84881">
        <ele>109.65234375</ele>
        <time>2021-11-14T08:38:23Z</time>
      </trkpt>
      <trkpt lat="43.07307" lon="5.84885">
        <ele>109.7109375</ele>
        <time>2021-11-14T08:38:24Z</time>
      </trkpt>
      <trkpt lat="43.07309" lon="5.84889">
        <ele>109.72265625</ele>
        <time>2021-11-14T08:38:25Z</time>
      </trkpt>
      <trkpt lat="43.07312" lon="5.84894">
        <ele>109.71875</ele>
        <time>2021-11-14T08:38:26Z</time>
      </trkpt>
      <trkpt lat="43.07314" lon="5.84899">
        <ele>110.01953125</ele>
        <time>2021-11-14T08:38:27Z</time>
      </trkpt>
      <trkpt lat="43.07315" lon="5.84904">
        <ele>110.28125</ele>
        <time>2021-11-14T08:38:28Z</time>
      </trkpt>
      <trkpt lat="43.07314" lon="5.84908">
        <ele>110.43359375</ele>
        <time>2021-11-14T08:38:29Z</time>
      </trkpt>
      <trkpt lat="43.07312" lon="5.84911">
        <ele>110.515625</ele>
        <time>2021-11-14T08:38:30Z</time>
      </trkpt>
      <trkpt lat="43.0731" lon="5.84913">
        <ele>110.5859375</ele>
        <time>2021-11-14T08:38:31Z</time>
      </trkpt>
      <trkpt lat="43.07282" lon="5.84952">
        <ele>112.86328125</ele>
        <time>2021-11-14T08:38:44Z</time>
      </trkpt>
      <trkpt lat="43.07261" lon="5.84984">
        <ele>113.8671875</ele>
        <time>2021-11-14T08:38:54Z</time>
      </trkpt>
      <trkpt lat="43.07256" lon="5.84992">
        <ele>113.59375</ele>
        <time>2021-11-14T08:38:57Z</time>
      </trkpt>
      <trkpt lat="43.07254" lon="5.84995">
        <ele>113.52734375</ele>
        <time>2021-11-14T08:38:58Z</time>
      </trkpt>
      <trkpt lat="43.07253" lon="5.84999">
        <ele>113.5234375</ele>
        <time>2021-11-14T08:38:59Z</time>
      </trkpt>
      <trkpt lat="43.07251" lon="5.85004">
        <ele>113.55859375</ele>
        <time>2021-11-14T08:39:00Z</time>
      </trkpt>
      <trkpt lat="43.07251" lon="5.85008">
        <ele>113.6015625</ele>
        <time>2021-11-14T08:39:01Z</time>
      </trkpt>
      <trkpt lat="43.07251" lon="5.85012">
        <ele>113.671875</ele>
        <time>2021-11-14T08:39:02Z</time>
      </trkpt>
      <trkpt lat="43.07251" lon="5.85016">
        <ele>113.75</ele>
        <time>2021-11-14T08:39:03Z</time>
      </trkpt>
      <trkpt lat="43.07251" lon="5.8502">
        <ele>113.796875</ele>
        <time>2021-11-14T08:39:04Z</time>
      </trkpt>
      <trkpt lat="43.07262" lon="5.85064">
        <ele>113.5078125</ele>
        <time>2021-11-14T08:39:15Z</time>
      </trkpt>
      <trkpt lat="43.07268" lon="5.8508">
        <ele>112.234375</ele>
        <time>2021-11-14T08:39:19Z</time>
      </trkpt>
      <trkpt lat="43.07267" lon="5.85085">
        <ele>111.9609375</ele>
        <time>2021-11-14T08:39:20Z</time>
      </trkpt>
      <trkpt lat="43.07263" lon="5.85119">
        <ele>106.53125</ele>
        <time>2021-11-14T08:39:27Z</time>
      </trkpt>
      <trkpt lat="43.07266" lon="5.85123">
        <ele>105.8515625</ele>
        <time>2021-11-14T08:39:28Z</time>
      </trkpt>
      <trkpt lat="43.07269" lon="5.85125">
        <ele>105.1875</ele>
        <time>2021-11-14T08:39:29Z</time>
      </trkpt>
      <trkpt lat="43.07274" lon="5.85126">
        <ele>104.765625</ele>
        <time>2021-11-14T08:39:30Z</time>
      </trkpt>
      <trkpt lat="43.07279" lon="5.85125">
        <ele>104.4921875</ele>
        <time>2021-11-14T08:39:31Z</time>
      </trkpt>
      <trkpt lat="43.07283" lon="5.85123">
        <ele>104.37890625</ele>
        <time>2021-11-14T08:39:32Z</time>
      </trkpt>
      <trkpt lat="43.07287" lon="5.85121">
        <ele>104.453125</ele>
        <time>2021-11-14T08:39:33Z</time>
      </trkpt>
      <trkpt lat="43.07292" lon="5.85119">
        <ele>104.515625</ele>
        <time>2021-11-14T08:39:34Z</time>
      </trkpt>
      <trkpt lat="43.073" lon="5.85115">
        <ele>103.08984375</ele>
        <time>2021-11-14T08:39:36Z</time>
      </trkpt>
      <trkpt lat="43.07304" lon="5.85111">
        <ele>102.56640625</ele>
        <time>2021-11-14T08:39:37Z</time>
      </trkpt>
      <trkpt lat="43.07332" lon="5.8508">
        <ele>100.875</ele>
        <time>2021-11-14T08:39:45Z</time>
      </trkpt>
      <trkpt lat="43.07351" lon="5.85026">
        <ele>102.54296875</ele>
        <time>2021-11-14T08:39:56Z</time>
      </trkpt>
      <trkpt lat="43.07352" lon="5.84981">
        <ele>104.84375</ele>
        <time>2021-11-14T08:40:04Z</time>
      </trkpt>
      <trkpt lat="43.07361" lon="5.84946">
        <ele>105.8046875</ele>
        <time>2021-11-14T08:40:11Z</time>
      </trkpt>
      <trkpt lat="43.0736" lon="5.84942">
        <ele>106.12109375</ele>
        <time>2021-11-14T08:40:12Z</time>
      </trkpt>
      <trkpt lat="43.07359" lon="5.84937">
        <ele>106.53515625</ele>
        <time>2021-11-14T08:40:13Z</time>
      </trkpt>
      <trkpt lat="43.07359" lon="5.84933">
        <ele>106.84375</ele>
        <time>2021-11-14T08:40:14Z</time>
      </trkpt>
      <trkpt lat="43.07358" lon="5.84928">
        <ele>107.14453125</ele>
        <time>2021-11-14T08:40:15Z</time>
      </trkpt>
      <trkpt lat="43.07358" lon="5.84924">
        <ele>107.36328125</ele>
        <time>2021-11-14T08:40:16Z</time>
      </trkpt>
      <trkpt lat="43.07359" lon="5.8492">
        <ele>107.375</ele>
        <time>2021-11-14T08:40:17Z</time>
      </trkpt>
      <trkpt lat="43.07361" lon="5.84917">
        <ele>107.15625</ele>
        <time>2021-11-14T08:40:18Z</time>
      </trkpt>
      <trkpt lat="43.07367" lon="5.84914">
        <ele>106.40234375</ele>
        <time>2021-11-14T08:40:21Z</time>
      </trkpt>
      <trkpt lat="43.07378" lon="5.84902">
        <ele>105.19921875</ele>
        <time>2021-11-14T08:40:33Z</time>
      </trkpt>
      <trkpt lat="43.07383" lon="5.84885">
        <ele>104.33984375</ele>
        <time>2021-11-14T08:40:37Z</time>
      </trkpt>
      <trkpt lat="43.07389" lon="5.84861">
        <ele>103.1796875</ele>
        <time>2021-11-14T08:40:40Z</time>
      </trkpt>
      <trkpt lat="43.0739" lon="5.84847">
        <ele>103.296875</ele>
        <time>2021-11-14T08:40:42Z</time>
      </trkpt>
      <trkpt lat="43.07388" lon="5.84836">
        <ele>103.80078125</ele>
        <time>2021-11-14T08:40:44Z</time>
      </trkpt>
      <trkpt lat="43.07388" lon="5.84831">
        <ele>104.0703125</ele>
        <time>2021-11-14T08:40:45Z</time>
      </trkpt>
      <trkpt lat="43.07389" lon="5.84828">
        <ele>104.2890625</ele>
        <time>2021-11-14T08:40:46Z</time>
      </trkpt>
      <trkpt lat="43.07389" lon="5.8482">
        <ele>104.796875</ele>
        <time>2021-11-14T08:40:49Z</time>
      </trkpt>
      <trkpt lat="43.07392" lon="5.84819">
        <ele>104.7265625</ele>
        <time>2021-11-14T08:40:54Z</time>
      </trkpt>
      <trkpt lat="43.07395" lon="5.84818">
        <ele>104.60546875</ele>
        <time>2021-11-14T08:40:55Z</time>
      </trkpt>
      <trkpt lat="43.07398" lon="5.84816">
        <ele>104.609375</ele>
        <time>2021-11-14T08:40:56Z</time>
      </trkpt>
      <trkpt lat="43.074" lon="5.84815">
        <ele>104.69140625</ele>
        <time>2021-11-14T08:40:57Z</time>
      </trkpt>
      <trkpt lat="43.07401" lon="5.84814">
        <ele>104.73828125</ele>
        <time>2021-11-14T08:40:59Z</time>
      </trkpt>
      <trkpt lat="43.07406" lon="5.84807">
        <ele>105.4296875</ele>
        <time>2021-11-14T08:41:11Z</time>
      </trkpt>
      <trkpt lat="43.07422" lon="5.84788">
        <ele>108.16015625</ele>
        <time>2021-11-14T08:41:20Z</time>
      </trkpt>
      <trkpt lat="43.07435" lon="5.84768">
        <ele>111.29296875</ele>
        <time>2021-11-14T08:41:28Z</time>
      </trkpt>
      <trkpt lat="43.07436" lon="5.84766">
        <ele>111.59375</ele>
        <time>2021-11-14T08:41:29Z</time>
      </trkpt>
      <trkpt lat="43.07438" lon="5.84757">
        <ele>112.91015625</ele>
        <time>2021-11-14T08:41:33Z</time>
      </trkpt>
      <trkpt lat="43.0744" lon="5.84745">
        <ele>114.85546875</ele>
        <time>2021-11-14T08:41:39Z</time>
      </trkpt>
      <trkpt lat="43.07419" lon="5.84746">
        <ele>114.55078125</ele>
        <time>2021-11-14T08:41:53Z</time>
      </trkpt>
      <trkpt lat="43.07394" lon="5.84743">
        <ele>115.29296875</ele>
        <time>2021-11-14T08:42:07Z</time>
      </trkpt>
      <trkpt lat="43.07366" lon="5.84747">
        <ele>115.95703125</ele>
        <time>2021-11-14T08:42:20Z</time>
      </trkpt>
      <trkpt lat="43.07355" lon="5.84748">
        <ele>117.34765625</ele>
        <time>2021-11-14T08:42:25Z</time>
      </trkpt>
      <trkpt lat="43.07334" lon="5.84721">
        <ele>123.40234375</ele>
        <time>2021-11-14T08:42:35Z</time>
      </trkpt>
      <trkpt lat="43.07331" lon="5.84717">
        <ele>124.14453125</ele>
        <time>2021-11-14T08:42:36Z</time>
      </trkpt>
      <trkpt lat="43.07328" lon="5.84714">
        <ele>124.7265625</ele>
        <time>2021-11-14T08:42:37Z</time>
      </trkpt>
      <trkpt lat="43.07324" lon="5.84713">
        <ele>124.94921875</ele>
        <time>2021-11-14T08:42:38Z</time>
      </trkpt>
      <trkpt lat="43.07321" lon="5.84713">
        <ele>124.984375</ele>
        <time>2021-11-14T08:42:39Z</time>
      </trkpt>
      <trkpt lat="43.07318" lon="5.84714">
        <ele>124.79296875</ele>
        <time>2021-11-14T08:42:40Z</time>
      </trkpt>
      <trkpt lat="43.07315" lon="5.84715">
        <ele>124.5078125</ele>
        <time>2021-11-14T08:42:41Z</time>
      </trkpt>
      <trkpt lat="43.07292" lon="5.84706">
        <ele>125.00390625</ele>
        <time>2021-11-14T08:42:50Z</time>
      </trkpt>
      <trkpt lat="43.07268" lon="5.84683">
        <ele>126.34375</ele>
        <time>2021-11-14T08:43:04Z</time>
      </trkpt>
      <trkpt lat="43.07269" lon="5.84685">
        <ele>126.0703125</ele>
        <time>2021-11-14T08:43:26Z</time>
      </trkpt>
      <trkpt lat="43.07268" lon="5.84688">
        <ele>125.390625</ele>
        <time>2021-11-14T08:44:11Z</time>
      </trkpt>
      <trkpt lat="43.07264" lon="5.84684">
        <ele>125.73046875</ele>
        <time>2021-11-14T08:44:35Z</time>
      </trkpt>
      <trkpt lat="43.07249" lon="5.84674">
        <ele>125.35546875</ele>
        <time>2021-11-14T08:44:40Z</time>
      </trkpt>
      <trkpt lat="43.07246" lon="5.8467">
        <ele>125.4609375</ele>
        <time>2021-11-14T08:44:41Z</time>
      </trkpt>
      <trkpt lat="43.07243" lon="5.84664">
        <ele>125.90625</ele>
        <time>2021-11-14T08:44:42Z</time>
      </trkpt>
      <trkpt lat="43.07236" lon="5.84636">
        <ele>128.734375</ele>
        <time>2021-11-14T08:44:47Z</time>
      </trkpt>
      <trkpt lat="43.07236" lon="5.84617">
        <ele>130.5859375</ele>
        <time>2021-11-14T08:44:50Z</time>
      </trkpt>
      <trkpt lat="43.07233" lon="5.84601">
        <ele>131.265625</ele>
        <time>2021-11-14T08:44:52Z</time>
      </trkpt>
      <trkpt lat="43.07231" lon="5.84594">
        <ele>131.22265625</ele>
        <time>2021-11-14T08:44:53Z</time>
      </trkpt>
      <trkpt lat="43.07227" lon="5.84591">
        <ele>130.7578125</ele>
        <time>2021-11-14T08:44:54Z</time>
      </trkpt>
      <trkpt lat="43.07224" lon="5.84588">
        <ele>130.1796875</ele>
        <time>2021-11-14T08:44:55Z</time>
      </trkpt>
      <trkpt lat="43.0722" lon="5.84584">
        <ele>129.6953125</ele>
        <time>2021-11-14T08:44:56Z</time>
      </trkpt>
      <trkpt lat="43.07217" lon="5.84579">
        <ele>129.40234375</ele>
        <time>2021-11-14T08:44:57Z</time>
      </trkpt>
      <trkpt lat="43.07214" lon="5.84574">
        <ele>129.23828125</ele>
        <time>2021-11-14T08:44:58Z</time>
      </trkpt>
      <trkpt lat="43.07212" lon="5.84568">
        <ele>129.140625</ele>
        <time>2021-11-14T08:44:59Z</time>
      </trkpt>
      <trkpt lat="43.07204" lon="5.84544">
        <ele>129.03515625</ele>
        <time>2021-11-14T08:45:03Z</time>
      </trkpt>
      <trkpt lat="43.07196" lon="5.8453">
        <ele>128.359375</ele>
        <time>2021-11-14T08:45:06Z</time>
      </trkpt>
      <trkpt lat="43.07194" lon="5.84524">
        <ele>128.28515625</ele>
        <time>2021-11-14T08:45:07Z</time>
      </trkpt>
      <trkpt lat="43.07191" lon="5.84519">
        <ele>128.203125</ele>
        <time>2021-11-14T08:45:08Z</time>
      </trkpt>
      <trkpt lat="43.07189" lon="5.84513">
        <ele>128.18359375</ele>
        <time>2021-11-14T08:45:09Z</time>
      </trkpt>
      <trkpt lat="43.07188" lon="5.84507">
        <ele>128.22265625</ele>
        <time>2021-11-14T08:45:10Z</time>
      </trkpt>
      <trkpt lat="43.07186" lon="5.845">
        <ele>128.3984375</ele>
        <time>2021-11-14T08:45:11Z</time>
      </trkpt>
      <trkpt lat="43.07184" lon="5.84494">
        <ele>128.43359375</ele>
        <time>2021-11-14T08:45:12Z</time>
      </trkpt>
      <trkpt lat="43.07182" lon="5.84488">
        <ele>128.25</ele>
        <time>2021-11-14T08:45:13Z</time>
      </trkpt>
      <trkpt lat="43.07179" lon="5.84484">
        <ele>128.06640625</ele>
        <time>2021-11-14T08:45:14Z</time>
      </trkpt>
      <trkpt lat="43.07176" lon="5.8448">
        <ele>127.90625</ele>
        <time>2021-11-14T08:45:15Z</time>
      </trkpt>
      <trkpt lat="43.07158" lon="5.84463">
        <ele>126.9921875</ele>
        <time>2021-11-14T08:45:23Z</time>
      </trkpt>
      <trkpt lat="43.07154" lon="5.84462">
        <ele>126.32421875</ele>
        <time>2021-11-14T08:45:24Z</time>
      </trkpt>
      <trkpt lat="43.0715" lon="5.84462">
        <ele>125.546875</ele>
        <time>2021-11-14T08:45:25Z</time>
      </trkpt>
      <trkpt lat="43.07145" lon="5.84461">
        <ele>125.01953125</ele>
        <time>2021-11-14T08:45:26Z</time>
      </trkpt>
      <trkpt lat="43.07141" lon="5.84458">
        <ele>124.828125</ele>
        <time>2021-11-14T08:45:27Z</time>
      </trkpt>
      <trkpt lat="43.07139" lon="5.84455">
        <ele>124.87109375</ele>
        <time>2021-11-14T08:45:28Z</time>
      </trkpt>
      <trkpt lat="43.07108" lon="5.8442">
        <ele>125.7734375</ele>
        <time>2021-11-14T08:45:40Z</time>
      </trkpt>
      <trkpt lat="43.07081" lon="5.84385">
        <ele>128.28125</ele>
        <time>2021-11-14T08:45:51Z</time>
      </trkpt>
      <trkpt lat="43.07061" lon="5.8437">
        <ele>128.31640625</ele>
        <time>2021-11-14T08:46:00Z</time>
      </trkpt>
      <trkpt lat="43.07059" lon="5.84368">
        <ele>128.40625</ele>
        <time>2021-11-14T08:46:01Z</time>
      </trkpt>
      <trkpt lat="43.07035" lon="5.84356">
        <ele>128.3515625</ele>
        <time>2021-11-14T08:46:11Z</time>
      </trkpt>
      <trkpt lat="43.06997" lon="5.84361">
        <ele>127.55859375</ele>
        <time>2021-11-14T08:46:24Z</time>
      </trkpt>
      <trkpt lat="43.06962" lon="5.84371">
        <ele>129.69921875</ele>
        <time>2021-11-14T08:46:35Z</time>
      </trkpt>
      <trkpt lat="43.06919" lon="5.84381">
        <ele>132.05859375</ele>
        <time>2021-11-14T08:46:49Z</time>
      </trkpt>
      <trkpt lat="43.06882" lon="5.84387">
        <ele>135.64453125</ele>
        <time>2021-11-14T08:47:01Z</time>
      </trkpt>
      <trkpt lat="43.06869" lon="5.84381">
        <ele>137.890625</ele>
        <time>2021-11-14T08:47:09Z</time>
      </trkpt>
      <trkpt lat="43.06862" lon="5.84374">
        <ele>139.11328125</ele>
        <time>2021-11-14T08:47:14Z</time>
      </trkpt>
      <trkpt lat="43.06849" lon="5.84369">
        <ele>140.80859375</ele>
        <time>2021-11-14T08:47:21Z</time>
      </trkpt>
      <trkpt lat="43.06833" lon="5.84365">
        <ele>142.63671875</ele>
        <time>2021-11-14T08:47:30Z</time>
      </trkpt>
      <trkpt lat="43.06823" lon="5.84365">
        <ele>143.73046875</ele>
        <time>2021-11-14T08:47:35Z</time>
      </trkpt>
      <trkpt lat="43.06821" lon="5.84366">
        <ele>143.9375</ele>
        <time>2021-11-14T08:47:36Z</time>
      </trkpt>
      <trkpt lat="43.06819" lon="5.84366">
        <ele>144.17578125</ele>
        <time>2021-11-14T08:47:37Z</time>
      </trkpt>
      <trkpt lat="43.06817" lon="5.84367">
        <ele>144.4375</ele>
        <time>2021-11-14T08:47:38Z</time>
      </trkpt>
      <trkpt lat="43.06815" lon="5.84368">
        <ele>144.67578125</ele>
        <time>2021-11-14T08:47:39Z</time>
      </trkpt>
      <trkpt lat="43.06814" lon="5.84368">
        <ele>144.921875</ele>
        <time>2021-11-14T08:47:40Z</time>
      </trkpt>
      <trkpt lat="43.06812" lon="5.84368">
        <ele>145.1640625</ele>
        <time>2021-11-14T08:47:41Z</time>
      </trkpt>
      <trkpt lat="43.0681" lon="5.84368">
        <ele>145.4140625</ele>
        <time>2021-11-14T08:47:42Z</time>
      </trkpt>
      <trkpt lat="43.06809" lon="5.84368">
        <ele>145.6171875</ele>
        <time>2021-11-14T08:47:43Z</time>
      </trkpt>
      <trkpt lat="43.06807" lon="5.84368">
        <ele>145.8203125</ele>
        <time>2021-11-14T08:47:44Z</time>
      </trkpt>
      <trkpt lat="43.06795" lon="5.84369">
        <ele>147.5234375</ele>
        <time>2021-11-14T08:47:57Z</time>
      </trkpt>
      <trkpt lat="43.068" lon="5.84369">
        <ele>146.87890625</ele>
        <time>2021-11-14T08:48:09Z</time>
      </trkpt>
      <trkpt lat="43.06808" lon="5.84366">
        <ele>145.72265625</ele>
        <time>2021-11-14T08:48:18Z</time>
      </trkpt>
      <trkpt lat="43.06806" lon="5.84367">
        <ele>146.03515625</ele>
        <time>2021-11-14T08:48:32Z</time>
      </trkpt>
      <trkpt lat="43.06802" lon="5.84367">
        <ele>146.6640625</ele>
        <time>2021-11-14T08:48:38Z</time>
      </trkpt>
      <trkpt lat="43.068" lon="5.84367">
        <ele>146.875</ele>
        <time>2021-11-14T08:48:39Z</time>
      </trkpt>
      <trkpt lat="43.06796" lon="5.84369">
        <ele>147.43359375</ele>
        <time>2021-11-14T08:48:54Z</time>
      </trkpt>
      <trkpt lat="43.06777" lon="5.84384">
        <ele>149.9609375</ele>
        <time>2021-11-14T08:49:05Z</time>
      </trkpt>
      <trkpt lat="43.06751" lon="5.84394">
        <ele>154.54296875</ele>
        <time>2021-11-14T08:49:18Z</time>
      </trkpt>
      <trkpt lat="43.06748" lon="5.84393">
        <ele>154.91796875</ele>
        <time>2021-11-14T08:49:19Z</time>
      </trkpt>
      <trkpt lat="43.06746" lon="5.84392">
        <ele>155.2109375</ele>
        <time>2021-11-14T08:49:20Z</time>
      </trkpt>
      <trkpt lat="43.06745" lon="5.84389">
        <ele>155.33203125</ele>
        <time>2021-11-14T08:49:21Z</time>
      </trkpt>
      <trkpt lat="43.06743" lon="5.84384">
        <ele>155.296875</ele>
        <time>2021-11-14T08:49:23Z</time>
      </trkpt>
      <trkpt lat="43.06737" lon="5.84367">
        <ele>155.12890625</ele>
        <time>2021-11-14T08:49:28Z</time>
      </trkpt>
      <trkpt lat="43.06734" lon="5.84348">
        <ele>153.28125</ele>
        <time>2021-11-14T08:49:33Z</time>
      </trkpt>
      <trkpt lat="43.06732" lon="5.84337">
        <ele>152.109375</ele>
        <time>2021-11-14T08:49:37Z</time>
      </trkpt>
      <trkpt lat="43.0673" lon="5.84333">
        <ele>151.72265625</ele>
        <time>2021-11-14T08:49:40Z</time>
      </trkpt>
      <trkpt lat="43.06729" lon="5.84329">
        <ele>151.3046875</ele>
        <time>2021-11-14T08:49:42Z</time>
      </trkpt>
      <trkpt lat="43.06728" lon="5.84322">
        <ele>150.25</ele>
        <time>2021-11-14T08:49:45Z</time>
      </trkpt>
      <trkpt lat="43.06726" lon="5.84303">
        <ele>147.80078125</ele>
        <time>2021-11-14T08:49:51Z</time>
      </trkpt>
      <trkpt lat="43.06733" lon="5.84302">
        <ele>147.16796875</ele>
        <time>2021-11-14T08:49:59Z</time>
      </trkpt>
      <trkpt lat="43.06736" lon="5.84302">
        <ele>146.8125</ele>
        <time>2021-11-14T08:50:01Z</time>
      </trkpt>
      <trkpt lat="43.06739" lon="5.84302">
        <ele>146.7109375</ele>
        <time>2021-11-14T08:50:02Z</time>
      </trkpt>
      <trkpt lat="43.06743" lon="5.84302">
        <ele>146.5234375</ele>
        <time>2021-11-14T08:50:03Z</time>
      </trkpt>
      <trkpt lat="43.06748" lon="5.84301">
        <ele>146.1796875</ele>
        <time>2021-11-14T08:50:04Z</time>
      </trkpt>
      <trkpt lat="43.06759" lon="5.84298">
        <ele>145.125</ele>
        <time>2021-11-14T08:50:06Z</time>
      </trkpt>
      <trkpt lat="43.06764" lon="5.84296">
        <ele>144.33203125</ele>
        <time>2021-11-14T08:50:07Z</time>
      </trkpt>
      <trkpt lat="43.06769" lon="5.84294">
        <ele>143.6015625</ele>
        <time>2021-11-14T08:50:08Z</time>
      </trkpt>
      <trkpt lat="43.06772" lon="5.84294">
        <ele>143.44140625</ele>
        <time>2021-11-14T08:50:09Z</time>
      </trkpt>
      <trkpt lat="43.06774" lon="5.84295">
        <ele>143.40625</ele>
        <time>2021-11-14T08:50:10Z</time>
      </trkpt>
      <trkpt lat="43.06777" lon="5.84295">
        <ele>143.046875</ele>
        <time>2021-11-14T08:50:11Z</time>
      </trkpt>
      <trkpt lat="43.06781" lon="5.84294">
        <ele>142.578125</ele>
        <time>2021-11-14T08:50:12Z</time>
      </trkpt>
      <trkpt lat="43.06785" lon="5.84292">
        <ele>141.9140625</ele>
        <time>2021-11-14T08:50:13Z</time>
      </trkpt>
      <trkpt lat="43.06788" lon="5.84289">
        <ele>141.16796875</ele>
        <time>2021-11-14T08:50:14Z</time>
      </trkpt>
      <trkpt lat="43.06815" lon="5.84273">
        <ele>136.82421875</ele>
        <time>2021-11-14T08:50:22Z</time>
      </trkpt>
      <trkpt lat="43.0682" lon="5.84273">
        <ele>136.3203125</ele>
        <time>2021-11-14T08:50:23Z</time>
      </trkpt>
      <trkpt lat="43.06825" lon="5.84274">
        <ele>135.5234375</ele>
        <time>2021-11-14T08:50:24Z</time>
      </trkpt>
      <trkpt lat="43.06831" lon="5.84273">
        <ele>134.60546875</ele>
        <time>2021-11-14T08:50:25Z</time>
      </trkpt>
      <trkpt lat="43.06836" lon="5.84272">
        <ele>133.67578125</ele>
        <time>2021-11-14T08:50:26Z</time>
      </trkpt>
      <trkpt lat="43.06841" lon="5.84271">
        <ele>132.76953125</ele>
        <time>2021-11-14T08:50:27Z</time>
      </trkpt>
      <trkpt lat="43.06846" lon="5.84271">
        <ele>131.85546875</ele>
        <time>2021-11-14T08:50:28Z</time>
      </trkpt>
      <trkpt lat="43.06852" lon="5.84272">
        <ele>131.07421875</ele>
        <time>2021-11-14T08:50:29Z</time>
      </trkpt>
      <trkpt lat="43.06858" lon="5.84271">
        <ele>130.31640625</ele>
        <time>2021-11-14T08:50:30Z</time>
      </trkpt>
      <trkpt lat="43.06864" lon="5.84269">
        <ele>129.546875</ele>
        <time>2021-11-14T08:50:31Z</time>
      </trkpt>
      <trkpt lat="43.06869" lon="5.84268">
        <ele>128.796875</ele>
        <time>2021-11-14T08:50:32Z</time>
      </trkpt>
      <trkpt lat="43.06875" lon="5.84268">
        <ele>128.0859375</ele>
        <time>2021-11-14T08:50:33Z</time>
      </trkpt>
      <trkpt lat="43.0688" lon="5.84269">
        <ele>127.6484375</ele>
        <time>2021-11-14T08:50:34Z</time>
      </trkpt>
      <trkpt lat="43.06891" lon="5.84273">
        <ele>127.0234375</ele>
        <time>2021-11-14T08:50:36Z</time>
      </trkpt>
      <trkpt lat="43.06897" lon="5.84275">
        <ele>126.72265625</ele>
        <time>2021-11-14T08:50:37Z</time>
      </trkpt>
      <trkpt lat="43.06903" lon="5.84276">
        <ele>126.34765625</ele>
        <time>2021-11-14T08:50:38Z</time>
      </trkpt>
      <trkpt lat="43.06926" lon="5.84272">
        <ele>125.21875</ele>
        <time>2021-11-14T08:50:43Z</time>
      </trkpt>
      <trkpt lat="43.06931" lon="5.84269">
        <ele>124.5859375</ele>
        <time>2021-11-14T08:50:44Z</time>
      </trkpt>
      <trkpt lat="43.06936" lon="5.84266">
        <ele>123.78515625</ele>
        <time>2021-11-14T08:50:45Z</time>
      </trkpt>
      <trkpt lat="43.06942" lon="5.84262">
        <ele>122.921875</ele>
        <time>2021-11-14T08:50:46Z</time>
      </trkpt>
      <trkpt lat="43.06947" lon="5.84258">
        <ele>122.03515625</ele>
        <time>2021-11-14T08:50:47Z</time>
      </trkpt>
      <trkpt lat="43.06959" lon="5.8425">
        <ele>120.22265625</ele>
        <time>2021-11-14T08:50:49Z</time>
      </trkpt>
      <trkpt lat="43.06966" lon="5.84245">
        <ele>119.64453125</ele>
        <time>2021-11-14T08:50:50Z</time>
      </trkpt>
      <trkpt lat="43.06971" lon="5.8424">
        <ele>118.98828125</ele>
        <time>2021-11-14T08:50:51Z</time>
      </trkpt>
      <trkpt lat="43.06978" lon="5.84235">
        <ele>118.30078125</ele>
        <time>2021-11-14T08:50:52Z</time>
      </trkpt>
      <trkpt lat="43.07006" lon="5.84215">
        <ele>115.2421875</ele>
        <time>2021-11-14T08:50:56Z</time>
      </trkpt>
      <trkpt lat="43.07034" lon="5.84192">
        <ele>111.81640625</ele>
        <time>2021-11-14T08:51:00Z</time>
      </trkpt>
      <trkpt lat="43.07074" lon="5.84167">
        <ele>108.42578125</ele>
        <time>2021-11-14T08:51:05Z</time>
      </trkpt>
      <trkpt lat="43.07106" lon="5.84142">
        <ele>105.375</ele>
        <time>2021-11-14T08:51:09Z</time>
      </trkpt>
      <trkpt lat="43.07113" lon="5.84134">
        <ele>105.12109375</ele>
        <time>2021-11-14T08:51:10Z</time>
      </trkpt>
      <trkpt lat="43.07118" lon="5.84125">
        <ele>104.59375</ele>
        <time>2021-11-14T08:51:11Z</time>
      </trkpt>
      <trkpt lat="43.07151" lon="5.84074">
        <ele>101.3671875</ele>
        <time>2021-11-14T08:51:18Z</time>
      </trkpt>
      <trkpt lat="43.07159" lon="5.8406">
        <ele>100.765625</ele>
        <time>2021-11-14T08:51:23Z</time>
      </trkpt>
      <trkpt lat="43.07166" lon="5.84051">
        <ele>100.55859375</ele>
        <time>2021-11-14T08:51:25Z</time>
      </trkpt>
      <trkpt lat="43.07169" lon="5.84045">
        <ele>100.2578125</ele>
        <time>2021-11-14T08:51:26Z</time>
      </trkpt>
      <trkpt lat="43.07173" lon="5.84038">
        <ele>99.76171875</ele>
        <time>2021-11-14T08:51:27Z</time>
      </trkpt>
      <trkpt lat="43.07176" lon="5.84031">
        <ele>99.1015625</ele>
        <time>2021-11-14T08:51:28Z</time>
      </trkpt>
      <trkpt lat="43.07178" lon="5.84023">
        <ele>98.28125</ele>
        <time>2021-11-14T08:51:29Z</time>
      </trkpt>
      <trkpt lat="43.07186" lon="5.83998">
        <ele>95.9296875</ele>
        <time>2021-11-14T08:51:32Z</time>
      </trkpt>
      <trkpt lat="43.0719" lon="5.83989">
        <ele>95.60546875</ele>
        <time>2021-11-14T08:51:33Z</time>
      </trkpt>
      <trkpt lat="43.07194" lon="5.83981">
        <ele>95.30078125</ele>
        <time>2021-11-14T08:51:34Z</time>
      </trkpt>
      <trkpt lat="43.07205" lon="5.83955">
        <ele>93.34375</ele>
        <time>2021-11-14T08:51:37Z</time>
      </trkpt>
      <trkpt lat="43.07219" lon="5.83918">
        <ele>91.328125</ele>
        <time>2021-11-14T08:51:41Z</time>
      </trkpt>
      <trkpt lat="43.07224" lon="5.8391">
        <ele>90.7578125</ele>
        <time>2021-11-14T08:51:42Z</time>
      </trkpt>
      <trkpt lat="43.07242" lon="5.83888">
        <ele>88.83984375</ele>
        <time>2021-11-14T08:51:45Z</time>
      </trkpt>
      <trkpt lat="43.07248" lon="5.83882">
        <ele>88.6328125</ele>
        <time>2021-11-14T08:51:46Z</time>
      </trkpt>
      <trkpt lat="43.07253" lon="5.83873">
        <ele>88.03125</ele>
        <time>2021-11-14T08:51:47Z</time>
      </trkpt>
      <trkpt lat="43.07262" lon="5.83855">
        <ele>87.03515625</ele>
        <time>2021-11-14T08:51:49Z</time>
      </trkpt>
      <trkpt lat="43.07267" lon="5.83846">
        <ele>86.7109375</ele>
        <time>2021-11-14T08:51:50Z</time>
      </trkpt>
      <trkpt lat="43.07274" lon="5.83839">
        <ele>86.36328125</ele>
        <time>2021-11-14T08:51:51Z</time>
      </trkpt>
      <trkpt lat="43.07295" lon="5.83817">
        <ele>85.05078125</ele>
        <time>2021-11-14T08:51:54Z</time>
      </trkpt>
      <trkpt lat="43.0731" lon="5.83803">
        <ele>85.86328125</ele>
        <time>2021-11-14T08:51:56Z</time>
      </trkpt>
      <trkpt lat="43.07318" lon="5.83798">
        <ele>86.33203125</ele>
        <time>2021-11-14T08:51:57Z</time>
      </trkpt>
      <trkpt lat="43.07326" lon="5.83794">
        <ele>86.9609375</ele>
        <time>2021-11-14T08:51:58Z</time>
      </trkpt>
      <trkpt lat="43.07347" lon="5.83781">
        <ele>87.59375</ele>
        <time>2021-11-14T08:52:03Z</time>
      </trkpt>
      <trkpt lat="43.07376" lon="5.83739">
        <ele>86.66015625</ele>
        <time>2021-11-14T08:52:14Z</time>
      </trkpt>
      <trkpt lat="43.07383" lon="5.83731">
        <ele>86.01171875</ele>
        <time>2021-11-14T08:52:16Z</time>
      </trkpt>
      <trkpt lat="43.07396" lon="5.83715">
        <ele>84.69921875</ele>
        <time>2021-11-14T08:52:20Z</time>
      </trkpt>
      <trkpt lat="43.07399" lon="5.83711">
        <ele>84.3046875</ele>
        <time>2021-11-14T08:52:21Z</time>
      </trkpt>
      <trkpt lat="43.07403" lon="5.83707">
        <ele>84.01171875</ele>
        <time>2021-11-14T08:52:22Z</time>
      </trkpt>
      <trkpt lat="43.07406" lon="5.83704">
        <ele>83.9375</ele>
        <time>2021-11-14T08:52:23Z</time>
      </trkpt>
      <trkpt lat="43.0741" lon="5.83701">
        <ele>83.87890625</ele>
        <time>2021-11-14T08:52:24Z</time>
      </trkpt>
      <trkpt lat="43.07413" lon="5.83698">
        <ele>83.84765625</ele>
        <time>2021-11-14T08:52:25Z</time>
      </trkpt>
      <trkpt lat="43.07416" lon="5.83694">
        <ele>83.77734375</ele>
        <time>2021-11-14T08:52:26Z</time>
      </trkpt>
      <trkpt lat="43.07435" lon="5.83669">
        <ele>82.9609375</ele>
        <time>2021-11-14T08:52:34Z</time>
      </trkpt>
      <trkpt lat="43.07441" lon="5.8366">
        <ele>82.24609375</ele>
        <time>2021-11-14T08:52:36Z</time>
      </trkpt>
      <trkpt lat="43.07461" lon="5.83636">
        <ele>79.96875</ele>
        <time>2021-11-14T08:52:41Z</time>
      </trkpt>
      <trkpt lat="43.07466" lon="5.83632">
        <ele>79.55078125</ele>
        <time>2021-11-14T08:52:42Z</time>
      </trkpt>
      <trkpt lat="43.07503" lon="5.83602">
        <ele>77.2734375</ele>
        <time>2021-11-14T08:52:49Z</time>
      </trkpt>
      <trkpt lat="43.07508" lon="5.83598">
        <ele>76.98828125</ele>
        <time>2021-11-14T08:52:50Z</time>
      </trkpt>
      <trkpt lat="43.07514" lon="5.83594">
        <ele>76.6875</ele>
        <time>2021-11-14T08:52:51Z</time>
      </trkpt>
      <trkpt lat="43.07536" lon="5.83579">
        <ele>74.94921875</ele>
        <time>2021-11-14T08:52:55Z</time>
      </trkpt>
      <trkpt lat="43.0756" lon="5.83572">
        <ele>74.1796875</ele>
        <time>2021-11-14T08:52:59Z</time>
      </trkpt>
      <trkpt lat="43.07579" lon="5.83568">
        <ele>73.390625</ele>
        <time>2021-11-14T08:53:02Z</time>
      </trkpt>
      <trkpt lat="43.07583" lon="5.83566">
        <ele>72.9296875</ele>
        <time>2021-11-14T08:53:03Z</time>
      </trkpt>
      <trkpt lat="43.07585" lon="5.83563">
        <ele>72.58203125</ele>
        <time>2021-11-14T08:53:04Z</time>
      </trkpt>
      <trkpt lat="43.0759" lon="5.83553">
        <ele>71.41015625</ele>
        <time>2021-11-14T08:53:14Z</time>
      </trkpt>
      <trkpt lat="43.07595" lon="5.83544">
        <ele>70.2265625</ele>
        <time>2021-11-14T08:53:23Z</time>
      </trkpt>
      <trkpt lat="43.07599" lon="5.83542">
        <ele>69.8671875</ele>
        <time>2021-11-14T08:53:24Z</time>
      </trkpt>
      <trkpt lat="43.07602" lon="5.83539">
        <ele>69.5078125</ele>
        <time>2021-11-14T08:53:25Z</time>
      </trkpt>
      <trkpt lat="43.07606" lon="5.83537">
        <ele>69.28125</ele>
        <time>2021-11-14T08:53:26Z</time>
      </trkpt>
      <trkpt lat="43.07609" lon="5.83536">
        <ele>69.20703125</ele>
        <time>2021-11-14T08:53:27Z</time>
      </trkpt>
      <trkpt lat="43.07611" lon="5.83535">
        <ele>69.15625</ele>
        <time>2021-11-14T08:53:28Z</time>
      </trkpt>
      <trkpt lat="43.07613" lon="5.83535">
        <ele>69.125</ele>
        <time>2021-11-14T08:53:29Z</time>
      </trkpt>
      <trkpt lat="43.07617" lon="5.83535">
        <ele>69.0859375</ele>
        <time>2021-11-14T08:53:31Z</time>
      </trkpt>
      <trkpt lat="43.07619" lon="5.83533">
        <ele>68.9921875</ele>
        <time>2021-11-14T08:53:32Z</time>
      </trkpt>
      <trkpt lat="43.07628" lon="5.83524">
        <ele>68.49609375</ele>
        <time>2021-11-14T08:53:41Z</time>
      </trkpt>
      <trkpt lat="43.07637" lon="5.83516">
        <ele>67.7890625</ele>
        <time>2021-11-14T08:53:44Z</time>
      </trkpt>
      <trkpt lat="43.07641" lon="5.83513">
        <ele>67.56640625</ele>
        <time>2021-11-14T08:53:45Z</time>
      </trkpt>
      <trkpt lat="43.07645" lon="5.83511">
        <ele>67.359375</ele>
        <time>2021-11-14T08:53:46Z</time>
      </trkpt>
      <trkpt lat="43.07657" lon="5.83506">
        <ele>66.87109375</ele>
        <time>2021-11-14T08:53:51Z</time>
      </trkpt>
      <trkpt lat="43.07658" lon="5.83507">
        <ele>66.81640625</ele>
        <time>2021-11-14T08:53:52Z</time>
      </trkpt>
      <trkpt lat="43.07661" lon="5.83508">
        <ele>66.7421875</ele>
        <time>2021-11-14T08:53:53Z</time>
      </trkpt>
      <trkpt lat="43.07664" lon="5.8351">
        <ele>66.66796875</ele>
        <time>2021-11-14T08:53:54Z</time>
      </trkpt>
      <trkpt lat="43.07668" lon="5.83513">
        <ele>66.625</ele>
        <time>2021-11-14T08:53:55Z</time>
      </trkpt>
      <trkpt lat="43.07674" lon="5.83518">
        <ele>66.578125</ele>
        <time>2021-11-14T08:53:57Z</time>
      </trkpt>
      <trkpt lat="43.07677" lon="5.83516">
        <ele>66.46484375</ele>
        <time>2021-11-14T08:53:58Z</time>
      </trkpt>
      <trkpt lat="43.07697" lon="5.83495">
        <ele>65.03125</ele>
        <time>2021-11-14T08:54:04Z</time>
      </trkpt>
      <trkpt lat="43.077" lon="5.83489">
        <ele>64.703125</ele>
        <time>2021-11-14T08:54:05Z</time>
      </trkpt>
      <trkpt lat="43.07701" lon="5.83482">
        <ele>64.42578125</ele>
        <time>2021-11-14T08:54:06Z</time>
      </trkpt>
      <trkpt lat="43.07702" lon="5.83477">
        <ele>64.2734375</ele>
        <time>2021-11-14T08:54:07Z</time>
      </trkpt>
      <trkpt lat="43.07702" lon="5.83472">
        <ele>64.46484375</ele>
        <time>2021-11-14T08:54:08Z</time>
      </trkpt>
      <trkpt lat="43.077" lon="5.83468">
        <ele>64.65234375</ele>
        <time>2021-11-14T08:54:09Z</time>
      </trkpt>
      <trkpt lat="43.07699" lon="5.83465">
        <ele>64.81640625</ele>
        <time>2021-11-14T08:54:10Z</time>
      </trkpt>
      <trkpt lat="43.07696" lon="5.83463">
        <ele>64.9921875</ele>
        <time>2021-11-14T08:54:11Z</time>
      </trkpt>
      <trkpt lat="43.07694" lon="5.83461">
        <ele>65.14453125</ele>
        <time>2021-11-14T08:54:12Z</time>
      </trkpt>
      <trkpt lat="43.07693" lon="5.83459">
        <ele>65.2578125</ele>
        <time>2021-11-14T08:54:13Z</time>
      </trkpt>
      <trkpt lat="43.07692" lon="5.83457">
        <ele>65.36328125</ele>
        <time>2021-11-14T08:54:14Z</time>
      </trkpt>
      <trkpt lat="43.07691" lon="5.83454">
        <ele>65.46484375</ele>
        <time>2021-11-14T08:54:15Z</time>
      </trkpt>
      <trkpt lat="43.07697" lon="5.83443">
        <ele>65.90625</ele>
        <time>2021-11-14T08:54:19Z</time>
      </trkpt>
      <trkpt lat="43.07706" lon="5.83434">
        <ele>66.22265625</ele>
        <time>2021-11-14T08:54:23Z</time>
      </trkpt>
      <trkpt lat="43.07713" lon="5.83435">
        <ele>65.796875</ele>
        <time>2021-11-14T08:54:26Z</time>
      </trkpt>
      <trkpt lat="43.07715" lon="5.83434">
        <ele>65.703125</ele>
        <time>2021-11-14T08:54:27Z</time>
      </trkpt>
      <trkpt lat="43.07717" lon="5.83432">
        <ele>65.71484375</ele>
        <time>2021-11-14T08:54:28Z</time>
      </trkpt>
      <trkpt lat="43.07719" lon="5.83429">
        <ele>65.79296875</ele>
        <time>2021-11-14T08:54:29Z</time>
      </trkpt>
      <trkpt lat="43.0772" lon="5.83426">
        <ele>65.8671875</ele>
        <time>2021-11-14T08:54:30Z</time>
      </trkpt>
      <trkpt lat="43.07722" lon="5.83424">
        <ele>65.9453125</ele>
        <time>2021-11-14T08:54:31Z</time>
      </trkpt>
      <trkpt lat="43.07723" lon="5.83422">
        <ele>66.0546875</ele>
        <time>2021-11-14T08:54:32Z</time>
      </trkpt>
      <trkpt lat="43.07725" lon="5.83419">
        <ele>66.1796875</ele>
        <time>2021-11-14T08:54:33Z</time>
      </trkpt>
      <trkpt lat="43.07726" lon="5.83417">
        <ele>66.28515625</ele>
        <time>2021-11-14T08:54:34Z</time>
      </trkpt>
      <trkpt lat="43.07742" lon="5.83389">
        <ele>68.42578125</ele>
        <time>2021-11-14T08:54:46Z</time>
      </trkpt>
      <trkpt lat="43.07746" lon="5.83357">
        <ele>72.0546875</ele>
        <time>2021-11-14T08:54:55Z</time>
      </trkpt>
      <trkpt lat="43.07755" lon="5.83323">
        <ele>74.15234375</ele>
        <time>2021-11-14T08:55:05Z</time>
      </trkpt>
      <trkpt lat="43.07756" lon="5.8332">
        <ele>74.3046875</ele>
        <time>2021-11-14T08:55:06Z</time>
      </trkpt>
      <trkpt lat="43.07759" lon="5.83313">
        <ele>74.5</ele>
        <time>2021-11-14T08:55:08Z</time>
      </trkpt>
      <trkpt lat="43.07759" lon="5.83307">
        <ele>74.66796875</ele>
        <time>2021-11-14T08:55:10Z</time>
      </trkpt>
      <trkpt lat="43.07758" lon="5.83304">
        <ele>74.83984375</ele>
        <time>2021-11-14T08:55:11Z</time>
      </trkpt>
      <trkpt lat="43.07757" lon="5.83301">
        <ele>75.0078125</ele>
        <time>2021-11-14T08:55:12Z</time>
      </trkpt>
      <trkpt lat="43.07754" lon="5.83289">
        <ele>75.62890625</ele>
        <time>2021-11-14T08:55:23Z</time>
      </trkpt>
      <trkpt lat="43.0775" lon="5.83292">
        <ele>75.84375</ele>
        <time>2021-11-14T08:55:33Z</time>
      </trkpt>
      <trkpt lat="43.07746" lon="5.83301">
        <ele>76.06640625</ele>
        <time>2021-11-14T08:55:45Z</time>
      </trkpt>
      <trkpt lat="43.07743" lon="5.83305">
        <ele>76.38671875</ele>
        <time>2021-11-14T08:55:58Z</time>
      </trkpt>
      <trkpt lat="43.07742" lon="5.83306">
        <ele>76.48828125</ele>
        <time>2021-11-14T08:56:05Z</time>
      </trkpt>
      <trkpt lat="43.07727" lon="5.83303">
        <ele>77.8046875</ele>
        <time>2021-11-14T08:56:14Z</time>
      </trkpt>
      <trkpt lat="43.0772" lon="5.83307">
        <ele>78.28515625</ele>
        <time>2021-11-14T08:56:18Z</time>
      </trkpt>
      <trkpt lat="43.07709" lon="5.83308">
        <ele>79.1171875</ele>
        <time>2021-11-14T08:56:24Z</time>
      </trkpt>
      <trkpt lat="43.07702" lon="5.833">
        <ele>79.90625</ele>
        <time>2021-11-14T08:56:31Z</time>
      </trkpt>
      <trkpt lat="43.07699" lon="5.83298">
        <ele>80.21875</ele>
        <time>2021-11-14T08:56:34Z</time>
      </trkpt>
      <trkpt lat="43.07697" lon="5.83294">
        <ele>80.453125</ele>
        <time>2021-11-14T08:56:51Z</time>
      </trkpt>
      <trkpt lat="43.07697" lon="5.83292">
        <ele>80.55078125</ele>
        <time>2021-11-14T08:57:06Z</time>
      </trkpt>
      <trkpt lat="43.07697" lon="5.83293">
        <ele>80.5</ele>
        <time>2021-11-14T08:57:08Z</time>
      </trkpt>
      <trkpt lat="43.07706" lon="5.83307">
        <ele>79.32421875</ele>
        <time>2021-11-14T08:57:17Z</time>
      </trkpt>
      <trkpt lat="43.07707" lon="5.8331">
        <ele>79.16015625</ele>
        <time>2021-11-14T08:57:26Z</time>
      </trkpt>
      <trkpt lat="43.07706" lon="5.83312">
        <ele>79.11328125</ele>
        <time>2021-11-14T08:57:27Z</time>
      </trkpt>
      <trkpt lat="43.07706" lon="5.83314">
        <ele>79.01171875</ele>
        <time>2021-11-14T08:57:28Z</time>
      </trkpt>
      <trkpt lat="43.07704" lon="5.83316">
        <ele>78.9453125</ele>
        <time>2021-11-14T08:57:29Z</time>
      </trkpt>
      <trkpt lat="43.07702" lon="5.83319">
        <ele>78.8828125</ele>
        <time>2021-11-14T08:57:30Z</time>
      </trkpt>
      <trkpt lat="43.07701" lon="5.83322">
        <ele>78.7890625</ele>
        <time>2021-11-14T08:57:31Z</time>
      </trkpt>
      <trkpt lat="43.07701" lon="5.83324">
        <ele>78.65234375</ele>
        <time>2021-11-14T08:57:32Z</time>
      </trkpt>
      <trkpt lat="43.07701" lon="5.8332">
        <ele>78.90625</ele>
        <time>2021-11-14T08:57:42Z</time>
      </trkpt>
      <trkpt lat="43.07704" lon="5.83316">
        <ele>79.05078125</ele>
        <time>2021-11-14T08:57:50Z</time>
      </trkpt>
      <trkpt lat="43.07705" lon="5.83314">
        <ele>79.0625</ele>
        <time>2021-11-14T08:57:51Z</time>
      </trkpt>
      <trkpt lat="43.07706" lon="5.83313">
        <ele>79.11328125</ele>
        <time>2021-11-14T08:57:52Z</time>
      </trkpt>
      <trkpt lat="43.07707" lon="5.8331">
        <ele>79.1875</ele>
        <time>2021-11-14T08:57:53Z</time>
      </trkpt>
      <trkpt lat="43.07707" lon="5.83308">
        <ele>79.26171875</ele>
        <time>2021-11-14T08:57:54Z</time>
      </trkpt>
      <trkpt lat="43.07707" lon="5.83306">
        <ele>79.3515625</ele>
        <time>2021-11-14T08:57:55Z</time>
      </trkpt>
      <trkpt lat="43.07706" lon="5.83303">
        <ele>79.46875</ele>
        <time>2021-11-14T08:57:56Z</time>
      </trkpt>
      <trkpt lat="43.07705" lon="5.83301">
        <ele>79.60546875</ele>
        <time>2021-11-14T08:57:57Z</time>
      </trkpt>
      <trkpt lat="43.07704" lon="5.833">
        <ele>79.75390625</ele>
        <time>2021-11-14T08:57:58Z</time>
      </trkpt>
      <trkpt lat="43.07702" lon="5.83299">
        <ele>79.90625</ele>
        <time>2021-11-14T08:57:59Z</time>
      </trkpt>
      <trkpt lat="43.07701" lon="5.83297">
        <ele>80.08203125</ele>
        <time>2021-11-14T08:58:00Z</time>
      </trkpt>
      <trkpt lat="43.07699" lon="5.83296">
        <ele>80.25390625</ele>
        <time>2021-11-14T08:58:01Z</time>
      </trkpt>
      <trkpt lat="43.07679" lon="5.83274">
        <ele>81.83203125</ele>
        <time>2021-11-14T08:58:14Z</time>
      </trkpt>
      <trkpt lat="43.07674" lon="5.83273">
        <ele>82.20703125</ele>
        <time>2021-11-14T08:58:16Z</time>
      </trkpt>
      <trkpt lat="43.07672" lon="5.83273">
        <ele>82.375</ele>
        <time>2021-11-14T08:58:17Z</time>
      </trkpt>
      <trkpt lat="43.07646" lon="5.83283">
        <ele>84.50390625</ele>
        <time>2021-11-14T08:58:30Z</time>
      </trkpt>
      <trkpt lat="43.07639" lon="5.83285">
        <ele>84.921875</ele>
        <time>2021-11-14T08:58:33Z</time>
      </trkpt>
      <trkpt lat="43.07613" lon="5.83282">
        <ele>86.4375</ele>
        <time>2021-11-14T08:58:44Z</time>
      </trkpt>
      <trkpt lat="43.07607" lon="5.83281">
        <ele>86.6796875</ele>
        <time>2021-11-14T08:58:48Z</time>
      </trkpt>
      <trkpt lat="43.0758" lon="5.83281">
        <ele>87.67578125</ele>
        <time>2021-11-14T08:58:56Z</time>
      </trkpt>
      <trkpt lat="43.07572" lon="5.83278">
        <ele>88.109375</ele>
        <time>2021-11-14T08:58:58Z</time>
      </trkpt>
      <trkpt lat="43.07549" lon="5.83273">
        <ele>88.64453125</ele>
        <time>2021-11-14T08:59:04Z</time>
      </trkpt>
      <trkpt lat="43.07541" lon="5.8327">
        <ele>89</ele>
        <time>2021-11-14T08:59:07Z</time>
      </trkpt>
      <trkpt lat="43.07525" lon="5.83271">
        <ele>88.92578125</ele>
        <time>2021-11-14T08:59:12Z</time>
      </trkpt>
      <trkpt lat="43.07512" lon="5.83271">
        <ele>88.91015625</ele>
        <time>2021-11-14T08:59:15Z</time>
      </trkpt>
      <trkpt lat="43.07499" lon="5.83277">
        <ele>88.4765625</ele>
        <time>2021-11-14T08:59:19Z</time>
      </trkpt>
      <trkpt lat="43.07486" lon="5.83289">
        <ele>87.57421875</ele>
        <time>2021-11-14T08:59:24Z</time>
      </trkpt>
      <trkpt lat="43.07482" lon="5.83298">
        <ele>87.0546875</ele>
        <time>2021-11-14T08:59:27Z</time>
      </trkpt>
      <trkpt lat="43.0748" lon="5.83301">
        <ele>86.87890625</ele>
        <time>2021-11-14T08:59:28Z</time>
      </trkpt>
      <trkpt lat="43.07477" lon="5.83304">
        <ele>86.7734375</ele>
        <time>2021-11-14T08:59:29Z</time>
      </trkpt>
      <trkpt lat="43.07474" lon="5.83306">
        <ele>86.73828125</ele>
        <time>2021-11-14T08:59:30Z</time>
      </trkpt>
      <trkpt lat="43.07472" lon="5.83307">
        <ele>86.7421875</ele>
        <time>2021-11-14T08:59:31Z</time>
      </trkpt>
      <trkpt lat="43.0747" lon="5.83309">
        <ele>86.703125</ele>
        <time>2021-11-14T08:59:32Z</time>
      </trkpt>
      <trkpt lat="43.07469" lon="5.83311">
        <ele>86.6328125</ele>
        <time>2021-11-14T08:59:33Z</time>
      </trkpt>
      <trkpt lat="43.07468" lon="5.83314">
        <ele>86.453125</ele>
        <time>2021-11-14T08:59:34Z</time>
      </trkpt>
      <trkpt lat="43.07467" lon="5.83317">
        <ele>86.28515625</ele>
        <time>2021-11-14T08:59:35Z</time>
      </trkpt>
      <trkpt lat="43.07464" lon="5.8332">
        <ele>86.140625</ele>
        <time>2021-11-14T08:59:36Z</time>
      </trkpt>
      <trkpt lat="43.07462" lon="5.83322">
        <ele>86.0234375</ele>
        <time>2021-11-14T08:59:37Z</time>
      </trkpt>
      <trkpt lat="43.0746" lon="5.83325">
        <ele>85.94921875</ele>
        <time>2021-11-14T08:59:38Z</time>
      </trkpt>
      <trkpt lat="43.07458" lon="5.83327">
        <ele>85.92578125</ele>
        <time>2021-11-14T08:59:39Z</time>
      </trkpt>
      <trkpt lat="43.07457" lon="5.83329">
        <ele>86.06640625</ele>
        <time>2021-11-14T08:59:40Z</time>
      </trkpt>
      <trkpt lat="43.07455" lon="5.83331">
        <ele>86.1953125</ele>
        <time>2021-11-14T08:59:41Z</time>
      </trkpt>
      <trkpt lat="43.07453" lon="5.83334">
        <ele>86.375</ele>
        <time>2021-11-14T08:59:42Z</time>
      </trkpt>
      <trkpt lat="43.07451" lon="5.83336">
        <ele>86.609375</ele>
        <time>2021-11-14T08:59:43Z</time>
      </trkpt>
      <trkpt lat="43.07437" lon="5.83354">
        <ele>87.85546875</ele>
        <time>2021-11-14T08:59:51Z</time>
      </trkpt>
      <trkpt lat="43.07429" lon="5.83365">
        <ele>88.4921875</ele>
        <time>2021-11-14T08:59:56Z</time>
      </trkpt>
      <trkpt lat="43.07425" lon="5.83368">
        <ele>88.8125</ele>
        <time>2021-11-14T08:59:58Z</time>
      </trkpt>
      <trkpt lat="43.07403" lon="5.83373">
        <ele>91.58984375</ele>
        <time>2021-11-14T09:00:08Z</time>
      </trkpt>
      <trkpt lat="43.07398" lon="5.83375">
        <ele>92.265625</ele>
        <time>2021-11-14T09:00:11Z</time>
      </trkpt>
      <trkpt lat="43.07383" lon="5.83382">
        <ele>94.13671875</ele>
        <time>2021-11-14T09:00:17Z</time>
      </trkpt>
      <trkpt lat="43.0738" lon="5.83385">
        <ele>94.58984375</ele>
        <time>2021-11-14T09:00:19Z</time>
      </trkpt>
      <trkpt lat="43.07351" lon="5.83406">
        <ele>96.453125</ele>
        <time>2021-11-14T09:00:34Z</time>
      </trkpt>
      <trkpt lat="43.07349" lon="5.83408">
        <ele>96.43359375</ele>
        <time>2021-11-14T09:00:35Z</time>
      </trkpt>
      <trkpt lat="43.07347" lon="5.83409">
        <ele>96.453125</ele>
        <time>2021-11-14T09:00:36Z</time>
      </trkpt>
      <trkpt lat="43.07345" lon="5.8341">
        <ele>96.53125</ele>
        <time>2021-11-14T09:00:37Z</time>
      </trkpt>
      <trkpt lat="43.07337" lon="5.83412">
        <ele>97.50390625</ele>
        <time>2021-11-14T09:00:42Z</time>
      </trkpt>
      <trkpt lat="43.07335" lon="5.83411">
        <ele>97.7578125</ele>
        <time>2021-11-14T09:00:43Z</time>
      </trkpt>
      <trkpt lat="43.07326" lon="5.83415">
        <ele>98.55859375</ele>
        <time>2021-11-14T09:00:49Z</time>
      </trkpt>
      <trkpt lat="43.07324" lon="5.83415">
        <ele>98.73828125</ele>
        <time>2021-11-14T09:00:50Z</time>
      </trkpt>
      <trkpt lat="43.07322" lon="5.83416">
        <ele>98.89453125</ele>
        <time>2021-11-14T09:00:51Z</time>
      </trkpt>
      <trkpt lat="43.0732" lon="5.83416">
        <ele>99.07421875</ele>
        <time>2021-11-14T09:00:52Z</time>
      </trkpt>
      <trkpt lat="43.07318" lon="5.83416">
        <ele>99.35546875</ele>
        <time>2021-11-14T09:00:53Z</time>
      </trkpt>
      <trkpt lat="43.07297" lon="5.83419">
        <ele>102.58203125</ele>
        <time>2021-11-14T09:01:03Z</time>
      </trkpt>
      <trkpt lat="43.07264" lon="5.83424">
        <ele>105.875</ele>
        <time>2021-11-14T09:01:17Z</time>
      </trkpt>
      <trkpt lat="43.07233" lon="5.83415">
        <ele>108.18359375</ele>
        <time>2021-11-14T09:01:27Z</time>
      </trkpt>
      <trkpt lat="43.07229" lon="5.83414">
        <ele>108.0859375</ele>
        <time>2021-11-14T09:01:28Z</time>
      </trkpt>
      <trkpt lat="43.07213" lon="5.83415">
        <ele>107.66015625</ele>
        <time>2021-11-14T09:01:31Z</time>
      </trkpt>
      <trkpt lat="43.07208" lon="5.83415">
        <ele>107.53125</ele>
        <time>2021-11-14T09:01:32Z</time>
      </trkpt>
      <trkpt lat="43.07202" lon="5.83415">
        <ele>107.55078125</ele>
        <time>2021-11-14T09:01:33Z</time>
      </trkpt>
      <trkpt lat="43.07197" lon="5.83415">
        <ele>107.54296875</ele>
        <time>2021-11-14T09:01:34Z</time>
      </trkpt>
      <trkpt lat="43.07193" lon="5.83415">
        <ele>107.5234375</ele>
        <time>2021-11-14T09:01:35Z</time>
      </trkpt>
      <trkpt lat="43.07176" lon="5.83415">
        <ele>107.765625</ele>
        <time>2021-11-14T09:01:41Z</time>
      </trkpt>
      <trkpt lat="43.07174" lon="5.83415">
        <ele>107.91015625</ele>
        <time>2021-11-14T09:01:42Z</time>
      </trkpt>
      <trkpt lat="43.07162" lon="5.83416">
        <ele>108.45703125</ele>
        <time>2021-11-14T09:01:47Z</time>
      </trkpt>
      <trkpt lat="43.07141" lon="5.83414">
        <ele>110.296875</ele>
        <time>2021-11-14T09:01:56Z</time>
      </trkpt>
      <trkpt lat="43.07115" lon="5.83411">
        <ele>113.42578125</ele>
        <time>2021-11-14T09:02:07Z</time>
      </trkpt>
      <trkpt lat="43.07092" lon="5.83405">
        <ele>117.5546875</ele>
        <time>2021-11-14T09:02:17Z</time>
      </trkpt>
      <trkpt lat="43.07086" lon="5.834">
        <ele>119.203125</ele>
        <time>2021-11-14T09:02:20Z</time>
      </trkpt>
      <trkpt lat="43.07058" lon="5.83389">
        <ele>123.58203125</ele>
        <time>2021-11-14T09:02:31Z</time>
      </trkpt>
      <trkpt lat="43.07032" lon="5.83359">
        <ele>126.671875</ele>
        <time>2021-11-14T09:02:43Z</time>
      </trkpt>
      <trkpt lat="43.06991" lon="5.8335">
        <ele>130.8203125</ele>
        <time>2021-11-14T09:02:56Z</time>
      </trkpt>
      <trkpt lat="43.06975" lon="5.8334">
        <ele>131.43359375</ele>
        <time>2021-11-14T09:03:02Z</time>
      </trkpt>
      <trkpt lat="43.06973" lon="5.83341">
        <ele>131.76171875</ele>
        <time>2021-11-14T09:03:03Z</time>
      </trkpt>
      <trkpt lat="43.06971" lon="5.83344">
        <ele>132.20703125</ele>
        <time>2021-11-14T09:03:04Z</time>
      </trkpt>
      <trkpt lat="43.06969" lon="5.83347">
        <ele>132.75</ele>
        <time>2021-11-14T09:03:05Z</time>
      </trkpt>
      <trkpt lat="43.06968" lon="5.8335">
        <ele>133.28515625</ele>
        <time>2021-11-14T09:03:06Z</time>
      </trkpt>
      <trkpt lat="43.06965" lon="5.83355">
        <ele>134.015625</ele>
        <time>2021-11-14T09:03:07Z</time>
      </trkpt>
      <trkpt lat="43.06949" lon="5.83391">
        <ele>137.89453125</ele>
        <time>2021-11-14T09:03:16Z</time>
      </trkpt>
      <trkpt lat="43.06934" lon="5.83427">
        <ele>140.51171875</ele>
        <time>2021-11-14T09:03:25Z</time>
      </trkpt>
      <trkpt lat="43.06916" lon="5.83465">
        <ele>145.2265625</ele>
        <time>2021-11-14T09:03:35Z</time>
      </trkpt>
      <trkpt lat="43.06915" lon="5.83466">
        <ele>145.453125</ele>
        <time>2021-11-14T09:03:36Z</time>
      </trkpt>
      <trkpt lat="43.06909" lon="5.83486">
        <ele>149.58984375</ele>
        <time>2021-11-14T09:03:45Z</time>
      </trkpt>
      <trkpt lat="43.06908" lon="5.83489">
        <ele>150.25390625</ele>
        <time>2021-11-14T09:03:46Z</time>
      </trkpt>
      <trkpt lat="43.06906" lon="5.83491">
        <ele>150.94140625</ele>
        <time>2021-11-14T09:03:47Z</time>
      </trkpt>
      <trkpt lat="43.06904" lon="5.83493">
        <ele>151.62109375</ele>
        <time>2021-11-14T09:03:48Z</time>
      </trkpt>
      <trkpt lat="43.06902" lon="5.83495">
        <ele>152.2109375</ele>
        <time>2021-11-14T09:03:49Z</time>
      </trkpt>
      <trkpt lat="43.06892" lon="5.835">
        <ele>152.7578125</ele>
        <time>2021-11-14T09:03:59Z</time>
      </trkpt>
      <trkpt lat="43.0689" lon="5.83502">
        <ele>153.1171875</ele>
        <time>2021-11-14T09:04:01Z</time>
      </trkpt>
      <trkpt lat="43.06884" lon="5.83512">
        <ele>155.1015625</ele>
        <time>2021-11-14T09:04:06Z</time>
      </trkpt>
      <trkpt lat="43.06881" lon="5.83513">
        <ele>155.1171875</ele>
        <time>2021-11-14T09:04:07Z</time>
      </trkpt>
      <trkpt lat="43.06878" lon="5.83512">
        <ele>154.8359375</ele>
        <time>2021-11-14T09:04:08Z</time>
      </trkpt>
      <trkpt lat="43.06869" lon="5.8351">
        <ele>153.7734375</ele>
        <time>2021-11-14T09:04:10Z</time>
      </trkpt>
      <trkpt lat="43.06866" lon="5.83508">
        <ele>152.99609375</ele>
        <time>2021-11-14T09:04:11Z</time>
      </trkpt>
      <trkpt lat="43.06864" lon="5.83505">
        <ele>151.99609375</ele>
        <time>2021-11-14T09:04:12Z</time>
      </trkpt>
      <trkpt lat="43.06862" lon="5.83501">
        <ele>150.85546875</ele>
        <time>2021-11-14T09:04:13Z</time>
      </trkpt>
      <trkpt lat="43.06859" lon="5.83498">
        <ele>149.9140625</ele>
        <time>2021-11-14T09:04:14Z</time>
      </trkpt>
      <trkpt lat="43.06857" lon="5.83497">
        <ele>149.38671875</ele>
        <time>2021-11-14T09:04:15Z</time>
      </trkpt>
      <trkpt lat="43.06855" lon="5.83496">
        <ele>149.03125</ele>
        <time>2021-11-14T09:04:16Z</time>
      </trkpt>
      <trkpt lat="43.06837" lon="5.8348">
        <ele>144.93359375</ele>
        <time>2021-11-14T09:04:25Z</time>
      </trkpt>
      <trkpt lat="43.06814" lon="5.83461">
        <ele>141.36328125</ele>
        <time>2021-11-14T09:04:35Z</time>
      </trkpt>
      <trkpt lat="43.06813" lon="5.83463">
        <ele>141.60546875</ele>
        <time>2021-11-14T09:04:36Z</time>
      </trkpt>
      <trkpt lat="43.06812" lon="5.83465">
        <ele>142.00390625</ele>
        <time>2021-11-14T09:04:37Z</time>
      </trkpt>
      <trkpt lat="43.06811" lon="5.83467">
        <ele>142.36328125</ele>
        <time>2021-11-14T09:04:38Z</time>
      </trkpt>
      <trkpt lat="43.0681" lon="5.83468">
        <ele>142.703125</ele>
        <time>2021-11-14T09:04:39Z</time>
      </trkpt>
      <trkpt lat="43.06809" lon="5.8347">
        <ele>143.01171875</ele>
        <time>2021-11-14T09:04:40Z</time>
      </trkpt>
      <trkpt lat="43.06808" lon="5.83472">
        <ele>143.4296875</ele>
        <time>2021-11-14T09:04:41Z</time>
      </trkpt>
      <trkpt lat="43.06807" lon="5.83475">
        <ele>143.97265625</ele>
        <time>2021-11-14T09:04:42Z</time>
      </trkpt>
      <trkpt lat="43.06806" lon="5.83478">
        <ele>144.4921875</ele>
        <time>2021-11-14T09:04:43Z</time>
      </trkpt>
      <trkpt lat="43.06805" lon="5.83481">
        <ele>145.0625</ele>
        <time>2021-11-14T09:04:44Z</time>
      </trkpt>
      <trkpt lat="43.06797" lon="5.83513">
        <ele>151.453125</ele>
        <time>2021-11-14T09:04:53Z</time>
      </trkpt>
      <trkpt lat="43.06766" lon="5.83541">
        <ele>153.83203125</ele>
        <time>2021-11-14T09:05:02Z</time>
      </trkpt>
      <trkpt lat="43.06756" lon="5.83572">
        <ele>159.203125</ele>
        <time>2021-11-14T09:05:08Z</time>
      </trkpt>
      <trkpt lat="43.06753" lon="5.83574">
        <ele>159.31640625</ele>
        <time>2021-11-14T09:05:09Z</time>
      </trkpt>
      <trkpt lat="43.06749" lon="5.83574">
        <ele>158.54296875</ele>
        <time>2021-11-14T09:05:10Z</time>
      </trkpt>
      <trkpt lat="43.06744" lon="5.83571">
        <ele>157.18359375</ele>
        <time>2021-11-14T09:05:11Z</time>
      </trkpt>
      <trkpt lat="43.0674" lon="5.83569">
        <ele>155.61328125</ele>
        <time>2021-11-14T09:05:12Z</time>
      </trkpt>
      <trkpt lat="43.06721" lon="5.83558">
        <ele>149.85546875</ele>
        <time>2021-11-14T09:05:16Z</time>
      </trkpt>
      <trkpt lat="43.06717" lon="5.83555">
        <ele>148.62109375</ele>
        <time>2021-11-14T09:05:17Z</time>
      </trkpt>
      <trkpt lat="43.06714" lon="5.83554">
        <ele>147.92578125</ele>
        <time>2021-11-14T09:05:18Z</time>
      </trkpt>
      <trkpt lat="43.06699" lon="5.83552">
        <ele>147.2578125</ele>
        <time>2021-11-14T09:05:25Z</time>
      </trkpt>
      <trkpt lat="43.06698" lon="5.83551">
        <ele>146.9921875</ele>
        <time>2021-11-14T09:05:26Z</time>
      </trkpt>
      <trkpt lat="43.06697" lon="5.83548">
        <ele>146.46875</ele>
        <time>2021-11-14T09:05:27Z</time>
      </trkpt>
      <trkpt lat="43.06679" lon="5.83522">
        <ele>140.93359375</ele>
        <time>2021-11-14T09:05:36Z</time>
      </trkpt>
      <trkpt lat="43.06678" lon="5.8352">
        <ele>140.49609375</ele>
        <time>2021-11-14T09:05:48Z</time>
      </trkpt>
      <trkpt lat="43.06677" lon="5.83521">
        <ele>140.60546875</ele>
        <time>2021-11-14T09:06:16Z</time>
      </trkpt>
      <trkpt lat="43.06678" lon="5.8352">
        <ele>140.375</ele>
        <time>2021-11-14T09:06:47Z</time>
      </trkpt>
      <trkpt lat="43.06676" lon="5.83521">
        <ele>140.55859375</ele>
        <time>2021-11-14T09:07:14Z</time>
      </trkpt>
      <trkpt lat="43.06675" lon="5.83523">
        <ele>140.984375</ele>
        <time>2021-11-14T09:07:28Z</time>
      </trkpt>
      <trkpt lat="43.06672" lon="5.83525">
        <ele>141.203125</ele>
        <time>2021-11-14T09:07:46Z</time>
      </trkpt>
      <trkpt lat="43.06671" lon="5.83526">
        <ele>141.25</ele>
        <time>2021-11-14T09:08:03Z</time>
      </trkpt>
      <trkpt lat="43.06668" lon="5.83528">
        <ele>141.609375</ele>
        <time>2021-11-14T09:08:15Z</time>
      </trkpt>
      <trkpt lat="43.06662" lon="5.83554">
        <ele>147.74609375</ele>
        <time>2021-11-14T09:08:24Z</time>
      </trkpt>
      <trkpt lat="43.06662" lon="5.83556">
        <ele>148.30078125</ele>
        <time>2021-11-14T09:08:25Z</time>
      </trkpt>
      <trkpt lat="43.0666" lon="5.83563">
        <ele>149.9375</ele>
        <time>2021-11-14T09:08:28Z</time>
      </trkpt>
      <trkpt lat="43.06657" lon="5.83565">
        <ele>150.2734375</ele>
        <time>2021-11-14T09:08:29Z</time>
      </trkpt>
      <trkpt lat="43.06654" lon="5.83567">
        <ele>150.61328125</ele>
        <time>2021-11-14T09:08:30Z</time>
      </trkpt>
      <trkpt lat="43.06644" lon="5.83576">
        <ele>151.58984375</ele>
        <time>2021-11-14T09:08:33Z</time>
      </trkpt>
      <trkpt lat="43.06642" lon="5.8358">
        <ele>152.4375</ele>
        <time>2021-11-14T09:08:34Z</time>
      </trkpt>
      <trkpt lat="43.06634" lon="5.83597">
        <ele>155.97265625</ele>
        <time>2021-11-14T09:08:42Z</time>
      </trkpt>
      <trkpt lat="43.06612" lon="5.83636">
        <ele>160.390625</ele>
        <time>2021-11-14T09:08:52Z</time>
      </trkpt>
      <trkpt lat="43.06605" lon="5.83646">
        <ele>159.99609375</ele>
        <time>2021-11-14T09:08:55Z</time>
      </trkpt>
      <trkpt lat="43.06603" lon="5.83649">
        <ele>160.42578125</ele>
        <time>2021-11-14T09:08:56Z</time>
      </trkpt>
      <trkpt lat="43.06603" lon="5.83652">
        <ele>161.0234375</ele>
        <time>2021-11-14T09:08:57Z</time>
      </trkpt>
      <trkpt lat="43.06602" lon="5.83655">
        <ele>161.5859375</ele>
        <time>2021-11-14T09:08:58Z</time>
      </trkpt>
      <trkpt lat="43.066" lon="5.83659">
        <ele>162.18359375</ele>
        <time>2021-11-14T09:08:59Z</time>
      </trkpt>
      <trkpt lat="43.06589" lon="5.83693">
        <ele>165.76953125</ele>
        <time>2021-11-14T09:09:08Z</time>
      </trkpt>
      <trkpt lat="43.06587" lon="5.83695">
        <ele>165.24609375</ele>
        <time>2021-11-14T09:09:09Z</time>
      </trkpt>
      <trkpt lat="43.06583" lon="5.83696">
        <ele>164.16015625</ele>
        <time>2021-11-14T09:09:10Z</time>
      </trkpt>
      <trkpt lat="43.0658" lon="5.83697">
        <ele>162.73828125</ele>
        <time>2021-11-14T09:09:11Z</time>
      </trkpt>
      <trkpt lat="43.06565" lon="5.83706">
        <ele>159.54296875</ele>
        <time>2021-11-14T09:09:16Z</time>
      </trkpt>
      <trkpt lat="43.06562" lon="5.83706">
        <ele>158.89453125</ele>
        <time>2021-11-14T09:09:17Z</time>
      </trkpt>
      <trkpt lat="43.06559" lon="5.83704">
        <ele>157.91015625</ele>
        <time>2021-11-14T09:09:18Z</time>
      </trkpt>
      <trkpt lat="43.06557" lon="5.83702">
        <ele>156.98046875</ele>
        <time>2021-11-14T09:09:19Z</time>
      </trkpt>
      <trkpt lat="43.06555" lon="5.83701">
        <ele>156.48828125</ele>
        <time>2021-11-14T09:09:20Z</time>
      </trkpt>
      <trkpt lat="43.06554" lon="5.83699">
        <ele>155.88671875</ele>
        <time>2021-11-14T09:09:21Z</time>
      </trkpt>
      <trkpt lat="43.06547" lon="5.837">
        <ele>154.6015625</ele>
        <time>2021-11-14T09:09:31Z</time>
      </trkpt>
      <trkpt lat="43.06545" lon="5.83694">
        <ele>153.08203125</ele>
        <time>2021-11-14T09:09:43Z</time>
      </trkpt>
      <trkpt lat="43.06546" lon="5.83691">
        <ele>152.62890625</ele>
        <time>2021-11-14T09:09:46Z</time>
      </trkpt>
      <trkpt lat="43.06546" lon="5.83688">
        <ele>152.1015625</ele>
        <time>2021-11-14T09:09:47Z</time>
      </trkpt>
      <trkpt lat="43.06547" lon="5.83685">
        <ele>151.48046875</ele>
        <time>2021-11-14T09:09:48Z</time>
      </trkpt>
      <trkpt lat="43.06547" lon="5.83681">
        <ele>150.7109375</ele>
        <time>2021-11-14T09:09:49Z</time>
      </trkpt>
      <trkpt lat="43.06547" lon="5.83677">
        <ele>149.76953125</ele>
        <time>2021-11-14T09:09:50Z</time>
      </trkpt>
      <trkpt lat="43.06547" lon="5.83673">
        <ele>148.796875</ele>
        <time>2021-11-14T09:09:51Z</time>
      </trkpt>
      <trkpt lat="43.06546" lon="5.83647">
        <ele>145.578125</ele>
        <time>2021-11-14T09:09:58Z</time>
      </trkpt>
      <trkpt lat="43.06546" lon="5.83644">
        <ele>145.15625</ele>
        <time>2021-11-14T09:09:59Z</time>
      </trkpt>
      <trkpt lat="43.06545" lon="5.8363">
        <ele>143.5</ele>
        <time>2021-11-14T09:10:02Z</time>
      </trkpt>
      <trkpt lat="43.06544" lon="5.83626">
        <ele>143.06640625</ele>
        <time>2021-11-14T09:10:03Z</time>
      </trkpt>
      <trkpt lat="43.06543" lon="5.83623">
        <ele>142.6875</ele>
        <time>2021-11-14T09:10:04Z</time>
      </trkpt>
      <trkpt lat="43.06542" lon="5.83619">
        <ele>142.4140625</ele>
        <time>2021-11-14T09:10:05Z</time>
      </trkpt>
      <trkpt lat="43.0654" lon="5.83615">
        <ele>142.3671875</ele>
        <time>2021-11-14T09:10:06Z</time>
      </trkpt>
      <trkpt lat="43.06539" lon="5.83611">
        <ele>142.3515625</ele>
        <time>2021-11-14T09:10:07Z</time>
      </trkpt>
      <trkpt lat="43.06538" lon="5.83608">
        <ele>142.16015625</ele>
        <time>2021-11-14T09:10:08Z</time>
      </trkpt>
      <trkpt lat="43.06538" lon="5.83604">
        <ele>141.90625</ele>
        <time>2021-11-14T09:10:09Z</time>
      </trkpt>
      <trkpt lat="43.06538" lon="5.83601">
        <ele>141.53515625</ele>
        <time>2021-11-14T09:10:10Z</time>
      </trkpt>
      <trkpt lat="43.06538" lon="5.83597">
        <ele>141.109375</ele>
        <time>2021-11-14T09:10:11Z</time>
      </trkpt>
      <trkpt lat="43.06538" lon="5.83593">
        <ele>140.75</ele>
        <time>2021-11-14T09:10:12Z</time>
      </trkpt>
      <trkpt lat="43.06536" lon="5.83585">
        <ele>140.5703125</ele>
        <time>2021-11-14T09:10:14Z</time>
      </trkpt>
      <trkpt lat="43.06535" lon="5.83577">
        <ele>140.06640625</ele>
        <time>2021-11-14T09:10:23Z</time>
      </trkpt>
      <trkpt lat="43.06534" lon="5.83575">
        <ele>140.04296875</ele>
        <time>2021-11-14T09:10:24Z</time>
      </trkpt>
      <trkpt lat="43.06533" lon="5.83572">
        <ele>140.0546875</ele>
        <time>2021-11-14T09:10:25Z</time>
      </trkpt>
      <trkpt lat="43.06532" lon="5.83569">
        <ele>140.07421875</ele>
        <time>2021-11-14T09:10:26Z</time>
      </trkpt>
      <trkpt lat="43.06531" lon="5.83566">
        <ele>140.0078125</ele>
        <time>2021-11-14T09:10:27Z</time>
      </trkpt>
      <trkpt lat="43.06527" lon="5.83559">
        <ele>140.234375</ele>
        <time>2021-11-14T09:10:29Z</time>
      </trkpt>
      <trkpt lat="43.06525" lon="5.83558">
        <ele>140.765625</ele>
        <time>2021-11-14T09:10:30Z</time>
      </trkpt>
      <trkpt lat="43.06523" lon="5.83558">
        <ele>141.2265625</ele>
        <time>2021-11-14T09:10:31Z</time>
      </trkpt>
      <trkpt lat="43.06523" lon="5.8356">
        <ele>141.5703125</ele>
        <time>2021-11-14T09:10:32Z</time>
      </trkpt>
      <trkpt lat="43.06522" lon="5.83562">
        <ele>142.0078125</ele>
        <time>2021-11-14T09:10:33Z</time>
      </trkpt>
      <trkpt lat="43.06521" lon="5.83565">
        <ele>142.74609375</ele>
        <time>2021-11-14T09:10:34Z</time>
      </trkpt>
      <trkpt lat="43.06519" lon="5.83566">
        <ele>143.484375</ele>
        <time>2021-11-14T09:10:35Z</time>
      </trkpt>
      <trkpt lat="43.06517" lon="5.83568">
        <ele>144.13671875</ele>
        <time>2021-11-14T09:10:36Z</time>
      </trkpt>
      <trkpt lat="43.06515" lon="5.83569">
        <ele>144.86328125</ele>
        <time>2021-11-14T09:10:37Z</time>
      </trkpt>
      <trkpt lat="43.06501" lon="5.83578">
        <ele>150.82421875</ele>
        <time>2021-11-14T09:10:42Z</time>
      </trkpt>
      <trkpt lat="43.06499" lon="5.83582">
        <ele>151.875</ele>
        <time>2021-11-14T09:10:43Z</time>
      </trkpt>
      <trkpt lat="43.06497" lon="5.83586">
        <ele>152.90625</ele>
        <time>2021-11-14T09:10:44Z</time>
      </trkpt>
      <trkpt lat="43.06495" lon="5.83589">
        <ele>154.12109375</ele>
        <time>2021-11-14T09:10:45Z</time>
      </trkpt>
      <trkpt lat="43.06493" lon="5.83592">
        <ele>155.42578125</ele>
        <time>2021-11-14T09:10:46Z</time>
      </trkpt>
      <trkpt lat="43.0649" lon="5.83595">
        <ele>156.61328125</ele>
        <time>2021-11-14T09:10:47Z</time>
      </trkpt>
      <trkpt lat="43.06463" lon="5.83619">
        <ele>162.95703125</ele>
        <time>2021-11-14T09:10:57Z</time>
      </trkpt>
      <trkpt lat="43.06454" lon="5.83627">
        <ele>163.72265625</ele>
        <time>2021-11-14T09:11:01Z</time>
      </trkpt>
      <trkpt lat="43.06452" lon="5.83627">
        <ele>163.5</ele>
        <time>2021-11-14T09:11:02Z</time>
      </trkpt>
      <trkpt lat="43.06444" lon="5.8363">
        <ele>163.265625</ele>
        <time>2021-11-14T09:11:05Z</time>
      </trkpt>
      <trkpt lat="43.06443" lon="5.83632">
        <ele>163.50390625</ele>
        <time>2021-11-14T09:11:06Z</time>
      </trkpt>
      <trkpt lat="43.06442" lon="5.83635">
        <ele>163.890625</ele>
        <time>2021-11-14T09:11:07Z</time>
      </trkpt>
      <trkpt lat="43.06439" lon="5.83659">
        <ele>167.66796875</ele>
        <time>2021-11-14T09:11:18Z</time>
      </trkpt>
      <trkpt lat="43.06438" lon="5.83665">
        <ele>168.77734375</ele>
        <time>2021-11-14T09:11:29Z</time>
      </trkpt>
      <trkpt lat="43.06438" lon="5.83666">
        <ele>169.08203125</ele>
        <time>2021-11-14T09:11:30Z</time>
      </trkpt>
      <trkpt lat="43.06438" lon="5.83669">
        <ele>169.609375</ele>
        <time>2021-11-14T09:11:31Z</time>
      </trkpt>
      <trkpt lat="43.06438" lon="5.83673">
        <ele>170.23828125</ele>
        <time>2021-11-14T09:11:32Z</time>
      </trkpt>
      <trkpt lat="43.06436" lon="5.83676">
        <ele>170.74609375</ele>
        <time>2021-11-14T09:11:33Z</time>
      </trkpt>
      <trkpt lat="43.06435" lon="5.8368">
        <ele>171.296875</ele>
        <time>2021-11-14T09:11:34Z</time>
      </trkpt>
      <trkpt lat="43.06434" lon="5.83684">
        <ele>171.9140625</ele>
        <time>2021-11-14T09:11:35Z</time>
      </trkpt>
      <trkpt lat="43.06431" lon="5.83696">
        <ele>173.37890625</ele>
        <time>2021-11-14T09:11:38Z</time>
      </trkpt>
      <trkpt lat="43.06431" lon="5.837">
        <ele>173.828125</ele>
        <time>2021-11-14T09:11:39Z</time>
      </trkpt>
      <trkpt lat="43.0643" lon="5.83703">
        <ele>173.9140625</ele>
        <time>2021-11-14T09:11:40Z</time>
      </trkpt>
      <trkpt lat="43.06429" lon="5.83706">
        <ele>173.671875</ele>
        <time>2021-11-14T09:11:41Z</time>
      </trkpt>
      <trkpt lat="43.06426" lon="5.83709">
        <ele>173.3046875</ele>
        <time>2021-11-14T09:11:42Z</time>
      </trkpt>
      <trkpt lat="43.06424" lon="5.83712">
        <ele>173.046875</ele>
        <time>2021-11-14T09:11:43Z</time>
      </trkpt>
      <trkpt lat="43.0641" lon="5.83723">
        <ele>170.23046875</ele>
        <time>2021-11-14T09:11:48Z</time>
      </trkpt>
      <trkpt lat="43.06407" lon="5.83722">
        <ele>169</ele>
        <time>2021-11-14T09:11:49Z</time>
      </trkpt>
      <trkpt lat="43.06385" lon="5.83712">
        <ele>161.19140625</ele>
        <time>2021-11-14T09:11:56Z</time>
      </trkpt>
      <trkpt lat="43.06382" lon="5.83713">
        <ele>160.45703125</ele>
        <time>2021-11-14T09:11:57Z</time>
      </trkpt>
      <trkpt lat="43.06368" lon="5.83707">
        <ele>157.1171875</ele>
        <time>2021-11-14T09:12:01Z</time>
      </trkpt>
      <trkpt lat="43.06364" lon="5.83706">
        <ele>156.6640625</ele>
        <time>2021-11-14T09:12:02Z</time>
      </trkpt>
      <trkpt lat="43.06362" lon="5.83706">
        <ele>156.3515625</ele>
        <time>2021-11-14T09:12:03Z</time>
      </trkpt>
      <trkpt lat="43.06356" lon="5.83708">
        <ele>155.85546875</ele>
        <time>2021-11-14T09:12:09Z</time>
      </trkpt>
      <trkpt lat="43.06353" lon="5.83707">
        <ele>155.55859375</ele>
        <time>2021-11-14T09:12:10Z</time>
      </trkpt>
      <trkpt lat="43.06349" lon="5.83707">
        <ele>155.046875</ele>
        <time>2021-11-14T09:12:20Z</time>
      </trkpt>
      <trkpt lat="43.06344" lon="5.83709">
        <ele>154.1640625</ele>
        <time>2021-11-14T09:12:27Z</time>
      </trkpt>
      <trkpt lat="43.06343" lon="5.83711">
        <ele>153.96875</ele>
        <time>2021-11-14T09:12:28Z</time>
      </trkpt>
      <trkpt lat="43.06342" lon="5.83713">
        <ele>153.65234375</ele>
        <time>2021-11-14T09:12:29Z</time>
      </trkpt>
      <trkpt lat="43.06341" lon="5.83715">
        <ele>153.4609375</ele>
        <time>2021-11-14T09:12:30Z</time>
      </trkpt>
      <trkpt lat="43.06341" lon="5.83718">
        <ele>153.42578125</ele>
        <time>2021-11-14T09:12:31Z</time>
      </trkpt>
      <trkpt lat="43.06342" lon="5.83721">
        <ele>153.41796875</ele>
        <time>2021-11-14T09:12:32Z</time>
      </trkpt>
      <trkpt lat="43.06343" lon="5.83726">
        <ele>153.625</ele>
        <time>2021-11-14T09:12:33Z</time>
      </trkpt>
      <trkpt lat="43.06345" lon="5.8373">
        <ele>154.078125</ele>
        <time>2021-11-14T09:12:34Z</time>
      </trkpt>
      <trkpt lat="43.06346" lon="5.83734">
        <ele>154.4609375</ele>
        <time>2021-11-14T09:12:35Z</time>
      </trkpt>
      <trkpt lat="43.06347" lon="5.83738">
        <ele>154.58984375</ele>
        <time>2021-11-14T09:12:36Z</time>
      </trkpt>
      <trkpt lat="43.06347" lon="5.83742">
        <ele>154.62890625</ele>
        <time>2021-11-14T09:12:37Z</time>
      </trkpt>
      <trkpt lat="43.06348" lon="5.83753">
        <ele>154.97265625</ele>
        <time>2021-11-14T09:12:40Z</time>
      </trkpt>
      <trkpt lat="43.06349" lon="5.83757">
        <ele>155.2734375</ele>
        <time>2021-11-14T09:12:41Z</time>
      </trkpt>
      <trkpt lat="43.06351" lon="5.83761">
        <ele>156.04296875</ele>
        <time>2021-11-14T09:12:42Z</time>
      </trkpt>
      <trkpt lat="43.06353" lon="5.83765">
        <ele>157.00390625</ele>
        <time>2021-11-14T09:12:43Z</time>
      </trkpt>
      <trkpt lat="43.06356" lon="5.83769">
        <ele>158.01171875</ele>
        <time>2021-11-14T09:12:44Z</time>
      </trkpt>
      <trkpt lat="43.06358" lon="5.83771">
        <ele>158.78515625</ele>
        <time>2021-11-14T09:12:45Z</time>
      </trkpt>
      <trkpt lat="43.06359" lon="5.83774">
        <ele>159.38671875</ele>
        <time>2021-11-14T09:12:46Z</time>
      </trkpt>
      <trkpt lat="43.0636" lon="5.83777">
        <ele>159.99609375</ele>
        <time>2021-11-14T09:12:47Z</time>
      </trkpt>
      <trkpt lat="43.06362" lon="5.83779">
        <ele>160.5546875</ele>
        <time>2021-11-14T09:12:48Z</time>
      </trkpt>
      <trkpt lat="43.06362" lon="5.83781">
        <ele>160.9453125</ele>
        <time>2021-11-14T09:12:49Z</time>
      </trkpt>
      <trkpt lat="43.06363" lon="5.83783">
        <ele>161.3046875</ele>
        <time>2021-11-14T09:12:50Z</time>
      </trkpt>
      <trkpt lat="43.06361" lon="5.83788">
        <ele>160.80078125</ele>
        <time>2021-11-14T09:12:55Z</time>
      </trkpt>
      <trkpt lat="43.0636" lon="5.83789">
        <ele>160.10546875</ele>
        <time>2021-11-14T09:12:56Z</time>
      </trkpt>
      <trkpt lat="43.06352" lon="5.83791">
        <ele>157.34765625</ele>
        <time>2021-11-14T09:13:00Z</time>
      </trkpt>
      <trkpt lat="43.06343" lon="5.83793">
        <ele>154.8671875</ele>
        <time>2021-11-14T09:13:03Z</time>
      </trkpt>
      <trkpt lat="43.06337" lon="5.83797">
        <ele>153.56640625</ele>
        <time>2021-11-14T09:13:05Z</time>
      </trkpt>
      <trkpt lat="43.06333" lon="5.83796">
        <ele>152.73828125</ele>
        <time>2021-11-14T09:13:06Z</time>
      </trkpt>
      <trkpt lat="43.0633" lon="5.83795">
        <ele>151.8515625</ele>
        <time>2021-11-14T09:13:07Z</time>
      </trkpt>
      <trkpt lat="43.06326" lon="5.83792">
        <ele>150.85546875</ele>
        <time>2021-11-14T09:13:08Z</time>
      </trkpt>
      <trkpt lat="43.06322" lon="5.83789">
        <ele>149.703125</ele>
        <time>2021-11-14T09:13:09Z</time>
      </trkpt>
      <trkpt lat="43.06318" lon="5.83785">
        <ele>148.76953125</ele>
        <time>2021-11-14T09:13:10Z</time>
      </trkpt>
      <trkpt lat="43.06314" lon="5.83781">
        <ele>147.94140625</ele>
        <time>2021-11-14T09:13:11Z</time>
      </trkpt>
      <trkpt lat="43.06311" lon="5.83775">
        <ele>147.140625</ele>
        <time>2021-11-14T09:13:12Z</time>
      </trkpt>
      <trkpt lat="43.06308" lon="5.83769">
        <ele>146.23046875</ele>
        <time>2021-11-14T09:13:13Z</time>
      </trkpt>
      <trkpt lat="43.06304" lon="5.83764">
        <ele>145.12109375</ele>
        <time>2021-11-14T09:13:14Z</time>
      </trkpt>
      <trkpt lat="43.06301" lon="5.83758">
        <ele>143.93359375</ele>
        <time>2021-11-14T09:13:15Z</time>
      </trkpt>
      <trkpt lat="43.0628" lon="5.83725">
        <ele>140.5703125</ele>
        <time>2021-11-14T09:13:23Z</time>
      </trkpt>
      <trkpt lat="43.06274" lon="5.83714">
        <ele>140.26953125</ele>
        <time>2021-11-14T09:13:25Z</time>
      </trkpt>
      <trkpt lat="43.0627" lon="5.83709">
        <ele>139.875</ele>
        <time>2021-11-14T09:13:26Z</time>
      </trkpt>
      <trkpt lat="43.06268" lon="5.83704">
        <ele>139.46484375</ele>
        <time>2021-11-14T09:13:27Z</time>
      </trkpt>
      <trkpt lat="43.06266" lon="5.83698">
        <ele>139.02734375</ele>
        <time>2021-11-14T09:13:28Z</time>
      </trkpt>
      <trkpt lat="43.06264" lon="5.83693">
        <ele>138.59765625</ele>
        <time>2021-11-14T09:13:29Z</time>
      </trkpt>
      <trkpt lat="43.06262" lon="5.83688">
        <ele>138.12890625</ele>
        <time>2021-11-14T09:13:30Z</time>
      </trkpt>
      <trkpt lat="43.0626" lon="5.83682">
        <ele>137.53125</ele>
        <time>2021-11-14T09:13:31Z</time>
      </trkpt>
      <trkpt lat="43.06258" lon="5.83678">
        <ele>136.90625</ele>
        <time>2021-11-14T09:13:32Z</time>
      </trkpt>
      <trkpt lat="43.06256" lon="5.83675">
        <ele>136.3046875</ele>
        <time>2021-11-14T09:13:33Z</time>
      </trkpt>
      <trkpt lat="43.06251" lon="5.83661">
        <ele>134.69140625</ele>
        <time>2021-11-14T09:13:36Z</time>
      </trkpt>
      <trkpt lat="43.06238" lon="5.83628">
        <ele>129.87890625</ele>
        <time>2021-11-14T09:13:46Z</time>
      </trkpt>
      <trkpt lat="43.06237" lon="5.83624">
        <ele>129.51171875</ele>
        <time>2021-11-14T09:13:47Z</time>
      </trkpt>
      <trkpt lat="43.06237" lon="5.83619">
        <ele>129.14453125</ele>
        <time>2021-11-14T09:13:48Z</time>
      </trkpt>
      <trkpt lat="43.06234" lon="5.83596">
        <ele>127.9609375</ele>
        <time>2021-11-14T09:13:53Z</time>
      </trkpt>
      <trkpt lat="43.06233" lon="5.83581">
        <ele>126.6640625</ele>
        <time>2021-11-14T09:13:57Z</time>
      </trkpt>
      <trkpt lat="43.06232" lon="5.83577">
        <ele>126.15234375</ele>
        <time>2021-11-14T09:13:58Z</time>
      </trkpt>
      <trkpt lat="43.0623" lon="5.83573">
        <ele>125.56640625</ele>
        <time>2021-11-14T09:13:59Z</time>
      </trkpt>
      <trkpt lat="43.06227" lon="5.8357">
        <ele>124.83203125</ele>
        <time>2021-11-14T09:14:00Z</time>
      </trkpt>
      <trkpt lat="43.06224" lon="5.83566">
        <ele>124.0390625</ele>
        <time>2021-11-14T09:14:01Z</time>
      </trkpt>
      <trkpt lat="43.06221" lon="5.83561">
        <ele>123.1640625</ele>
        <time>2021-11-14T09:14:02Z</time>
      </trkpt>
      <trkpt lat="43.06214" lon="5.8355">
        <ele>121.234375</ele>
        <time>2021-11-14T09:14:04Z</time>
      </trkpt>
      <trkpt lat="43.06211" lon="5.83543">
        <ele>120.16796875</ele>
        <time>2021-11-14T09:14:05Z</time>
      </trkpt>
      <trkpt lat="43.06207" lon="5.83532">
        <ele>118.625</ele>
        <time>2021-11-14T09:14:07Z</time>
      </trkpt>
      <trkpt lat="43.06204" lon="5.83529">
        <ele>118.1328125</ele>
        <time>2021-11-14T09:14:08Z</time>
      </trkpt>
      <trkpt lat="43.06201" lon="5.83526">
        <ele>117.71875</ele>
        <time>2021-11-14T09:14:09Z</time>
      </trkpt>
      <trkpt lat="43.06199" lon="5.83524">
        <ele>117.36328125</ele>
        <time>2021-11-14T09:14:10Z</time>
      </trkpt>
      <trkpt lat="43.06196" lon="5.83522">
        <ele>116.98046875</ele>
        <time>2021-11-14T09:14:11Z</time>
      </trkpt>
      <trkpt lat="43.06193" lon="5.8352">
        <ele>116.6328125</ele>
        <time>2021-11-14T09:14:12Z</time>
      </trkpt>
      <trkpt lat="43.06191" lon="5.83518">
        <ele>116.35546875</ele>
        <time>2021-11-14T09:14:13Z</time>
      </trkpt>
      <trkpt lat="43.06183" lon="5.8351">
        <ele>115.32421875</ele>
        <time>2021-11-14T09:14:17Z</time>
      </trkpt>
      <trkpt lat="43.06176" lon="5.83513">
        <ele>115.40234375</ele>
        <time>2021-11-14T09:14:23Z</time>
      </trkpt>
      <trkpt lat="43.06178" lon="5.83514">
        <ele>115.5390625</ele>
        <time>2021-11-14T09:14:24Z</time>
      </trkpt>
      <trkpt lat="43.06181" lon="5.83515">
        <ele>115.67578125</ele>
        <time>2021-11-14T09:14:25Z</time>
      </trkpt>
      <trkpt lat="43.06184" lon="5.83516">
        <ele>115.8671875</ele>
        <time>2021-11-14T09:14:26Z</time>
      </trkpt>
      <trkpt lat="43.06201" lon="5.83525">
        <ele>117.54296875</ele>
        <time>2021-11-14T09:14:31Z</time>
      </trkpt>
      <trkpt lat="43.06199" lon="5.83541">
        <ele>119.109375</ele>
        <time>2021-11-14T09:14:37Z</time>
      </trkpt>
      <trkpt lat="43.06192" lon="5.83546">
        <ele>119.0234375</ele>
        <time>2021-11-14T09:14:42Z</time>
      </trkpt>
      <trkpt lat="43.06185" lon="5.83544">
        <ele>118.46484375</ele>
        <time>2021-11-14T09:14:45Z</time>
      </trkpt>
      <trkpt lat="43.06153" lon="5.83555">
        <ele>119.32421875</ele>
        <time>2021-11-14T09:14:59Z</time>
      </trkpt>
      <trkpt lat="43.06152" lon="5.83558">
        <ele>119.64453125</ele>
        <time>2021-11-14T09:15:00Z</time>
      </trkpt>
      <trkpt lat="43.06152" lon="5.83561">
        <ele>119.97265625</ele>
        <time>2021-11-14T09:15:01Z</time>
      </trkpt>
      <trkpt lat="43.06152" lon="5.83574">
        <ele>121.390625</ele>
        <time>2021-11-14T09:15:06Z</time>
      </trkpt>
      <trkpt lat="43.06153" lon="5.83576">
        <ele>121.63671875</ele>
        <time>2021-11-14T09:15:07Z</time>
      </trkpt>
      <trkpt lat="43.06154" lon="5.83579">
        <ele>121.90625</ele>
        <time>2021-11-14T09:15:08Z</time>
      </trkpt>
      <trkpt lat="43.06155" lon="5.83582">
        <ele>122.2421875</ele>
        <time>2021-11-14T09:15:09Z</time>
      </trkpt>
      <trkpt lat="43.06155" lon="5.83585">
        <ele>122.6171875</ele>
        <time>2021-11-14T09:15:10Z</time>
      </trkpt>
      <trkpt lat="43.06155" lon="5.83589">
        <ele>122.9765625</ele>
        <time>2021-11-14T09:15:11Z</time>
      </trkpt>
      <trkpt lat="43.06155" lon="5.83591">
        <ele>123.2578125</ele>
        <time>2021-11-14T09:15:12Z</time>
      </trkpt>
      <trkpt lat="43.06155" lon="5.83594">
        <ele>123.51953125</ele>
        <time>2021-11-14T09:15:13Z</time>
      </trkpt>
      <trkpt lat="43.06154" lon="5.83604">
        <ele>124.578125</ele>
        <time>2021-11-14T09:15:17Z</time>
      </trkpt>
      <trkpt lat="43.06154" lon="5.83606">
        <ele>124.89453125</ele>
        <time>2021-11-14T09:15:18Z</time>
      </trkpt>
      <trkpt lat="43.06153" lon="5.8361">
        <ele>125.2109375</ele>
        <time>2021-11-14T09:15:19Z</time>
      </trkpt>
      <trkpt lat="43.06152" lon="5.83612">
        <ele>125.4765625</ele>
        <time>2021-11-14T09:15:20Z</time>
      </trkpt>
      <trkpt lat="43.06152" lon="5.83615">
        <ele>125.7578125</ele>
        <time>2021-11-14T09:15:21Z</time>
      </trkpt>
      <trkpt lat="43.06152" lon="5.83618">
        <ele>126.0703125</ele>
        <time>2021-11-14T09:15:22Z</time>
      </trkpt>
      <trkpt lat="43.06152" lon="5.83621">
        <ele>126.453125</ele>
        <time>2021-11-14T09:15:23Z</time>
      </trkpt>
      <trkpt lat="43.06155" lon="5.83653">
        <ele>131.234375</ele>
        <time>2021-11-14T09:15:35Z</time>
      </trkpt>
      <trkpt lat="43.06151" lon="5.8368">
        <ele>134.80078125</ele>
        <time>2021-11-14T09:15:48Z</time>
      </trkpt>
      <trkpt lat="43.06148" lon="5.83688">
        <ele>135.7265625</ele>
        <time>2021-11-14T09:15:52Z</time>
      </trkpt>
      <trkpt lat="43.06148" lon="5.8369">
        <ele>135.9609375</ele>
        <time>2021-11-14T09:15:53Z</time>
      </trkpt>
      <trkpt lat="43.06145" lon="5.83696">
        <ele>136.53125</ele>
        <time>2021-11-14T09:15:56Z</time>
      </trkpt>
      <trkpt lat="43.06144" lon="5.83697">
        <ele>136.5625</ele>
        <time>2021-11-14T09:15:57Z</time>
      </trkpt>
      <trkpt lat="43.06142" lon="5.83699">
        <ele>136.5859375</ele>
        <time>2021-11-14T09:15:58Z</time>
      </trkpt>
      <trkpt lat="43.0614" lon="5.83702">
        <ele>136.77734375</ele>
        <time>2021-11-14T09:16:00Z</time>
      </trkpt>
      <trkpt lat="43.06138" lon="5.83704">
        <ele>136.875</ele>
        <time>2021-11-14T09:16:01Z</time>
      </trkpt>
      <trkpt lat="43.06123" lon="5.83725">
        <ele>138.23828125</ele>
        <time>2021-11-14T09:16:11Z</time>
      </trkpt>
      <trkpt lat="43.06107" lon="5.83747">
        <ele>138.76953125</ele>
        <time>2021-11-14T09:16:21Z</time>
      </trkpt>
      <trkpt lat="43.06103" lon="5.83782">
        <ele>141.38671875</ele>
        <time>2021-11-14T09:16:32Z</time>
      </trkpt>
      <trkpt lat="43.06103" lon="5.83786">
        <ele>141.65234375</ele>
        <time>2021-11-14T09:16:33Z</time>
      </trkpt>
      <trkpt lat="43.06103" lon="5.83789">
        <ele>141.95703125</ele>
        <time>2021-11-14T09:16:34Z</time>
      </trkpt>
      <trkpt lat="43.06103" lon="5.83794">
        <ele>142.30859375</ele>
        <time>2021-11-14T09:16:35Z</time>
      </trkpt>
      <trkpt lat="43.061" lon="5.83823">
        <ele>143.6796875</ele>
        <time>2021-11-14T09:16:41Z</time>
      </trkpt>
      <trkpt lat="43.06099" lon="5.83835">
        <ele>143.91015625</ele>
        <time>2021-11-14T09:16:43Z</time>
      </trkpt>
      <trkpt lat="43.061" lon="5.83867">
        <ele>145.46484375</ele>
        <time>2021-11-14T09:16:48Z</time>
      </trkpt>
      <trkpt lat="43.06102" lon="5.83879">
        <ele>145.859375</ele>
        <time>2021-11-14T09:16:50Z</time>
      </trkpt>
      <trkpt lat="43.06102" lon="5.83886">
        <ele>146.0625</ele>
        <time>2021-11-14T09:16:51Z</time>
      </trkpt>
      <trkpt lat="43.06103" lon="5.83892">
        <ele>146.3203125</ele>
        <time>2021-11-14T09:16:52Z</time>
      </trkpt>
      <trkpt lat="43.06105" lon="5.83912">
        <ele>146.7578125</ele>
        <time>2021-11-14T09:16:55Z</time>
      </trkpt>
      <trkpt lat="43.06104" lon="5.83919">
        <ele>146.5859375</ele>
        <time>2021-11-14T09:16:56Z</time>
      </trkpt>
      <trkpt lat="43.06102" lon="5.83932">
        <ele>145.35546875</ele>
        <time>2021-11-14T09:16:58Z</time>
      </trkpt>
      <trkpt lat="43.06102" lon="5.83939">
        <ele>144.8046875</ele>
        <time>2021-11-14T09:16:59Z</time>
      </trkpt>
      <trkpt lat="43.06105" lon="5.83969">
        <ele>143.48828125</ele>
        <time>2021-11-14T09:17:05Z</time>
      </trkpt>
      <trkpt lat="43.06104" lon="5.83981">
        <ele>142.4765625</ele>
        <time>2021-11-14T09:17:07Z</time>
      </trkpt>
      <trkpt lat="43.06104" lon="5.83986">
        <ele>142.203125</ele>
        <time>2021-11-14T09:17:08Z</time>
      </trkpt>
      <trkpt lat="43.06105" lon="5.8399">
        <ele>142.08203125</ele>
        <time>2021-11-14T09:17:09Z</time>
      </trkpt>
      <trkpt lat="43.06105" lon="5.83995">
        <ele>141.9609375</ele>
        <time>2021-11-14T09:17:10Z</time>
      </trkpt>
      <trkpt lat="43.06105" lon="5.84">
        <ele>141.6796875</ele>
        <time>2021-11-14T09:17:11Z</time>
      </trkpt>
      <trkpt lat="43.06105" lon="5.84003">
        <ele>141.43359375</ele>
        <time>2021-11-14T09:17:12Z</time>
      </trkpt>
      <trkpt lat="43.06104" lon="5.84007">
        <ele>141.08984375</ele>
        <time>2021-11-14T09:17:15Z</time>
      </trkpt>
      <trkpt lat="43.06103" lon="5.84006">
        <ele>140.83203125</ele>
        <time>2021-11-14T09:17:16Z</time>
      </trkpt>
      <trkpt lat="43.06101" lon="5.84004">
        <ele>140.5546875</ele>
        <time>2021-11-14T09:17:17Z</time>
      </trkpt>
      <trkpt lat="43.06099" lon="5.84002">
        <ele>140.27734375</ele>
        <time>2021-11-14T09:17:18Z</time>
      </trkpt>
      <trkpt lat="43.06098" lon="5.84">
        <ele>140.1484375</ele>
        <time>2021-11-14T09:17:19Z</time>
      </trkpt>
      <trkpt lat="43.06092" lon="5.83989">
        <ele>140.04296875</ele>
        <time>2021-11-14T09:17:24Z</time>
      </trkpt>
      <trkpt lat="43.06092" lon="5.83986">
        <ele>140.1328125</ele>
        <time>2021-11-14T09:17:25Z</time>
      </trkpt>
      <trkpt lat="43.06092" lon="5.83982">
        <ele>140.22265625</ele>
        <time>2021-11-14T09:17:26Z</time>
      </trkpt>
      <trkpt lat="43.06092" lon="5.83977">
        <ele>140.25</ele>
        <time>2021-11-14T09:17:27Z</time>
      </trkpt>
      <trkpt lat="43.06091" lon="5.83973">
        <ele>140.3125</ele>
        <time>2021-11-14T09:17:28Z</time>
      </trkpt>
      <trkpt lat="43.0609" lon="5.8397">
        <ele>140.3359375</ele>
        <time>2021-11-14T09:17:29Z</time>
      </trkpt>
      <trkpt lat="43.06086" lon="5.83961">
        <ele>139.98828125</ele>
        <time>2021-11-14T09:17:31Z</time>
      </trkpt>
      <trkpt lat="43.06083" lon="5.83955">
        <ele>139.5</ele>
        <time>2021-11-14T09:17:32Z</time>
      </trkpt>
      <trkpt lat="43.0608" lon="5.83949">
        <ele>138.984375</ele>
        <time>2021-11-14T09:17:33Z</time>
      </trkpt>
      <trkpt lat="43.06075" lon="5.83936">
        <ele>138.05078125</ele>
        <time>2021-11-14T09:17:35Z</time>
      </trkpt>
      <trkpt lat="43.0606" lon="5.83903">
        <ele>135.59375</ele>
        <time>2021-11-14T09:17:40Z</time>
      </trkpt>
      <trkpt lat="43.06057" lon="5.83897">
        <ele>134.99609375</ele>
        <time>2021-11-14T09:17:41Z</time>
      </trkpt>
      <trkpt lat="43.06045" lon="5.83881">
        <ele>133.37109375</ele>
        <time>2021-11-14T09:17:44Z</time>
      </trkpt>
      <trkpt lat="43.06044" lon="5.83875">
        <ele>133.11328125</ele>
        <time>2021-11-14T09:17:45Z</time>
      </trkpt>
      <trkpt lat="43.06043" lon="5.83868">
        <ele>133.05078125</ele>
        <time>2021-11-14T09:17:46Z</time>
      </trkpt>
      <trkpt lat="43.06043" lon="5.83862">
        <ele>133.02734375</ele>
        <time>2021-11-14T09:17:47Z</time>
      </trkpt>
      <trkpt lat="43.06043" lon="5.83855">
        <ele>133.015625</ele>
        <time>2021-11-14T09:17:48Z</time>
      </trkpt>
      <trkpt lat="43.06042" lon="5.83849">
        <ele>133.0390625</ele>
        <time>2021-11-14T09:17:49Z</time>
      </trkpt>
      <trkpt lat="43.0604" lon="5.83844">
        <ele>133.04296875</ele>
        <time>2021-11-14T09:17:50Z</time>
      </trkpt>
      <trkpt lat="43.06037" lon="5.8384">
        <ele>133.01953125</ele>
        <time>2021-11-14T09:17:51Z</time>
      </trkpt>
      <trkpt lat="43.06034" lon="5.83837">
        <ele>132.953125</ele>
        <time>2021-11-14T09:17:52Z</time>
      </trkpt>
      <trkpt lat="43.06031" lon="5.83834">
        <ele>132.86328125</ele>
        <time>2021-11-14T09:17:53Z</time>
      </trkpt>
      <trkpt lat="43.06029" lon="5.83833">
        <ele>132.78125</ele>
        <time>2021-11-14T09:17:54Z</time>
      </trkpt>
      <trkpt lat="43.06026" lon="5.83826">
        <ele>132.4140625</ele>
        <time>2021-11-14T09:18:05Z</time>
      </trkpt>
      <trkpt lat="43.06019" lon="5.83817">
        <ele>131.65234375</ele>
        <time>2021-11-14T09:18:20Z</time>
      </trkpt>
      <trkpt lat="43.06018" lon="5.83816">
        <ele>131.5078125</ele>
        <time>2021-11-14T09:18:21Z</time>
      </trkpt>
      <trkpt lat="43.06017" lon="5.83814">
        <ele>131.328125</ele>
        <time>2021-11-14T09:18:22Z</time>
      </trkpt>
      <trkpt lat="43.06017" lon="5.83811">
        <ele>131.12890625</ele>
        <time>2021-11-14T09:18:23Z</time>
      </trkpt>
      <trkpt lat="43.06016" lon="5.83809">
        <ele>130.9921875</ele>
        <time>2021-11-14T09:18:24Z</time>
      </trkpt>
      <trkpt lat="43.06016" lon="5.83806">
        <ele>130.875</ele>
        <time>2021-11-14T09:18:25Z</time>
      </trkpt>
      <trkpt lat="43.06016" lon="5.83804">
        <ele>130.76171875</ele>
        <time>2021-11-14T09:18:26Z</time>
      </trkpt>
      <trkpt lat="43.06" lon="5.83762">
        <ele>130.0546875</ele>
        <time>2021-11-14T09:18:38Z</time>
      </trkpt>
      <trkpt lat="43.05971" lon="5.83744">
        <ele>132.7109375</ele>
        <time>2021-11-14T09:18:48Z</time>
      </trkpt>
      <trkpt lat="43.05942" lon="5.83738">
        <ele>136.34765625</ele>
        <time>2021-11-14T09:18:57Z</time>
      </trkpt>
      <trkpt lat="43.05937" lon="5.83737">
        <ele>136.703125</ele>
        <time>2021-11-14T09:18:59Z</time>
      </trkpt>
      <trkpt lat="43.05936" lon="5.83735">
        <ele>136.62890625</ele>
        <time>2021-11-14T09:19:00Z</time>
      </trkpt>
      <trkpt lat="43.0592" lon="5.83717">
        <ele>136.12109375</ele>
        <time>2021-11-14T09:19:09Z</time>
      </trkpt>
      <trkpt lat="43.05913" lon="5.83713">
        <ele>136.28125</ele>
        <time>2021-11-14T09:19:17Z</time>
      </trkpt>
      <trkpt lat="43.05911" lon="5.8371">
        <ele>136.2421875</ele>
        <time>2021-11-14T09:19:44Z</time>
      </trkpt>
      <trkpt lat="43.05909" lon="5.8371">
        <ele>136.37890625</ele>
        <time>2021-11-14T09:20:11Z</time>
      </trkpt>
      <trkpt lat="43.05909" lon="5.83708">
        <ele>136.25390625</ele>
        <time>2021-11-14T09:20:37Z</time>
      </trkpt>
      <trkpt lat="43.05911" lon="5.83708">
        <ele>136.1015625</ele>
        <time>2021-11-14T09:21:08Z</time>
      </trkpt>
      <trkpt lat="43.0591" lon="5.83709">
        <ele>136.23828125</ele>
        <time>2021-11-14T09:21:34Z</time>
      </trkpt>
      <trkpt lat="43.05907" lon="5.83713">
        <ele>136.79296875</ele>
        <time>2021-11-14T09:21:51Z</time>
      </trkpt>
      <trkpt lat="43.05906" lon="5.83714">
        <ele>136.92578125</ele>
        <time>2021-11-14T09:21:52Z</time>
      </trkpt>
      <trkpt lat="43.05904" lon="5.83716">
        <ele>137.18359375</ele>
        <time>2021-11-14T09:21:53Z</time>
      </trkpt>
      <trkpt lat="43.05903" lon="5.83719">
        <ele>137.44921875</ele>
        <time>2021-11-14T09:21:54Z</time>
      </trkpt>
      <trkpt lat="43.05902" lon="5.83721">
        <ele>137.71875</ele>
        <time>2021-11-14T09:21:55Z</time>
      </trkpt>
      <trkpt lat="43.059" lon="5.83724">
        <ele>137.9921875</ele>
        <time>2021-11-14T09:21:56Z</time>
      </trkpt>
      <trkpt lat="43.05899" lon="5.83725">
        <ele>138.203125</ele>
        <time>2021-11-14T09:21:57Z</time>
      </trkpt>
      <trkpt lat="43.05897" lon="5.83725">
        <ele>138.34765625</ele>
        <time>2021-11-14T09:21:58Z</time>
      </trkpt>
      <trkpt lat="43.05895" lon="5.83726">
        <ele>138.515625</ele>
        <time>2021-11-14T09:21:59Z</time>
      </trkpt>
      <trkpt lat="43.05893" lon="5.83726">
        <ele>138.671875</ele>
        <time>2021-11-14T09:22:00Z</time>
      </trkpt>
      <trkpt lat="43.05892" lon="5.83727">
        <ele>138.83203125</ele>
        <time>2021-11-14T09:22:01Z</time>
      </trkpt>
      <trkpt lat="43.0589" lon="5.83727">
        <ele>138.96484375</ele>
        <time>2021-11-14T09:22:02Z</time>
      </trkpt>
      <trkpt lat="43.05888" lon="5.83727">
        <ele>139.07421875</ele>
        <time>2021-11-14T09:22:03Z</time>
      </trkpt>
      <trkpt lat="43.05864" lon="5.83727">
        <ele>140.86328125</ele>
        <time>2021-11-14T09:22:14Z</time>
      </trkpt>
      <trkpt lat="43.05844" lon="5.83729">
        <ele>142.28515625</ele>
        <time>2021-11-14T09:22:22Z</time>
      </trkpt>
      <trkpt lat="43.05843" lon="5.83731">
        <ele>142.48046875</ele>
        <time>2021-11-14T09:22:24Z</time>
      </trkpt>
      <trkpt lat="43.05843" lon="5.83733">
        <ele>142.6640625</ele>
        <time>2021-11-14T09:22:25Z</time>
      </trkpt>
      <trkpt lat="43.05843" lon="5.83735">
        <ele>142.84375</ele>
        <time>2021-11-14T09:22:26Z</time>
      </trkpt>
      <trkpt lat="43.05843" lon="5.83738">
        <ele>143.01171875</ele>
        <time>2021-11-14T09:22:27Z</time>
      </trkpt>
      <trkpt lat="43.05842" lon="5.8374">
        <ele>143.1953125</ele>
        <time>2021-11-14T09:22:28Z</time>
      </trkpt>
      <trkpt lat="43.05841" lon="5.83741">
        <ele>143.39453125</ele>
        <time>2021-11-14T09:22:29Z</time>
      </trkpt>
      <trkpt lat="43.05839" lon="5.83743">
        <ele>143.6015625</ele>
        <time>2021-11-14T09:22:30Z</time>
      </trkpt>
      <trkpt lat="43.05837" lon="5.83744">
        <ele>143.8203125</ele>
        <time>2021-11-14T09:22:31Z</time>
      </trkpt>
      <trkpt lat="43.05835" lon="5.83745">
        <ele>144.03515625</ele>
        <time>2021-11-14T09:22:32Z</time>
      </trkpt>
      <trkpt lat="43.05801" lon="5.83757">
        <ele>146.265625</ele>
        <time>2021-11-14T09:22:43Z</time>
      </trkpt>
      <trkpt lat="43.05769" lon="5.83768">
        <ele>148.2421875</ele>
        <time>2021-11-14T09:22:51Z</time>
      </trkpt>
      <trkpt lat="43.05765" lon="5.8377">
        <ele>148.6796875</ele>
        <time>2021-11-14T09:22:52Z</time>
      </trkpt>
      <trkpt lat="43.05748" lon="5.83777">
        <ele>149.23046875</ele>
        <time>2021-11-14T09:22:56Z</time>
      </trkpt>
      <trkpt lat="43.05743" lon="5.83779">
        <ele>149.37890625</ele>
        <time>2021-11-14T09:22:57Z</time>
      </trkpt>
      <trkpt lat="43.0573" lon="5.83785">
        <ele>149.875</ele>
        <time>2021-11-14T09:23:00Z</time>
      </trkpt>
      <trkpt lat="43.05725" lon="5.83788">
        <ele>150.17578125</ele>
        <time>2021-11-14T09:23:01Z</time>
      </trkpt>
      <trkpt lat="43.0571" lon="5.83805">
        <ele>151.84375</ele>
        <time>2021-11-14T09:23:05Z</time>
      </trkpt>
      <trkpt lat="43.05707" lon="5.8381">
        <ele>152.203125</ele>
        <time>2021-11-14T09:23:06Z</time>
      </trkpt>
      <trkpt lat="43.05704" lon="5.83813">
        <ele>152.28125</ele>
        <time>2021-11-14T09:23:07Z</time>
      </trkpt>
      <trkpt lat="43.05702" lon="5.83813">
        <ele>151.82421875</ele>
        <time>2021-11-14T09:23:09Z</time>
      </trkpt>
      <trkpt lat="43.05701" lon="5.83812">
        <ele>151.52734375</ele>
        <time>2021-11-14T09:23:10Z</time>
      </trkpt>
      <trkpt lat="43.05694" lon="5.83808">
        <ele>149.64453125</ele>
        <time>2021-11-14T09:23:16Z</time>
      </trkpt>
      <trkpt lat="43.05683" lon="5.83789">
        <ele>144.953125</ele>
        <time>2021-11-14T09:23:26Z</time>
      </trkpt>
      <trkpt lat="43.05689" lon="5.8378">
        <ele>144.59765625</ele>
        <time>2021-11-14T09:23:30Z</time>
      </trkpt>
      <trkpt lat="43.05702" lon="5.83736">
        <ele>140.78515625</ele>
        <time>2021-11-14T09:23:38Z</time>
      </trkpt>
      <trkpt lat="43.05707" lon="5.83728">
        <ele>139.87109375</ele>
        <time>2021-11-14T09:23:40Z</time>
      </trkpt>
      <trkpt lat="43.05718" lon="5.83715">
        <ele>139.46875</ele>
        <time>2021-11-14T09:23:43Z</time>
      </trkpt>
      <trkpt lat="43.05728" lon="5.83704">
        <ele>138.5</ele>
        <time>2021-11-14T09:23:49Z</time>
      </trkpt>
      <trkpt lat="43.05723" lon="5.83705">
        <ele>138.51953125</ele>
        <time>2021-11-14T09:24:04Z</time>
      </trkpt>
      <trkpt lat="43.05723" lon="5.83704">
        <ele>138.38671875</ele>
        <time>2021-11-14T09:24:19Z</time>
      </trkpt>
      <trkpt lat="43.05723" lon="5.83696">
        <ele>137.80078125</ele>
        <time>2021-11-14T09:24:49Z</time>
      </trkpt>
      <trkpt lat="43.05725" lon="5.83701">
        <ele>138.08984375</ele>
        <time>2021-11-14T09:25:11Z</time>
      </trkpt>
      <trkpt lat="43.05741" lon="5.8369">
        <ele>137.35546875</ele>
        <time>2021-11-14T09:25:24Z</time>
      </trkpt>
      <trkpt lat="43.05748" lon="5.83686">
        <ele>136.984375</ele>
        <time>2021-11-14T09:25:34Z</time>
      </trkpt>
      <trkpt lat="43.0575" lon="5.83685">
        <ele>136.92578125</ele>
        <time>2021-11-14T09:25:35Z</time>
      </trkpt>
      <trkpt lat="43.05751" lon="5.83685">
        <ele>136.8671875</ele>
        <time>2021-11-14T09:25:36Z</time>
      </trkpt>
      <trkpt lat="43.05771" lon="5.8367">
        <ele>135.03125</ele>
        <time>2021-11-14T09:25:46Z</time>
      </trkpt>
      <trkpt lat="43.05773" lon="5.83669">
        <ele>134.98828125</ele>
        <time>2021-11-14T09:25:47Z</time>
      </trkpt>
      <trkpt lat="43.0579" lon="5.83653">
        <ele>133.85546875</ele>
        <time>2021-11-14T09:25:53Z</time>
      </trkpt>
      <trkpt lat="43.05794" lon="5.83649">
        <ele>133.48828125</ele>
        <time>2021-11-14T09:25:54Z</time>
      </trkpt>
      <trkpt lat="43.05798" lon="5.83643">
        <ele>133.078125</ele>
        <time>2021-11-14T09:25:55Z</time>
      </trkpt>
      <trkpt lat="43.05815" lon="5.83611">
        <ele>130.6640625</ele>
        <time>2021-11-14T09:26:00Z</time>
      </trkpt>
      <trkpt lat="43.05819" lon="5.83605">
        <ele>130.23828125</ele>
        <time>2021-11-14T09:26:01Z</time>
      </trkpt>
      <trkpt lat="43.05824" lon="5.83601">
        <ele>129.72265625</ele>
        <time>2021-11-14T09:26:02Z</time>
      </trkpt>
      <trkpt lat="43.05829" lon="5.83598">
        <ele>129.140625</ele>
        <time>2021-11-14T09:26:03Z</time>
      </trkpt>
      <trkpt lat="43.05835" lon="5.83595">
        <ele>128.51953125</ele>
        <time>2021-11-14T09:26:04Z</time>
      </trkpt>
      <trkpt lat="43.05842" lon="5.83592">
        <ele>127.84765625</ele>
        <time>2021-11-14T09:26:05Z</time>
      </trkpt>
      <trkpt lat="43.05848" lon="5.8359">
        <ele>127.1875</ele>
        <time>2021-11-14T09:26:06Z</time>
      </trkpt>
      <trkpt lat="43.05859" lon="5.83587">
        <ele>126.66796875</ele>
        <time>2021-11-14T09:26:08Z</time>
      </trkpt>
      <trkpt lat="43.05864" lon="5.83585">
        <ele>126.5</ele>
        <time>2021-11-14T09:26:09Z</time>
      </trkpt>
      <trkpt lat="43.05873" lon="5.83582">
        <ele>126.1484375</ele>
        <time>2021-11-14T09:26:11Z</time>
      </trkpt>
      <trkpt lat="43.05905" lon="5.83573">
        <ele>124.421875</ele>
        <time>2021-11-14T09:26:21Z</time>
      </trkpt>
      <trkpt lat="43.05922" lon="5.83559">
        <ele>123.2890625</ele>
        <time>2021-11-14T09:26:27Z</time>
      </trkpt>
      <trkpt lat="43.05925" lon="5.83556">
        <ele>122.98828125</ele>
        <time>2021-11-14T09:26:28Z</time>
      </trkpt>
      <trkpt lat="43.05928" lon="5.83553">
        <ele>122.62890625</ele>
        <time>2021-11-14T09:26:29Z</time>
      </trkpt>
      <trkpt lat="43.05931" lon="5.83549">
        <ele>122.17578125</ele>
        <time>2021-11-14T09:26:30Z</time>
      </trkpt>
      <trkpt lat="43.05935" lon="5.83545">
        <ele>121.71484375</ele>
        <time>2021-11-14T09:26:31Z</time>
      </trkpt>
      <trkpt lat="43.05937" lon="5.83541">
        <ele>121.1953125</ele>
        <time>2021-11-14T09:26:32Z</time>
      </trkpt>
      <trkpt lat="43.0594" lon="5.83536">
        <ele>120.640625</ele>
        <time>2021-11-14T09:26:33Z</time>
      </trkpt>
      <trkpt lat="43.05944" lon="5.83534">
        <ele>120.140625</ele>
        <time>2021-11-14T09:26:34Z</time>
      </trkpt>
      <trkpt lat="43.05948" lon="5.83531">
        <ele>120.02734375</ele>
        <time>2021-11-14T09:26:35Z</time>
      </trkpt>
      <trkpt lat="43.05952" lon="5.83528">
        <ele>120.0390625</ele>
        <time>2021-11-14T09:26:36Z</time>
      </trkpt>
      <trkpt lat="43.05955" lon="5.83524">
        <ele>120.0546875</ele>
        <time>2021-11-14T09:26:37Z</time>
      </trkpt>
      <trkpt lat="43.05959" lon="5.83521">
        <ele>119.984375</ele>
        <time>2021-11-14T09:26:38Z</time>
      </trkpt>
      <trkpt lat="43.05963" lon="5.83517">
        <ele>119.98046875</ele>
        <time>2021-11-14T09:26:39Z</time>
      </trkpt>
      <trkpt lat="43.05966" lon="5.83514">
        <ele>119.984375</ele>
        <time>2021-11-14T09:26:40Z</time>
      </trkpt>
      <trkpt lat="43.0597" lon="5.8351">
        <ele>119.96875</ele>
        <time>2021-11-14T09:26:41Z</time>
      </trkpt>
      <trkpt lat="43.05975" lon="5.83505">
        <ele>119.97265625</ele>
        <time>2021-11-14T09:26:42Z</time>
      </trkpt>
      <trkpt lat="43.05979" lon="5.83499">
        <ele>119.9296875</ele>
        <time>2021-11-14T09:26:43Z</time>
      </trkpt>
      <trkpt lat="43.05983" lon="5.83493">
        <ele>119.8671875</ele>
        <time>2021-11-14T09:26:44Z</time>
      </trkpt>
      <trkpt lat="43.05986" lon="5.83486">
        <ele>119.8203125</ele>
        <time>2021-11-14T09:26:45Z</time>
      </trkpt>
      <trkpt lat="43.0599" lon="5.8348">
        <ele>119.625</ele>
        <time>2021-11-14T09:26:46Z</time>
      </trkpt>
      <trkpt lat="43.05995" lon="5.83474">
        <ele>119.41796875</ele>
        <time>2021-11-14T09:26:47Z</time>
      </trkpt>
      <trkpt lat="43.06001" lon="5.83469">
        <ele>119.18359375</ele>
        <time>2021-11-14T09:26:48Z</time>
      </trkpt>
      <trkpt lat="43.06006" lon="5.83466">
        <ele>118.86328125</ele>
        <time>2021-11-14T09:26:49Z</time>
      </trkpt>
      <trkpt lat="43.06012" lon="5.83462">
        <ele>118.5234375</ele>
        <time>2021-11-14T09:26:50Z</time>
      </trkpt>
      <trkpt lat="43.06017" lon="5.83458">
        <ele>118.28125</ele>
        <time>2021-11-14T09:26:51Z</time>
      </trkpt>
      <trkpt lat="43.06021" lon="5.83453">
        <ele>118.19140625</ele>
        <time>2021-11-14T09:26:52Z</time>
      </trkpt>
      <trkpt lat="43.06024" lon="5.83446">
        <ele>118.1796875</ele>
        <time>2021-11-14T09:26:53Z</time>
      </trkpt>
      <trkpt lat="43.06027" lon="5.83437">
        <ele>118.20703125</ele>
        <time>2021-11-14T09:26:54Z</time>
      </trkpt>
      <trkpt lat="43.06028" lon="5.83429">
        <ele>118.35546875</ele>
        <time>2021-11-14T09:26:55Z</time>
      </trkpt>
      <trkpt lat="43.06029" lon="5.83421">
        <ele>118.62890625</ele>
        <time>2021-11-14T09:26:56Z</time>
      </trkpt>
      <trkpt lat="43.06028" lon="5.83412">
        <ele>118.96484375</ele>
        <time>2021-11-14T09:26:57Z</time>
      </trkpt>
      <trkpt lat="43.06028" lon="5.83396">
        <ele>119.58984375</ele>
        <time>2021-11-14T09:26:59Z</time>
      </trkpt>
      <trkpt lat="43.06028" lon="5.83389">
        <ele>119.8203125</ele>
        <time>2021-11-14T09:27:00Z</time>
      </trkpt>
      <trkpt lat="43.06029" lon="5.83381">
        <ele>119.97265625</ele>
        <time>2021-11-14T09:27:01Z</time>
      </trkpt>
      <trkpt lat="43.06031" lon="5.83375">
        <ele>119.99609375</ele>
        <time>2021-11-14T09:27:02Z</time>
      </trkpt>
      <trkpt lat="43.06034" lon="5.83369">
        <ele>119.86328125</ele>
        <time>2021-11-14T09:27:03Z</time>
      </trkpt>
      <trkpt lat="43.06038" lon="5.83365">
        <ele>119.65234375</ele>
        <time>2021-11-14T09:27:04Z</time>
      </trkpt>
      <trkpt lat="43.06042" lon="5.83362">
        <ele>119.4140625</ele>
        <time>2021-11-14T09:27:05Z</time>
      </trkpt>
      <trkpt lat="43.06045" lon="5.83362">
        <ele>119.14453125</ele>
        <time>2021-11-14T09:27:06Z</time>
      </trkpt>
      <trkpt lat="43.06047" lon="5.83365">
        <ele>118.828125</ele>
        <time>2021-11-14T09:27:07Z</time>
      </trkpt>
      <trkpt lat="43.06049" lon="5.83367">
        <ele>118.5859375</ele>
        <time>2021-11-14T09:27:08Z</time>
      </trkpt>
      <trkpt lat="43.06051" lon="5.83373">
        <ele>118.15625</ele>
        <time>2021-11-14T09:27:10Z</time>
      </trkpt>
      <trkpt lat="43.06054" lon="5.83375">
        <ele>117.8203125</ele>
        <time>2021-11-14T09:27:11Z</time>
      </trkpt>
      <trkpt lat="43.06057" lon="5.83377">
        <ele>117.42578125</ele>
        <time>2021-11-14T09:27:12Z</time>
      </trkpt>
      <trkpt lat="43.06066" lon="5.83379">
        <ele>116.55859375</ele>
        <time>2021-11-14T09:27:14Z</time>
      </trkpt>
      <trkpt lat="43.0607" lon="5.83379">
        <ele>116.1796875</ele>
        <time>2021-11-14T09:27:15Z</time>
      </trkpt>
      <trkpt lat="43.06074" lon="5.83379">
        <ele>115.890625</ele>
        <time>2021-11-14T09:27:16Z</time>
      </trkpt>
      <trkpt lat="43.06078" lon="5.83378">
        <ele>115.6640625</ele>
        <time>2021-11-14T09:27:17Z</time>
      </trkpt>
      <trkpt lat="43.06083" lon="5.83377">
        <ele>115.42578125</ele>
        <time>2021-11-14T09:27:18Z</time>
      </trkpt>
      <trkpt lat="43.06087" lon="5.83376">
        <ele>115.203125</ele>
        <time>2021-11-14T09:27:19Z</time>
      </trkpt>
      <trkpt lat="43.06091" lon="5.83373">
        <ele>115.046875</ele>
        <time>2021-11-14T09:27:20Z</time>
      </trkpt>
      <trkpt lat="43.0612" lon="5.83358">
        <ele>112.98046875</ele>
        <time>2021-11-14T09:27:27Z</time>
      </trkpt>
      <trkpt lat="43.06125" lon="5.83355">
        <ele>112.6171875</ele>
        <time>2021-11-14T09:27:28Z</time>
      </trkpt>
      <trkpt lat="43.06129" lon="5.83351">
        <ele>112.375</ele>
        <time>2021-11-14T09:27:29Z</time>
      </trkpt>
      <trkpt lat="43.06134" lon="5.83347">
        <ele>112.19921875</ele>
        <time>2021-11-14T09:27:30Z</time>
      </trkpt>
      <trkpt lat="43.06137" lon="5.83344">
        <ele>112.0078125</ele>
        <time>2021-11-14T09:27:31Z</time>
      </trkpt>
      <trkpt lat="43.06141" lon="5.83343">
        <ele>111.83984375</ele>
        <time>2021-11-14T09:27:32Z</time>
      </trkpt>
      <trkpt lat="43.06143" lon="5.83342">
        <ele>111.6953125</ele>
        <time>2021-11-14T09:27:33Z</time>
      </trkpt>
      <trkpt lat="43.06145" lon="5.8334">
        <ele>111.60546875</ele>
        <time>2021-11-14T09:27:34Z</time>
      </trkpt>
      <trkpt lat="43.06147" lon="5.83338">
        <ele>111.546875</ele>
        <time>2021-11-14T09:27:35Z</time>
      </trkpt>
      <trkpt lat="43.0615" lon="5.83336">
        <ele>111.44921875</ele>
        <time>2021-11-14T09:27:36Z</time>
      </trkpt>
      <trkpt lat="43.06152" lon="5.83335">
        <ele>111.328125</ele>
        <time>2021-11-14T09:27:37Z</time>
      </trkpt>
      <trkpt lat="43.06166" lon="5.83328">
        <ele>109.9609375</ele>
        <time>2021-11-14T09:27:42Z</time>
      </trkpt>
      <trkpt lat="43.06169" lon="5.83324">
        <ele>109.65625</ele>
        <time>2021-11-14T09:27:43Z</time>
      </trkpt>
      <trkpt lat="43.06172" lon="5.83321">
        <ele>109.23046875</ele>
        <time>2021-11-14T09:27:44Z</time>
      </trkpt>
      <trkpt lat="43.06176" lon="5.83319">
        <ele>108.7734375</ele>
        <time>2021-11-14T09:27:45Z</time>
      </trkpt>
      <trkpt lat="43.06179" lon="5.83315">
        <ele>108.4375</ele>
        <time>2021-11-14T09:27:46Z</time>
      </trkpt>
      <trkpt lat="43.06181" lon="5.8331">
        <ele>108.22265625</ele>
        <time>2021-11-14T09:27:47Z</time>
      </trkpt>
      <trkpt lat="43.06183" lon="5.83306">
        <ele>108.23046875</ele>
        <time>2021-11-14T09:27:48Z</time>
      </trkpt>
      <trkpt lat="43.06186" lon="5.83303">
        <ele>108.203125</ele>
        <time>2021-11-14T09:27:49Z</time>
      </trkpt>
      <trkpt lat="43.0619" lon="5.83299">
        <ele>108.16796875</ele>
        <time>2021-11-14T09:27:50Z</time>
      </trkpt>
      <trkpt lat="43.06193" lon="5.83295">
        <ele>108.10546875</ele>
        <time>2021-11-14T09:27:51Z</time>
      </trkpt>
      <trkpt lat="43.06199" lon="5.83287">
        <ele>107.9921875</ele>
        <time>2021-11-14T09:27:53Z</time>
      </trkpt>
      <trkpt lat="43.06202" lon="5.83282">
        <ele>107.98046875</ele>
        <time>2021-11-14T09:27:54Z</time>
      </trkpt>
      <trkpt lat="43.06206" lon="5.83276">
        <ele>107.97265625</ele>
        <time>2021-11-14T09:27:55Z</time>
      </trkpt>
      <trkpt lat="43.06211" lon="5.83271">
        <ele>107.76953125</ele>
        <time>2021-11-14T09:27:56Z</time>
      </trkpt>
      <trkpt lat="43.06216" lon="5.83268">
        <ele>107.390625</ele>
        <time>2021-11-14T09:27:57Z</time>
      </trkpt>
      <trkpt lat="43.06222" lon="5.83265">
        <ele>106.9921875</ele>
        <time>2021-11-14T09:27:58Z</time>
      </trkpt>
      <trkpt lat="43.06228" lon="5.83261">
        <ele>106.64453125</ele>
        <time>2021-11-14T09:27:59Z</time>
      </trkpt>
      <trkpt lat="43.06234" lon="5.83258">
        <ele>106.22265625</ele>
        <time>2021-11-14T09:28:00Z</time>
      </trkpt>
      <trkpt lat="43.06247" lon="5.83252">
        <ele>105.15234375</ele>
        <time>2021-11-14T09:28:02Z</time>
      </trkpt>
      <trkpt lat="43.06252" lon="5.83247">
        <ele>104.68359375</ele>
        <time>2021-11-14T09:28:03Z</time>
      </trkpt>
      <trkpt lat="43.06258" lon="5.83243">
        <ele>104.28515625</ele>
        <time>2021-11-14T09:28:04Z</time>
      </trkpt>
      <trkpt lat="43.06263" lon="5.8324">
        <ele>103.8203125</ele>
        <time>2021-11-14T09:28:05Z</time>
      </trkpt>
      <trkpt lat="43.06268" lon="5.83238">
        <ele>103.34375</ele>
        <time>2021-11-14T09:28:06Z</time>
      </trkpt>
      <trkpt lat="43.06272" lon="5.83237">
        <ele>102.96484375</ele>
        <time>2021-11-14T09:28:07Z</time>
      </trkpt>
      <trkpt lat="43.06275" lon="5.83235">
        <ele>102.64453125</ele>
        <time>2021-11-14T09:28:08Z</time>
      </trkpt>
      <trkpt lat="43.06285" lon="5.83229">
        <ele>101.8359375</ele>
        <time>2021-11-14T09:28:11Z</time>
      </trkpt>
      <trkpt lat="43.06288" lon="5.83229">
        <ele>101.44140625</ele>
        <time>2021-11-14T09:28:12Z</time>
      </trkpt>
      <trkpt lat="43.06296" lon="5.83234">
        <ele>100.546875</ele>
        <time>2021-11-14T09:28:14Z</time>
      </trkpt>
      <trkpt lat="43.063" lon="5.83238">
        <ele>100.14453125</ele>
        <time>2021-11-14T09:28:15Z</time>
      </trkpt>
      <trkpt lat="43.06303" lon="5.83239">
        <ele>99.85546875</ele>
        <time>2021-11-14T09:28:16Z</time>
      </trkpt>
      <trkpt lat="43.06305" lon="5.83239">
        <ele>99.70703125</ele>
        <time>2021-11-14T09:28:17Z</time>
      </trkpt>
      <trkpt lat="43.06307" lon="5.83238">
        <ele>99.62890625</ele>
        <time>2021-11-14T09:28:18Z</time>
      </trkpt>
      <trkpt lat="43.06308" lon="5.83238">
        <ele>99.53125</ele>
        <time>2021-11-14T09:28:19Z</time>
      </trkpt>
      <trkpt lat="43.06311" lon="5.83237">
        <ele>99.38671875</ele>
        <time>2021-11-14T09:28:20Z</time>
      </trkpt>
      <trkpt lat="43.06313" lon="5.83236">
        <ele>99.24609375</ele>
        <time>2021-11-14T09:28:21Z</time>
      </trkpt>
      <trkpt lat="43.06315" lon="5.83235">
        <ele>99.12109375</ele>
        <time>2021-11-14T09:28:22Z</time>
      </trkpt>
      <trkpt lat="43.06317" lon="5.83236">
        <ele>98.96875</ele>
        <time>2021-11-14T09:28:23Z</time>
      </trkpt>
      <trkpt lat="43.0632" lon="5.83237">
        <ele>98.75</ele>
        <time>2021-11-14T09:28:24Z</time>
      </trkpt>
      <trkpt lat="43.06323" lon="5.83238">
        <ele>98.55859375</ele>
        <time>2021-11-14T09:28:25Z</time>
      </trkpt>
      <trkpt lat="43.06326" lon="5.83238">
        <ele>98.3984375</ele>
        <time>2021-11-14T09:28:26Z</time>
      </trkpt>
      <trkpt lat="43.0633" lon="5.83236">
        <ele>98.25390625</ele>
        <time>2021-11-14T09:28:27Z</time>
      </trkpt>
      <trkpt lat="43.06333" lon="5.83234">
        <ele>98.109375</ele>
        <time>2021-11-14T09:28:28Z</time>
      </trkpt>
      <trkpt lat="43.06335" lon="5.83233">
        <ele>97.96484375</ele>
        <time>2021-11-14T09:28:29Z</time>
      </trkpt>
      <trkpt lat="43.06338" lon="5.83233">
        <ele>97.77734375</ele>
        <time>2021-11-14T09:28:30Z</time>
      </trkpt>
      <trkpt lat="43.06342" lon="5.83233">
        <ele>97.578125</ele>
        <time>2021-11-14T09:28:31Z</time>
      </trkpt>
      <trkpt lat="43.06345" lon="5.83234">
        <ele>97.40625</ele>
        <time>2021-11-14T09:28:32Z</time>
      </trkpt>
      <trkpt lat="43.06348" lon="5.83233">
        <ele>97.2109375</ele>
        <time>2021-11-14T09:28:33Z</time>
      </trkpt>
      <trkpt lat="43.06351" lon="5.83232">
        <ele>97.0703125</ele>
        <time>2021-11-14T09:28:34Z</time>
      </trkpt>
      <trkpt lat="43.06354" lon="5.8323">
        <ele>96.88671875</ele>
        <time>2021-11-14T09:28:35Z</time>
      </trkpt>
      <trkpt lat="43.06357" lon="5.83227">
        <ele>96.67578125</ele>
        <time>2021-11-14T09:28:36Z</time>
      </trkpt>
      <trkpt lat="43.06361" lon="5.83225">
        <ele>96.51171875</ele>
        <time>2021-11-14T09:28:37Z</time>
      </trkpt>
      <trkpt lat="43.06364" lon="5.83225">
        <ele>96.359375</ele>
        <time>2021-11-14T09:28:38Z</time>
      </trkpt>
      <trkpt lat="43.06368" lon="5.83225">
        <ele>96.22265625</ele>
        <time>2021-11-14T09:28:39Z</time>
      </trkpt>
      <trkpt lat="43.06371" lon="5.83223">
        <ele>96.06640625</ele>
        <time>2021-11-14T09:28:40Z</time>
      </trkpt>
      <trkpt lat="43.06373" lon="5.83221">
        <ele>95.890625</ele>
        <time>2021-11-14T09:28:41Z</time>
      </trkpt>
      <trkpt lat="43.06375" lon="5.83218">
        <ele>95.69921875</ele>
        <time>2021-11-14T09:28:42Z</time>
      </trkpt>
      <trkpt lat="43.06385" lon="5.83201">
        <ele>94.74609375</ele>
        <time>2021-11-14T09:28:47Z</time>
      </trkpt>
      <trkpt lat="43.06387" lon="5.83199">
        <ele>94.65234375</ele>
        <time>2021-11-14T09:28:48Z</time>
      </trkpt>
      <trkpt lat="43.06388" lon="5.83197">
        <ele>94.62109375</ele>
        <time>2021-11-14T09:28:49Z</time>
      </trkpt>
      <trkpt lat="43.0639" lon="5.83195">
        <ele>94.578125</ele>
        <time>2021-11-14T09:28:50Z</time>
      </trkpt>
      <trkpt lat="43.06393" lon="5.83193">
        <ele>94.50390625</ele>
        <time>2021-11-14T09:28:51Z</time>
      </trkpt>
      <trkpt lat="43.06396" lon="5.8319">
        <ele>94.40625</ele>
        <time>2021-11-14T09:28:52Z</time>
      </trkpt>
      <trkpt lat="43.06399" lon="5.83187">
        <ele>94.2578125</ele>
        <time>2021-11-14T09:28:53Z</time>
      </trkpt>
      <trkpt lat="43.06403" lon="5.83184">
        <ele>94.04296875</ele>
        <time>2021-11-14T09:28:54Z</time>
      </trkpt>
      <trkpt lat="43.06411" lon="5.83178">
        <ele>93.58984375</ele>
        <time>2021-11-14T09:28:56Z</time>
      </trkpt>
      <trkpt lat="43.06415" lon="5.83174">
        <ele>93.23828125</ele>
        <time>2021-11-14T09:28:57Z</time>
      </trkpt>
      <trkpt lat="43.0642" lon="5.83171">
        <ele>92.8125</ele>
        <time>2021-11-14T09:28:58Z</time>
      </trkpt>
      <trkpt lat="43.06429" lon="5.83163">
        <ele>91.9140625</ele>
        <time>2021-11-14T09:29:00Z</time>
      </trkpt>
      <trkpt lat="43.06439" lon="5.83156">
        <ele>91.6640625</ele>
        <time>2021-11-14T09:29:02Z</time>
      </trkpt>
      <trkpt lat="43.0646" lon="5.83122">
        <ele>91.1953125</ele>
        <time>2021-11-14T09:29:10Z</time>
      </trkpt>
      <trkpt lat="43.06476" lon="5.83106">
        <ele>90.9375</ele>
        <time>2021-11-14T09:29:15Z</time>
      </trkpt>
      <trkpt lat="43.06495" lon="5.83085">
        <ele>90.1015625</ele>
        <time>2021-11-14T09:29:20Z</time>
      </trkpt>
      <trkpt lat="43.06508" lon="5.83059">
        <ele>90.21484375</ele>
        <time>2021-11-14T09:29:25Z</time>
      </trkpt>
      <trkpt lat="43.06517" lon="5.83051">
        <ele>89.578125</ele>
        <time>2021-11-14T09:29:27Z</time>
      </trkpt>
      <trkpt lat="43.06521" lon="5.83045">
        <ele>89.33984375</ele>
        <time>2021-11-14T09:29:28Z</time>
      </trkpt>
      <trkpt lat="43.06525" lon="5.83039">
        <ele>89.1328125</ele>
        <time>2021-11-14T09:29:29Z</time>
      </trkpt>
      <trkpt lat="43.06529" lon="5.83033">
        <ele>89</ele>
        <time>2021-11-14T09:29:30Z</time>
      </trkpt>
      <trkpt lat="43.06534" lon="5.83028">
        <ele>88.92578125</ele>
        <time>2021-11-14T09:29:31Z</time>
      </trkpt>
      <trkpt lat="43.06539" lon="5.83022">
        <ele>88.71484375</ele>
        <time>2021-11-14T09:29:32Z</time>
      </trkpt>
      <trkpt lat="43.06543" lon="5.83017">
        <ele>88.41796875</ele>
        <time>2021-11-14T09:29:33Z</time>
      </trkpt>
      <trkpt lat="43.06549" lon="5.83014">
        <ele>88.28125</ele>
        <time>2021-11-14T09:29:34Z</time>
      </trkpt>
      <trkpt lat="43.06555" lon="5.8301">
        <ele>88.16015625</ele>
        <time>2021-11-14T09:29:35Z</time>
      </trkpt>
      <trkpt lat="43.06561" lon="5.83006">
        <ele>87.9921875</ele>
        <time>2021-11-14T09:29:36Z</time>
      </trkpt>
      <trkpt lat="43.06566" lon="5.83">
        <ele>87.828125</ele>
        <time>2021-11-14T09:29:37Z</time>
      </trkpt>
      <trkpt lat="43.0657" lon="5.82995">
        <ele>87.6171875</ele>
        <time>2021-11-14T09:29:38Z</time>
      </trkpt>
      <trkpt lat="43.06575" lon="5.82992">
        <ele>87.43359375</ele>
        <time>2021-11-14T09:29:39Z</time>
      </trkpt>
      <trkpt lat="43.06578" lon="5.82992">
        <ele>87.375</ele>
        <time>2021-11-14T09:29:40Z</time>
      </trkpt>
      <trkpt lat="43.06582" lon="5.82992">
        <ele>87.2734375</ele>
        <time>2021-11-14T09:29:41Z</time>
      </trkpt>
      <trkpt lat="43.06586" lon="5.82991">
        <ele>87.1484375</ele>
        <time>2021-11-14T09:29:42Z</time>
      </trkpt>
      <trkpt lat="43.06588" lon="5.82992">
        <ele>87.15234375</ele>
        <time>2021-11-14T09:29:43Z</time>
      </trkpt>
      <trkpt lat="43.06591" lon="5.82993">
        <ele>87.20703125</ele>
        <time>2021-11-14T09:29:44Z</time>
      </trkpt>
      <trkpt lat="43.06594" lon="5.82994">
        <ele>87.23046875</ele>
        <time>2021-11-14T09:29:45Z</time>
      </trkpt>
      <trkpt lat="43.06597" lon="5.82995">
        <ele>87.22265625</ele>
        <time>2021-11-14T09:29:46Z</time>
      </trkpt>
      <trkpt lat="43.06601" lon="5.82994">
        <ele>87.125</ele>
        <time>2021-11-14T09:29:47Z</time>
      </trkpt>
      <trkpt lat="43.06604" lon="5.82994">
        <ele>87.01953125</ele>
        <time>2021-11-14T09:29:48Z</time>
      </trkpt>
      <trkpt lat="43.06606" lon="5.82992">
        <ele>86.8359375</ele>
        <time>2021-11-14T09:29:49Z</time>
      </trkpt>
      <trkpt lat="43.06608" lon="5.82989">
        <ele>86.5859375</ele>
        <time>2021-11-14T09:29:50Z</time>
      </trkpt>
      <trkpt lat="43.0661" lon="5.82985">
        <ele>86.21484375</ele>
        <time>2021-11-14T09:29:51Z</time>
      </trkpt>
      <trkpt lat="43.0661" lon="5.82982">
        <ele>85.88671875</ele>
        <time>2021-11-14T09:29:52Z</time>
      </trkpt>
      <trkpt lat="43.0661" lon="5.8298">
        <ele>85.71484375</ele>
        <time>2021-11-14T09:29:53Z</time>
      </trkpt>
      <trkpt lat="43.0661" lon="5.8298">
        <ele>85.7421875</ele>
        <time>2021-11-14T09:29:54Z</time>
      </trkpt>
      <trkpt lat="43.06609" lon="5.8298">
        <ele>85.7734375</ele>
        <time>2021-11-14T09:29:55Z</time>
      </trkpt>
      <trkpt lat="43.06608" lon="5.82981">
        <ele>85.89453125</ele>
        <time>2021-11-14T09:29:56Z</time>
      </trkpt>
      <trkpt lat="43.06607" lon="5.82982">
        <ele>86.00390625</ele>
        <time>2021-11-14T09:29:57Z</time>
      </trkpt>
      <trkpt lat="43.06605" lon="5.82983">
        <ele>86.109375</ele>
        <time>2021-11-14T09:29:58Z</time>
      </trkpt>
      <trkpt lat="43.06604" lon="5.82983">
        <ele>86.19140625</ele>
        <time>2021-11-14T09:29:59Z</time>
      </trkpt>
      <trkpt lat="43.06602" lon="5.82983">
        <ele>86.24609375</ele>
        <time>2021-11-14T09:30:00Z</time>
      </trkpt>
      <trkpt lat="43.066" lon="5.82983">
        <ele>86.33203125</ele>
        <time>2021-11-14T09:30:01Z</time>
      </trkpt>
      <trkpt lat="43.06598" lon="5.82984">
        <ele>86.40234375</ele>
        <time>2021-11-14T09:30:02Z</time>
      </trkpt>
      <trkpt lat="43.06585" lon="5.82982">
        <ele>86.68359375</ele>
        <time>2021-11-14T09:30:13Z</time>
      </trkpt>
      <trkpt lat="43.0658" lon="5.8299">
        <ele>87.20703125</ele>
        <time>2021-11-14T09:30:18Z</time>
      </trkpt>
      <trkpt lat="43.06576" lon="5.82996">
        <ele>87.58203125</ele>
        <time>2021-11-14T09:30:30Z</time>
      </trkpt>
      <trkpt lat="43.06576" lon="5.82998">
        <ele>87.6328125</ele>
        <time>2021-11-14T09:30:31Z</time>
      </trkpt>
      <trkpt lat="43.06577" lon="5.83004">
        <ele>87.92578125</ele>
        <time>2021-11-14T09:30:34Z</time>
      </trkpt>
      <trkpt lat="43.06576" lon="5.83007">
        <ele>88.0234375</ele>
        <time>2021-11-14T09:30:35Z</time>
      </trkpt>
      <trkpt lat="43.06572" lon="5.83022">
        <ele>88.5703125</ele>
        <time>2021-11-14T09:30:45Z</time>
      </trkpt>
      <trkpt lat="43.06564" lon="5.83023">
        <ele>88.62109375</ele>
        <time>2021-11-14T09:31:15Z</time>
      </trkpt>
      <trkpt lat="43.06569" lon="5.83018">
        <ele>88.4375</ele>
        <time>2021-11-14T09:31:32Z</time>
      </trkpt>
      <trkpt lat="43.0657" lon="5.83016">
        <ele>88.3671875</ele>
        <time>2021-11-14T09:31:33Z</time>
      </trkpt>
      <trkpt lat="43.06571" lon="5.83013">
        <ele>88.26953125</ele>
        <time>2021-11-14T09:31:34Z</time>
      </trkpt>
      <trkpt lat="43.06572" lon="5.83011">
        <ele>88.19140625</ele>
        <time>2021-11-14T09:31:35Z</time>
      </trkpt>
      <trkpt lat="43.06572" lon="5.83009">
        <ele>88.125</ele>
        <time>2021-11-14T09:31:36Z</time>
      </trkpt>
      <trkpt lat="43.06574" lon="5.82996">
        <ele>87.61328125</ele>
        <time>2021-11-14T09:31:41Z</time>
      </trkpt>
      <trkpt lat="43.06576" lon="5.82994">
        <ele>87.484375</ele>
        <time>2021-11-14T09:31:42Z</time>
      </trkpt>
      <trkpt lat="43.06577" lon="5.82992">
        <ele>87.37890625</ele>
        <time>2021-11-14T09:31:43Z</time>
      </trkpt>
      <trkpt lat="43.06579" lon="5.8299">
        <ele>87.28515625</ele>
        <time>2021-11-14T09:31:44Z</time>
      </trkpt>
      <trkpt lat="43.0658" lon="5.82989">
        <ele>87.1953125</ele>
        <time>2021-11-14T09:31:45Z</time>
      </trkpt>
      <trkpt lat="43.06584" lon="5.82988">
        <ele>87.07421875</ele>
        <time>2021-11-14T09:31:46Z</time>
      </trkpt>
      <trkpt lat="43.06587" lon="5.82988">
        <ele>86.95703125</ele>
        <time>2021-11-14T09:31:47Z</time>
      </trkpt>
      <trkpt lat="43.06591" lon="5.82987">
        <ele>86.81640625</ele>
        <time>2021-11-14T09:31:48Z</time>
      </trkpt>
      <trkpt lat="43.06596" lon="5.82986">
        <ele>86.6015625</ele>
        <time>2021-11-14T09:31:49Z</time>
      </trkpt>
      <trkpt lat="43.066" lon="5.82984">
        <ele>86.375</ele>
        <time>2021-11-14T09:31:50Z</time>
      </trkpt>
      <trkpt lat="43.06604" lon="5.82982">
        <ele>86.12890625</ele>
        <time>2021-11-14T09:31:51Z</time>
      </trkpt>
      <trkpt lat="43.06607" lon="5.82981">
        <ele>85.9140625</ele>
        <time>2021-11-14T09:31:52Z</time>
      </trkpt>
      <trkpt lat="43.0661" lon="5.82979">
        <ele>85.6640625</ele>
        <time>2021-11-14T09:31:53Z</time>
      </trkpt>
      <trkpt lat="43.06613" lon="5.82978">
        <ele>85.4765625</ele>
        <time>2021-11-14T09:31:54Z</time>
      </trkpt>
      <trkpt lat="43.06615" lon="5.82976">
        <ele>85.42578125</ele>
        <time>2021-11-14T09:31:55Z</time>
      </trkpt>
      <trkpt lat="43.06636" lon="5.82956">
        <ele>85</ele>
        <time>2021-11-14T09:32:05Z</time>
      </trkpt>
      <trkpt lat="43.06671" lon="5.82939">
        <ele>85.2109375</ele>
        <time>2021-11-14T09:32:17Z</time>
      </trkpt>
      <trkpt lat="43.06712" lon="5.82911">
        <ele>84.08203125</ele>
        <time>2021-11-14T09:32:33Z</time>
      </trkpt>
      <trkpt lat="43.06747" lon="5.82859">
        <ele>85.51171875</ele>
        <time>2021-11-14T09:32:49Z</time>
      </trkpt>
      <trkpt lat="43.06768" lon="5.8282">
        <ele>85.43359375</ele>
        <time>2021-11-14T09:33:00Z</time>
      </trkpt>
      <trkpt lat="43.06771" lon="5.82797">
        <ele>86.53125</ele>
        <time>2021-11-14T09:33:05Z</time>
      </trkpt>
      <trkpt lat="43.06773" lon="5.82793">
        <ele>86.58984375</ele>
        <time>2021-11-14T09:33:06Z</time>
      </trkpt>
      <trkpt lat="43.06798" lon="5.82757">
        <ele>86.28515625</ele>
        <time>2021-11-14T09:33:16Z</time>
      </trkpt>
      <trkpt lat="43.068" lon="5.82752">
        <ele>86.44921875</ele>
        <time>2021-11-14T09:33:17Z</time>
      </trkpt>
      <trkpt lat="43.06802" lon="5.82746">
        <ele>86.69140625</ele>
        <time>2021-11-14T09:33:18Z</time>
      </trkpt>
      <trkpt lat="43.06813" lon="5.82691">
        <ele>87.8359375</ele>
        <time>2021-11-14T09:33:30Z</time>
      </trkpt>
      <trkpt lat="43.06832" lon="5.82651">
        <ele>86.953125</ele>
        <time>2021-11-14T09:33:39Z</time>
      </trkpt>
      <trkpt lat="43.06832" lon="5.82647">
        <ele>87.08984375</ele>
        <time>2021-11-14T09:33:40Z</time>
      </trkpt>
      <trkpt lat="43.06832" lon="5.82642">
        <ele>87.1796875</ele>
        <time>2021-11-14T09:33:41Z</time>
      </trkpt>
      <trkpt lat="43.06833" lon="5.82638">
        <ele>87.234375</ele>
        <time>2021-11-14T09:33:42Z</time>
      </trkpt>
      <trkpt lat="43.06833" lon="5.82634">
        <ele>87.26953125</ele>
        <time>2021-11-14T09:33:43Z</time>
      </trkpt>
      <trkpt lat="43.06834" lon="5.8263">
        <ele>87.26953125</ele>
        <time>2021-11-14T09:33:44Z</time>
      </trkpt>
      <trkpt lat="43.06836" lon="5.82626">
        <ele>87.21484375</ele>
        <time>2021-11-14T09:33:45Z</time>
      </trkpt>
      <trkpt lat="43.06837" lon="5.82621">
        <ele>87.14453125</ele>
        <time>2021-11-14T09:33:46Z</time>
      </trkpt>
      <trkpt lat="43.06838" lon="5.82617">
        <ele>87.09375</ele>
        <time>2021-11-14T09:33:47Z</time>
      </trkpt>
      <trkpt lat="43.06849" lon="5.82573">
        <ele>87.4765625</ele>
        <time>2021-11-14T09:33:53Z</time>
      </trkpt>
      <trkpt lat="43.06854" lon="5.82558">
        <ele>87.640625</ele>
        <time>2021-11-14T09:33:56Z</time>
      </trkpt>
      <trkpt lat="43.06855" lon="5.82554">
        <ele>87.734375</ele>
        <time>2021-11-14T09:33:57Z</time>
      </trkpt>
      <trkpt lat="43.06854" lon="5.8255">
        <ele>88.11328125</ele>
        <time>2021-11-14T09:33:58Z</time>
      </trkpt>
      <trkpt lat="43.06849" lon="5.82548">
        <ele>88.86328125</ele>
        <time>2021-11-14T09:34:00Z</time>
      </trkpt>
      <trkpt lat="43.06847" lon="5.8255">
        <ele>88.95703125</ele>
        <time>2021-11-14T09:34:01Z</time>
      </trkpt>
      <trkpt lat="43.06846" lon="5.82553">
        <ele>88.859375</ele>
        <time>2021-11-14T09:34:02Z</time>
      </trkpt>
      <trkpt lat="43.0682" lon="5.82582">
        <ele>91.27734375</ele>
        <time>2021-11-14T09:34:13Z</time>
      </trkpt>
      <trkpt lat="43.0678" lon="5.82626">
        <ele>94.3125</ele>
        <time>2021-11-14T09:34:28Z</time>
      </trkpt>
      <trkpt lat="43.06756" lon="5.82673">
        <ele>95.578125</ele>
        <time>2021-11-14T09:34:41Z</time>
      </trkpt>
      <trkpt lat="43.06724" lon="5.82705">
        <ele>98.921875</ele>
        <time>2021-11-14T09:34:54Z</time>
      </trkpt>
      <trkpt lat="43.067" lon="5.8273">
        <ele>100.8984375</ele>
        <time>2021-11-14T09:35:03Z</time>
      </trkpt>
      <trkpt lat="43.06693" lon="5.82793">
        <ele>99.375</ele>
        <time>2021-11-14T09:35:17Z</time>
      </trkpt>
      <trkpt lat="43.06668" lon="5.82805">
        <ele>101.41015625</ele>
        <time>2021-11-14T09:35:26Z</time>
      </trkpt>
      <trkpt lat="43.06616" lon="5.82787">
        <ele>108.8515625</ele>
        <time>2021-11-14T09:35:40Z</time>
      </trkpt>
      <trkpt lat="43.06576" lon="5.82792">
        <ele>109.53515625</ele>
        <time>2021-11-14T09:35:51Z</time>
      </trkpt>
      <trkpt lat="43.06549" lon="5.82825">
        <ele>107.41796875</ele>
        <time>2021-11-14T09:36:00Z</time>
      </trkpt>
      <trkpt lat="43.06545" lon="5.82827">
        <ele>107.6015625</ele>
        <time>2021-11-14T09:36:01Z</time>
      </trkpt>
      <trkpt lat="43.06541" lon="5.82828">
        <ele>107.73046875</ele>
        <time>2021-11-14T09:36:02Z</time>
      </trkpt>
      <trkpt lat="43.06537" lon="5.82829">
        <ele>107.8046875</ele>
        <time>2021-11-14T09:36:03Z</time>
      </trkpt>
      <trkpt lat="43.06533" lon="5.82829">
        <ele>107.94140625</ele>
        <time>2021-11-14T09:36:04Z</time>
      </trkpt>
      <trkpt lat="43.06529" lon="5.82829">
        <ele>108.171875</ele>
        <time>2021-11-14T09:36:05Z</time>
      </trkpt>
      <trkpt lat="43.06525" lon="5.82828">
        <ele>108.46875</ele>
        <time>2021-11-14T09:36:06Z</time>
      </trkpt>
      <trkpt lat="43.06486" lon="5.82798">
        <ele>114.40625</ele>
        <time>2021-11-14T09:36:17Z</time>
      </trkpt>
      <trkpt lat="43.06482" lon="5.82796">
        <ele>114.8515625</ele>
        <time>2021-11-14T09:36:18Z</time>
      </trkpt>
      <trkpt lat="43.06479" lon="5.82795">
        <ele>115.11328125</ele>
        <time>2021-11-14T09:36:19Z</time>
      </trkpt>
      <trkpt lat="43.06475" lon="5.82796">
        <ele>115.08984375</ele>
        <time>2021-11-14T09:36:20Z</time>
      </trkpt>
      <trkpt lat="43.06472" lon="5.82799">
        <ele>114.44921875</ele>
        <time>2021-11-14T09:36:21Z</time>
      </trkpt>
      <trkpt lat="43.06469" lon="5.82803">
        <ele>113.73046875</ele>
        <time>2021-11-14T09:36:22Z</time>
      </trkpt>
      <trkpt lat="43.06466" lon="5.82807">
        <ele>112.95703125</ele>
        <time>2021-11-14T09:36:23Z</time>
      </trkpt>
      <trkpt lat="43.06426" lon="5.82815">
        <ele>113.12890625</ele>
        <time>2021-11-14T09:36:34Z</time>
      </trkpt>
      <trkpt lat="43.06414" lon="5.82817">
        <ele>114.2421875</ele>
        <time>2021-11-14T09:36:37Z</time>
      </trkpt>
      <trkpt lat="43.0641" lon="5.82821">
        <ele>114.1796875</ele>
        <time>2021-11-14T09:36:38Z</time>
      </trkpt>
      <trkpt lat="43.06408" lon="5.82826">
        <ele>113.9296875</ele>
        <time>2021-11-14T09:36:39Z</time>
      </trkpt>
      <trkpt lat="43.06406" lon="5.82832">
        <ele>113.51171875</ele>
        <time>2021-11-14T09:36:40Z</time>
      </trkpt>
      <trkpt lat="43.06405" lon="5.82838">
        <ele>112.98046875</ele>
        <time>2021-11-14T09:36:41Z</time>
      </trkpt>
      <trkpt lat="43.06405" lon="5.82844">
        <ele>112.67578125</ele>
        <time>2021-11-14T09:36:42Z</time>
      </trkpt>
      <trkpt lat="43.06405" lon="5.8285">
        <ele>112.39453125</ele>
        <time>2021-11-14T09:36:43Z</time>
      </trkpt>
      <trkpt lat="43.06404" lon="5.8289">
        <ele>111.89453125</ele>
        <time>2021-11-14T09:36:50Z</time>
      </trkpt>
      <trkpt lat="43.06403" lon="5.82895">
        <ele>112.15625</ele>
        <time>2021-11-14T09:36:51Z</time>
      </trkpt>
      <trkpt lat="43.06401" lon="5.82924">
        <ele>113.80078125</ele>
        <time>2021-11-14T09:36:56Z</time>
      </trkpt>
      <trkpt lat="43.06402" lon="5.8293">
        <ele>113.546875</ele>
        <time>2021-11-14T09:36:57Z</time>
      </trkpt>
      <trkpt lat="43.06404" lon="5.82936">
        <ele>113.09375</ele>
        <time>2021-11-14T09:36:58Z</time>
      </trkpt>
      <trkpt lat="43.06406" lon="5.82941">
        <ele>112.51953125</ele>
        <time>2021-11-14T09:36:59Z</time>
      </trkpt>
      <trkpt lat="43.06408" lon="5.82946">
        <ele>111.8125</ele>
        <time>2021-11-14T09:37:00Z</time>
      </trkpt>
      <trkpt lat="43.0641" lon="5.82951">
        <ele>111.171875</ele>
        <time>2021-11-14T09:37:01Z</time>
      </trkpt>
      <trkpt lat="43.06412" lon="5.82956">
        <ele>110.54296875</ele>
        <time>2021-11-14T09:37:02Z</time>
      </trkpt>
      <trkpt lat="43.06414" lon="5.82967">
        <ele>109.5078125</ele>
        <time>2021-11-14T09:37:04Z</time>
      </trkpt>
      <trkpt lat="43.06414" lon="5.82973">
        <ele>109.1953125</ele>
        <time>2021-11-14T09:37:05Z</time>
      </trkpt>
      <trkpt lat="43.06414" lon="5.82978">
        <ele>108.98046875</ele>
        <time>2021-11-14T09:37:06Z</time>
      </trkpt>
      <trkpt lat="43.06414" lon="5.82984">
        <ele>108.64453125</ele>
        <time>2021-11-14T09:37:07Z</time>
      </trkpt>
      <trkpt lat="43.06413" lon="5.82989">
        <ele>108.50390625</ele>
        <time>2021-11-14T09:37:08Z</time>
      </trkpt>
      <trkpt lat="43.06411" lon="5.82994">
        <ele>108.5703125</ele>
        <time>2021-11-14T09:37:09Z</time>
      </trkpt>
      <trkpt lat="43.06408" lon="5.82999">
        <ele>108.77734375</ele>
        <time>2021-11-14T09:37:10Z</time>
      </trkpt>
      <trkpt lat="43.06405" lon="5.83003">
        <ele>109.01171875</ele>
        <time>2021-11-14T09:37:11Z</time>
      </trkpt>
      <trkpt lat="43.06402" lon="5.83007">
        <ele>109.3359375</ele>
        <time>2021-11-14T09:37:12Z</time>
      </trkpt>
      <trkpt lat="43.06383" lon="5.83032">
        <ele>110.69140625</ele>
        <time>2021-11-14T09:37:18Z</time>
      </trkpt>
      <trkpt lat="43.06369" lon="5.83046">
        <ele>110.984375</ele>
        <time>2021-11-14T09:37:22Z</time>
      </trkpt>
      <trkpt lat="43.06365" lon="5.83049">
        <ele>111.1875</ele>
        <time>2021-11-14T09:37:23Z</time>
      </trkpt>
      <trkpt lat="43.06316" lon="5.83065">
        <ele>114.94921875</ele>
        <time>2021-11-14T09:37:36Z</time>
      </trkpt>
      <trkpt lat="43.06278" lon="5.83044">
        <ele>121.76171875</ele>
        <time>2021-11-14T09:37:48Z</time>
      </trkpt>
      <trkpt lat="43.06249" lon="5.83039">
        <ele>122.9765625</ele>
        <time>2021-11-14T09:38:01Z</time>
      </trkpt>
      <trkpt lat="43.06236" lon="5.83048">
        <ele>121.55078125</ele>
        <time>2021-11-14T09:38:05Z</time>
      </trkpt>
      <trkpt lat="43.06229" lon="5.83052">
        <ele>121.3046875</ele>
        <time>2021-11-14T09:38:07Z</time>
      </trkpt>
      <trkpt lat="43.06227" lon="5.83057">
        <ele>120.80859375</ele>
        <time>2021-11-14T09:38:08Z</time>
      </trkpt>
      <trkpt lat="43.06225" lon="5.83067">
        <ele>119.953125</ele>
        <time>2021-11-14T09:38:10Z</time>
      </trkpt>
      <trkpt lat="43.06212" lon="5.83106">
        <ele>117.88671875</ele>
        <time>2021-11-14T09:38:17Z</time>
      </trkpt>
      <trkpt lat="43.06209" lon="5.8311">
        <ele>117.84765625</ele>
        <time>2021-11-14T09:38:18Z</time>
      </trkpt>
      <trkpt lat="43.06205" lon="5.83113">
        <ele>118.06640625</ele>
        <time>2021-11-14T09:38:19Z</time>
      </trkpt>
      <trkpt lat="43.06201" lon="5.83116">
        <ele>118.37890625</ele>
        <time>2021-11-14T09:38:20Z</time>
      </trkpt>
      <trkpt lat="43.06197" lon="5.83117">
        <ele>118.765625</ele>
        <time>2021-11-14T09:38:21Z</time>
      </trkpt>
      <trkpt lat="43.06194" lon="5.83118">
        <ele>119.1171875</ele>
        <time>2021-11-14T09:38:22Z</time>
      </trkpt>
      <trkpt lat="43.06171" lon="5.83129">
        <ele>120.8828125</ele>
        <time>2021-11-14T09:38:31Z</time>
      </trkpt>
      <trkpt lat="43.06149" lon="5.83136">
        <ele>122.390625</ele>
        <time>2021-11-14T09:38:42Z</time>
      </trkpt>
      <trkpt lat="43.06147" lon="5.83136">
        <ele>122.58203125</ele>
        <time>2021-11-14T09:38:43Z</time>
      </trkpt>
      <trkpt lat="43.06143" lon="5.83137">
        <ele>122.93359375</ele>
        <time>2021-11-14T09:38:45Z</time>
      </trkpt>
      <trkpt lat="43.06141" lon="5.83138">
        <ele>123.05078125</ele>
        <time>2021-11-14T09:38:46Z</time>
      </trkpt>
      <trkpt lat="43.06139" lon="5.83138">
        <ele>123.21484375</ele>
        <time>2021-11-14T09:38:47Z</time>
      </trkpt>
      <trkpt lat="43.06121" lon="5.83145">
        <ele>124.37109375</ele>
        <time>2021-11-14T09:38:56Z</time>
      </trkpt>
      <trkpt lat="43.06119" lon="5.83147">
        <ele>124.38671875</ele>
        <time>2021-11-14T09:38:57Z</time>
      </trkpt>
      <trkpt lat="43.06118" lon="5.83149">
        <ele>124.30078125</ele>
        <time>2021-11-14T09:38:58Z</time>
      </trkpt>
      <trkpt lat="43.06117" lon="5.83152">
        <ele>124.140625</ele>
        <time>2021-11-14T09:38:59Z</time>
      </trkpt>
      <trkpt lat="43.06107" lon="5.83202">
        <ele>121.2734375</ele>
        <time>2021-11-14T09:39:10Z</time>
      </trkpt>
      <trkpt lat="43.06106" lon="5.83209">
        <ele>121.04296875</ele>
        <time>2021-11-14T09:39:11Z</time>
      </trkpt>
      <trkpt lat="43.06105" lon="5.83217">
        <ele>120.76171875</ele>
        <time>2021-11-14T09:39:12Z</time>
      </trkpt>
      <trkpt lat="43.06106" lon="5.83224">
        <ele>120.4140625</ele>
        <time>2021-11-14T09:39:13Z</time>
      </trkpt>
      <trkpt lat="43.06105" lon="5.83231">
        <ele>120.13671875</ele>
        <time>2021-11-14T09:39:14Z</time>
      </trkpt>
      <trkpt lat="43.06105" lon="5.83238">
        <ele>120</ele>
        <time>2021-11-14T09:39:15Z</time>
      </trkpt>
      <trkpt lat="43.06104" lon="5.83243">
        <ele>119.91796875</ele>
        <time>2021-11-14T09:39:16Z</time>
      </trkpt>
      <trkpt lat="43.06103" lon="5.83248">
        <ele>119.82421875</ele>
        <time>2021-11-14T09:39:17Z</time>
      </trkpt>
      <trkpt lat="43.06104" lon="5.83259">
        <ele>119.31640625</ele>
        <time>2021-11-14T09:39:19Z</time>
      </trkpt>
      <trkpt lat="43.06088" lon="5.83323">
        <ele>118.06640625</ele>
        <time>2021-11-14T09:39:30Z</time>
      </trkpt>
      <trkpt lat="43.06078" lon="5.83336">
        <ele>118.33203125</ele>
        <time>2021-11-14T09:39:36Z</time>
      </trkpt>
      <trkpt lat="43.06068" lon="5.83346">
        <ele>118.7421875</ele>
        <time>2021-11-14T09:39:42Z</time>
      </trkpt>
      <trkpt lat="43.06062" lon="5.83338">
        <ele>119.67578125</ele>
        <time>2021-11-14T09:39:46Z</time>
      </trkpt>
      <trkpt lat="43.06063" lon="5.83334">
        <ele>119.77734375</ele>
        <time>2021-11-14T09:39:47Z</time>
      </trkpt>
      <trkpt lat="43.06064" lon="5.83331">
        <ele>119.859375</ele>
        <time>2021-11-14T09:39:48Z</time>
      </trkpt>
      <trkpt lat="43.06068" lon="5.83286">
        <ele>122.12890625</ele>
        <time>2021-11-14T09:39:59Z</time>
      </trkpt>
      <trkpt lat="43.06076" lon="5.8325">
        <ele>122.79296875</ele>
        <time>2021-11-14T09:40:10Z</time>
      </trkpt>
      <trkpt lat="43.06075" lon="5.83232">
        <ele>124.1640625</ele>
        <time>2021-11-14T09:40:15Z</time>
      </trkpt>
      <trkpt lat="43.06073" lon="5.83232">
        <ele>124.39453125</ele>
        <time>2021-11-14T09:40:16Z</time>
      </trkpt>
      <trkpt lat="43.06072" lon="5.83234">
        <ele>124.421875</ele>
        <time>2021-11-14T09:40:17Z</time>
      </trkpt>
      <trkpt lat="43.06071" lon="5.83237">
        <ele>124.37109375</ele>
        <time>2021-11-14T09:40:18Z</time>
      </trkpt>
      <trkpt lat="43.0607" lon="5.83239">
        <ele>124.32421875</ele>
        <time>2021-11-14T09:40:19Z</time>
      </trkpt>
      <trkpt lat="43.06069" lon="5.83243">
        <ele>124.2265625</ele>
        <time>2021-11-14T09:40:20Z</time>
      </trkpt>
      <trkpt lat="43.06055" lon="5.83278">
        <ele>124.0078125</ele>
        <time>2021-11-14T09:40:28Z</time>
      </trkpt>
      <trkpt lat="43.06051" lon="5.83282">
        <ele>124.2421875</ele>
        <time>2021-11-14T09:40:29Z</time>
      </trkpt>
      <trkpt lat="43.06047" lon="5.83285">
        <ele>124.46484375</ele>
        <time>2021-11-14T09:40:30Z</time>
      </trkpt>
      <trkpt lat="43.06043" lon="5.83288">
        <ele>124.71484375</ele>
        <time>2021-11-14T09:40:31Z</time>
      </trkpt>
      <trkpt lat="43.06039" lon="5.8329">
        <ele>124.8671875</ele>
        <time>2021-11-14T09:40:32Z</time>
      </trkpt>
      <trkpt lat="43.06035" lon="5.83291">
        <ele>125.0703125</ele>
        <time>2021-11-14T09:40:33Z</time>
      </trkpt>
      <trkpt lat="43.0603" lon="5.83291">
        <ele>125.3671875</ele>
        <time>2021-11-14T09:40:34Z</time>
      </trkpt>
      <trkpt lat="43.06026" lon="5.8329">
        <ele>125.71875</ele>
        <time>2021-11-14T09:40:35Z</time>
      </trkpt>
      <trkpt lat="43.06022" lon="5.83289">
        <ele>126.109375</ele>
        <time>2021-11-14T09:40:36Z</time>
      </trkpt>
      <trkpt lat="43.06018" lon="5.83287">
        <ele>126.5390625</ele>
        <time>2021-11-14T09:40:37Z</time>
      </trkpt>
      <trkpt lat="43.06014" lon="5.83284">
        <ele>127.0234375</ele>
        <time>2021-11-14T09:40:38Z</time>
      </trkpt>
      <trkpt lat="43.06004" lon="5.83277">
        <ele>128.9453125</ele>
        <time>2021-11-14T09:40:41Z</time>
      </trkpt>
      <trkpt lat="43.06" lon="5.83276">
        <ele>129.50390625</ele>
        <time>2021-11-14T09:40:42Z</time>
      </trkpt>
      <trkpt lat="43.05996" lon="5.83276">
        <ele>129.9453125</ele>
        <time>2021-11-14T09:40:43Z</time>
      </trkpt>
      <trkpt lat="43.05992" lon="5.83277">
        <ele>130.25</ele>
        <time>2021-11-14T09:40:44Z</time>
      </trkpt>
      <trkpt lat="43.05988" lon="5.8328">
        <ele>130.3984375</ele>
        <time>2021-11-14T09:40:45Z</time>
      </trkpt>
      <trkpt lat="43.05985" lon="5.83283">
        <ele>130.3125</ele>
        <time>2021-11-14T09:40:46Z</time>
      </trkpt>
      <trkpt lat="43.05983" lon="5.83288">
        <ele>130.17578125</ele>
        <time>2021-11-14T09:40:47Z</time>
      </trkpt>
      <trkpt lat="43.05969" lon="5.83336">
        <ele>128.890625</ele>
        <time>2021-11-14T09:40:55Z</time>
      </trkpt>
      <trkpt lat="43.05964" lon="5.83374">
        <ele>128.18359375</ele>
        <time>2021-11-14T09:41:01Z</time>
      </trkpt>
      <trkpt lat="43.05959" lon="5.83385">
        <ele>128.44140625</ele>
        <time>2021-11-14T09:41:03Z</time>
      </trkpt>
      <trkpt lat="43.05956" lon="5.8339">
        <ele>128.71875</ele>
        <time>2021-11-14T09:41:04Z</time>
      </trkpt>
      <trkpt lat="43.05908" lon="5.83462">
        <ele>130.2265625</ele>
        <time>2021-11-14T09:41:19Z</time>
      </trkpt>
      <trkpt lat="43.05883" lon="5.83502">
        <ele>130.30078125</ele>
        <time>2021-11-14T09:41:27Z</time>
      </trkpt>
      <trkpt lat="43.05879" lon="5.83505">
        <ele>130.5390625</ele>
        <time>2021-11-14T09:41:28Z</time>
      </trkpt>
      <trkpt lat="43.05875" lon="5.83509">
        <ele>130.65625</ele>
        <time>2021-11-14T09:41:29Z</time>
      </trkpt>
      <trkpt lat="43.05871" lon="5.83512">
        <ele>130.68359375</ele>
        <time>2021-11-14T09:41:30Z</time>
      </trkpt>
      <trkpt lat="43.05867" lon="5.83514">
        <ele>130.84765625</ele>
        <time>2021-11-14T09:41:31Z</time>
      </trkpt>
      <trkpt lat="43.05862" lon="5.83516">
        <ele>131.1015625</ele>
        <time>2021-11-14T09:41:32Z</time>
      </trkpt>
      <trkpt lat="43.05857" lon="5.83517">
        <ele>131.41796875</ele>
        <time>2021-11-14T09:41:33Z</time>
      </trkpt>
      <trkpt lat="43.05838" lon="5.83525">
        <ele>132.45703125</ele>
        <time>2021-11-14T09:41:37Z</time>
      </trkpt>
      <trkpt lat="43.05834" lon="5.83526">
        <ele>132.7890625</ele>
        <time>2021-11-14T09:41:38Z</time>
      </trkpt>
      <trkpt lat="43.05814" lon="5.83529">
        <ele>134.31640625</ele>
        <time>2021-11-14T09:41:42Z</time>
      </trkpt>
      <trkpt lat="43.05809" lon="5.83528">
        <ele>134.8203125</ele>
        <time>2021-11-14T09:41:43Z</time>
      </trkpt>
      <trkpt lat="43.05789" lon="5.83521">
        <ele>137.14453125</ele>
        <time>2021-11-14T09:41:47Z</time>
      </trkpt>
      <trkpt lat="43.05784" lon="5.83521">
        <ele>137.69140625</ele>
        <time>2021-11-14T09:41:48Z</time>
      </trkpt>
      <trkpt lat="43.05779" lon="5.83521">
        <ele>138.15625</ele>
        <time>2021-11-14T09:41:49Z</time>
      </trkpt>
      <trkpt lat="43.05774" lon="5.83521">
        <ele>138.5390625</ele>
        <time>2021-11-14T09:41:50Z</time>
      </trkpt>
      <trkpt lat="43.05769" lon="5.83522">
        <ele>138.87109375</ele>
        <time>2021-11-14T09:41:51Z</time>
      </trkpt>
      <trkpt lat="43.05764" lon="5.83524">
        <ele>139.19140625</ele>
        <time>2021-11-14T09:41:52Z</time>
      </trkpt>
      <trkpt lat="43.05759" lon="5.83526">
        <ele>139.57421875</ele>
        <time>2021-11-14T09:41:53Z</time>
      </trkpt>
      <trkpt lat="43.05755" lon="5.8353">
        <ele>139.73046875</ele>
        <time>2021-11-14T09:41:54Z</time>
      </trkpt>
      <trkpt lat="43.05753" lon="5.83536">
        <ele>139.67578125</ele>
        <time>2021-11-14T09:41:55Z</time>
      </trkpt>
      <trkpt lat="43.05751" lon="5.83543">
        <ele>139.48828125</ele>
        <time>2021-11-14T09:41:56Z</time>
      </trkpt>
      <trkpt lat="43.0575" lon="5.8355">
        <ele>139.1171875</ele>
        <time>2021-11-14T09:41:57Z</time>
      </trkpt>
      <trkpt lat="43.0575" lon="5.83558">
        <ele>138.54296875</ele>
        <time>2021-11-14T09:41:58Z</time>
      </trkpt>
      <trkpt lat="43.05751" lon="5.83565">
        <ele>137.82421875</ele>
        <time>2021-11-14T09:41:59Z</time>
      </trkpt>
      <trkpt lat="43.05753" lon="5.83573">
        <ele>137.15234375</ele>
        <time>2021-11-14T09:42:00Z</time>
      </trkpt>
      <trkpt lat="43.05753" lon="5.83581">
        <ele>136.58984375</ele>
        <time>2021-11-14T09:42:01Z</time>
      </trkpt>
      <trkpt lat="43.05754" lon="5.83588">
        <ele>136.1640625</ele>
        <time>2021-11-14T09:42:02Z</time>
      </trkpt>
      <trkpt lat="43.05753" lon="5.83596">
        <ele>135.6640625</ele>
        <time>2021-11-14T09:42:03Z</time>
      </trkpt>
      <trkpt lat="43.05751" lon="5.83603">
        <ele>135.28515625</ele>
        <time>2021-11-14T09:42:04Z</time>
      </trkpt>
      <trkpt lat="43.05749" lon="5.8361">
        <ele>135.0078125</ele>
        <time>2021-11-14T09:42:05Z</time>
      </trkpt>
      <trkpt lat="43.05746" lon="5.83616">
        <ele>134.7890625</ele>
        <time>2021-11-14T09:42:06Z</time>
      </trkpt>
      <trkpt lat="43.05742" lon="5.83622">
        <ele>135.1796875</ele>
        <time>2021-11-14T09:42:07Z</time>
      </trkpt>
      <trkpt lat="43.05738" lon="5.83628">
        <ele>135.5390625</ele>
        <time>2021-11-14T09:42:08Z</time>
      </trkpt>
      <trkpt lat="43.05734" lon="5.83633">
        <ele>135.91015625</ele>
        <time>2021-11-14T09:42:09Z</time>
      </trkpt>
      <trkpt lat="43.05729" lon="5.83637">
        <ele>136.2578125</ele>
        <time>2021-11-14T09:42:10Z</time>
      </trkpt>
      <trkpt lat="43.05724" lon="5.83641">
        <ele>136.609375</ele>
        <time>2021-11-14T09:42:11Z</time>
      </trkpt>
      <trkpt lat="43.05719" lon="5.83645">
        <ele>136.984375</ele>
        <time>2021-11-14T09:42:12Z</time>
      </trkpt>
      <trkpt lat="43.05714" lon="5.83648">
        <ele>137.453125</ele>
        <time>2021-11-14T09:42:13Z</time>
      </trkpt>
      <trkpt lat="43.05709" lon="5.8365">
        <ele>137.8828125</ele>
        <time>2021-11-14T09:42:14Z</time>
      </trkpt>
      <trkpt lat="43.05703" lon="5.83649">
        <ele>138.25390625</ele>
        <time>2021-11-14T09:42:15Z</time>
      </trkpt>
      <trkpt lat="43.05698" lon="5.83646">
        <ele>138.75</ele>
        <time>2021-11-14T09:42:16Z</time>
      </trkpt>
      <trkpt lat="43.05694" lon="5.83641">
        <ele>139.48828125</ele>
        <time>2021-11-14T09:42:17Z</time>
      </trkpt>
      <trkpt lat="43.0569" lon="5.83634">
        <ele>140.38671875</ele>
        <time>2021-11-14T09:42:18Z</time>
      </trkpt>
      <trkpt lat="43.05687" lon="5.83628">
        <ele>141.33203125</ele>
        <time>2021-11-14T09:42:19Z</time>
      </trkpt>
      <trkpt lat="43.05684" lon="5.83621">
        <ele>142.28515625</ele>
        <time>2021-11-14T09:42:20Z</time>
      </trkpt>
      <trkpt lat="43.05668" lon="5.83584">
        <ele>148.32421875</ele>
        <time>2021-11-14T09:42:26Z</time>
      </trkpt>
      <trkpt lat="43.05664" lon="5.8358">
        <ele>148.66015625</ele>
        <time>2021-11-14T09:42:27Z</time>
      </trkpt>
      <trkpt lat="43.0566" lon="5.83577">
        <ele>148.83203125</ele>
        <time>2021-11-14T09:42:28Z</time>
      </trkpt>
      <trkpt lat="43.05655" lon="5.83578">
        <ele>148.7734375</ele>
        <time>2021-11-14T09:42:29Z</time>
      </trkpt>
      <trkpt lat="43.05651" lon="5.83582">
        <ele>148.40234375</ele>
        <time>2021-11-14T09:42:30Z</time>
      </trkpt>
      <trkpt lat="43.05649" lon="5.83588">
        <ele>147.83203125</ele>
        <time>2021-11-14T09:42:31Z</time>
      </trkpt>
      <trkpt lat="43.05648" lon="5.83597">
        <ele>146.734375</ele>
        <time>2021-11-14T09:42:32Z</time>
      </trkpt>
      <trkpt lat="43.05646" lon="5.83605">
        <ele>145.671875</ele>
        <time>2021-11-14T09:42:33Z</time>
      </trkpt>
      <trkpt lat="43.05644" lon="5.83614">
        <ele>144.703125</ele>
        <time>2021-11-14T09:42:34Z</time>
      </trkpt>
      <trkpt lat="43.05637" lon="5.83638">
        <ele>143.5703125</ele>
        <time>2021-11-14T09:42:37Z</time>
      </trkpt>
      <trkpt lat="43.05634" lon="5.83644">
        <ele>143.46875</ele>
        <time>2021-11-14T09:42:38Z</time>
      </trkpt>
      <trkpt lat="43.0563" lon="5.8365">
        <ele>143.3203125</ele>
        <time>2021-11-14T09:42:39Z</time>
      </trkpt>
      <trkpt lat="43.05626" lon="5.83656">
        <ele>143.2578125</ele>
        <time>2021-11-14T09:42:40Z</time>
      </trkpt>
      <trkpt lat="43.05622" lon="5.83661">
        <ele>143.63671875</ele>
        <time>2021-11-14T09:42:41Z</time>
      </trkpt>
      <trkpt lat="43.05619" lon="5.83666">
        <ele>144.0625</ele>
        <time>2021-11-14T09:42:42Z</time>
      </trkpt>
      <trkpt lat="43.05615" lon="5.83671">
        <ele>144.46875</ele>
        <time>2021-11-14T09:42:43Z</time>
      </trkpt>
      <trkpt lat="43.05613" lon="5.83677">
        <ele>145.09375</ele>
        <time>2021-11-14T09:42:44Z</time>
      </trkpt>
      <trkpt lat="43.05611" lon="5.83683">
        <ele>145.6171875</ele>
        <time>2021-11-14T09:42:45Z</time>
      </trkpt>
      <trkpt lat="43.05609" lon="5.83691">
        <ele>146.01171875</ele>
        <time>2021-11-14T09:42:46Z</time>
      </trkpt>
      <trkpt lat="43.05608" lon="5.83698">
        <ele>146.2421875</ele>
        <time>2021-11-14T09:42:47Z</time>
      </trkpt>
      <trkpt lat="43.05609" lon="5.83705">
        <ele>146.17578125</ele>
        <time>2021-11-14T09:42:48Z</time>
      </trkpt>
      <trkpt lat="43.0561" lon="5.83712">
        <ele>145.9453125</ele>
        <time>2021-11-14T09:42:49Z</time>
      </trkpt>
      <trkpt lat="43.05611" lon="5.8372">
        <ele>145.734375</ele>
        <time>2021-11-14T09:42:50Z</time>
      </trkpt>
      <trkpt lat="43.05612" lon="5.83727">
        <ele>145.63671875</ele>
        <time>2021-11-14T09:42:51Z</time>
      </trkpt>
      <trkpt lat="43.05612" lon="5.83734">
        <ele>145.90625</ele>
        <time>2021-11-14T09:42:52Z</time>
      </trkpt>
      <trkpt lat="43.05611" lon="5.83742">
        <ele>146.33984375</ele>
        <time>2021-11-14T09:42:53Z</time>
      </trkpt>
      <trkpt lat="43.05609" lon="5.83749">
        <ele>146.87890625</ele>
        <time>2021-11-14T09:42:54Z</time>
      </trkpt>
      <trkpt lat="43.05608" lon="5.83757">
        <ele>147.44921875</ele>
        <time>2021-11-14T09:42:55Z</time>
      </trkpt>
      <trkpt lat="43.05607" lon="5.83764">
        <ele>147.88671875</ele>
        <time>2021-11-14T09:42:56Z</time>
      </trkpt>
      <trkpt lat="43.05607" lon="5.83772">
        <ele>148.20703125</ele>
        <time>2021-11-14T09:42:57Z</time>
      </trkpt>
      <trkpt lat="43.05607" lon="5.8378">
        <ele>148.46484375</ele>
        <time>2021-11-14T09:42:58Z</time>
      </trkpt>
      <trkpt lat="43.05607" lon="5.83788">
        <ele>148.796875</ele>
        <time>2021-11-14T09:42:59Z</time>
      </trkpt>
      <trkpt lat="43.05608" lon="5.83795">
        <ele>149.20703125</ele>
        <time>2021-11-14T09:43:00Z</time>
      </trkpt>
      <trkpt lat="43.05614" lon="5.83839">
        <ele>150.9140625</ele>
        <time>2021-11-14T09:43:06Z</time>
      </trkpt>
      <trkpt lat="43.05615" lon="5.83846">
        <ele>151.04296875</ele>
        <time>2021-11-14T09:43:07Z</time>
      </trkpt>
      <trkpt lat="43.05623" lon="5.83885">
        <ele>151.890625</ele>
        <time>2021-11-14T09:43:13Z</time>
      </trkpt>
      <trkpt lat="43.05623" lon="5.83891">
        <ele>152.2421875</ele>
        <time>2021-11-14T09:43:14Z</time>
      </trkpt>
      <trkpt lat="43.05615" lon="5.83959">
        <ele>159.35546875</ele>
        <time>2021-11-14T09:43:27Z</time>
      </trkpt>
      <trkpt lat="43.05613" lon="5.84006">
        <ele>165.6875</ele>
        <time>2021-11-14T09:43:36Z</time>
      </trkpt>
      <trkpt lat="43.05614" lon="5.84012">
        <ele>166.60546875</ele>
        <time>2021-11-14T09:43:37Z</time>
      </trkpt>
      <trkpt lat="43.05616" lon="5.84016">
        <ele>167.41015625</ele>
        <time>2021-11-14T09:43:38Z</time>
      </trkpt>
      <trkpt lat="43.0562" lon="5.84019">
        <ele>168.015625</ele>
        <time>2021-11-14T09:43:39Z</time>
      </trkpt>
      <trkpt lat="43.05624" lon="5.84021">
        <ele>168.32421875</ele>
        <time>2021-11-14T09:43:40Z</time>
      </trkpt>
      <trkpt lat="43.05628" lon="5.8402">
        <ele>168.25390625</ele>
        <time>2021-11-14T09:43:41Z</time>
      </trkpt>
      <trkpt lat="43.05633" lon="5.84017">
        <ele>167.7421875</ele>
        <time>2021-11-14T09:43:42Z</time>
      </trkpt>
      <trkpt lat="43.05638" lon="5.84012">
        <ele>166.86328125</ele>
        <time>2021-11-14T09:43:43Z</time>
      </trkpt>
      <trkpt lat="43.05641" lon="5.84007">
        <ele>165.8203125</ele>
        <time>2021-11-14T09:43:44Z</time>
      </trkpt>
      <trkpt lat="43.05644" lon="5.84002">
        <ele>165.0078125</ele>
        <time>2021-11-14T09:43:45Z</time>
      </trkpt>
      <trkpt lat="43.05648" lon="5.83997">
        <ele>164.33984375</ele>
        <time>2021-11-14T09:43:46Z</time>
      </trkpt>
      <trkpt lat="43.05652" lon="5.83993">
        <ele>163.80859375</ele>
        <time>2021-11-14T09:43:47Z</time>
      </trkpt>
      <trkpt lat="43.05657" lon="5.83991">
        <ele>163.6171875</ele>
        <time>2021-11-14T09:43:48Z</time>
      </trkpt>
      <trkpt lat="43.05661" lon="5.83991">
        <ele>163.828125</ele>
        <time>2021-11-14T09:43:49Z</time>
      </trkpt>
      <trkpt lat="43.05666" lon="5.83992">
        <ele>164.21875</ele>
        <time>2021-11-14T09:43:50Z</time>
      </trkpt>
      <trkpt lat="43.05671" lon="5.83993">
        <ele>164.6875</ele>
        <time>2021-11-14T09:43:51Z</time>
      </trkpt>
      <trkpt lat="43.05675" lon="5.83995">
        <ele>165.2265625</ele>
        <time>2021-11-14T09:43:52Z</time>
      </trkpt>
      <trkpt lat="43.05679" lon="5.83997">
        <ele>165.7109375</ele>
        <time>2021-11-14T09:43:53Z</time>
      </trkpt>
      <trkpt lat="43.05683" lon="5.83999">
        <ele>166.23828125</ele>
        <time>2021-11-14T09:43:54Z</time>
      </trkpt>
      <trkpt lat="43.05688" lon="5.84002">
        <ele>166.9375</ele>
        <time>2021-11-14T09:43:55Z</time>
      </trkpt>
      <trkpt lat="43.05692" lon="5.84005">
        <ele>167.60546875</ele>
        <time>2021-11-14T09:43:56Z</time>
      </trkpt>
      <trkpt lat="43.05703" lon="5.84014">
        <ele>169.69140625</ele>
        <time>2021-11-14T09:43:59Z</time>
      </trkpt>
      <trkpt lat="43.05726" lon="5.84034">
        <ele>174.46875</ele>
        <time>2021-11-14T09:44:05Z</time>
      </trkpt>
      <trkpt lat="43.05731" lon="5.84035">
        <ele>175.26171875</ele>
        <time>2021-11-14T09:44:06Z</time>
      </trkpt>
      <trkpt lat="43.05735" lon="5.84035">
        <ele>175.86328125</ele>
        <time>2021-11-14T09:44:07Z</time>
      </trkpt>
      <trkpt lat="43.0574" lon="5.84032">
        <ele>176.66015625</ele>
        <time>2021-11-14T09:44:08Z</time>
      </trkpt>
      <trkpt lat="43.05744" lon="5.84028">
        <ele>177.41796875</ele>
        <time>2021-11-14T09:44:09Z</time>
      </trkpt>
      <trkpt lat="43.05746" lon="5.84022">
        <ele>177.69921875</ele>
        <time>2021-11-14T09:44:10Z</time>
      </trkpt>
      <trkpt lat="43.05747" lon="5.84015">
        <ele>177.5703125</ele>
        <time>2021-11-14T09:44:11Z</time>
      </trkpt>
      <trkpt lat="43.05747" lon="5.84008">
        <ele>177.08203125</ele>
        <time>2021-11-14T09:44:12Z</time>
      </trkpt>
      <trkpt lat="43.05746" lon="5.84001">
        <ele>176.68359375</ele>
        <time>2021-11-14T09:44:13Z</time>
      </trkpt>
      <trkpt lat="43.05745" lon="5.83994">
        <ele>176.390625</ele>
        <time>2021-11-14T09:44:14Z</time>
      </trkpt>
      <trkpt lat="43.05744" lon="5.83986">
        <ele>176.1953125</ele>
        <time>2021-11-14T09:44:15Z</time>
      </trkpt>
      <trkpt lat="43.05747" lon="5.83898">
        <ele>171.48828125</ele>
        <time>2021-11-14T09:44:28Z</time>
      </trkpt>
      <trkpt lat="43.05749" lon="5.83892">
        <ele>171.109375</ele>
        <time>2021-11-14T09:44:29Z</time>
      </trkpt>
      <trkpt lat="43.05752" lon="5.83887">
        <ele>170.80078125</ele>
        <time>2021-11-14T09:44:30Z</time>
      </trkpt>
      <trkpt lat="43.05756" lon="5.83883">
        <ele>170.8828125</ele>
        <time>2021-11-14T09:44:31Z</time>
      </trkpt>
      <trkpt lat="43.05761" lon="5.83881">
        <ele>171.43359375</ele>
        <time>2021-11-14T09:44:32Z</time>
      </trkpt>
      <trkpt lat="43.05767" lon="5.8388">
        <ele>171.95703125</ele>
        <time>2021-11-14T09:44:33Z</time>
      </trkpt>
      <trkpt lat="43.05772" lon="5.8388">
        <ele>171.7265625</ele>
        <time>2021-11-14T09:44:34Z</time>
      </trkpt>
      <trkpt lat="43.05777" lon="5.83879">
        <ele>171.5546875</ele>
        <time>2021-11-14T09:44:35Z</time>
      </trkpt>
      <trkpt lat="43.05783" lon="5.8388">
        <ele>171.51171875</ele>
        <time>2021-11-14T09:44:36Z</time>
      </trkpt>
      <trkpt lat="43.05788" lon="5.83881">
        <ele>171.7265625</ele>
        <time>2021-11-14T09:44:37Z</time>
      </trkpt>
      <trkpt lat="43.05793" lon="5.83883">
        <ele>172.125</ele>
        <time>2021-11-14T09:44:38Z</time>
      </trkpt>
      <trkpt lat="43.05833" lon="5.83907">
        <ele>177.66015625</ele>
        <time>2021-11-14T09:44:47Z</time>
      </trkpt>
      <trkpt lat="43.05837" lon="5.83911">
        <ele>178.74609375</ele>
        <time>2021-11-14T09:44:48Z</time>
      </trkpt>
      <trkpt lat="43.05841" lon="5.83915">
        <ele>180.06640625</ele>
        <time>2021-11-14T09:44:49Z</time>
      </trkpt>
      <trkpt lat="43.05848" lon="5.83925">
        <ele>182.9453125</ele>
        <time>2021-11-14T09:44:51Z</time>
      </trkpt>
      <trkpt lat="43.05852" lon="5.83929">
        <ele>183.72265625</ele>
        <time>2021-11-14T09:44:52Z</time>
      </trkpt>
      <trkpt lat="43.05856" lon="5.83931">
        <ele>184.06640625</ele>
        <time>2021-11-14T09:44:53Z</time>
      </trkpt>
      <trkpt lat="43.05861" lon="5.83932">
        <ele>183.984375</ele>
        <time>2021-11-14T09:44:54Z</time>
      </trkpt>
      <trkpt lat="43.05865" lon="5.83933">
        <ele>183.6640625</ele>
        <time>2021-11-14T09:44:55Z</time>
      </trkpt>
      <trkpt lat="43.0587" lon="5.83932">
        <ele>183.12109375</ele>
        <time>2021-11-14T09:44:56Z</time>
      </trkpt>
      <trkpt lat="43.05875" lon="5.83931">
        <ele>182.34765625</ele>
        <time>2021-11-14T09:44:57Z</time>
      </trkpt>
      <trkpt lat="43.0588" lon="5.83929">
        <ele>181.1796875</ele>
        <time>2021-11-14T09:44:58Z</time>
      </trkpt>
      <trkpt lat="43.05884" lon="5.83926">
        <ele>179.828125</ele>
        <time>2021-11-14T09:44:59Z</time>
      </trkpt>
      <trkpt lat="43.05889" lon="5.83923">
        <ele>178.4609375</ele>
        <time>2021-11-14T09:45:00Z</time>
      </trkpt>
      <trkpt lat="43.05893" lon="5.8392">
        <ele>177.078125</ele>
        <time>2021-11-14T09:45:01Z</time>
      </trkpt>
      <trkpt lat="43.05898" lon="5.83917">
        <ele>175.91015625</ele>
        <time>2021-11-14T09:45:02Z</time>
      </trkpt>
      <trkpt lat="43.05903" lon="5.83915">
        <ele>174.91015625</ele>
        <time>2021-11-14T09:45:03Z</time>
      </trkpt>
      <trkpt lat="43.05908" lon="5.83913">
        <ele>173.41015625</ele>
        <time>2021-11-14T09:45:04Z</time>
      </trkpt>
      <trkpt lat="43.05913" lon="5.83913">
        <ele>171.8671875</ele>
        <time>2021-11-14T09:45:05Z</time>
      </trkpt>
      <trkpt lat="43.05918" lon="5.83914">
        <ele>170.5859375</ele>
        <time>2021-11-14T09:45:06Z</time>
      </trkpt>
      <trkpt lat="43.05923" lon="5.83916">
        <ele>169.67578125</ele>
        <time>2021-11-14T09:45:07Z</time>
      </trkpt>
      <trkpt lat="43.05927" lon="5.8392">
        <ele>169.125</ele>
        <time>2021-11-14T09:45:08Z</time>
      </trkpt>
      <trkpt lat="43.0593" lon="5.83925">
        <ele>168.80859375</ele>
        <time>2021-11-14T09:45:09Z</time>
      </trkpt>
      <trkpt lat="43.05932" lon="5.83931">
        <ele>168.890625</ele>
        <time>2021-11-14T09:45:10Z</time>
      </trkpt>
      <trkpt lat="43.05934" lon="5.83938">
        <ele>169.078125</ele>
        <time>2021-11-14T09:45:11Z</time>
      </trkpt>
      <trkpt lat="43.05942" lon="5.83972">
        <ele>167.97265625</ele>
        <time>2021-11-14T09:45:17Z</time>
      </trkpt>
      <trkpt lat="43.05941" lon="5.83978">
        <ele>168.26953125</ele>
        <time>2021-11-14T09:45:18Z</time>
      </trkpt>
      <trkpt lat="43.05941" lon="5.83983">
        <ele>168.4453125</ele>
        <time>2021-11-14T09:45:19Z</time>
      </trkpt>
      <trkpt lat="43.05939" lon="5.83989">
        <ele>168.79296875</ele>
        <time>2021-11-14T09:45:20Z</time>
      </trkpt>
      <trkpt lat="43.05938" lon="5.83994">
        <ele>169.18359375</ele>
        <time>2021-11-14T09:45:21Z</time>
      </trkpt>
      <trkpt lat="43.0593" lon="5.84032">
        <ele>173.765625</ele>
        <time>2021-11-14T09:45:28Z</time>
      </trkpt>
      <trkpt lat="43.05926" lon="5.84092">
        <ele>181.609375</ele>
        <time>2021-11-14T09:45:39Z</time>
      </trkpt>
      <trkpt lat="43.05925" lon="5.84098">
        <ele>182.8984375</ele>
        <time>2021-11-14T09:45:40Z</time>
      </trkpt>
      <trkpt lat="43.05928" lon="5.84138">
        <ele>190.8203125</ele>
        <time>2021-11-14T09:45:47Z</time>
      </trkpt>
      <trkpt lat="43.0593" lon="5.84143">
        <ele>191.28515625</ele>
        <time>2021-11-14T09:45:48Z</time>
      </trkpt>
      <trkpt lat="43.05933" lon="5.84147">
        <ele>191.01171875</ele>
        <time>2021-11-14T09:45:49Z</time>
      </trkpt>
      <trkpt lat="43.05936" lon="5.8415">
        <ele>190.40625</ele>
        <time>2021-11-14T09:45:50Z</time>
      </trkpt>
      <trkpt lat="43.05939" lon="5.84152">
        <ele>189.421875</ele>
        <time>2021-11-14T09:45:51Z</time>
      </trkpt>
      <trkpt lat="43.05944" lon="5.84153">
        <ele>188.1796875</ele>
        <time>2021-11-14T09:45:52Z</time>
      </trkpt>
      <trkpt lat="43.05948" lon="5.84154">
        <ele>186.9453125</ele>
        <time>2021-11-14T09:45:53Z</time>
      </trkpt>
      <trkpt lat="43.05961" lon="5.84158">
        <ele>183.140625</ele>
        <time>2021-11-14T09:45:56Z</time>
      </trkpt>
      <trkpt lat="43.05965" lon="5.84161">
        <ele>181.8671875</ele>
        <time>2021-11-14T09:45:57Z</time>
      </trkpt>
      <trkpt lat="43.05968" lon="5.84165">
        <ele>180.80859375</ele>
        <time>2021-11-14T09:45:58Z</time>
      </trkpt>
      <trkpt lat="43.0597" lon="5.8417">
        <ele>180.26953125</ele>
        <time>2021-11-14T09:45:59Z</time>
      </trkpt>
      <trkpt lat="43.05971" lon="5.84176">
        <ele>179.9453125</ele>
        <time>2021-11-14T09:46:00Z</time>
      </trkpt>
      <trkpt lat="43.05971" lon="5.84182">
        <ele>179.8046875</ele>
        <time>2021-11-14T09:46:01Z</time>
      </trkpt>
      <trkpt lat="43.0597" lon="5.84187">
        <ele>180.1640625</ele>
        <time>2021-11-14T09:46:02Z</time>
      </trkpt>
      <trkpt lat="43.05968" lon="5.84192">
        <ele>180.9453125</ele>
        <time>2021-11-14T09:46:03Z</time>
      </trkpt>
      <trkpt lat="43.05966" lon="5.84197">
        <ele>181.8671875</ele>
        <time>2021-11-14T09:46:04Z</time>
      </trkpt>
      <trkpt lat="43.05955" lon="5.84222">
        <ele>187.6484375</ele>
        <time>2021-11-14T09:46:09Z</time>
      </trkpt>
      <trkpt lat="43.05954" lon="5.84227">
        <ele>188.40234375</ele>
        <time>2021-11-14T09:46:10Z</time>
      </trkpt>
      <trkpt lat="43.05953" lon="5.84233">
        <ele>189.015625</ele>
        <time>2021-11-14T09:46:11Z</time>
      </trkpt>
      <trkpt lat="43.05953" lon="5.84238">
        <ele>189.53125</ele>
        <time>2021-11-14T09:46:12Z</time>
      </trkpt>
      <trkpt lat="43.05953" lon="5.84244">
        <ele>189.95703125</ele>
        <time>2021-11-14T09:46:13Z</time>
      </trkpt>
      <trkpt lat="43.05956" lon="5.84271">
        <ele>190.8671875</ele>
        <time>2021-11-14T09:46:18Z</time>
      </trkpt>
      <trkpt lat="43.05969" lon="5.84322">
        <ele>192.44140625</ele>
        <time>2021-11-14T09:46:29Z</time>
      </trkpt>
      <trkpt lat="43.05965" lon="5.84385">
        <ele>208.23046875</ele>
        <time>2021-11-14T09:46:43Z</time>
      </trkpt>
      <trkpt lat="43.05988" lon="5.84403">
        <ele>214.80078125</ele>
        <time>2021-11-14T09:46:52Z</time>
      </trkpt>
      <trkpt lat="43.06026" lon="5.84391">
        <ele>206.6953125</ele>
        <time>2021-11-14T09:47:03Z</time>
      </trkpt>
      <trkpt lat="43.06054" lon="5.84416">
        <ele>203.421875</ele>
        <time>2021-11-14T09:47:14Z</time>
      </trkpt>
      <trkpt lat="43.06065" lon="5.8447">
        <ele>211.94921875</ele>
        <time>2021-11-14T09:47:27Z</time>
      </trkpt>
      <trkpt lat="43.06089" lon="5.84522">
        <ele>215.6171875</ele>
        <time>2021-11-14T09:47:39Z</time>
      </trkpt>
      <trkpt lat="43.06105" lon="5.84563">
        <ele>211.921875</ele>
        <time>2021-11-14T09:47:50Z</time>
      </trkpt>
      <trkpt lat="43.06106" lon="5.84581">
        <ele>209.05078125</ele>
        <time>2021-11-14T09:47:55Z</time>
      </trkpt>
      <trkpt lat="43.06105" lon="5.84584">
        <ele>208.7734375</ele>
        <time>2021-11-14T09:47:56Z</time>
      </trkpt>
      <trkpt lat="43.06099" lon="5.84585">
        <ele>209.37109375</ele>
        <time>2021-11-14T09:48:06Z</time>
      </trkpt>
      <trkpt lat="43.06098" lon="5.84585">
        <ele>209.625</ele>
        <time>2021-11-14T09:48:07Z</time>
      </trkpt>
      <trkpt lat="43.06096" lon="5.84587">
        <ele>209.69140625</ele>
        <time>2021-11-14T09:48:09Z</time>
      </trkpt>
      <trkpt lat="43.06095" lon="5.84589">
        <ele>209.6640625</ele>
        <time>2021-11-14T09:48:10Z</time>
      </trkpt>
      <trkpt lat="43.06094" lon="5.8459">
        <ele>209.75390625</ele>
        <time>2021-11-14T09:48:11Z</time>
      </trkpt>
      <trkpt lat="43.06092" lon="5.8459">
        <ele>209.97265625</ele>
        <time>2021-11-14T09:48:12Z</time>
      </trkpt>
      <trkpt lat="43.0609" lon="5.84591">
        <ele>210.1875</ele>
        <time>2021-11-14T09:48:13Z</time>
      </trkpt>
      <trkpt lat="43.06089" lon="5.84592">
        <ele>210.24609375</ele>
        <time>2021-11-14T09:48:14Z</time>
      </trkpt>
      <trkpt lat="43.06087" lon="5.84593">
        <ele>210.24609375</ele>
        <time>2021-11-14T09:48:15Z</time>
      </trkpt>
      <trkpt lat="43.06074" lon="5.84605">
        <ele>210.3125</ele>
        <time>2021-11-14T09:48:23Z</time>
      </trkpt>
      <trkpt lat="43.06053" lon="5.84606">
        <ele>213.15234375</ele>
        <time>2021-11-14T09:48:33Z</time>
      </trkpt>
      <trkpt lat="43.06038" lon="5.84594">
        <ele>218.63671875</ele>
        <time>2021-11-14T09:48:42Z</time>
      </trkpt>
      <trkpt lat="43.06023" lon="5.84565">
        <ele>226.72265625</ele>
        <time>2021-11-14T09:48:54Z</time>
      </trkpt>
      <trkpt lat="43.06008" lon="5.84553">
        <ele>230.7421875</ele>
        <time>2021-11-14T09:49:03Z</time>
      </trkpt>
      <trkpt lat="43.05987" lon="5.84552">
        <ele>232.43359375</ele>
        <time>2021-11-14T09:49:13Z</time>
      </trkpt>
      <trkpt lat="43.05975" lon="5.84552">
        <ele>233.28515625</ele>
        <time>2021-11-14T09:49:19Z</time>
      </trkpt>
      <trkpt lat="43.05954" lon="5.84545">
        <ele>237.18359375</ele>
        <time>2021-11-14T09:49:30Z</time>
      </trkpt>
      <trkpt lat="43.05924" lon="5.84533">
        <ele>241.6796875</ele>
        <time>2021-11-14T09:49:42Z</time>
      </trkpt>
      <trkpt lat="43.05897" lon="5.84503">
        <ele>243.81640625</ele>
        <time>2021-11-14T09:49:56Z</time>
      </trkpt>
      <trkpt lat="43.05879" lon="5.84495">
        <ele>244.08203125</ele>
        <time>2021-11-14T09:50:07Z</time>
      </trkpt>
      <trkpt lat="43.05873" lon="5.84499">
        <ele>244.2890625</ele>
        <time>2021-11-14T09:50:11Z</time>
      </trkpt>
      <trkpt lat="43.05871" lon="5.845">
        <ele>244.4375</ele>
        <time>2021-11-14T09:50:12Z</time>
      </trkpt>
      <trkpt lat="43.05869" lon="5.84501">
        <ele>244.5625</ele>
        <time>2021-11-14T09:50:13Z</time>
      </trkpt>
      <trkpt lat="43.05867" lon="5.84502">
        <ele>244.68359375</ele>
        <time>2021-11-14T09:50:14Z</time>
      </trkpt>
      <trkpt lat="43.05866" lon="5.84503">
        <ele>244.8046875</ele>
        <time>2021-11-14T09:50:15Z</time>
      </trkpt>
      <trkpt lat="43.05859" lon="5.84507">
        <ele>245.078125</ele>
        <time>2021-11-14T09:50:19Z</time>
      </trkpt>
      <trkpt lat="43.05839" lon="5.84503">
        <ele>249.5390625</ele>
        <time>2021-11-14T09:50:29Z</time>
      </trkpt>
      <trkpt lat="43.05823" lon="5.84502">
        <ele>253.2734375</ele>
        <time>2021-11-14T09:50:37Z</time>
      </trkpt>
      <trkpt lat="43.05806" lon="5.84506">
        <ele>256.75</ele>
        <time>2021-11-14T09:50:45Z</time>
      </trkpt>
      <trkpt lat="43.05803" lon="5.84506">
        <ele>257.2890625</ele>
        <time>2021-11-14T09:50:46Z</time>
      </trkpt>
      <trkpt lat="43.05786" lon="5.845">
        <ele>262.30859375</ele>
        <time>2021-11-14T09:50:54Z</time>
      </trkpt>
      <trkpt lat="43.05784" lon="5.845">
        <ele>262.859375</ele>
        <time>2021-11-14T09:50:55Z</time>
      </trkpt>
      <trkpt lat="43.05746" lon="5.8451">
        <ele>271.91015625</ele>
        <time>2021-11-14T09:51:09Z</time>
      </trkpt>
      <trkpt lat="43.0573" lon="5.8451">
        <ele>276.34375</ele>
        <time>2021-11-14T09:51:15Z</time>
      </trkpt>
      <trkpt lat="43.05727" lon="5.84511">
        <ele>277.02734375</ele>
        <time>2021-11-14T09:51:16Z</time>
      </trkpt>
      <trkpt lat="43.05703" lon="5.84513">
        <ele>283.3984375</ele>
        <time>2021-11-14T09:51:25Z</time>
      </trkpt>
      <trkpt lat="43.05691" lon="5.8451">
        <ele>285.3125</ele>
        <time>2021-11-14T09:51:30Z</time>
      </trkpt>
      <trkpt lat="43.05659" lon="5.845">
        <ele>288.9921875</ele>
        <time>2021-11-14T09:51:43Z</time>
      </trkpt>
      <trkpt lat="43.05616" lon="5.84496">
        <ele>293.7109375</ele>
        <time>2021-11-14T09:51:57Z</time>
      </trkpt>
      <trkpt lat="43.05587" lon="5.84517">
        <ele>298.828125</ele>
        <time>2021-11-14T09:52:07Z</time>
      </trkpt>
      <trkpt lat="43.05553" lon="5.84569">
        <ele>302.765625</ele>
        <time>2021-11-14T09:52:22Z</time>
      </trkpt>
      <trkpt lat="43.05515" lon="5.84611">
        <ele>299.828125</ele>
        <time>2021-11-14T09:52:36Z</time>
      </trkpt>
      <trkpt lat="43.0551" lon="5.84615">
        <ele>299.94921875</ele>
        <time>2021-11-14T09:52:38Z</time>
      </trkpt>
      <trkpt lat="43.05486" lon="5.84638">
        <ele>297.82421875</ele>
        <time>2021-11-14T09:52:48Z</time>
      </trkpt>
      <trkpt lat="43.05475" lon="5.8465">
        <ele>297.7734375</ele>
        <time>2021-11-14T09:52:53Z</time>
      </trkpt>
      <trkpt lat="43.05449" lon="5.84669">
        <ele>301.05078125</ele>
        <time>2021-11-14T09:53:03Z</time>
      </trkpt>
      <trkpt lat="43.05442" lon="5.84677">
        <ele>300.97265625</ele>
        <time>2021-11-14T09:53:07Z</time>
      </trkpt>
      <trkpt lat="43.05436" lon="5.84678">
        <ele>302.4375</ele>
        <time>2021-11-14T09:53:10Z</time>
      </trkpt>
      <trkpt lat="43.05434" lon="5.84677">
        <ele>303.30859375</ele>
        <time>2021-11-14T09:53:11Z</time>
      </trkpt>
      <trkpt lat="43.05432" lon="5.84675">
        <ele>304.26171875</ele>
        <time>2021-11-14T09:53:12Z</time>
      </trkpt>
      <trkpt lat="43.05431" lon="5.84672">
        <ele>305.13671875</ele>
        <time>2021-11-14T09:53:13Z</time>
      </trkpt>
      <trkpt lat="43.0543" lon="5.8467">
        <ele>305.515625</ele>
        <time>2021-11-14T09:53:14Z</time>
      </trkpt>
      <trkpt lat="43.0543" lon="5.84667">
        <ele>305.69921875</ele>
        <time>2021-11-14T09:53:15Z</time>
      </trkpt>
      <trkpt lat="43.05429" lon="5.84665">
        <ele>305.91796875</ele>
        <time>2021-11-14T09:53:16Z</time>
      </trkpt>
      <trkpt lat="43.05414" lon="5.84628">
        <ele>309.125</ele>
        <time>2021-11-14T09:53:30Z</time>
      </trkpt>
      <trkpt lat="43.05391" lon="5.84611">
        <ele>313.9453125</ele>
        <time>2021-11-14T09:53:40Z</time>
      </trkpt>
      <trkpt lat="43.05368" lon="5.84594">
        <ele>318.08984375</ele>
        <time>2021-11-14T09:53:51Z</time>
      </trkpt>
      <trkpt lat="43.05356" lon="5.84568">
        <ele>317.65234375</ele>
        <time>2021-11-14T09:54:00Z</time>
      </trkpt>
      <trkpt lat="43.05352" lon="5.8456">
        <ele>317.88671875</ele>
        <time>2021-11-14T09:54:03Z</time>
      </trkpt>
      <trkpt lat="43.0535" lon="5.84561">
        <ele>318.6796875</ele>
        <time>2021-11-14T09:54:04Z</time>
      </trkpt>
      <trkpt lat="43.05348" lon="5.84562">
        <ele>319.62109375</ele>
        <time>2021-11-14T09:54:05Z</time>
      </trkpt>
      <trkpt lat="43.05347" lon="5.84565">
        <ele>320.44921875</ele>
        <time>2021-11-14T09:54:06Z</time>
      </trkpt>
      <trkpt lat="43.05346" lon="5.84568">
        <ele>321.25</ele>
        <time>2021-11-14T09:54:07Z</time>
      </trkpt>
      <trkpt lat="43.05345" lon="5.84571">
        <ele>321.9296875</ele>
        <time>2021-11-14T09:54:08Z</time>
      </trkpt>
      <trkpt lat="43.05349" lon="5.84608">
        <ele>326.83203125</ele>
        <time>2021-11-14T09:54:21Z</time>
      </trkpt>
      <trkpt lat="43.05354" lon="5.84639">
        <ele>327.73828125</ele>
        <time>2021-11-14T09:54:32Z</time>
      </trkpt>
      <trkpt lat="43.05361" lon="5.84662">
        <ele>326.21875</ele>
        <time>2021-11-14T09:54:40Z</time>
      </trkpt>
      <trkpt lat="43.0536" lon="5.84671">
        <ele>327.12109375</ele>
        <time>2021-11-14T09:54:43Z</time>
      </trkpt>
      <trkpt lat="43.05354" lon="5.84681">
        <ele>328.6484375</ele>
        <time>2021-11-14T09:54:47Z</time>
      </trkpt>
      <trkpt lat="43.05352" lon="5.84683">
        <ele>329.30078125</ele>
        <time>2021-11-14T09:54:48Z</time>
      </trkpt>
      <trkpt lat="43.0535" lon="5.84683">
        <ele>330.20703125</ele>
        <time>2021-11-14T09:54:49Z</time>
      </trkpt>
      <trkpt lat="43.05348" lon="5.84682">
        <ele>330.8125</ele>
        <time>2021-11-14T09:54:50Z</time>
      </trkpt>
      <trkpt lat="43.05346" lon="5.8468">
        <ele>331.171875</ele>
        <time>2021-11-14T09:54:51Z</time>
      </trkpt>
      <trkpt lat="43.05345" lon="5.84677">
        <ele>331.49609375</ele>
        <time>2021-11-14T09:54:52Z</time>
      </trkpt>
      <trkpt lat="43.05343" lon="5.84676">
        <ele>331.765625</ele>
        <time>2021-11-14T09:54:53Z</time>
      </trkpt>
      <trkpt lat="43.05332" lon="5.84665">
        <ele>333.171875</ele>
        <time>2021-11-14T09:55:01Z</time>
      </trkpt>
      <trkpt lat="43.05325" lon="5.84667">
        <ele>334.2734375</ele>
        <time>2021-11-14T09:55:13Z</time>
      </trkpt>
      <trkpt lat="43.05322" lon="5.8467">
        <ele>334.82421875</ele>
        <time>2021-11-14T09:55:27Z</time>
      </trkpt>
      <trkpt lat="43.05322" lon="5.84673">
        <ele>334.890625</ele>
        <time>2021-11-14T09:55:56Z</time>
      </trkpt>
      <trkpt lat="43.05319" lon="5.84677">
        <ele>335.2109375</ele>
        <time>2021-11-14T09:56:47Z</time>
      </trkpt>
      <trkpt lat="43.0532" lon="5.84673">
        <ele>335.05859375</ele>
        <time>2021-11-14T09:57:14Z</time>
      </trkpt>
      <trkpt lat="43.05323" lon="5.84671">
        <ele>334.71484375</ele>
        <time>2021-11-14T09:57:16Z</time>
      </trkpt>
      <trkpt lat="43.05329" lon="5.84671">
        <ele>333.859375</ele>
        <time>2021-11-14T09:57:20Z</time>
      </trkpt>
      <trkpt lat="43.05329" lon="5.84686">
        <ele>334.06640625</ele>
        <time>2021-11-14T09:57:28Z</time>
      </trkpt>
      <trkpt lat="43.0532" lon="5.8469">
        <ele>335.69140625</ele>
        <time>2021-11-14T09:57:34Z</time>
      </trkpt>
      <trkpt lat="43.05317" lon="5.84692">
        <ele>335.86328125</ele>
        <time>2021-11-14T09:57:36Z</time>
      </trkpt>
      <trkpt lat="43.05312" lon="5.84712">
        <ele>335.8828125</ele>
        <time>2021-11-14T09:57:42Z</time>
      </trkpt>
      <trkpt lat="43.05316" lon="5.84738">
        <ele>333.61328125</ele>
        <time>2021-11-14T09:57:54Z</time>
      </trkpt>
      <trkpt lat="43.05318" lon="5.84742">
        <ele>333.01171875</ele>
        <time>2021-11-14T09:58:07Z</time>
      </trkpt>
      <trkpt lat="43.05319" lon="5.84741">
        <ele>333.1015625</ele>
        <time>2021-11-14T09:58:39Z</time>
      </trkpt>
      <trkpt lat="43.0532" lon="5.84741">
        <ele>332.98046875</ele>
        <time>2021-11-14T09:59:05Z</time>
      </trkpt>
      <trkpt lat="43.05318" lon="5.84741">
        <ele>333.1875</ele>
        <time>2021-11-14T09:59:33Z</time>
      </trkpt>
      <trkpt lat="43.05317" lon="5.84739">
        <ele>333.35546875</ele>
        <time>2021-11-14T10:00:01Z</time>
      </trkpt>
      <trkpt lat="43.05317" lon="5.8474">
        <ele>333.33984375</ele>
        <time>2021-11-14T10:00:30Z</time>
      </trkpt>
      <trkpt lat="43.05317" lon="5.8474">
        <ele>333.26171875</ele>
        <time>2021-11-14T10:00:57Z</time>
      </trkpt>
      <trkpt lat="43.05318" lon="5.8474">
        <ele>333.3125</ele>
        <time>2021-11-14T10:01:29Z</time>
      </trkpt>
      <trkpt lat="43.05319" lon="5.8474">
        <ele>333.1875</ele>
        <time>2021-11-14T10:02:04Z</time>
      </trkpt>
      <trkpt lat="43.05319" lon="5.84739">
        <ele>333.390625</ele>
        <time>2021-11-14T10:02:43Z</time>
      </trkpt>
      <trkpt lat="43.05318" lon="5.8474">
        <ele>333.25</ele>
        <time>2021-11-14T10:03:18Z</time>
      </trkpt>
      <trkpt lat="43.0532" lon="5.84742">
        <ele>332.96484375</ele>
        <time>2021-11-14T10:04:03Z</time>
      </trkpt>
      <trkpt lat="43.05317" lon="5.84737">
        <ele>333.67578125</ele>
        <time>2021-11-14T10:04:31Z</time>
      </trkpt>
      <trkpt lat="43.05315" lon="5.84738">
        <ele>333.62109375</ele>
        <time>2021-11-14T10:04:50Z</time>
      </trkpt>
      <trkpt lat="43.0531" lon="5.84704">
        <ele>336.234375</ele>
        <time>2021-11-14T10:05:01Z</time>
      </trkpt>
      <trkpt lat="43.05311" lon="5.84698">
        <ele>336.3125</ele>
        <time>2021-11-14T10:05:03Z</time>
      </trkpt>
      <trkpt lat="43.05318" lon="5.8469">
        <ele>335.74609375</ele>
        <time>2021-11-14T10:05:06Z</time>
      </trkpt>
      <trkpt lat="43.05321" lon="5.84687">
        <ele>335.58203125</ele>
        <time>2021-11-14T10:05:07Z</time>
      </trkpt>
      <trkpt lat="43.05324" lon="5.84685">
        <ele>334.96484375</ele>
        <time>2021-11-14T10:05:08Z</time>
      </trkpt>
      <trkpt lat="43.05328" lon="5.84681">
        <ele>334.2734375</ele>
        <time>2021-11-14T10:05:09Z</time>
      </trkpt>
      <trkpt lat="43.0533" lon="5.84677">
        <ele>333.8046875</ele>
        <time>2021-11-14T10:05:10Z</time>
      </trkpt>
      <trkpt lat="43.0533" lon="5.84671">
        <ele>333.76953125</ele>
        <time>2021-11-14T10:05:11Z</time>
      </trkpt>
      <trkpt lat="43.05329" lon="5.84666">
        <ele>333.6328125</ele>
        <time>2021-11-14T10:05:12Z</time>
      </trkpt>
      <trkpt lat="43.0533" lon="5.84662">
        <ele>333.390625</ele>
        <time>2021-11-14T10:05:13Z</time>
      </trkpt>
      <trkpt lat="43.05332" lon="5.84661">
        <ele>333.10546875</ele>
        <time>2021-11-14T10:05:14Z</time>
      </trkpt>
      <trkpt lat="43.05333" lon="5.84662">
        <ele>332.890625</ele>
        <time>2021-11-14T10:05:15Z</time>
      </trkpt>
      <trkpt lat="43.05336" lon="5.84667">
        <ele>332.77734375</ele>
        <time>2021-11-14T10:05:29Z</time>
      </trkpt>
      <trkpt lat="43.05351" lon="5.8468">
        <ele>329.859375</ele>
        <time>2021-11-14T10:05:40Z</time>
      </trkpt>
      <trkpt lat="43.05354" lon="5.8468">
        <ele>328.72265625</ele>
        <time>2021-11-14T10:05:41Z</time>
      </trkpt>
      <trkpt lat="43.05357" lon="5.84677">
        <ele>327.97265625</ele>
        <time>2021-11-14T10:05:42Z</time>
      </trkpt>
      <trkpt lat="43.05359" lon="5.84672">
        <ele>327.41796875</ele>
        <time>2021-11-14T10:05:43Z</time>
      </trkpt>
      <trkpt lat="43.05361" lon="5.84666">
        <ele>326.5859375</ele>
        <time>2021-11-14T10:05:44Z</time>
      </trkpt>
      <trkpt lat="43.05361" lon="5.84659">
        <ele>326.38671875</ele>
        <time>2021-11-14T10:05:45Z</time>
      </trkpt>
      <trkpt lat="43.05359" lon="5.84651">
        <ele>326.6953125</ele>
        <time>2021-11-14T10:05:46Z</time>
      </trkpt>
      <trkpt lat="43.05357" lon="5.84643">
        <ele>327.19921875</ele>
        <time>2021-11-14T10:05:47Z</time>
      </trkpt>
      <trkpt lat="43.05349" lon="5.84618">
        <ele>328.109375</ele>
        <time>2021-11-14T10:05:50Z</time>
      </trkpt>
      <trkpt lat="43.05348" lon="5.84611">
        <ele>327.58203125</ele>
        <time>2021-11-14T10:05:51Z</time>
      </trkpt>
      <trkpt lat="43.05347" lon="5.84604">
        <ele>326.73828125</ele>
        <time>2021-11-14T10:05:52Z</time>
      </trkpt>
      <trkpt lat="43.05346" lon="5.84589">
        <ele>324.6484375</ele>
        <time>2021-11-14T10:05:54Z</time>
      </trkpt>
      <trkpt lat="43.05347" lon="5.84561">
        <ele>319.7265625</ele>
        <time>2021-11-14T10:05:57Z</time>
      </trkpt>
      <trkpt lat="43.05349" lon="5.84556">
        <ele>317.8515625</ele>
        <time>2021-11-14T10:05:58Z</time>
      </trkpt>
      <trkpt lat="43.05352" lon="5.84554">
        <ele>316.44140625</ele>
        <time>2021-11-14T10:05:59Z</time>
      </trkpt>
      <trkpt lat="43.05355" lon="5.84559">
        <ele>316.2421875</ele>
        <time>2021-11-14T10:06:00Z</time>
      </trkpt>
      <trkpt lat="43.05358" lon="5.84566">
        <ele>316.7265625</ele>
        <time>2021-11-14T10:06:01Z</time>
      </trkpt>
      <trkpt lat="43.0536" lon="5.84575">
        <ele>317.625</ele>
        <time>2021-11-14T10:06:02Z</time>
      </trkpt>
      <trkpt lat="43.05363" lon="5.84584">
        <ele>318.04296875</ele>
        <time>2021-11-14T10:06:03Z</time>
      </trkpt>
      <trkpt lat="43.05368" lon="5.84592">
        <ele>317.91796875</ele>
        <time>2021-11-14T10:06:04Z</time>
      </trkpt>
      <trkpt lat="43.05374" lon="5.84601">
        <ele>317.28515625</ele>
        <time>2021-11-14T10:06:05Z</time>
      </trkpt>
      <trkpt lat="43.0538" lon="5.84607">
        <ele>316.3046875</ele>
        <time>2021-11-14T10:06:06Z</time>
      </trkpt>
      <trkpt lat="43.05387" lon="5.84611">
        <ele>315.2734375</ele>
        <time>2021-11-14T10:06:07Z</time>
      </trkpt>
      <trkpt lat="43.05392" lon="5.84615">
        <ele>314.34765625</ele>
        <time>2021-11-14T10:06:08Z</time>
      </trkpt>
      <trkpt lat="43.05397" lon="5.84618">
        <ele>313.19140625</ele>
        <time>2021-11-14T10:06:09Z</time>
      </trkpt>
      <trkpt lat="43.05403" lon="5.8462">
        <ele>311.5625</ele>
        <time>2021-11-14T10:06:10Z</time>
      </trkpt>
      <trkpt lat="43.05409" lon="5.84625">
        <ele>310.1484375</ele>
        <time>2021-11-14T10:06:11Z</time>
      </trkpt>
      <trkpt lat="43.05415" lon="5.84631">
        <ele>309.0234375</ele>
        <time>2021-11-14T10:06:12Z</time>
      </trkpt>
      <trkpt lat="43.05419" lon="5.8464">
        <ele>308.17578125</ele>
        <time>2021-11-14T10:06:13Z</time>
      </trkpt>
      <trkpt lat="43.05423" lon="5.84648">
        <ele>307.3984375</ele>
        <time>2021-11-14T10:06:14Z</time>
      </trkpt>
      <trkpt lat="43.05425" lon="5.84656">
        <ele>306.75390625</ele>
        <time>2021-11-14T10:06:15Z</time>
      </trkpt>
      <trkpt lat="43.05427" lon="5.84662">
        <ele>306.328125</ele>
        <time>2021-11-14T10:06:16Z</time>
      </trkpt>
      <trkpt lat="43.05428" lon="5.84668">
        <ele>305.99609375</ele>
        <time>2021-11-14T10:06:17Z</time>
      </trkpt>
      <trkpt lat="43.0543" lon="5.84677">
        <ele>304.27734375</ele>
        <time>2021-11-14T10:06:19Z</time>
      </trkpt>
      <trkpt lat="43.05429" lon="5.8468">
        <ele>303.6328125</ele>
        <time>2021-11-14T10:06:20Z</time>
      </trkpt>
      <trkpt lat="43.05414" lon="5.8472">
        <ele>301.27734375</ele>
        <time>2021-11-14T10:06:29Z</time>
      </trkpt>
      <trkpt lat="43.05412" lon="5.84733">
        <ele>301.22265625</ele>
        <time>2021-11-14T10:06:39Z</time>
      </trkpt>
      <trkpt lat="43.0541" lon="5.84764">
        <ele>300.38671875</ele>
        <time>2021-11-14T10:06:52Z</time>
      </trkpt>
      <trkpt lat="43.05413" lon="5.84785">
        <ele>298.1328125</ele>
        <time>2021-11-14T10:06:56Z</time>
      </trkpt>
      <trkpt lat="43.05415" lon="5.84789">
        <ele>297.24609375</ele>
        <time>2021-11-14T10:06:57Z</time>
      </trkpt>
      <trkpt lat="43.05417" lon="5.84793">
        <ele>296.4453125</ele>
        <time>2021-11-14T10:06:58Z</time>
      </trkpt>
      <trkpt lat="43.05418" lon="5.84796">
        <ele>295.78125</ele>
        <time>2021-11-14T10:06:59Z</time>
      </trkpt>
      <trkpt lat="43.05419" lon="5.84799">
        <ele>295.3828125</ele>
        <time>2021-11-14T10:07:00Z</time>
      </trkpt>
      <trkpt lat="43.0542" lon="5.84802">
        <ele>295.125</ele>
        <time>2021-11-14T10:07:01Z</time>
      </trkpt>
      <trkpt lat="43.0542" lon="5.84804">
        <ele>294.984375</ele>
        <time>2021-11-14T10:07:02Z</time>
      </trkpt>
      <trkpt lat="43.0542" lon="5.84806">
        <ele>294.86328125</ele>
        <time>2021-11-14T10:07:03Z</time>
      </trkpt>
      <trkpt lat="43.05421" lon="5.84807">
        <ele>294.64453125</ele>
        <time>2021-11-14T10:07:16Z</time>
      </trkpt>
      <trkpt lat="43.0542" lon="5.84808">
        <ele>294.74609375</ele>
        <time>2021-11-14T10:07:39Z</time>
      </trkpt>
      <trkpt lat="43.05421" lon="5.84807">
        <ele>294.66796875</ele>
        <time>2021-11-14T10:08:16Z</time>
      </trkpt>
      <trkpt lat="43.05421" lon="5.84807">
        <ele>294.58984375</ele>
        <time>2021-11-14T10:08:45Z</time>
      </trkpt>
      <trkpt lat="43.05421" lon="5.84807">
        <ele>294.48046875</ele>
        <time>2021-11-14T10:09:16Z</time>
      </trkpt>
      <trkpt lat="43.05421" lon="5.84807">
        <ele>294.6171875</ele>
        <time>2021-11-14T10:09:43Z</time>
      </trkpt>
      <trkpt lat="43.05421" lon="5.84807">
        <ele>294.63671875</ele>
        <time>2021-11-14T10:10:11Z</time>
      </trkpt>
      <trkpt lat="43.05421" lon="5.84806">
        <ele>294.56640625</ele>
        <time>2021-11-14T10:10:41Z</time>
      </trkpt>
      <trkpt lat="43.05421" lon="5.84806">
        <ele>294.50390625</ele>
        <time>2021-11-14T10:11:09Z</time>
      </trkpt>
      <trkpt lat="43.05421" lon="5.84807">
        <ele>294.640625</ele>
        <time>2021-11-14T10:11:39Z</time>
      </trkpt>
      <trkpt lat="43.05411" lon="5.84824">
        <ele>294.2421875</ele>
        <time>2021-11-14T10:11:59Z</time>
      </trkpt>
      <trkpt lat="43.05407" lon="5.8483">
        <ele>293.96875</ele>
        <time>2021-11-14T10:12:00Z</time>
      </trkpt>
      <trkpt lat="43.05404" lon="5.84836">
        <ele>293.49609375</ele>
        <time>2021-11-14T10:12:01Z</time>
      </trkpt>
      <trkpt lat="43.054" lon="5.84844">
        <ele>292.6484375</ele>
        <time>2021-11-14T10:12:02Z</time>
      </trkpt>
      <trkpt lat="43.05395" lon="5.84851">
        <ele>291.97265625</ele>
        <time>2021-11-14T10:12:03Z</time>
      </trkpt>
      <trkpt lat="43.05389" lon="5.84858">
        <ele>291.70703125</ele>
        <time>2021-11-14T10:12:04Z</time>
      </trkpt>
      <trkpt lat="43.05383" lon="5.84864">
        <ele>291.6484375</ele>
        <time>2021-11-14T10:12:05Z</time>
      </trkpt>
      <trkpt lat="43.05373" lon="5.84879">
        <ele>292.42578125</ele>
        <time>2021-11-14T10:12:07Z</time>
      </trkpt>
      <trkpt lat="43.05369" lon="5.84886">
        <ele>292.9375</ele>
        <time>2021-11-14T10:12:08Z</time>
      </trkpt>
      <trkpt lat="43.05366" lon="5.84894">
        <ele>293.26171875</ele>
        <time>2021-11-14T10:12:09Z</time>
      </trkpt>
      <trkpt lat="43.05363" lon="5.84902">
        <ele>293.56640625</ele>
        <time>2021-11-14T10:12:10Z</time>
      </trkpt>
      <trkpt lat="43.05361" lon="5.8491">
        <ele>293.59765625</ele>
        <time>2021-11-14T10:12:11Z</time>
      </trkpt>
      <trkpt lat="43.05359" lon="5.84919">
        <ele>293.1640625</ele>
        <time>2021-11-14T10:12:12Z</time>
      </trkpt>
      <trkpt lat="43.05359" lon="5.84929">
        <ele>292.34375</ele>
        <time>2021-11-14T10:12:13Z</time>
      </trkpt>
      <trkpt lat="43.05359" lon="5.84938">
        <ele>291.24609375</ele>
        <time>2021-11-14T10:12:14Z</time>
      </trkpt>
      <trkpt lat="43.05359" lon="5.84956">
        <ele>289.04296875</ele>
        <time>2021-11-14T10:12:16Z</time>
      </trkpt>
      <trkpt lat="43.05357" lon="5.84974">
        <ele>287.31640625</ele>
        <time>2021-11-14T10:12:18Z</time>
      </trkpt>
      <trkpt lat="43.05354" lon="5.84982">
        <ele>287.05859375</ele>
        <time>2021-11-14T10:12:19Z</time>
      </trkpt>
      <trkpt lat="43.0535" lon="5.84989">
        <ele>287.515625</ele>
        <time>2021-11-14T10:12:20Z</time>
      </trkpt>
      <trkpt lat="43.05344" lon="5.84994">
        <ele>288.23828125</ele>
        <time>2021-11-14T10:12:21Z</time>
      </trkpt>
      <trkpt lat="43.05339" lon="5.84999">
        <ele>289.203125</ele>
        <time>2021-11-14T10:12:22Z</time>
      </trkpt>
      <trkpt lat="43.05333" lon="5.85006">
        <ele>289.99609375</ele>
        <time>2021-11-14T10:12:23Z</time>
      </trkpt>
      <trkpt lat="43.05329" lon="5.85014">
        <ele>290.43359375</ele>
        <time>2021-11-14T10:12:24Z</time>
      </trkpt>
      <trkpt lat="43.05326" lon="5.85025">
        <ele>290.19921875</ele>
        <time>2021-11-14T10:12:25Z</time>
      </trkpt>
      <trkpt lat="43.05324" lon="5.85035">
        <ele>289.73828125</ele>
        <time>2021-11-14T10:12:26Z</time>
      </trkpt>
      <trkpt lat="43.05323" lon="5.85046">
        <ele>289.69921875</ele>
        <time>2021-11-14T10:12:27Z</time>
      </trkpt>
      <trkpt lat="43.05323" lon="5.85057">
        <ele>289.49609375</ele>
        <time>2021-11-14T10:12:28Z</time>
      </trkpt>
      <trkpt lat="43.05324" lon="5.85067">
        <ele>289.24609375</ele>
        <time>2021-11-14T10:12:29Z</time>
      </trkpt>
      <trkpt lat="43.05326" lon="5.85076">
        <ele>288.9453125</ele>
        <time>2021-11-14T10:12:30Z</time>
      </trkpt>
      <trkpt lat="43.05328" lon="5.85086">
        <ele>288.37890625</ele>
        <time>2021-11-14T10:12:31Z</time>
      </trkpt>
      <trkpt lat="43.05331" lon="5.85095">
        <ele>286.640625</ele>
        <time>2021-11-14T10:12:32Z</time>
      </trkpt>
      <trkpt lat="43.05338" lon="5.85113">
        <ele>282.2109375</ele>
        <time>2021-11-14T10:12:38Z</time>
      </trkpt>
      <trkpt lat="43.05338" lon="5.85116">
        <ele>282.01953125</ele>
        <time>2021-11-14T10:12:44Z</time>
      </trkpt>
      <trkpt lat="43.05338" lon="5.85119">
        <ele>281.8359375</ele>
        <time>2021-11-14T10:12:45Z</time>
      </trkpt>
      <trkpt lat="43.05337" lon="5.85123">
        <ele>281.6015625</ele>
        <time>2021-11-14T10:12:46Z</time>
      </trkpt>
      <trkpt lat="43.05336" lon="5.85129">
        <ele>281.3984375</ele>
        <time>2021-11-14T10:12:47Z</time>
      </trkpt>
      <trkpt lat="43.05335" lon="5.85135">
        <ele>281.203125</ele>
        <time>2021-11-14T10:12:48Z</time>
      </trkpt>
      <trkpt lat="43.05332" lon="5.85148">
        <ele>281.16796875</ele>
        <time>2021-11-14T10:12:50Z</time>
      </trkpt>
      <trkpt lat="43.05331" lon="5.85157">
        <ele>281.140625</ele>
        <time>2021-11-14T10:12:51Z</time>
      </trkpt>
      <trkpt lat="43.0533" lon="5.85176">
        <ele>280.81640625</ele>
        <time>2021-11-14T10:12:53Z</time>
      </trkpt>
      <trkpt lat="43.0533" lon="5.85185">
        <ele>280.5546875</ele>
        <time>2021-11-14T10:12:54Z</time>
      </trkpt>
      <trkpt lat="43.05331" lon="5.85195">
        <ele>280.3046875</ele>
        <time>2021-11-14T10:12:55Z</time>
      </trkpt>
      <trkpt lat="43.0533" lon="5.85204">
        <ele>280.30078125</ele>
        <time>2021-11-14T10:12:56Z</time>
      </trkpt>
      <trkpt lat="43.0533" lon="5.85213">
        <ele>280.4375</ele>
        <time>2021-11-14T10:12:57Z</time>
      </trkpt>
      <trkpt lat="43.05327" lon="5.85229">
        <ele>281.484375</ele>
        <time>2021-11-14T10:12:59Z</time>
      </trkpt>
      <trkpt lat="43.05325" lon="5.85237">
        <ele>283.24609375</ele>
        <time>2021-11-14T10:13:00Z</time>
      </trkpt>
      <trkpt lat="43.05321" lon="5.85244">
        <ele>285.31640625</ele>
        <time>2021-11-14T10:13:01Z</time>
      </trkpt>
      <trkpt lat="43.05318" lon="5.85251">
        <ele>286.6875</ele>
        <time>2021-11-14T10:13:02Z</time>
      </trkpt>
      <trkpt lat="43.05316" lon="5.85258">
        <ele>287.66015625</ele>
        <time>2021-11-14T10:13:03Z</time>
      </trkpt>
      <trkpt lat="43.05316" lon="5.85266">
        <ele>288.3125</ele>
        <time>2021-11-14T10:13:04Z</time>
      </trkpt>
      <trkpt lat="43.05316" lon="5.85273">
        <ele>288.72265625</ele>
        <time>2021-11-14T10:13:05Z</time>
      </trkpt>
      <trkpt lat="43.05318" lon="5.85321">
        <ele>293.15625</ele>
        <time>2021-11-14T10:13:12Z</time>
      </trkpt>
      <trkpt lat="43.05319" lon="5.85328">
        <ele>293.48046875</ele>
        <time>2021-11-14T10:13:13Z</time>
      </trkpt>
      <trkpt lat="43.05322" lon="5.85334">
        <ele>293.5078125</ele>
        <time>2021-11-14T10:13:14Z</time>
      </trkpt>
      <trkpt lat="43.05325" lon="5.8534">
        <ele>293.12109375</ele>
        <time>2021-11-14T10:13:15Z</time>
      </trkpt>
      <trkpt lat="43.05328" lon="5.85346">
        <ele>292.515625</ele>
        <time>2021-11-14T10:13:16Z</time>
      </trkpt>
      <trkpt lat="43.05347" lon="5.85379">
        <ele>290.54296875</ele>
        <time>2021-11-14T10:13:22Z</time>
      </trkpt>
      <trkpt lat="43.05349" lon="5.85385">
        <ele>290.6875</ele>
        <time>2021-11-14T10:13:23Z</time>
      </trkpt>
      <trkpt lat="43.05354" lon="5.85454">
        <ele>295.46484375</ele>
        <time>2021-11-14T10:13:36Z</time>
      </trkpt>
      <trkpt lat="43.05354" lon="5.8548">
        <ele>294.5234375</ele>
        <time>2021-11-14T10:13:43Z</time>
      </trkpt>
      <trkpt lat="43.05355" lon="5.85482">
        <ele>294.1953125</ele>
        <time>2021-11-14T10:13:44Z</time>
      </trkpt>
      <trkpt lat="43.05356" lon="5.85484">
        <ele>293.77734375</ele>
        <time>2021-11-14T10:13:45Z</time>
      </trkpt>
      <trkpt lat="43.05359" lon="5.85496">
        <ele>291.8984375</ele>
        <time>2021-11-14T10:13:57Z</time>
      </trkpt>
      <trkpt lat="43.05359" lon="5.85497">
        <ele>291.84765625</ele>
        <time>2021-11-14T10:13:58Z</time>
      </trkpt>
      <trkpt lat="43.05336" lon="5.85533">
        <ele>289.1640625</ele>
        <time>2021-11-14T10:14:08Z</time>
      </trkpt>
      <trkpt lat="43.05331" lon="5.85538">
        <ele>288.1796875</ele>
        <time>2021-11-14T10:14:09Z</time>
      </trkpt>
      <trkpt lat="43.05326" lon="5.85542">
        <ele>287.55078125</ele>
        <time>2021-11-14T10:14:10Z</time>
      </trkpt>
      <trkpt lat="43.05314" lon="5.85551">
        <ele>286.4921875</ele>
        <time>2021-11-14T10:14:12Z</time>
      </trkpt>
      <trkpt lat="43.0531" lon="5.85556">
        <ele>285.51171875</ele>
        <time>2021-11-14T10:14:13Z</time>
      </trkpt>
      <trkpt lat="43.05309" lon="5.85562">
        <ele>284.1015625</ele>
        <time>2021-11-14T10:14:14Z</time>
      </trkpt>
      <trkpt lat="43.05311" lon="5.85565">
        <ele>282.75</ele>
        <time>2021-11-14T10:14:15Z</time>
      </trkpt>
      <trkpt lat="43.05315" lon="5.85565">
        <ele>281.76171875</ele>
        <time>2021-11-14T10:14:16Z</time>
      </trkpt>
      <trkpt lat="43.0532" lon="5.85564">
        <ele>281.16015625</ele>
        <time>2021-11-14T10:14:17Z</time>
      </trkpt>
      <trkpt lat="43.05326" lon="5.85561">
        <ele>280.69140625</ele>
        <time>2021-11-14T10:14:18Z</time>
      </trkpt>
      <trkpt lat="43.05333" lon="5.85559">
        <ele>280.1015625</ele>
        <time>2021-11-14T10:14:19Z</time>
      </trkpt>
      <trkpt lat="43.0534" lon="5.85558">
        <ele>279.29296875</ele>
        <time>2021-11-14T10:14:20Z</time>
      </trkpt>
      <trkpt lat="43.05345" lon="5.8556">
        <ele>277.6875</ele>
        <time>2021-11-14T10:14:21Z</time>
      </trkpt>
      <trkpt lat="43.05348" lon="5.85564">
        <ele>275.66796875</ele>
        <time>2021-11-14T10:14:22Z</time>
      </trkpt>
      <trkpt lat="43.05348" lon="5.85569">
        <ele>274.1796875</ele>
        <time>2021-11-14T10:14:23Z</time>
      </trkpt>
      <trkpt lat="43.05344" lon="5.85572">
        <ele>273.90625</ele>
        <time>2021-11-14T10:14:24Z</time>
      </trkpt>
      <trkpt lat="43.05339" lon="5.85574">
        <ele>274.57421875</ele>
        <time>2021-11-14T10:14:25Z</time>
      </trkpt>
      <trkpt lat="43.05333" lon="5.85575">
        <ele>275.3828125</ele>
        <time>2021-11-14T10:14:26Z</time>
      </trkpt>
      <trkpt lat="43.05327" lon="5.85578">
        <ele>275.69921875</ele>
        <time>2021-11-14T10:14:27Z</time>
      </trkpt>
      <trkpt lat="43.05321" lon="5.85582">
        <ele>275.63671875</ele>
        <time>2021-11-14T10:14:28Z</time>
      </trkpt>
      <trkpt lat="43.05314" lon="5.85588">
        <ele>275.2734375</ele>
        <time>2021-11-14T10:14:29Z</time>
      </trkpt>
      <trkpt lat="43.05308" lon="5.85595">
        <ele>274.46484375</ele>
        <time>2021-11-14T10:14:30Z</time>
      </trkpt>
      <trkpt lat="43.05303" lon="5.85603">
        <ele>273.4921875</ele>
        <time>2021-11-14T10:14:31Z</time>
      </trkpt>
      <trkpt lat="43.05298" lon="5.8561">
        <ele>272.3359375</ele>
        <time>2021-11-14T10:14:32Z</time>
      </trkpt>
      <trkpt lat="43.05295" lon="5.85618">
        <ele>270.828125</ele>
        <time>2021-11-14T10:14:33Z</time>
      </trkpt>
      <trkpt lat="43.05296" lon="5.85623">
        <ele>269.30078125</ele>
        <time>2021-11-14T10:14:34Z</time>
      </trkpt>
      <trkpt lat="43.05298" lon="5.85625">
        <ele>267.8828125</ele>
        <time>2021-11-14T10:14:35Z</time>
      </trkpt>
      <trkpt lat="43.05302" lon="5.85625">
        <ele>266.97265625</ele>
        <time>2021-11-14T10:14:36Z</time>
      </trkpt>
      <trkpt lat="43.05307" lon="5.85622">
        <ele>266.48828125</ele>
        <time>2021-11-14T10:14:37Z</time>
      </trkpt>
      <trkpt lat="43.05313" lon="5.85618">
        <ele>266.12109375</ele>
        <time>2021-11-14T10:14:38Z</time>
      </trkpt>
      <trkpt lat="43.0532" lon="5.85615">
        <ele>265.30859375</ele>
        <time>2021-11-14T10:14:39Z</time>
      </trkpt>
      <trkpt lat="43.05328" lon="5.85614">
        <ele>264.03515625</ele>
        <time>2021-11-14T10:14:40Z</time>
      </trkpt>
      <trkpt lat="43.05337" lon="5.85613">
        <ele>262.35546875</ele>
        <time>2021-11-14T10:14:41Z</time>
      </trkpt>
      <trkpt lat="43.05345" lon="5.85613">
        <ele>260.68359375</ele>
        <time>2021-11-14T10:14:42Z</time>
      </trkpt>
      <trkpt lat="43.05357" lon="5.85614">
        <ele>257.8828125</ele>
        <time>2021-11-14T10:14:44Z</time>
      </trkpt>
      <trkpt lat="43.05373" lon="5.85617">
        <ele>253.31640625</ele>
        <time>2021-11-14T10:14:47Z</time>
      </trkpt>
      <trkpt lat="43.0539" lon="5.85618">
        <ele>248.9921875</ele>
        <time>2021-11-14T10:14:50Z</time>
      </trkpt>
      <trkpt lat="43.05397" lon="5.85618">
        <ele>247.75390625</ele>
        <time>2021-11-14T10:14:51Z</time>
      </trkpt>
      <trkpt lat="43.0541" lon="5.85617">
        <ele>245.20703125</ele>
        <time>2021-11-14T10:14:53Z</time>
      </trkpt>
      <trkpt lat="43.05424" lon="5.85616">
        <ele>242.72265625</ele>
        <time>2021-11-14T10:14:55Z</time>
      </trkpt>
      <trkpt lat="43.05435" lon="5.85616">
        <ele>240.265625</ele>
        <time>2021-11-14T10:14:57Z</time>
      </trkpt>
      <trkpt lat="43.05441" lon="5.85615">
        <ele>239.3671875</ele>
        <time>2021-11-14T10:14:58Z</time>
      </trkpt>
      <trkpt lat="43.05446" lon="5.85614">
        <ele>238.59375</ele>
        <time>2021-11-14T10:14:59Z</time>
      </trkpt>
      <trkpt lat="43.0545" lon="5.85614">
        <ele>237.6328125</ele>
        <time>2021-11-14T10:15:00Z</time>
      </trkpt>
      <trkpt lat="43.05452" lon="5.85616">
        <ele>236.5546875</ele>
        <time>2021-11-14T10:15:01Z</time>
      </trkpt>
      <trkpt lat="43.05451" lon="5.85619">
        <ele>235.6484375</ele>
        <time>2021-11-14T10:15:02Z</time>
      </trkpt>
      <trkpt lat="43.05449" lon="5.85622">
        <ele>235.19140625</ele>
        <time>2021-11-14T10:15:03Z</time>
      </trkpt>
      <trkpt lat="43.05447" lon="5.85624">
        <ele>234.890625</ele>
        <time>2021-11-14T10:15:04Z</time>
      </trkpt>
      <trkpt lat="43.05443" lon="5.85627">
        <ele>234.5703125</ele>
        <time>2021-11-14T10:15:05Z</time>
      </trkpt>
      <trkpt lat="43.05439" lon="5.8563">
        <ele>234.3046875</ele>
        <time>2021-11-14T10:15:06Z</time>
      </trkpt>
      <trkpt lat="43.05434" lon="5.85633">
        <ele>234.21484375</ele>
        <time>2021-11-14T10:15:07Z</time>
      </trkpt>
      <trkpt lat="43.05429" lon="5.85636">
        <ele>234.1328125</ele>
        <time>2021-11-14T10:15:08Z</time>
      </trkpt>
      <trkpt lat="43.05424" lon="5.85641">
        <ele>233.66796875</ele>
        <time>2021-11-14T10:15:09Z</time>
      </trkpt>
      <trkpt lat="43.05418" lon="5.85646">
        <ele>233.09765625</ele>
        <time>2021-11-14T10:15:10Z</time>
      </trkpt>
      <trkpt lat="43.05412" lon="5.85651">
        <ele>232.62109375</ele>
        <time>2021-11-14T10:15:11Z</time>
      </trkpt>
      <trkpt lat="43.05399" lon="5.8566">
        <ele>231.99609375</ele>
        <time>2021-11-14T10:15:13Z</time>
      </trkpt>
      <trkpt lat="43.05393" lon="5.85665">
        <ele>231.63671875</ele>
        <time>2021-11-14T10:15:14Z</time>
      </trkpt>
      <trkpt lat="43.05389" lon="5.8567">
        <ele>230.54296875</ele>
        <time>2021-11-14T10:15:15Z</time>
      </trkpt>
      <trkpt lat="43.05386" lon="5.85676">
        <ele>229.140625</ele>
        <time>2021-11-14T10:15:16Z</time>
      </trkpt>
      <trkpt lat="43.05386" lon="5.8568">
        <ele>227.9375</ele>
        <time>2021-11-14T10:15:17Z</time>
      </trkpt>
      <trkpt lat="43.05386" lon="5.85683">
        <ele>227.04296875</ele>
        <time>2021-11-14T10:15:18Z</time>
      </trkpt>
      <trkpt lat="43.05389" lon="5.85684">
        <ele>226.078125</ele>
        <time>2021-11-14T10:15:26Z</time>
      </trkpt>
      <trkpt lat="43.05394" lon="5.85687">
        <ele>223.6953125</ele>
        <time>2021-11-14T10:15:28Z</time>
      </trkpt>
      <trkpt lat="43.05397" lon="5.85689">
        <ele>222.24609375</ele>
        <time>2021-11-14T10:15:29Z</time>
      </trkpt>
      <trkpt lat="43.054" lon="5.8569">
        <ele>221.3359375</ele>
        <time>2021-11-14T10:15:30Z</time>
      </trkpt>
      <trkpt lat="43.05402" lon="5.8569">
        <ele>220.68359375</ele>
        <time>2021-11-14T10:15:31Z</time>
      </trkpt>
      <trkpt lat="43.05406" lon="5.8569">
        <ele>220.06640625</ele>
        <time>2021-11-14T10:15:32Z</time>
      </trkpt>
      <trkpt lat="43.0541" lon="5.8569">
        <ele>219.30078125</ele>
        <time>2021-11-14T10:15:33Z</time>
      </trkpt>
      <trkpt lat="43.05413" lon="5.85691">
        <ele>218.44140625</ele>
        <time>2021-11-14T10:15:34Z</time>
      </trkpt>
      <trkpt lat="43.05414" lon="5.85693">
        <ele>217.78515625</ele>
        <time>2021-11-14T10:15:35Z</time>
      </trkpt>
      <trkpt lat="43.05411" lon="5.85695">
        <ele>217.1484375</ele>
        <time>2021-11-14T10:15:47Z</time>
      </trkpt>
      <trkpt lat="43.0541" lon="5.85697">
        <ele>217.01171875</ele>
        <time>2021-11-14T10:16:07Z</time>
      </trkpt>
      <trkpt lat="43.05407" lon="5.85698">
        <ele>216.81640625</ele>
        <time>2021-11-14T10:16:08Z</time>
      </trkpt>
      <trkpt lat="43.05386" lon="5.85714">
        <ele>213.78515625</ele>
        <time>2021-11-14T10:16:14Z</time>
      </trkpt>
      <trkpt lat="43.05378" lon="5.85722">
        <ele>210.86328125</ele>
        <time>2021-11-14T10:16:16Z</time>
      </trkpt>
      <trkpt lat="43.05374" lon="5.85726">
        <ele>209.89453125</ele>
        <time>2021-11-14T10:16:17Z</time>
      </trkpt>
      <trkpt lat="43.05344" lon="5.85745">
        <ele>205.86328125</ele>
        <time>2021-11-14T10:16:26Z</time>
      </trkpt>
      <trkpt lat="43.05328" lon="5.85746">
        <ele>210.77734375</ele>
        <time>2021-11-14T10:16:32Z</time>
      </trkpt>
      <trkpt lat="43.05315" lon="5.85747">
        <ele>213.83203125</ele>
        <time>2021-11-14T10:16:36Z</time>
      </trkpt>
      <trkpt lat="43.0531" lon="5.85749">
        <ele>214.04296875</ele>
        <time>2021-11-14T10:16:37Z</time>
      </trkpt>
      <trkpt lat="43.05306" lon="5.85752">
        <ele>213.421875</ele>
        <time>2021-11-14T10:16:38Z</time>
      </trkpt>
      <trkpt lat="43.05303" lon="5.85756">
        <ele>212.09375</ele>
        <time>2021-11-14T10:16:39Z</time>
      </trkpt>
      <trkpt lat="43.05301" lon="5.8576">
        <ele>210.74609375</ele>
        <time>2021-11-14T10:16:40Z</time>
      </trkpt>
      <trkpt lat="43.05297" lon="5.85763">
        <ele>209.875</ele>
        <time>2021-11-14T10:16:41Z</time>
      </trkpt>
      <trkpt lat="43.05294" lon="5.85766">
        <ele>209.12109375</ele>
        <time>2021-11-14T10:16:42Z</time>
      </trkpt>
      <trkpt lat="43.05291" lon="5.85769">
        <ele>208.46484375</ele>
        <time>2021-11-14T10:16:43Z</time>
      </trkpt>
      <trkpt lat="43.05288" lon="5.85772">
        <ele>207.859375</ele>
        <time>2021-11-14T10:16:44Z</time>
      </trkpt>
      <trkpt lat="43.05284" lon="5.85775">
        <ele>207.09375</ele>
        <time>2021-11-14T10:16:45Z</time>
      </trkpt>
      <trkpt lat="43.0528" lon="5.85778">
        <ele>206.6015625</ele>
        <time>2021-11-14T10:16:46Z</time>
      </trkpt>
      <trkpt lat="43.05266" lon="5.85789">
        <ele>205.27734375</ele>
        <time>2021-11-14T10:16:49Z</time>
      </trkpt>
      <trkpt lat="43.05262" lon="5.85792">
        <ele>205.0234375</ele>
        <time>2021-11-14T10:16:50Z</time>
      </trkpt>
      <trkpt lat="43.05258" lon="5.85794">
        <ele>204.5234375</ele>
        <time>2021-11-14T10:16:51Z</time>
      </trkpt>
      <trkpt lat="43.05256" lon="5.85797">
        <ele>203.7890625</ele>
        <time>2021-11-14T10:16:52Z</time>
      </trkpt>
      <trkpt lat="43.05254" lon="5.85799">
        <ele>203.43359375</ele>
        <time>2021-11-14T10:16:53Z</time>
      </trkpt>
      <trkpt lat="43.05252" lon="5.858">
        <ele>203.31640625</ele>
        <time>2021-11-14T10:16:54Z</time>
      </trkpt>
      <trkpt lat="43.0525" lon="5.85802">
        <ele>202.94140625</ele>
        <time>2021-11-14T10:16:55Z</time>
      </trkpt>
      <trkpt lat="43.05249" lon="5.85804">
        <ele>202.41796875</ele>
        <time>2021-11-14T10:16:56Z</time>
      </trkpt>
      <trkpt lat="43.05247" lon="5.85806">
        <ele>201.984375</ele>
        <time>2021-11-14T10:16:57Z</time>
      </trkpt>
      <trkpt lat="43.05244" lon="5.85809">
        <ele>201.58203125</ele>
        <time>2021-11-14T10:16:58Z</time>
      </trkpt>
      <trkpt lat="43.0524" lon="5.85813">
        <ele>200.81640625</ele>
        <time>2021-11-14T10:17:06Z</time>
      </trkpt>
      <trkpt lat="43.05241" lon="5.85812">
        <ele>201.19921875</ele>
        <time>2021-11-14T10:17:39Z</time>
      </trkpt>
      <trkpt lat="43.0524" lon="5.85812">
        <ele>201.34375</ele>
        <time>2021-11-14T10:17:48Z</time>
      </trkpt>
      <trkpt lat="43.05238" lon="5.85813">
        <ele>201.30859375</ele>
        <time>2021-11-14T10:17:49Z</time>
      </trkpt>
      <trkpt lat="43.05235" lon="5.85815">
        <ele>201.46484375</ele>
        <time>2021-11-14T10:17:50Z</time>
      </trkpt>
      <trkpt lat="43.05228" lon="5.85818">
        <ele>201.703125</ele>
        <time>2021-11-14T10:17:52Z</time>
      </trkpt>
      <trkpt lat="43.05225" lon="5.85821">
        <ele>201.4296875</ele>
        <time>2021-11-14T10:17:53Z</time>
      </trkpt>
      <trkpt lat="43.05221" lon="5.85824">
        <ele>201.41796875</ele>
        <time>2021-11-14T10:17:54Z</time>
      </trkpt>
      <trkpt lat="43.05217" lon="5.85827">
        <ele>201.0390625</ele>
        <time>2021-11-14T10:17:55Z</time>
      </trkpt>
      <trkpt lat="43.05197" lon="5.85848">
        <ele>194.8984375</ele>
        <time>2021-11-14T10:18:00Z</time>
      </trkpt>
      <trkpt lat="43.05194" lon="5.8585">
        <ele>193.96875</ele>
        <time>2021-11-14T10:18:01Z</time>
      </trkpt>
      <trkpt lat="43.05189" lon="5.85856">
        <ele>191.37890625</ele>
        <time>2021-11-14T10:18:04Z</time>
      </trkpt>
      <trkpt lat="43.05191" lon="5.85857">
        <ele>190.8515625</ele>
        <time>2021-11-14T10:18:05Z</time>
      </trkpt>
      <trkpt lat="43.05194" lon="5.85857">
        <ele>190.84375</ele>
        <time>2021-11-14T10:18:06Z</time>
      </trkpt>
      <trkpt lat="43.05198" lon="5.85856">
        <ele>190.77734375</ele>
        <time>2021-11-14T10:18:07Z</time>
      </trkpt>
      <trkpt lat="43.05202" lon="5.85855">
        <ele>191.015625</ele>
        <time>2021-11-14T10:18:08Z</time>
      </trkpt>
      <trkpt lat="43.05205" lon="5.85854">
        <ele>191.23046875</ele>
        <time>2021-11-14T10:18:09Z</time>
      </trkpt>
      <trkpt lat="43.05208" lon="5.85854">
        <ele>191.11328125</ele>
        <time>2021-11-14T10:18:10Z</time>
      </trkpt>
      <trkpt lat="43.05212" lon="5.85854">
        <ele>190.51953125</ele>
        <time>2021-11-14T10:18:11Z</time>
      </trkpt>
      <trkpt lat="43.05216" lon="5.85853">
        <ele>189.78125</ele>
        <time>2021-11-14T10:18:12Z</time>
      </trkpt>
      <trkpt lat="43.0522" lon="5.85851">
        <ele>189.2578125</ele>
        <time>2021-11-14T10:18:13Z</time>
      </trkpt>
      <trkpt lat="43.05233" lon="5.85846">
        <ele>187.546875</ele>
        <time>2021-11-14T10:18:17Z</time>
      </trkpt>
      <trkpt lat="43.05246" lon="5.85844">
        <ele>183.69140625</ele>
        <time>2021-11-14T10:18:22Z</time>
      </trkpt>
      <trkpt lat="43.0526" lon="5.85846">
        <ele>177.37890625</ele>
        <time>2021-11-14T10:18:26Z</time>
      </trkpt>
      <trkpt lat="43.05274" lon="5.85848">
        <ele>170.86328125</ele>
        <time>2021-11-14T10:18:30Z</time>
      </trkpt>
      <trkpt lat="43.05276" lon="5.85848">
        <ele>169.921875</ele>
        <time>2021-11-14T10:18:31Z</time>
      </trkpt>
      <trkpt lat="43.05277" lon="5.8585">
        <ele>168.66796875</ele>
        <time>2021-11-14T10:18:34Z</time>
      </trkpt>
      <trkpt lat="43.05263" lon="5.8586">
        <ele>169.37890625</ele>
        <time>2021-11-14T10:18:39Z</time>
      </trkpt>
      <trkpt lat="43.05257" lon="5.85866">
        <ele>169.390625</ele>
        <time>2021-11-14T10:18:48Z</time>
      </trkpt>
      <trkpt lat="43.05257" lon="5.85866">
        <ele>169.21875</ele>
        <time>2021-11-14T10:18:53Z</time>
      </trkpt>
      <trkpt lat="43.05233" lon="5.85887">
        <ele>169.2890625</ele>
        <time>2021-11-14T10:19:03Z</time>
      </trkpt>
      <trkpt lat="43.05222" lon="5.85901">
        <ele>166.3515625</ele>
        <time>2021-11-14T10:19:07Z</time>
      </trkpt>
      <trkpt lat="43.05212" lon="5.85916">
        <ele>162.62109375</ele>
        <time>2021-11-14T10:19:12Z</time>
      </trkpt>
      <trkpt lat="43.05204" lon="5.85928">
        <ele>157.39453125</ele>
        <time>2021-11-14T10:19:17Z</time>
      </trkpt>
      <trkpt lat="43.052" lon="5.85932">
        <ele>155.75390625</ele>
        <time>2021-11-14T10:19:19Z</time>
      </trkpt>
      <trkpt lat="43.05204" lon="5.85931">
        <ele>156.19140625</ele>
        <time>2021-11-14T10:19:26Z</time>
      </trkpt>
      <trkpt lat="43.05207" lon="5.85932">
        <ele>155.875</ele>
        <time>2021-11-14T10:19:54Z</time>
      </trkpt>
      <trkpt lat="43.05225" lon="5.85927">
        <ele>153.43359375</ele>
        <time>2021-11-14T10:20:01Z</time>
      </trkpt>
      <trkpt lat="43.05238" lon="5.85917">
        <ele>153.5390625</ele>
        <time>2021-11-14T10:20:12Z</time>
      </trkpt>
      <trkpt lat="43.05252" lon="5.85911">
        <ele>150.484375</ele>
        <time>2021-11-14T10:20:16Z</time>
      </trkpt>
      <trkpt lat="43.05256" lon="5.85909">
        <ele>149.86328125</ele>
        <time>2021-11-14T10:20:17Z</time>
      </trkpt>
      <trkpt lat="43.05276" lon="5.85908">
        <ele>141.2265625</ele>
        <time>2021-11-14T10:20:23Z</time>
      </trkpt>
      <trkpt lat="43.05276" lon="5.85912">
        <ele>139.07421875</ele>
        <time>2021-11-14T10:20:34Z</time>
      </trkpt>
      <trkpt lat="43.05272" lon="5.85917">
        <ele>138.53125</ele>
        <time>2021-11-14T10:20:43Z</time>
      </trkpt>
      <trkpt lat="43.05261" lon="5.85932">
        <ele>136.75390625</ele>
        <time>2021-11-14T10:20:49Z</time>
      </trkpt>
      <trkpt lat="43.05259" lon="5.85937">
        <ele>135.56640625</ele>
        <time>2021-11-14T10:20:51Z</time>
      </trkpt>
      <trkpt lat="43.05249" lon="5.85952">
        <ele>132.4375</ele>
        <time>2021-11-14T10:20:57Z</time>
      </trkpt>
      <trkpt lat="43.05239" lon="5.85967">
        <ele>128.90234375</ele>
        <time>2021-11-14T10:21:02Z</time>
      </trkpt>
      <trkpt lat="43.05233" lon="5.85976">
        <ele>126.1015625</ele>
        <time>2021-11-14T10:21:06Z</time>
      </trkpt>
      <trkpt lat="43.05233" lon="5.85977">
        <ele>125.94921875</ele>
        <time>2021-11-14T10:21:07Z</time>
      </trkpt>
      <trkpt lat="43.05234" lon="5.85978">
        <ele>125.0703125</ele>
        <time>2021-11-14T10:21:14Z</time>
      </trkpt>
      <trkpt lat="43.05248" lon="5.85977">
        <ele>120.88671875</ele>
        <time>2021-11-14T10:21:19Z</time>
      </trkpt>
      <trkpt lat="43.05262" lon="5.85973">
        <ele>116.8125</ele>
        <time>2021-11-14T10:21:23Z</time>
      </trkpt>
      <trkpt lat="43.05268" lon="5.8597">
        <ele>115.44921875</ele>
        <time>2021-11-14T10:21:25Z</time>
      </trkpt>
      <trkpt lat="43.05273" lon="5.85968">
        <ele>113.82421875</ele>
        <time>2021-11-14T10:21:31Z</time>
      </trkpt>
      <trkpt lat="43.05277" lon="5.85971">
        <ele>110.39453125</ele>
        <time>2021-11-14T10:21:42Z</time>
      </trkpt>
      <trkpt lat="43.05275" lon="5.85974">
        <ele>110.1875</ele>
        <time>2021-11-14T10:21:47Z</time>
      </trkpt>
      <trkpt lat="43.05272" lon="5.85979">
        <ele>109.2890625</ele>
        <time>2021-11-14T10:21:49Z</time>
      </trkpt>
      <trkpt lat="43.0526" lon="5.85995">
        <ele>107.83984375</ele>
        <time>2021-11-14T10:21:55Z</time>
      </trkpt>
      <trkpt lat="43.05247" lon="5.86006">
        <ele>107.4765625</ele>
        <time>2021-11-14T10:22:00Z</time>
      </trkpt>
      <trkpt lat="43.05242" lon="5.86011">
        <ele>106.36328125</ele>
        <time>2021-11-14T10:22:07Z</time>
      </trkpt>
      <trkpt lat="43.05243" lon="5.86012">
        <ele>105.28515625</ele>
        <time>2021-11-14T10:22:18Z</time>
      </trkpt>
      <trkpt lat="43.05244" lon="5.86015">
        <ele>103.60546875</ele>
        <time>2021-11-14T10:22:41Z</time>
      </trkpt>
      <trkpt lat="43.05245" lon="5.86016">
        <ele>103.11328125</ele>
        <time>2021-11-14T10:23:13Z</time>
      </trkpt>
      <trkpt lat="43.05262" lon="5.86013">
        <ele>98.69921875</ele>
        <time>2021-11-14T10:23:21Z</time>
      </trkpt>
      <trkpt lat="43.05292" lon="5.85983">
        <ele>98.37890625</ele>
        <time>2021-11-14T10:23:33Z</time>
      </trkpt>
      <trkpt lat="43.05308" lon="5.85961">
        <ele>101.9453125</ele>
        <time>2021-11-14T10:23:42Z</time>
      </trkpt>
      <trkpt lat="43.05315" lon="5.85957">
        <ele>101.04296875</ele>
        <time>2021-11-14T10:23:45Z</time>
      </trkpt>
      <trkpt lat="43.05321" lon="5.85955">
        <ele>99.640625</ele>
        <time>2021-11-14T10:23:54Z</time>
      </trkpt>
      <trkpt lat="43.05338" lon="5.85942">
        <ele>100.55859375</ele>
        <time>2021-11-14T10:24:03Z</time>
      </trkpt>
      <trkpt lat="43.05345" lon="5.85937">
        <ele>100.48828125</ele>
        <time>2021-11-14T10:24:05Z</time>
      </trkpt>
      <trkpt lat="43.05348" lon="5.85934">
        <ele>100.88671875</ele>
        <time>2021-11-14T10:24:13Z</time>
      </trkpt>
      <trkpt lat="43.05348" lon="5.85935">
        <ele>100.46484375</ele>
        <time>2021-11-14T10:24:37Z</time>
      </trkpt>
      <trkpt lat="43.05348" lon="5.85937">
        <ele>99.8203125</ele>
        <time>2021-11-14T10:24:53Z</time>
      </trkpt>
      <trkpt lat="43.05384" lon="5.85917">
        <ele>109.5859375</ele>
        <time>2021-11-14T10:25:04Z</time>
      </trkpt>
      <trkpt lat="43.05387" lon="5.85915">
        <ele>110.51171875</ele>
        <time>2021-11-14T10:25:05Z</time>
      </trkpt>
      <trkpt lat="43.05385" lon="5.85918">
        <ele>109.48828125</ele>
        <time>2021-11-14T10:25:21Z</time>
      </trkpt>
      <trkpt lat="43.05382" lon="5.85921">
        <ele>107.8125</ele>
        <time>2021-11-14T10:25:46Z</time>
      </trkpt>
      <trkpt lat="43.05381" lon="5.85926">
        <ele>105.75390625</ele>
        <time>2021-11-14T10:26:04Z</time>
      </trkpt>
      <trkpt lat="43.05384" lon="5.85924">
        <ele>106.9921875</ele>
        <time>2021-11-14T10:26:08Z</time>
      </trkpt>
      <trkpt lat="43.05395" lon="5.85933">
        <ele>106.5234375</ele>
        <time>2021-11-14T10:26:13Z</time>
      </trkpt>
      <trkpt lat="43.054" lon="5.85942">
        <ele>104.859375</ele>
        <time>2021-11-14T10:26:15Z</time>
      </trkpt>
      <trkpt lat="43.05415" lon="5.85959">
        <ele>104.359375</ele>
        <time>2021-11-14T10:26:20Z</time>
      </trkpt>
      <trkpt lat="43.05418" lon="5.85961">
        <ele>104.11328125</ele>
        <time>2021-11-14T10:26:21Z</time>
      </trkpt>
      <trkpt lat="43.05421" lon="5.85964">
        <ele>104.4453125</ele>
        <time>2021-11-14T10:26:26Z</time>
      </trkpt>
      <trkpt lat="43.05418" lon="5.85967">
        <ele>101.640625</ele>
        <time>2021-11-14T10:26:34Z</time>
      </trkpt>
      <trkpt lat="43.05412" lon="5.85965">
        <ele>100.25</ele>
        <time>2021-11-14T10:26:48Z</time>
      </trkpt>
      <trkpt lat="43.05411" lon="5.85966">
        <ele>99.53515625</ele>
        <time>2021-11-14T10:26:54Z</time>
      </trkpt>
      <trkpt lat="43.05404" lon="5.85974">
        <ele>94.0703125</ele>
        <time>2021-11-14T10:27:08Z</time>
      </trkpt>
      <trkpt lat="43.05405" lon="5.85976">
        <ele>93.55078125</ele>
        <time>2021-11-14T10:27:13Z</time>
      </trkpt>
      <trkpt lat="43.05412" lon="5.85984">
        <ele>91.875</ele>
        <time>2021-11-14T10:27:19Z</time>
      </trkpt>
      <trkpt lat="43.05416" lon="5.85997">
        <ele>87.34765625</ele>
        <time>2021-11-14T10:27:24Z</time>
      </trkpt>
      <trkpt lat="43.05416" lon="5.85997">
        <ele>87.484375</ele>
        <time>2021-11-14T10:27:26Z</time>
      </trkpt>
      <trkpt lat="43.05399" lon="5.85999">
        <ele>82.140625</ele>
        <time>2021-11-14T10:27:33Z</time>
      </trkpt>
      <trkpt lat="43.05386" lon="5.85996">
        <ele>81.41015625</ele>
        <time>2021-11-14T10:27:38Z</time>
      </trkpt>
      <trkpt lat="43.05373" lon="5.85998">
        <ele>78.94140625</ele>
        <time>2021-11-14T10:27:42Z</time>
      </trkpt>
      <trkpt lat="43.05371" lon="5.86001">
        <ele>77.984375</ele>
        <time>2021-11-14T10:27:43Z</time>
      </trkpt>
      <trkpt lat="43.0536" lon="5.86012">
        <ele>73.2890625</ele>
        <time>2021-11-14T10:27:48Z</time>
      </trkpt>
      <trkpt lat="43.05356" lon="5.86029">
        <ele>67.19140625</ele>
        <time>2021-11-14T10:27:54Z</time>
      </trkpt>
      <trkpt lat="43.05363" lon="5.8604">
        <ele>62.796875</ele>
        <time>2021-11-14T10:27:59Z</time>
      </trkpt>
      <trkpt lat="43.05365" lon="5.86055">
        <ele>57.359375</ele>
        <time>2021-11-14T10:28:03Z</time>
      </trkpt>
      <trkpt lat="43.05365" lon="5.86059">
        <ele>55.55078125</ele>
        <time>2021-11-14T10:28:05Z</time>
      </trkpt>
      <trkpt lat="43.0536" lon="5.86066">
        <ele>53.05078125</ele>
        <time>2021-11-14T10:28:10Z</time>
      </trkpt>
      <trkpt lat="43.05374" lon="5.86076">
        <ele>47.875</ele>
        <time>2021-11-14T10:28:16Z</time>
      </trkpt>
      <trkpt lat="43.05378" lon="5.8608">
        <ele>46.14453125</ele>
        <time>2021-11-14T10:28:17Z</time>
      </trkpt>
      <trkpt lat="43.05382" lon="5.86082">
        <ele>44.98828125</ele>
        <time>2021-11-14T10:28:18Z</time>
      </trkpt>
      <trkpt lat="43.05385" lon="5.86084">
        <ele>44.203125</ele>
        <time>2021-11-14T10:28:19Z</time>
      </trkpt>
      <trkpt lat="43.05388" lon="5.86084">
        <ele>43.87890625</ele>
        <time>2021-11-14T10:28:20Z</time>
      </trkpt>
      <trkpt lat="43.05391" lon="5.86084">
        <ele>43.890625</ele>
        <time>2021-11-14T10:28:21Z</time>
      </trkpt>
      <trkpt lat="43.05393" lon="5.86084">
        <ele>43.8359375</ele>
        <time>2021-11-14T10:28:22Z</time>
      </trkpt>
      <trkpt lat="43.05396" lon="5.86084">
        <ele>43.66796875</ele>
        <time>2021-11-14T10:28:23Z</time>
      </trkpt>
      <trkpt lat="43.05399" lon="5.86085">
        <ele>43.3125</ele>
        <time>2021-11-14T10:28:24Z</time>
      </trkpt>
      <trkpt lat="43.05402" lon="5.86086">
        <ele>42.859375</ele>
        <time>2021-11-14T10:28:25Z</time>
      </trkpt>
      <trkpt lat="43.05404" lon="5.86086">
        <ele>42.6875</ele>
        <time>2021-11-14T10:28:26Z</time>
      </trkpt>
      <trkpt lat="43.05407" lon="5.86085">
        <ele>42.9140625</ele>
        <time>2021-11-14T10:28:27Z</time>
      </trkpt>
      <trkpt lat="43.05413" lon="5.86085">
        <ele>42.91796875</ele>
        <time>2021-11-14T10:28:29Z</time>
      </trkpt>
      <trkpt lat="43.05417" lon="5.86084">
        <ele>43.6484375</ele>
        <time>2021-11-14T10:28:37Z</time>
      </trkpt>
      <trkpt lat="43.05417" lon="5.86082">
        <ele>44.703125</ele>
        <time>2021-11-14T10:29:18Z</time>
      </trkpt>
      <trkpt lat="43.0542" lon="5.86083">
        <ele>43.953125</ele>
        <time>2021-11-14T10:29:42Z</time>
      </trkpt>
      <trkpt lat="43.05421" lon="5.86083">
        <ele>44.3984375</ele>
        <time>2021-11-14T10:29:43Z</time>
      </trkpt>
      <trkpt lat="43.05423" lon="5.86082">
        <ele>44.83984375</ele>
        <time>2021-11-14T10:29:44Z</time>
      </trkpt>
      <trkpt lat="43.05426" lon="5.86081">
        <ele>45.5078125</ele>
        <time>2021-11-14T10:29:45Z</time>
      </trkpt>
      <trkpt lat="43.05428" lon="5.86079">
        <ele>46.3828125</ele>
        <time>2021-11-14T10:29:46Z</time>
      </trkpt>
      <trkpt lat="43.05439" lon="5.86076">
        <ele>48.94921875</ele>
        <time>2021-11-14T10:29:49Z</time>
      </trkpt>
      <trkpt lat="43.05444" lon="5.86077">
        <ele>49.4375</ele>
        <time>2021-11-14T10:29:50Z</time>
      </trkpt>
      <trkpt lat="43.0548" lon="5.86083">
        <ele>52.828125</ele>
        <time>2021-11-14T10:29:59Z</time>
      </trkpt>
      <trkpt lat="43.05525" lon="5.86103">
        <ele>42.44140625</ele>
        <time>2021-11-14T10:30:12Z</time>
      </trkpt>
      <trkpt lat="43.05529" lon="5.86104">
        <ele>42.66015625</ele>
        <time>2021-11-14T10:30:13Z</time>
      </trkpt>
      <trkpt lat="43.05534" lon="5.86103">
        <ele>43.51171875</ele>
        <time>2021-11-14T10:30:14Z</time>
      </trkpt>
      <trkpt lat="43.05539" lon="5.861">
        <ele>45.109375</ele>
        <time>2021-11-14T10:30:15Z</time>
      </trkpt>
      <trkpt lat="43.05542" lon="5.86098">
        <ele>46.72265625</ele>
        <time>2021-11-14T10:30:16Z</time>
      </trkpt>
      <trkpt lat="43.05546" lon="5.86095">
        <ele>49.08203125</ele>
        <time>2021-11-14T10:30:17Z</time>
      </trkpt>
      <trkpt lat="43.05548" lon="5.86093">
        <ele>51.4375</ele>
        <time>2021-11-14T10:30:18Z</time>
      </trkpt>
      <trkpt lat="43.05551" lon="5.86091">
        <ele>53.51171875</ele>
        <time>2021-11-14T10:30:19Z</time>
      </trkpt>
      <trkpt lat="43.05554" lon="5.86089">
        <ele>55.6328125</ele>
        <time>2021-11-14T10:30:20Z</time>
      </trkpt>
      <trkpt lat="43.05556" lon="5.86087">
        <ele>57.6015625</ele>
        <time>2021-11-14T10:30:21Z</time>
      </trkpt>
      <trkpt lat="43.05558" lon="5.86085">
        <ele>59.02734375</ele>
        <time>2021-11-14T10:30:22Z</time>
      </trkpt>
      <trkpt lat="43.0556" lon="5.86084">
        <ele>60.16796875</ele>
        <time>2021-11-14T10:30:23Z</time>
      </trkpt>
      <trkpt lat="43.05562" lon="5.86084">
        <ele>60.9453125</ele>
        <time>2021-11-14T10:30:24Z</time>
      </trkpt>
      <trkpt lat="43.05564" lon="5.86084">
        <ele>61.578125</ele>
        <time>2021-11-14T10:30:25Z</time>
      </trkpt>
      <trkpt lat="43.05566" lon="5.86085">
        <ele>61.9765625</ele>
        <time>2021-11-14T10:30:26Z</time>
      </trkpt>
      <trkpt lat="43.05572" lon="5.86086">
        <ele>63.08203125</ele>
        <time>2021-11-14T10:30:29Z</time>
      </trkpt>
      <trkpt lat="43.05573" lon="5.86086">
        <ele>63.14453125</ele>
        <time>2021-11-14T10:30:30Z</time>
      </trkpt>
      <trkpt lat="43.05576" lon="5.86087">
        <ele>63.19140625</ele>
        <time>2021-11-14T10:30:31Z</time>
      </trkpt>
      <trkpt lat="43.05578" lon="5.86089">
        <ele>62.59765625</ele>
        <time>2021-11-14T10:30:32Z</time>
      </trkpt>
      <trkpt lat="43.0558" lon="5.86091">
        <ele>61.73046875</ele>
        <time>2021-11-14T10:30:33Z</time>
      </trkpt>
      <trkpt lat="43.05582" lon="5.86094">
        <ele>60.69921875</ele>
        <time>2021-11-14T10:30:34Z</time>
      </trkpt>
      <trkpt lat="43.05593" lon="5.86104">
        <ele>57.27734375</ele>
        <time>2021-11-14T10:30:39Z</time>
      </trkpt>
      <trkpt lat="43.05595" lon="5.86108">
        <ele>55.59765625</ele>
        <time>2021-11-14T10:30:40Z</time>
      </trkpt>
      <trkpt lat="43.056" lon="5.86116">
        <ele>52.2578125</ele>
        <time>2021-11-14T10:30:42Z</time>
      </trkpt>
      <trkpt lat="43.05603" lon="5.86119">
        <ele>51.6015625</ele>
        <time>2021-11-14T10:30:43Z</time>
      </trkpt>
      <trkpt lat="43.05606" lon="5.8612">
        <ele>51.7890625</ele>
        <time>2021-11-14T10:30:44Z</time>
      </trkpt>
      <trkpt lat="43.05643" lon="5.86122">
        <ele>59.11328125</ele>
        <time>2021-11-14T10:30:55Z</time>
      </trkpt>
      <trkpt lat="43.05678" lon="5.86108">
        <ele>67.65625</ele>
        <time>2021-11-14T10:31:07Z</time>
      </trkpt>
      <trkpt lat="43.05716" lon="5.86118">
        <ele>72.6640625</ele>
        <time>2021-11-14T10:31:20Z</time>
      </trkpt>
      <trkpt lat="43.05732" lon="5.86143">
        <ele>69.89453125</ele>
        <time>2021-11-14T10:31:27Z</time>
      </trkpt>
      <trkpt lat="43.05738" lon="5.8615">
        <ele>69.48828125</ele>
        <time>2021-11-14T10:31:29Z</time>
      </trkpt>
      <trkpt lat="43.05741" lon="5.86152">
        <ele>70.03515625</ele>
        <time>2021-11-14T10:31:30Z</time>
      </trkpt>
      <trkpt lat="43.05745" lon="5.86154">
        <ele>70.94921875</ele>
        <time>2021-11-14T10:31:31Z</time>
      </trkpt>
      <trkpt lat="43.05776" lon="5.86149">
        <ele>83.40625</ele>
        <time>2021-11-14T10:31:42Z</time>
      </trkpt>
      <trkpt lat="43.05786" lon="5.8615">
        <ele>86.5625</ele>
        <time>2021-11-14T10:31:46Z</time>
      </trkpt>
      <trkpt lat="43.05787" lon="5.86152">
        <ele>86.65234375</ele>
        <time>2021-11-14T10:31:47Z</time>
      </trkpt>
      <trkpt lat="43.05789" lon="5.86155">
        <ele>86.453125</ele>
        <time>2021-11-14T10:31:48Z</time>
      </trkpt>
      <trkpt lat="43.0579" lon="5.86158">
        <ele>86.09765625</ele>
        <time>2021-11-14T10:31:49Z</time>
      </trkpt>
      <trkpt lat="43.0579" lon="5.8616">
        <ele>85.5703125</ele>
        <time>2021-11-14T10:31:50Z</time>
      </trkpt>
      <trkpt lat="43.05791" lon="5.86163">
        <ele>85.09375</ele>
        <time>2021-11-14T10:31:51Z</time>
      </trkpt>
      <trkpt lat="43.05794" lon="5.86189">
        <ele>76.91015625</ele>
        <time>2021-11-14T10:31:58Z</time>
      </trkpt>
      <trkpt lat="43.05797" lon="5.86193">
        <ele>76.23046875</ele>
        <time>2021-11-14T10:31:59Z</time>
      </trkpt>
      <trkpt lat="43.058" lon="5.86195">
        <ele>76.109375</ele>
        <time>2021-11-14T10:32:00Z</time>
      </trkpt>
      <trkpt lat="43.05846" lon="5.86212">
        <ele>79.90625</ele>
        <time>2021-11-14T10:32:13Z</time>
      </trkpt>
      <trkpt lat="43.05874" lon="5.86217">
        <ele>84.75390625</ele>
        <time>2021-11-14T10:32:21Z</time>
      </trkpt>
      <trkpt lat="43.05914" lon="5.86232">
        <ele>88.984375</ele>
        <time>2021-11-14T10:32:33Z</time>
      </trkpt>
      <trkpt lat="43.05947" lon="5.8626">
        <ele>89.29296875</ele>
        <time>2021-11-14T10:32:44Z</time>
      </trkpt>
      <trkpt lat="43.05958" lon="5.86262">
        <ele>90.7890625</ele>
        <time>2021-11-14T10:32:47Z</time>
      </trkpt>
      <trkpt lat="43.05962" lon="5.86263">
        <ele>91.3359375</ele>
        <time>2021-11-14T10:32:48Z</time>
      </trkpt>
      <trkpt lat="43.05965" lon="5.86264">
        <ele>91.359375</ele>
        <time>2021-11-14T10:32:49Z</time>
      </trkpt>
      <trkpt lat="43.05967" lon="5.86266">
        <ele>91.203125</ele>
        <time>2021-11-14T10:32:50Z</time>
      </trkpt>
      <trkpt lat="43.05969" lon="5.86268">
        <ele>90.98046875</ele>
        <time>2021-11-14T10:32:51Z</time>
      </trkpt>
      <trkpt lat="43.05977" lon="5.86276">
        <ele>90.078125</ele>
        <time>2021-11-14T10:32:55Z</time>
      </trkpt>
      <trkpt lat="43.06007" lon="5.86279">
        <ele>92.66015625</ele>
        <time>2021-11-14T10:33:06Z</time>
      </trkpt>
      <trkpt lat="43.06031" lon="5.86272">
        <ele>97.171875</ele>
        <time>2021-11-14T10:33:16Z</time>
      </trkpt>
      <trkpt lat="43.06049" lon="5.86269">
        <ele>100.61328125</ele>
        <time>2021-11-14T10:33:25Z</time>
      </trkpt>
      <trkpt lat="43.0605" lon="5.86267">
        <ele>101.1875</ele>
        <time>2021-11-14T10:33:26Z</time>
      </trkpt>
      <trkpt lat="43.06052" lon="5.86266">
        <ele>101.8046875</ele>
        <time>2021-11-14T10:33:27Z</time>
      </trkpt>
      <trkpt lat="43.06054" lon="5.86265">
        <ele>102.41796875</ele>
        <time>2021-11-14T10:33:28Z</time>
      </trkpt>
      <trkpt lat="43.06056" lon="5.86265">
        <ele>102.94921875</ele>
        <time>2021-11-14T10:33:29Z</time>
      </trkpt>
      <trkpt lat="43.06057" lon="5.86264">
        <ele>103.4140625</ele>
        <time>2021-11-14T10:33:30Z</time>
      </trkpt>
      <trkpt lat="43.06068" lon="5.86257">
        <ele>107.00390625</ele>
        <time>2021-11-14T10:33:36Z</time>
      </trkpt>
      <trkpt lat="43.0607" lon="5.86256">
        <ele>107.52734375</ele>
        <time>2021-11-14T10:33:37Z</time>
      </trkpt>
      <trkpt lat="43.06071" lon="5.86257">
        <ele>107.76953125</ele>
        <time>2021-11-14T10:33:38Z</time>
      </trkpt>
      <trkpt lat="43.06073" lon="5.86258">
        <ele>108.00390625</ele>
        <time>2021-11-14T10:33:39Z</time>
      </trkpt>
      <trkpt lat="43.06075" lon="5.8626">
        <ele>108.23046875</ele>
        <time>2021-11-14T10:33:40Z</time>
      </trkpt>
      <trkpt lat="43.06077" lon="5.86262">
        <ele>108.60546875</ele>
        <time>2021-11-14T10:33:41Z</time>
      </trkpt>
      <trkpt lat="43.06079" lon="5.86263">
        <ele>109.0546875</ele>
        <time>2021-11-14T10:33:42Z</time>
      </trkpt>
      <trkpt lat="43.06081" lon="5.86263">
        <ele>109.6328125</ele>
        <time>2021-11-14T10:33:43Z</time>
      </trkpt>
      <trkpt lat="43.06082" lon="5.86262">
        <ele>110.15234375</ele>
        <time>2021-11-14T10:33:44Z</time>
      </trkpt>
      <trkpt lat="43.06084" lon="5.86261">
        <ele>110.6640625</ele>
        <time>2021-11-14T10:33:45Z</time>
      </trkpt>
      <trkpt lat="43.06085" lon="5.8626">
        <ele>111.14453125</ele>
        <time>2021-11-14T10:33:46Z</time>
      </trkpt>
      <trkpt lat="43.06086" lon="5.8626">
        <ele>111.6015625</ele>
        <time>2021-11-14T10:33:47Z</time>
      </trkpt>
      <trkpt lat="43.06088" lon="5.8626">
        <ele>111.921875</ele>
        <time>2021-11-14T10:33:48Z</time>
      </trkpt>
      <trkpt lat="43.06094" lon="5.86264">
        <ele>113.15625</ele>
        <time>2021-11-14T10:34:01Z</time>
      </trkpt>
      <trkpt lat="43.06093" lon="5.86264">
        <ele>112.84375</ele>
        <time>2021-11-14T10:34:18Z</time>
      </trkpt>
      <trkpt lat="43.06094" lon="5.86266">
        <ele>112.828125</ele>
        <time>2021-11-14T10:34:19Z</time>
      </trkpt>
      <trkpt lat="43.06095" lon="5.86268">
        <ele>113.07421875</ele>
        <time>2021-11-14T10:34:20Z</time>
      </trkpt>
      <trkpt lat="43.06097" lon="5.86268">
        <ele>113.5546875</ele>
        <time>2021-11-14T10:34:21Z</time>
      </trkpt>
      <trkpt lat="43.06099" lon="5.86267">
        <ele>114.21875</ele>
        <time>2021-11-14T10:34:22Z</time>
      </trkpt>
      <trkpt lat="43.061" lon="5.86265">
        <ele>114.8828125</ele>
        <time>2021-11-14T10:34:23Z</time>
      </trkpt>
      <trkpt lat="43.06099" lon="5.86262">
        <ele>115.16015625</ele>
        <time>2021-11-14T10:34:24Z</time>
      </trkpt>
      <trkpt lat="43.06098" lon="5.8626">
        <ele>115.09375</ele>
        <time>2021-11-14T10:34:25Z</time>
      </trkpt>
      <trkpt lat="43.06097" lon="5.86258">
        <ele>115.015625</ele>
        <time>2021-11-14T10:34:26Z</time>
      </trkpt>
      <trkpt lat="43.06071" lon="5.86227">
        <ele>112.92578125</ele>
        <time>2021-11-14T10:34:39Z</time>
      </trkpt>
      <trkpt lat="43.06042" lon="5.86205">
        <ele>111.7109375</ele>
        <time>2021-11-14T10:34:51Z</time>
      </trkpt>
      <trkpt lat="43.06006" lon="5.8618">
        <ele>113.5078125</ele>
        <time>2021-11-14T10:35:06Z</time>
      </trkpt>
      <trkpt lat="43.05975" lon="5.86161">
        <ele>116.30078125</ele>
        <time>2021-11-14T10:35:19Z</time>
      </trkpt>
      <trkpt lat="43.05934" lon="5.86149">
        <ele>117.99609375</ele>
        <time>2021-11-14T10:35:33Z</time>
      </trkpt>
      <trkpt lat="43.059" lon="5.86134">
        <ele>119.8984375</ele>
        <time>2021-11-14T10:35:45Z</time>
      </trkpt>
      <trkpt lat="43.05885" lon="5.86103">
        <ele>130.26953125</ele>
        <time>2021-11-14T10:35:55Z</time>
      </trkpt>
      <trkpt lat="43.05883" lon="5.86058">
        <ele>142.4765625</ele>
        <time>2021-11-14T10:36:06Z</time>
      </trkpt>
      <trkpt lat="43.05887" lon="5.85996">
        <ele>149.78125</ele>
        <time>2021-11-14T10:36:20Z</time>
      </trkpt>
      <trkpt lat="43.0589" lon="5.85951">
        <ele>150.36328125</ele>
        <time>2021-11-14T10:36:30Z</time>
      </trkpt>
      <trkpt lat="43.0589" lon="5.85897">
        <ele>147.546875</ele>
        <time>2021-11-14T10:36:41Z</time>
      </trkpt>
      <trkpt lat="43.05889" lon="5.85852">
        <ele>144.65625</ele>
        <time>2021-11-14T10:36:49Z</time>
      </trkpt>
      <trkpt lat="43.05881" lon="5.85794">
        <ele>141.34765625</ele>
        <time>2021-11-14T10:37:00Z</time>
      </trkpt>
      <trkpt lat="43.05883" lon="5.8579">
        <ele>141.11328125</ele>
        <time>2021-11-14T10:37:01Z</time>
      </trkpt>
      <trkpt lat="43.05885" lon="5.85787">
        <ele>140.921875</ele>
        <time>2021-11-14T10:37:02Z</time>
      </trkpt>
      <trkpt lat="43.05887" lon="5.85785">
        <ele>140.76171875</ele>
        <time>2021-11-14T10:37:03Z</time>
      </trkpt>
      <trkpt lat="43.05889" lon="5.85783">
        <ele>140.60546875</ele>
        <time>2021-11-14T10:37:04Z</time>
      </trkpt>
      <trkpt lat="43.05891" lon="5.85782">
        <ele>140.4609375</ele>
        <time>2021-11-14T10:37:05Z</time>
      </trkpt>
      <trkpt lat="43.05892" lon="5.8578">
        <ele>140.37890625</ele>
        <time>2021-11-14T10:37:06Z</time>
      </trkpt>
      <trkpt lat="43.05895" lon="5.85778">
        <ele>140.25</ele>
        <time>2021-11-14T10:37:09Z</time>
      </trkpt>
      <trkpt lat="43.05896" lon="5.85778">
        <ele>140.1953125</ele>
        <time>2021-11-14T10:37:10Z</time>
      </trkpt>
      <trkpt lat="43.0591" lon="5.85782">
        <ele>140.67578125</ele>
        <time>2021-11-14T10:37:15Z</time>
      </trkpt>
      <trkpt lat="43.05922" lon="5.85823">
        <ele>145.1640625</ele>
        <time>2021-11-14T10:37:24Z</time>
      </trkpt>
      <trkpt lat="43.05927" lon="5.85832">
        <ele>146.72265625</ele>
        <time>2021-11-14T10:37:26Z</time>
      </trkpt>
      <trkpt lat="43.05935" lon="5.85837">
        <ele>148.62890625</ele>
        <time>2021-11-14T10:37:28Z</time>
      </trkpt>
      <trkpt lat="43.05939" lon="5.85839">
        <ele>149.6640625</ele>
        <time>2021-11-14T10:37:29Z</time>
      </trkpt>
      <trkpt lat="43.05943" lon="5.85839">
        <ele>150.5390625</ele>
        <time>2021-11-14T10:37:30Z</time>
      </trkpt>
      <trkpt lat="43.05947" lon="5.85837">
        <ele>151.1640625</ele>
        <time>2021-11-14T10:37:31Z</time>
      </trkpt>
      <trkpt lat="43.05951" lon="5.85834">
        <ele>151.69140625</ele>
        <time>2021-11-14T10:37:32Z</time>
      </trkpt>
      <trkpt lat="43.05955" lon="5.8583">
        <ele>151.953125</ele>
        <time>2021-11-14T10:37:33Z</time>
      </trkpt>
      <trkpt lat="43.05959" lon="5.85827">
        <ele>152.25</ele>
        <time>2021-11-14T10:37:34Z</time>
      </trkpt>
      <trkpt lat="43.05985" lon="5.858">
        <ele>151.640625</ele>
        <time>2021-11-14T10:37:43Z</time>
      </trkpt>
      <trkpt lat="43.06026" lon="5.85788">
        <ele>147.1953125</ele>
        <time>2021-11-14T10:37:55Z</time>
      </trkpt>
      <trkpt lat="43.06031" lon="5.85788">
        <ele>146.26953125</ele>
        <time>2021-11-14T10:37:56Z</time>
      </trkpt>
      <trkpt lat="43.06036" lon="5.8579">
        <ele>145.54296875</ele>
        <time>2021-11-14T10:37:57Z</time>
      </trkpt>
      <trkpt lat="43.0604" lon="5.85793">
        <ele>145.125</ele>
        <time>2021-11-14T10:37:58Z</time>
      </trkpt>
      <trkpt lat="43.06045" lon="5.85797">
        <ele>145.21875</ele>
        <time>2021-11-14T10:37:59Z</time>
      </trkpt>
      <trkpt lat="43.06048" lon="5.85801">
        <ele>145.8671875</ele>
        <time>2021-11-14T10:38:00Z</time>
      </trkpt>
      <trkpt lat="43.06077" lon="5.8584">
        <ele>151.30078125</ele>
        <time>2021-11-14T10:38:09Z</time>
      </trkpt>
      <trkpt lat="43.0608" lon="5.85844">
        <ele>151.80859375</ele>
        <time>2021-11-14T10:38:10Z</time>
      </trkpt>
      <trkpt lat="43.06087" lon="5.85851">
        <ele>152.6953125</ele>
        <time>2021-11-14T10:38:12Z</time>
      </trkpt>
      <trkpt lat="43.06094" lon="5.85859">
        <ele>153.42578125</ele>
        <time>2021-11-14T10:38:14Z</time>
      </trkpt>
      <trkpt lat="43.06098" lon="5.85861">
        <ele>153.61328125</ele>
        <time>2021-11-14T10:38:15Z</time>
      </trkpt>
      <trkpt lat="43.06102" lon="5.85863">
        <ele>154.5546875</ele>
        <time>2021-11-14T10:38:16Z</time>
      </trkpt>
      <trkpt lat="43.06106" lon="5.85862">
        <ele>155.4140625</ele>
        <time>2021-11-14T10:38:17Z</time>
      </trkpt>
      <trkpt lat="43.0611" lon="5.85859">
        <ele>156.2109375</ele>
        <time>2021-11-14T10:38:18Z</time>
      </trkpt>
      <trkpt lat="43.06113" lon="5.85854">
        <ele>156.54296875</ele>
        <time>2021-11-14T10:38:19Z</time>
      </trkpt>
      <trkpt lat="43.06116" lon="5.85848">
        <ele>156.5859375</ele>
        <time>2021-11-14T10:38:20Z</time>
      </trkpt>
      <trkpt lat="43.06117" lon="5.85842">
        <ele>156.18359375</ele>
        <time>2021-11-14T10:38:21Z</time>
      </trkpt>
      <trkpt lat="43.06118" lon="5.85836">
        <ele>155.71875</ele>
        <time>2021-11-14T10:38:22Z</time>
      </trkpt>
      <trkpt lat="43.06118" lon="5.8583">
        <ele>155.49609375</ele>
        <time>2021-11-14T10:38:23Z</time>
      </trkpt>
      <trkpt lat="43.06118" lon="5.85824">
        <ele>155.2109375</ele>
        <time>2021-11-14T10:38:24Z</time>
      </trkpt>
      <trkpt lat="43.06124" lon="5.8575">
        <ele>151.984375</ele>
        <time>2021-11-14T10:38:37Z</time>
      </trkpt>
      <trkpt lat="43.06126" lon="5.85745">
        <ele>151.55078125</ele>
        <time>2021-11-14T10:38:38Z</time>
      </trkpt>
      <trkpt lat="43.06128" lon="5.8574">
        <ele>151.10546875</ele>
        <time>2021-11-14T10:38:39Z</time>
      </trkpt>
      <trkpt lat="43.06131" lon="5.85735">
        <ele>150.74609375</ele>
        <time>2021-11-14T10:38:40Z</time>
      </trkpt>
      <trkpt lat="43.06135" lon="5.85733">
        <ele>150.6328125</ele>
        <time>2021-11-14T10:38:41Z</time>
      </trkpt>
      <trkpt lat="43.06139" lon="5.85731">
        <ele>150.6796875</ele>
        <time>2021-11-14T10:38:42Z</time>
      </trkpt>
      <trkpt lat="43.06143" lon="5.85731">
        <ele>150.93359375</ele>
        <time>2021-11-14T10:38:43Z</time>
      </trkpt>
      <trkpt lat="43.06146" lon="5.8573">
        <ele>151.19921875</ele>
        <time>2021-11-14T10:38:44Z</time>
      </trkpt>
      <trkpt lat="43.06195" lon="5.85714">
        <ele>143.640625</ele>
        <time>2021-11-14T10:38:57Z</time>
      </trkpt>
      <trkpt lat="43.06199" lon="5.85717">
        <ele>143.40234375</ele>
        <time>2021-11-14T10:38:58Z</time>
      </trkpt>
      <trkpt lat="43.06202" lon="5.85721">
        <ele>143.43359375</ele>
        <time>2021-11-14T10:38:59Z</time>
      </trkpt>
      <trkpt lat="43.06205" lon="5.85725">
        <ele>143.7421875</ele>
        <time>2021-11-14T10:39:00Z</time>
      </trkpt>
      <trkpt lat="43.06206" lon="5.85731">
        <ele>144.2421875</ele>
        <time>2021-11-14T10:39:01Z</time>
      </trkpt>
      <trkpt lat="43.06207" lon="5.85736">
        <ele>144.7890625</ele>
        <time>2021-11-14T10:39:02Z</time>
      </trkpt>
      <trkpt lat="43.06229" lon="5.85792">
        <ele>147.49609375</ele>
        <time>2021-11-14T10:39:14Z</time>
      </trkpt>
      <trkpt lat="43.06234" lon="5.858">
        <ele>147.46484375</ele>
        <time>2021-11-14T10:39:16Z</time>
      </trkpt>
      <trkpt lat="43.06236" lon="5.85805">
        <ele>147.65625</ele>
        <time>2021-11-14T10:39:17Z</time>
      </trkpt>
      <trkpt lat="43.06238" lon="5.85811">
        <ele>148.0625</ele>
        <time>2021-11-14T10:39:18Z</time>
      </trkpt>
      <trkpt lat="43.0624" lon="5.85816">
        <ele>148.6015625</ele>
        <time>2021-11-14T10:39:19Z</time>
      </trkpt>
      <trkpt lat="43.06241" lon="5.85822">
        <ele>149.125</ele>
        <time>2021-11-14T10:39:20Z</time>
      </trkpt>
      <trkpt lat="43.06243" lon="5.85827">
        <ele>149.62109375</ele>
        <time>2021-11-14T10:39:21Z</time>
      </trkpt>
      <trkpt lat="43.06245" lon="5.85832">
        <ele>150.11328125</ele>
        <time>2021-11-14T10:39:22Z</time>
      </trkpt>
      <trkpt lat="43.06245" lon="5.85837">
        <ele>150.6640625</ele>
        <time>2021-11-14T10:39:23Z</time>
      </trkpt>
      <trkpt lat="43.06246" lon="5.85842">
        <ele>151.5078125</ele>
        <time>2021-11-14T10:39:24Z</time>
      </trkpt>
      <trkpt lat="43.06262" lon="5.85893">
        <ele>157.4140625</ele>
        <time>2021-11-14T10:39:36Z</time>
      </trkpt>
      <trkpt lat="43.06278" lon="5.85927">
        <ele>162.7890625</ele>
        <time>2021-11-14T10:39:46Z</time>
      </trkpt>
      <trkpt lat="43.06295" lon="5.85965">
        <ele>170</ele>
        <time>2021-11-14T10:39:57Z</time>
      </trkpt>
      <trkpt lat="43.06317" lon="5.85971">
        <ele>169.9765625</ele>
        <time>2021-11-14T10:40:06Z</time>
      </trkpt>
      <trkpt lat="43.0634" lon="5.85967">
        <ele>167.96484375</ele>
        <time>2021-11-14T10:40:16Z</time>
      </trkpt>
      <trkpt lat="43.06367" lon="5.85998">
        <ele>173.21484375</ele>
        <time>2021-11-14T10:40:31Z</time>
      </trkpt>
      <trkpt lat="43.06388" lon="5.86031">
        <ele>179.10546875</ele>
        <time>2021-11-14T10:40:44Z</time>
      </trkpt>
      <trkpt lat="43.06421" lon="5.86038">
        <ele>175.12109375</ele>
        <time>2021-11-14T10:40:57Z</time>
      </trkpt>
      <trkpt lat="43.06434" lon="5.86042">
        <ele>173.6875</ele>
        <time>2021-11-14T10:41:01Z</time>
      </trkpt>
      <trkpt lat="43.06476" lon="5.86053">
        <ele>172.53515625</ele>
        <time>2021-11-14T10:41:09Z</time>
      </trkpt>
      <trkpt lat="43.06483" lon="5.86053">
        <ele>172.35546875</ele>
        <time>2021-11-14T10:41:10Z</time>
      </trkpt>
      <trkpt lat="43.06489" lon="5.86051">
        <ele>172.2421875</ele>
        <time>2021-11-14T10:41:11Z</time>
      </trkpt>
      <trkpt lat="43.06495" lon="5.86045">
        <ele>172.375</ele>
        <time>2021-11-14T10:41:12Z</time>
      </trkpt>
      <trkpt lat="43.06501" lon="5.86038">
        <ele>172.96484375</ele>
        <time>2021-11-14T10:41:13Z</time>
      </trkpt>
      <trkpt lat="43.06505" lon="5.86029">
        <ele>173.51953125</ele>
        <time>2021-11-14T10:41:14Z</time>
      </trkpt>
      <trkpt lat="43.06509" lon="5.86018">
        <ele>173.45703125</ele>
        <time>2021-11-14T10:41:15Z</time>
      </trkpt>
      <trkpt lat="43.06512" lon="5.86007">
        <ele>173.625</ele>
        <time>2021-11-14T10:41:16Z</time>
      </trkpt>
      <trkpt lat="43.06515" lon="5.85996">
        <ele>173.69140625</ele>
        <time>2021-11-14T10:41:17Z</time>
      </trkpt>
      <trkpt lat="43.06517" lon="5.85985">
        <ele>173.25390625</ele>
        <time>2021-11-14T10:41:18Z</time>
      </trkpt>
      <trkpt lat="43.06523" lon="5.85936">
        <ele>168.78125</ele>
        <time>2021-11-14T10:41:22Z</time>
      </trkpt>
      <trkpt lat="43.06526" lon="5.85924">
        <ele>167.26171875</ele>
        <time>2021-11-14T10:41:23Z</time>
      </trkpt>
      <trkpt lat="43.06529" lon="5.85913">
        <ele>165.67578125</ele>
        <time>2021-11-14T10:41:24Z</time>
      </trkpt>
      <trkpt lat="43.06534" lon="5.85903">
        <ele>164.19921875</ele>
        <time>2021-11-14T10:41:25Z</time>
      </trkpt>
      <trkpt lat="43.0654" lon="5.85893">
        <ele>162.8828125</ele>
        <time>2021-11-14T10:41:26Z</time>
      </trkpt>
      <trkpt lat="43.06546" lon="5.85885">
        <ele>161.10546875</ele>
        <time>2021-11-14T10:41:27Z</time>
      </trkpt>
      <trkpt lat="43.06552" lon="5.85879">
        <ele>159.33203125</ele>
        <time>2021-11-14T10:41:28Z</time>
      </trkpt>
      <trkpt lat="43.06556" lon="5.85876">
        <ele>158.2578125</ele>
        <time>2021-11-14T10:41:29Z</time>
      </trkpt>
      <trkpt lat="43.06559" lon="5.85875">
        <ele>157.86328125</ele>
        <time>2021-11-14T10:41:30Z</time>
      </trkpt>
      <trkpt lat="43.06561" lon="5.85876">
        <ele>157.8203125</ele>
        <time>2021-11-14T10:41:31Z</time>
      </trkpt>
      <trkpt lat="43.06563" lon="5.85876">
        <ele>157.79296875</ele>
        <time>2021-11-14T10:41:32Z</time>
      </trkpt>
      <trkpt lat="43.06566" lon="5.85877">
        <ele>157.7890625</ele>
        <time>2021-11-14T10:41:33Z</time>
      </trkpt>
      <trkpt lat="43.06586" lon="5.85891">
        <ele>160.28515625</ele>
        <time>2021-11-14T10:41:40Z</time>
      </trkpt>
      <trkpt lat="43.06591" lon="5.85893">
        <ele>160.5390625</ele>
        <time>2021-11-14T10:41:41Z</time>
      </trkpt>
      <trkpt lat="43.06596" lon="5.85895">
        <ele>160.30078125</ele>
        <time>2021-11-14T10:41:42Z</time>
      </trkpt>
      <trkpt lat="43.06601" lon="5.85897">
        <ele>159.734375</ele>
        <time>2021-11-14T10:41:43Z</time>
      </trkpt>
      <trkpt lat="43.06607" lon="5.85896">
        <ele>158.8125</ele>
        <time>2021-11-14T10:41:44Z</time>
      </trkpt>
      <trkpt lat="43.06614" lon="5.85894">
        <ele>157.7734375</ele>
        <time>2021-11-14T10:41:45Z</time>
      </trkpt>
      <trkpt lat="43.06621" lon="5.85892">
        <ele>156.4765625</ele>
        <time>2021-11-14T10:41:46Z</time>
      </trkpt>
      <trkpt lat="43.06629" lon="5.85888">
        <ele>154.75390625</ele>
        <time>2021-11-14T10:41:47Z</time>
      </trkpt>
      <trkpt lat="43.06636" lon="5.85884">
        <ele>152.8046875</ele>
        <time>2021-11-14T10:41:48Z</time>
      </trkpt>
      <trkpt lat="43.06644" lon="5.85877">
        <ele>150.9765625</ele>
        <time>2021-11-14T10:41:49Z</time>
      </trkpt>
      <trkpt lat="43.0665" lon="5.85868">
        <ele>149.5390625</ele>
        <time>2021-11-14T10:41:50Z</time>
      </trkpt>
      <trkpt lat="43.06655" lon="5.85857">
        <ele>148.18359375</ele>
        <time>2021-11-14T10:41:51Z</time>
      </trkpt>
      <trkpt lat="43.0666" lon="5.85845">
        <ele>146.96484375</ele>
        <time>2021-11-14T10:41:52Z</time>
      </trkpt>
      <trkpt lat="43.06665" lon="5.85837">
        <ele>145.9921875</ele>
        <time>2021-11-14T10:41:53Z</time>
      </trkpt>
      <trkpt lat="43.0667" lon="5.85831">
        <ele>144.5390625</ele>
        <time>2021-11-14T10:41:54Z</time>
      </trkpt>
      <trkpt lat="43.06676" lon="5.85829">
        <ele>143.66796875</ele>
        <time>2021-11-14T10:41:55Z</time>
      </trkpt>
      <trkpt lat="43.06683" lon="5.8583">
        <ele>143.22265625</ele>
        <time>2021-11-14T10:41:56Z</time>
      </trkpt>
      <trkpt lat="43.0669" lon="5.85834">
        <ele>142.69140625</ele>
        <time>2021-11-14T10:41:57Z</time>
      </trkpt>
      <trkpt lat="43.06697" lon="5.85839">
        <ele>142.1953125</ele>
        <time>2021-11-14T10:41:58Z</time>
      </trkpt>
      <trkpt lat="43.06705" lon="5.85845">
        <ele>140.84375</ele>
        <time>2021-11-14T10:41:59Z</time>
      </trkpt>
      <trkpt lat="43.06728" lon="5.85863">
        <ele>138.67578125</ele>
        <time>2021-11-14T10:42:02Z</time>
      </trkpt>
      <trkpt lat="43.06736" lon="5.85864">
        <ele>138.125</ele>
        <time>2021-11-14T10:42:03Z</time>
      </trkpt>
      <trkpt lat="43.06742" lon="5.85861">
        <ele>137.625</ele>
        <time>2021-11-14T10:42:04Z</time>
      </trkpt>
      <trkpt lat="43.06749" lon="5.85855">
        <ele>137.44921875</ele>
        <time>2021-11-14T10:42:05Z</time>
      </trkpt>
      <trkpt lat="43.06755" lon="5.85846">
        <ele>137.6953125</ele>
        <time>2021-11-14T10:42:06Z</time>
      </trkpt>
      <trkpt lat="43.0676" lon="5.85835">
        <ele>138.15234375</ele>
        <time>2021-11-14T10:42:07Z</time>
      </trkpt>
      <trkpt lat="43.06764" lon="5.85823">
        <ele>138</ele>
        <time>2021-11-14T10:42:08Z</time>
      </trkpt>
      <trkpt lat="43.06767" lon="5.85811">
        <ele>137.51953125</ele>
        <time>2021-11-14T10:42:09Z</time>
      </trkpt>
      <trkpt lat="43.0677" lon="5.85798">
        <ele>136.55859375</ele>
        <time>2021-11-14T10:42:10Z</time>
      </trkpt>
      <trkpt lat="43.06779" lon="5.85758">
        <ele>132.23046875</ele>
        <time>2021-11-14T10:42:13Z</time>
      </trkpt>
      <trkpt lat="43.06789" lon="5.85717">
        <ele>126.30078125</ele>
        <time>2021-11-14T10:42:16Z</time>
      </trkpt>
      <trkpt lat="43.06793" lon="5.85706">
        <ele>124.76953125</ele>
        <time>2021-11-14T10:42:17Z</time>
      </trkpt>
      <trkpt lat="43.06796" lon="5.85698">
        <ele>123.35546875</ele>
        <time>2021-11-14T10:42:18Z</time>
      </trkpt>
      <trkpt lat="43.068" lon="5.85692">
        <ele>122.1796875</ele>
        <time>2021-11-14T10:42:19Z</time>
      </trkpt>
      <trkpt lat="43.06805" lon="5.85687">
        <ele>121.16015625</ele>
        <time>2021-11-14T10:42:20Z</time>
      </trkpt>
      <trkpt lat="43.06811" lon="5.85686">
        <ele>120.328125</ele>
        <time>2021-11-14T10:42:21Z</time>
      </trkpt>
      <trkpt lat="43.06816" lon="5.85687">
        <ele>119.69921875</ele>
        <time>2021-11-14T10:42:22Z</time>
      </trkpt>
      <trkpt lat="43.06821" lon="5.85691">
        <ele>119.26171875</ele>
        <time>2021-11-14T10:42:23Z</time>
      </trkpt>
      <trkpt lat="43.06826" lon="5.85698">
        <ele>118.98046875</ele>
        <time>2021-11-14T10:42:24Z</time>
      </trkpt>
      <trkpt lat="43.06829" lon="5.85706">
        <ele>119.1953125</ele>
        <time>2021-11-14T10:42:25Z</time>
      </trkpt>
      <trkpt lat="43.06831" lon="5.85716">
        <ele>119.62890625</ele>
        <time>2021-11-14T10:42:26Z</time>
      </trkpt>
      <trkpt lat="43.06846" lon="5.85756">
        <ele>120.43359375</ele>
        <time>2021-11-14T10:42:30Z</time>
      </trkpt>
      <trkpt lat="43.06852" lon="5.85763">
        <ele>120.171875</ele>
        <time>2021-11-14T10:42:31Z</time>
      </trkpt>
      <trkpt lat="43.06857" lon="5.85769">
        <ele>119.99609375</ele>
        <time>2021-11-14T10:42:32Z</time>
      </trkpt>
      <trkpt lat="43.06861" lon="5.85775">
        <ele>119.91796875</ele>
        <time>2021-11-14T10:42:33Z</time>
      </trkpt>
      <trkpt lat="43.06865" lon="5.85779">
        <ele>119.8828125</ele>
        <time>2021-11-14T10:42:34Z</time>
      </trkpt>
      <trkpt lat="43.06867" lon="5.85781">
        <ele>119.890625</ele>
        <time>2021-11-14T10:42:35Z</time>
      </trkpt>
      <trkpt lat="43.06868" lon="5.85783">
        <ele>119.875</ele>
        <time>2021-11-14T10:42:36Z</time>
      </trkpt>
      <trkpt lat="43.06869" lon="5.85784">
        <ele>119.8046875</ele>
        <time>2021-11-14T10:42:37Z</time>
      </trkpt>
      <trkpt lat="43.06871" lon="5.85788">
        <ele>119.71484375</ele>
        <time>2021-11-14T10:42:39Z</time>
      </trkpt>
      <trkpt lat="43.06871" lon="5.85791">
        <ele>119.75390625</ele>
        <time>2021-11-14T10:42:40Z</time>
      </trkpt>
      <trkpt lat="43.06879" lon="5.85838">
        <ele>118.05078125</ele>
        <time>2021-11-14T10:42:50Z</time>
      </trkpt>
      <trkpt lat="43.06878" lon="5.85843">
        <ele>117.33984375</ele>
        <time>2021-11-14T10:42:51Z</time>
      </trkpt>
      <trkpt lat="43.06875" lon="5.85847">
        <ele>116.703125</ele>
        <time>2021-11-14T10:42:52Z</time>
      </trkpt>
      <trkpt lat="43.06869" lon="5.85854">
        <ele>115.7265625</ele>
        <time>2021-11-14T10:42:54Z</time>
      </trkpt>
      <trkpt lat="43.06865" lon="5.85858">
        <ele>115.19140625</ele>
        <time>2021-11-14T10:42:55Z</time>
      </trkpt>
      <trkpt lat="43.06862" lon="5.85861">
        <ele>114.671875</ele>
        <time>2021-11-14T10:42:56Z</time>
      </trkpt>
      <trkpt lat="43.06847" lon="5.85875">
        <ele>112.52734375</ele>
        <time>2021-11-14T10:43:00Z</time>
      </trkpt>
      <trkpt lat="43.06832" lon="5.85896">
        <ele>112.59765625</ele>
        <time>2021-11-14T10:43:04Z</time>
      </trkpt>
      <trkpt lat="43.0681" lon="5.85939">
        <ele>110.60546875</ele>
        <time>2021-11-14T10:43:11Z</time>
      </trkpt>
      <trkpt lat="43.06808" lon="5.85943">
        <ele>110.59765625</ele>
        <time>2021-11-14T10:43:12Z</time>
      </trkpt>
      <trkpt lat="43.06805" lon="5.85946">
        <ele>110.59375</ele>
        <time>2021-11-14T10:43:13Z</time>
      </trkpt>
      <trkpt lat="43.06803" lon="5.8595">
        <ele>110.46484375</ele>
        <time>2021-11-14T10:43:14Z</time>
      </trkpt>
      <trkpt lat="43.06801" lon="5.85953">
        <ele>110.3125</ele>
        <time>2021-11-14T10:43:15Z</time>
      </trkpt>
      <trkpt lat="43.06798" lon="5.85956">
        <ele>110.296875</ele>
        <time>2021-11-14T10:43:16Z</time>
      </trkpt>
      <trkpt lat="43.06794" lon="5.85959">
        <ele>110.49609375</ele>
        <time>2021-11-14T10:43:17Z</time>
      </trkpt>
      <trkpt lat="43.06785" lon="5.85964">
        <ele>110.78515625</ele>
        <time>2021-11-14T10:43:19Z</time>
      </trkpt>
      <trkpt lat="43.06781" lon="5.85965">
        <ele>111.18359375</ele>
        <time>2021-11-14T10:43:20Z</time>
      </trkpt>
      <trkpt lat="43.06776" lon="5.85965">
        <ele>111.890625</ele>
        <time>2021-11-14T10:43:21Z</time>
      </trkpt>
      <trkpt lat="43.06772" lon="5.85965">
        <ele>112.82421875</ele>
        <time>2021-11-14T10:43:22Z</time>
      </trkpt>
      <trkpt lat="43.06767" lon="5.85964">
        <ele>113.89453125</ele>
        <time>2021-11-14T10:43:23Z</time>
      </trkpt>
      <trkpt lat="43.06762" lon="5.85963">
        <ele>114.90234375</ele>
        <time>2021-11-14T10:43:24Z</time>
      </trkpt>
      <trkpt lat="43.06752" lon="5.85962">
        <ele>116.734375</ele>
        <time>2021-11-14T10:43:26Z</time>
      </trkpt>
      <trkpt lat="43.06741" lon="5.85964">
        <ele>117.84765625</ele>
        <time>2021-11-14T10:43:28Z</time>
      </trkpt>
      <trkpt lat="43.06738" lon="5.85968">
        <ele>117.78125</ele>
        <time>2021-11-14T10:43:29Z</time>
      </trkpt>
      <trkpt lat="43.06735" lon="5.85971">
        <ele>117.5625</ele>
        <time>2021-11-14T10:43:30Z</time>
      </trkpt>
      <trkpt lat="43.06735" lon="5.85977">
        <ele>116.3984375</ele>
        <time>2021-11-14T10:43:31Z</time>
      </trkpt>
      <trkpt lat="43.06736" lon="5.85984">
        <ele>115.0625</ele>
        <time>2021-11-14T10:43:32Z</time>
      </trkpt>
      <trkpt lat="43.06738" lon="5.85992">
        <ele>113.62109375</ele>
        <time>2021-11-14T10:43:33Z</time>
      </trkpt>
      <trkpt lat="43.06741" lon="5.86008">
        <ele>110.53515625</ele>
        <time>2021-11-14T10:43:35Z</time>
      </trkpt>
      <trkpt lat="43.06741" lon="5.86016">
        <ele>109.19921875</ele>
        <time>2021-11-14T10:43:36Z</time>
      </trkpt>
      <trkpt lat="43.0674" lon="5.86024">
        <ele>108.30859375</ele>
        <time>2021-11-14T10:43:37Z</time>
      </trkpt>
      <trkpt lat="43.06737" lon="5.86031">
        <ele>108.11328125</ele>
        <time>2021-11-14T10:43:38Z</time>
      </trkpt>
      <trkpt lat="43.06733" lon="5.86036">
        <ele>109.4140625</ele>
        <time>2021-11-14T10:43:39Z</time>
      </trkpt>
      <trkpt lat="43.06728" lon="5.86039">
        <ele>111.05859375</ele>
        <time>2021-11-14T10:43:40Z</time>
      </trkpt>
      <trkpt lat="43.06722" lon="5.8604">
        <ele>112.71875</ele>
        <time>2021-11-14T10:43:41Z</time>
      </trkpt>
      <trkpt lat="43.06717" lon="5.86041">
        <ele>114.25390625</ele>
        <time>2021-11-14T10:43:42Z</time>
      </trkpt>
      <trkpt lat="43.06713" lon="5.86041">
        <ele>115.6875</ele>
        <time>2021-11-14T10:43:43Z</time>
      </trkpt>
      <trkpt lat="43.06708" lon="5.86042">
        <ele>117.01171875</ele>
        <time>2021-11-14T10:43:44Z</time>
      </trkpt>
      <trkpt lat="43.06703" lon="5.86044">
        <ele>118.10546875</ele>
        <time>2021-11-14T10:43:45Z</time>
      </trkpt>
      <trkpt lat="43.06699" lon="5.86049">
        <ele>118.87890625</ele>
        <time>2021-11-14T10:43:46Z</time>
      </trkpt>
      <trkpt lat="43.06698" lon="5.86055">
        <ele>119.09375</ele>
        <time>2021-11-14T10:43:47Z</time>
      </trkpt>
      <trkpt lat="43.06698" lon="5.86061">
        <ele>118.87109375</ele>
        <time>2021-11-14T10:43:48Z</time>
      </trkpt>
      <trkpt lat="43.06699" lon="5.86068">
        <ele>118.62109375</ele>
        <time>2021-11-14T10:43:49Z</time>
      </trkpt>
      <trkpt lat="43.067" lon="5.86074">
        <ele>118.3203125</ele>
        <time>2021-11-14T10:43:50Z</time>
      </trkpt>
      <trkpt lat="43.06701" lon="5.86086">
        <ele>118.0078125</ele>
        <time>2021-11-14T10:43:52Z</time>
      </trkpt>
      <trkpt lat="43.06701" lon="5.86092">
        <ele>119.3046875</ele>
        <time>2021-11-14T10:43:53Z</time>
      </trkpt>
      <trkpt lat="43.067" lon="5.86098">
        <ele>121.046875</ele>
        <time>2021-11-14T10:43:54Z</time>
      </trkpt>
      <trkpt lat="43.06698" lon="5.86104">
        <ele>122.79296875</ele>
        <time>2021-11-14T10:43:55Z</time>
      </trkpt>
      <trkpt lat="43.06697" lon="5.86111">
        <ele>124.67578125</ele>
        <time>2021-11-14T10:43:56Z</time>
      </trkpt>
      <trkpt lat="43.06695" lon="5.86118">
        <ele>126.55078125</ele>
        <time>2021-11-14T10:43:57Z</time>
      </trkpt>
      <trkpt lat="43.06696" lon="5.86126">
        <ele>128.05859375</ele>
        <time>2021-11-14T10:43:58Z</time>
      </trkpt>
      <trkpt lat="43.06698" lon="5.86132">
        <ele>128.87890625</ele>
        <time>2021-11-14T10:43:59Z</time>
      </trkpt>
      <trkpt lat="43.06702" lon="5.86136">
        <ele>129.0078125</ele>
        <time>2021-11-14T10:44:00Z</time>
      </trkpt>
      <trkpt lat="43.06706" lon="5.86139">
        <ele>128.76953125</ele>
        <time>2021-11-14T10:44:01Z</time>
      </trkpt>
      <trkpt lat="43.06711" lon="5.86142">
        <ele>128.44921875</ele>
        <time>2021-11-14T10:44:02Z</time>
      </trkpt>
      <trkpt lat="43.06734" lon="5.86156">
        <ele>126.5546875</ele>
        <time>2021-11-14T10:44:07Z</time>
      </trkpt>
      <trkpt lat="43.06738" lon="5.86159">
        <ele>126.25390625</ele>
        <time>2021-11-14T10:44:08Z</time>
      </trkpt>
      <trkpt lat="43.06759" lon="5.86173">
        <ele>124.56640625</ele>
        <time>2021-11-14T10:44:13Z</time>
      </trkpt>
      <trkpt lat="43.06763" lon="5.86177">
        <ele>124.44140625</ele>
        <time>2021-11-14T10:44:14Z</time>
      </trkpt>
      <trkpt lat="43.06766" lon="5.86183">
        <ele>124.5078125</ele>
        <time>2021-11-14T10:44:15Z</time>
      </trkpt>
      <trkpt lat="43.06785" lon="5.86213">
        <ele>124.81640625</ele>
        <time>2021-11-14T10:44:21Z</time>
      </trkpt>
      <trkpt lat="43.06789" lon="5.86216">
        <ele>124.5859375</ele>
        <time>2021-11-14T10:44:22Z</time>
      </trkpt>
      <trkpt lat="43.06793" lon="5.8622">
        <ele>124.3828125</ele>
        <time>2021-11-14T10:44:23Z</time>
      </trkpt>
      <trkpt lat="43.06802" lon="5.86259">
        <ele>119.44140625</ele>
        <time>2021-11-14T10:44:31Z</time>
      </trkpt>
      <trkpt lat="43.068" lon="5.86264">
        <ele>119.0390625</ele>
        <time>2021-11-14T10:44:32Z</time>
      </trkpt>
      <trkpt lat="43.06797" lon="5.86269">
        <ele>118.75</ele>
        <time>2021-11-14T10:44:33Z</time>
      </trkpt>
      <trkpt lat="43.06793" lon="5.86273">
        <ele>118.46875</ele>
        <time>2021-11-14T10:44:34Z</time>
      </trkpt>
      <trkpt lat="43.06788" lon="5.86278">
        <ele>118.17578125</ele>
        <time>2021-11-14T10:44:35Z</time>
      </trkpt>
      <trkpt lat="43.06778" lon="5.86286">
        <ele>117.51171875</ele>
        <time>2021-11-14T10:44:37Z</time>
      </trkpt>
      <trkpt lat="43.06773" lon="5.86291">
        <ele>117.1875</ele>
        <time>2021-11-14T10:44:38Z</time>
      </trkpt>
      <trkpt lat="43.06768" lon="5.86296">
        <ele>116.8515625</ele>
        <time>2021-11-14T10:44:39Z</time>
      </trkpt>
      <trkpt lat="43.06764" lon="5.86303">
        <ele>116.2890625</ele>
        <time>2021-11-14T10:44:40Z</time>
      </trkpt>
      <trkpt lat="43.0676" lon="5.86311">
        <ele>115.38671875</ele>
        <time>2021-11-14T10:44:41Z</time>
      </trkpt>
      <trkpt lat="43.06758" lon="5.86319">
        <ele>113.96875</ele>
        <time>2021-11-14T10:44:42Z</time>
      </trkpt>
      <trkpt lat="43.06755" lon="5.86329">
        <ele>112.5234375</ele>
        <time>2021-11-14T10:44:43Z</time>
      </trkpt>
      <trkpt lat="43.06751" lon="5.86337">
        <ele>111.46484375</ele>
        <time>2021-11-14T10:44:44Z</time>
      </trkpt>
      <trkpt lat="43.06747" lon="5.86343">
        <ele>111.33203125</ele>
        <time>2021-11-14T10:44:45Z</time>
      </trkpt>
      <trkpt lat="43.06742" lon="5.86347">
        <ele>111.65625</ele>
        <time>2021-11-14T10:44:46Z</time>
      </trkpt>
      <trkpt lat="43.06736" lon="5.8635">
        <ele>112.3671875</ele>
        <time>2021-11-14T10:44:47Z</time>
      </trkpt>
      <trkpt lat="43.06729" lon="5.86352">
        <ele>112.921875</ele>
        <time>2021-11-14T10:44:48Z</time>
      </trkpt>
      <trkpt lat="43.06716" lon="5.86357">
        <ele>113.57421875</ele>
        <time>2021-11-14T10:44:50Z</time>
      </trkpt>
      <trkpt lat="43.0671" lon="5.86362">
        <ele>113.484375</ele>
        <time>2021-11-14T10:44:51Z</time>
      </trkpt>
      <trkpt lat="43.06698" lon="5.86372">
        <ele>112.19921875</ele>
        <time>2021-11-14T10:44:53Z</time>
      </trkpt>
      <trkpt lat="43.06693" lon="5.86376">
        <ele>111.81640625</ele>
        <time>2021-11-14T10:44:54Z</time>
      </trkpt>
      <trkpt lat="43.06687" lon="5.86376">
        <ele>111.828125</ele>
        <time>2021-11-14T10:44:55Z</time>
      </trkpt>
      <trkpt lat="43.06681" lon="5.86374">
        <ele>112.3359375</ele>
        <time>2021-11-14T10:44:56Z</time>
      </trkpt>
      <trkpt lat="43.06676" lon="5.86369">
        <ele>112.66015625</ele>
        <time>2021-11-14T10:44:57Z</time>
      </trkpt>
      <trkpt lat="43.06671" lon="5.86363">
        <ele>113.26953125</ele>
        <time>2021-11-14T10:44:58Z</time>
      </trkpt>
      <trkpt lat="43.06654" lon="5.86341">
        <ele>116.11328125</ele>
        <time>2021-11-14T10:45:01Z</time>
      </trkpt>
      <trkpt lat="43.06647" lon="5.86338">
        <ele>115.71875</ele>
        <time>2021-11-14T10:45:02Z</time>
      </trkpt>
      <trkpt lat="43.0664" lon="5.86337">
        <ele>114.56640625</ele>
        <time>2021-11-14T10:45:03Z</time>
      </trkpt>
      <trkpt lat="43.06632" lon="5.86337">
        <ele>113.01953125</ele>
        <time>2021-11-14T10:45:04Z</time>
      </trkpt>
      <trkpt lat="43.06624" lon="5.86338">
        <ele>111.5234375</ele>
        <time>2021-11-14T10:45:05Z</time>
      </trkpt>
      <trkpt lat="43.06616" lon="5.86339">
        <ele>110.625</ele>
        <time>2021-11-14T10:45:06Z</time>
      </trkpt>
      <trkpt lat="43.06608" lon="5.86338">
        <ele>109.9609375</ele>
        <time>2021-11-14T10:45:07Z</time>
      </trkpt>
      <trkpt lat="43.066" lon="5.86335">
        <ele>109.5546875</ele>
        <time>2021-11-14T10:45:08Z</time>
      </trkpt>
      <trkpt lat="43.06592" lon="5.86333">
        <ele>109.4765625</ele>
        <time>2021-11-14T10:45:09Z</time>
      </trkpt>
      <trkpt lat="43.06584" lon="5.86329">
        <ele>109.609375</ele>
        <time>2021-11-14T10:45:10Z</time>
      </trkpt>
      <trkpt lat="43.06577" lon="5.86324">
        <ele>109.90234375</ele>
        <time>2021-11-14T10:45:11Z</time>
      </trkpt>
      <trkpt lat="43.0657" lon="5.86319">
        <ele>110.28515625</ele>
        <time>2021-11-14T10:45:12Z</time>
      </trkpt>
      <trkpt lat="43.06563" lon="5.86316">
        <ele>110.84375</ele>
        <time>2021-11-14T10:45:13Z</time>
      </trkpt>
      <trkpt lat="43.06557" lon="5.86315">
        <ele>110.85546875</ele>
        <time>2021-11-14T10:45:14Z</time>
      </trkpt>
      <trkpt lat="43.06551" lon="5.86319">
        <ele>110.57421875</ele>
        <time>2021-11-14T10:45:15Z</time>
      </trkpt>
      <trkpt lat="43.06547" lon="5.86325">
        <ele>110.24609375</ele>
        <time>2021-11-14T10:45:16Z</time>
      </trkpt>
      <trkpt lat="43.06545" lon="5.86333">
        <ele>109.9609375</ele>
        <time>2021-11-14T10:45:17Z</time>
      </trkpt>
      <trkpt lat="43.06544" lon="5.86342">
        <ele>109.90625</ele>
        <time>2021-11-14T10:45:18Z</time>
      </trkpt>
      <trkpt lat="43.06545" lon="5.86353">
        <ele>109.71875</ele>
        <time>2021-11-14T10:45:19Z</time>
      </trkpt>
      <trkpt lat="43.06548" lon="5.86363">
        <ele>109.14453125</ele>
        <time>2021-11-14T10:45:20Z</time>
      </trkpt>
      <trkpt lat="43.06552" lon="5.86371">
        <ele>108.78515625</ele>
        <time>2021-11-14T10:45:21Z</time>
      </trkpt>
      <trkpt lat="43.06558" lon="5.86377">
        <ele>108.08203125</ele>
        <time>2021-11-14T10:45:22Z</time>
      </trkpt>
      <trkpt lat="43.06564" lon="5.86383">
        <ele>107.04296875</ele>
        <time>2021-11-14T10:45:23Z</time>
      </trkpt>
      <trkpt lat="43.06571" lon="5.8639">
        <ele>105.875</ele>
        <time>2021-11-14T10:45:24Z</time>
      </trkpt>
      <trkpt lat="43.06576" lon="5.86397">
        <ele>105.2578125</ele>
        <time>2021-11-14T10:45:25Z</time>
      </trkpt>
      <trkpt lat="43.06598" lon="5.86431">
        <ele>101.01171875</ele>
        <time>2021-11-14T10:45:29Z</time>
      </trkpt>
      <trkpt lat="43.06602" lon="5.8644">
        <ele>100.24609375</ele>
        <time>2021-11-14T10:45:30Z</time>
      </trkpt>
      <trkpt lat="43.06605" lon="5.8645">
        <ele>99.453125</ele>
        <time>2021-11-14T10:45:31Z</time>
      </trkpt>
      <trkpt lat="43.06611" lon="5.8647">
        <ele>97.13671875</ele>
        <time>2021-11-14T10:45:34Z</time>
      </trkpt>
      <trkpt lat="43.06612" lon="5.86475">
        <ele>96.5078125</ele>
        <time>2021-11-14T10:45:35Z</time>
      </trkpt>
      <trkpt lat="43.06615" lon="5.86493">
        <ele>94.52734375</ele>
        <time>2021-11-14T10:45:38Z</time>
      </trkpt>
      <trkpt lat="43.06616" lon="5.865">
        <ele>93.85546875</ele>
        <time>2021-11-14T10:45:39Z</time>
      </trkpt>
      <trkpt lat="43.06617" lon="5.86508">
        <ele>93.171875</ele>
        <time>2021-11-14T10:45:40Z</time>
      </trkpt>
      <trkpt lat="43.0662" lon="5.86534">
        <ele>91.37109375</ele>
        <time>2021-11-14T10:45:43Z</time>
      </trkpt>
      <trkpt lat="43.06622" lon="5.86544">
        <ele>91.04296875</ele>
        <time>2021-11-14T10:45:44Z</time>
      </trkpt>
      <trkpt lat="43.06628" lon="5.86574">
        <ele>89.01953125</ele>
        <time>2021-11-14T10:45:47Z</time>
      </trkpt>
      <trkpt lat="43.06631" lon="5.86583">
        <ele>87.97265625</ele>
        <time>2021-11-14T10:45:48Z</time>
      </trkpt>
      <trkpt lat="43.06637" lon="5.866">
        <ele>86.125</ele>
        <time>2021-11-14T10:45:50Z</time>
      </trkpt>
      <trkpt lat="43.06637" lon="5.86608">
        <ele>85.91796875</ele>
        <time>2021-11-14T10:45:51Z</time>
      </trkpt>
      <trkpt lat="43.06634" lon="5.86615">
        <ele>86.2265625</ele>
        <time>2021-11-14T10:45:52Z</time>
      </trkpt>
      <trkpt lat="43.0663" lon="5.86621">
        <ele>86.94921875</ele>
        <time>2021-11-14T10:45:53Z</time>
      </trkpt>
      <trkpt lat="43.06625" lon="5.86628">
        <ele>87.63671875</ele>
        <time>2021-11-14T10:45:54Z</time>
      </trkpt>
      <trkpt lat="43.06622" lon="5.86635">
        <ele>87.8359375</ele>
        <time>2021-11-14T10:45:55Z</time>
      </trkpt>
      <trkpt lat="43.06621" lon="5.86642">
        <ele>87.68359375</ele>
        <time>2021-11-14T10:45:56Z</time>
      </trkpt>
      <trkpt lat="43.06622" lon="5.86648">
        <ele>87.609375</ele>
        <time>2021-11-14T10:45:57Z</time>
      </trkpt>
      <trkpt lat="43.06622" lon="5.86654">
        <ele>87.60546875</ele>
        <time>2021-11-14T10:45:58Z</time>
      </trkpt>
      <trkpt lat="43.06621" lon="5.86657">
        <ele>87.74609375</ele>
        <time>2021-11-14T10:45:59Z</time>
      </trkpt>
      <trkpt lat="43.06619" lon="5.86659">
        <ele>88</ele>
        <time>2021-11-14T10:46:00Z</time>
      </trkpt>
      <trkpt lat="43.06617" lon="5.86661">
        <ele>88.24609375</ele>
        <time>2021-11-14T10:46:01Z</time>
      </trkpt>
      <trkpt lat="43.06616" lon="5.86663">
        <ele>88.41796875</ele>
        <time>2021-11-14T10:46:02Z</time>
      </trkpt>
      <trkpt lat="43.06615" lon="5.86666">
        <ele>88.55078125</ele>
        <time>2021-11-14T10:46:03Z</time>
      </trkpt>
      <trkpt lat="43.06614" lon="5.86669">
        <ele>88.6640625</ele>
        <time>2021-11-14T10:46:04Z</time>
      </trkpt>
      <trkpt lat="43.06614" lon="5.86671">
        <ele>88.7578125</ele>
        <time>2021-11-14T10:46:05Z</time>
      </trkpt>
      <trkpt lat="43.06614" lon="5.86674">
        <ele>88.76953125</ele>
        <time>2021-11-14T10:46:06Z</time>
      </trkpt>
      <trkpt lat="43.06614" lon="5.86676">
        <ele>88.78125</ele>
        <time>2021-11-14T10:46:07Z</time>
      </trkpt>
      <trkpt lat="43.06614" lon="5.86676">
        <ele>88.796875</ele>
        <time>2021-11-14T10:46:22Z</time>
      </trkpt>
      <trkpt lat="43.06617" lon="5.86673">
        <ele>88.35546875</ele>
        <time>2021-11-14T10:46:30Z</time>
      </trkpt>
      <trkpt lat="43.0662" lon="5.86674">
        <ele>87.90234375</ele>
        <time>2021-11-14T10:46:45Z</time>
      </trkpt>
      <trkpt lat="43.06622" lon="5.86677">
        <ele>87.81640625</ele>
        <time>2021-11-14T10:46:56Z</time>
      </trkpt>
      <trkpt lat="43.06622" lon="5.86679">
        <ele>87.80078125</ele>
        <time>2021-11-14T10:46:57Z</time>
      </trkpt>
      <trkpt lat="43.06623" lon="5.86682">
        <ele>87.76171875</ele>
        <time>2021-11-14T10:46:58Z</time>
      </trkpt>
      <trkpt lat="43.06632" lon="5.867">
        <ele>86.69921875</ele>
        <time>2021-11-14T10:47:03Z</time>
      </trkpt>
      <trkpt lat="43.06637" lon="5.86703">
        <ele>85.98828125</ele>
        <time>2021-11-14T10:47:04Z</time>
      </trkpt>
      <trkpt lat="43.06642" lon="5.86705">
        <ele>85.18359375</ele>
        <time>2021-11-14T10:47:05Z</time>
      </trkpt>
      <trkpt lat="43.06647" lon="5.86708">
        <ele>84.3828125</ele>
        <time>2021-11-14T10:47:06Z</time>
      </trkpt>
      <trkpt lat="43.06653" lon="5.86712">
        <ele>83.71484375</ele>
        <time>2021-11-14T10:47:07Z</time>
      </trkpt>
      <trkpt lat="43.06659" lon="5.86717">
        <ele>83.25390625</ele>
        <time>2021-11-14T10:47:08Z</time>
      </trkpt>
      <trkpt lat="43.06677" lon="5.86735">
        <ele>82.8984375</ele>
        <time>2021-11-14T10:47:11Z</time>
      </trkpt>
      <trkpt lat="43.06682" lon="5.86742">
        <ele>83.29296875</ele>
        <time>2021-11-14T10:47:12Z</time>
      </trkpt>
      <trkpt lat="43.06687" lon="5.8675">
        <ele>84.0546875</ele>
        <time>2021-11-14T10:47:13Z</time>
      </trkpt>
      <trkpt lat="43.06695" lon="5.86764">
        <ele>85.49609375</ele>
        <time>2021-11-14T10:47:15Z</time>
      </trkpt>
      <trkpt lat="43.067" lon="5.86769">
        <ele>85.828125</ele>
        <time>2021-11-14T10:47:16Z</time>
      </trkpt>
      <trkpt lat="43.06705" lon="5.86771">
        <ele>85.8046875</ele>
        <time>2021-11-14T10:47:17Z</time>
      </trkpt>
      <trkpt lat="43.06711" lon="5.86771">
        <ele>85.26953125</ele>
        <time>2021-11-14T10:47:18Z</time>
      </trkpt>
      <trkpt lat="43.06717" lon="5.86769">
        <ele>84.13671875</ele>
        <time>2021-11-14T10:47:19Z</time>
      </trkpt>
      <trkpt lat="43.06723" lon="5.86765">
        <ele>82.984375</ele>
        <time>2021-11-14T10:47:20Z</time>
      </trkpt>
      <trkpt lat="43.06729" lon="5.86762">
        <ele>81.87890625</ele>
        <time>2021-11-14T10:47:21Z</time>
      </trkpt>
      <trkpt lat="43.06734" lon="5.86759">
        <ele>80.9296875</ele>
        <time>2021-11-14T10:47:22Z</time>
      </trkpt>
      <trkpt lat="43.06737" lon="5.86754">
        <ele>80.0703125</ele>
        <time>2021-11-14T10:47:23Z</time>
      </trkpt>
      <trkpt lat="43.06739" lon="5.86748">
        <ele>79.0625</ele>
        <time>2021-11-14T10:47:24Z</time>
      </trkpt>
      <trkpt lat="43.0674" lon="5.86741">
        <ele>77.91796875</ele>
        <time>2021-11-14T10:47:25Z</time>
      </trkpt>
      <trkpt lat="43.0674" lon="5.86733">
        <ele>76.71875</ele>
        <time>2021-11-14T10:47:26Z</time>
      </trkpt>
      <trkpt lat="43.0674" lon="5.86724">
        <ele>75.38671875</ele>
        <time>2021-11-14T10:47:27Z</time>
      </trkpt>
      <trkpt lat="43.06739" lon="5.86714">
        <ele>73.73828125</ele>
        <time>2021-11-14T10:47:28Z</time>
      </trkpt>
      <trkpt lat="43.06739" lon="5.86676">
        <ele>68.3671875</ele>
        <time>2021-11-14T10:47:32Z</time>
      </trkpt>
      <trkpt lat="43.0674" lon="5.86667">
        <ele>67.37890625</ele>
        <time>2021-11-14T10:47:33Z</time>
      </trkpt>
      <trkpt lat="43.06743" lon="5.86658">
        <ele>66.52734375</ele>
        <time>2021-11-14T10:47:34Z</time>
      </trkpt>
      <trkpt lat="43.06747" lon="5.8665">
        <ele>65.37109375</ele>
        <time>2021-11-14T10:47:35Z</time>
      </trkpt>
      <trkpt lat="43.06751" lon="5.86642">
        <ele>63.94921875</ele>
        <time>2021-11-14T10:47:36Z</time>
      </trkpt>
      <trkpt lat="43.06757" lon="5.86636">
        <ele>63.63671875</ele>
        <time>2021-11-14T10:47:37Z</time>
      </trkpt>
      <trkpt lat="43.06762" lon="5.8663">
        <ele>63.25390625</ele>
        <time>2021-11-14T10:47:38Z</time>
      </trkpt>
      <trkpt lat="43.06768" lon="5.86626">
        <ele>63.00390625</ele>
        <time>2021-11-14T10:47:39Z</time>
      </trkpt>
      <trkpt lat="43.06773" lon="5.86623">
        <ele>62.82421875</ele>
        <time>2021-11-14T10:47:40Z</time>
      </trkpt>
      <trkpt lat="43.06777" lon="5.86621">
        <ele>62.61328125</ele>
        <time>2021-11-14T10:47:41Z</time>
      </trkpt>
      <trkpt lat="43.06781" lon="5.86619">
        <ele>62.25390625</ele>
        <time>2021-11-14T10:47:42Z</time>
      </trkpt>
      <trkpt lat="43.06786" lon="5.86619">
        <ele>61.72265625</ele>
        <time>2021-11-14T10:47:43Z</time>
      </trkpt>
      <trkpt lat="43.06795" lon="5.86619">
        <ele>60.703125</ele>
        <time>2021-11-14T10:47:45Z</time>
      </trkpt>
      <trkpt lat="43.06801" lon="5.86617">
        <ele>60.4140625</ele>
        <time>2021-11-14T10:47:46Z</time>
      </trkpt>
      <trkpt lat="43.06806" lon="5.86613">
        <ele>60.09375</ele>
        <time>2021-11-14T10:47:47Z</time>
      </trkpt>
      <trkpt lat="43.06811" lon="5.86608">
        <ele>59.828125</ele>
        <time>2021-11-14T10:47:48Z</time>
      </trkpt>
      <trkpt lat="43.06816" lon="5.86601">
        <ele>59.484375</ele>
        <time>2021-11-14T10:47:49Z</time>
      </trkpt>
      <trkpt lat="43.0682" lon="5.86593">
        <ele>59.015625</ele>
        <time>2021-11-14T10:47:50Z</time>
      </trkpt>
      <trkpt lat="43.06838" lon="5.8656">
        <ele>58.12109375</ele>
        <time>2021-11-14T10:47:54Z</time>
      </trkpt>
      <trkpt lat="43.06855" lon="5.86529">
        <ele>56.07421875</ele>
        <time>2021-11-14T10:47:58Z</time>
      </trkpt>
      <trkpt lat="43.06865" lon="5.86506">
        <ele>54.9375</ele>
        <time>2021-11-14T10:48:01Z</time>
      </trkpt>
      <trkpt lat="43.06866" lon="5.865">
        <ele>55.23046875</ele>
        <time>2021-11-14T10:48:02Z</time>
      </trkpt>
      <trkpt lat="43.06865" lon="5.86495">
        <ele>55.921875</ele>
        <time>2021-11-14T10:48:03Z</time>
      </trkpt>
      <trkpt lat="43.06863" lon="5.86491">
        <ele>56.609375</ele>
        <time>2021-11-14T10:48:04Z</time>
      </trkpt>
      <trkpt lat="43.06862" lon="5.86489">
        <ele>57.04296875</ele>
        <time>2021-11-14T10:48:05Z</time>
      </trkpt>
      <trkpt lat="43.06862" lon="5.86487">
        <ele>57.32421875</ele>
        <time>2021-11-14T10:48:06Z</time>
      </trkpt>
      <trkpt lat="43.06862" lon="5.86484">
        <ele>57.55859375</ele>
        <time>2021-11-14T10:48:07Z</time>
      </trkpt>
      <trkpt lat="43.06863" lon="5.86481">
        <ele>57.8046875</ele>
        <time>2021-11-14T10:48:08Z</time>
      </trkpt>
      <trkpt lat="43.06863" lon="5.86477">
        <ele>58.2265625</ele>
        <time>2021-11-14T10:48:09Z</time>
      </trkpt>
      <trkpt lat="43.06863" lon="5.86473">
        <ele>58.8125</ele>
        <time>2021-11-14T10:48:10Z</time>
      </trkpt>
      <trkpt lat="43.06863" lon="5.86469">
        <ele>59.265625</ele>
        <time>2021-11-14T10:48:11Z</time>
      </trkpt>
      <trkpt lat="43.06865" lon="5.86466">
        <ele>59.40234375</ele>
        <time>2021-11-14T10:48:12Z</time>
      </trkpt>
      <trkpt lat="43.06868" lon="5.86463">
        <ele>59.1953125</ele>
        <time>2021-11-14T10:48:13Z</time>
      </trkpt>
      <trkpt lat="43.06871" lon="5.86462">
        <ele>58.7265625</ele>
        <time>2021-11-14T10:48:14Z</time>
      </trkpt>
      <trkpt lat="43.06874" lon="5.86461">
        <ele>58.1328125</ele>
        <time>2021-11-14T10:48:15Z</time>
      </trkpt>
      <trkpt lat="43.06877" lon="5.8646">
        <ele>57.640625</ele>
        <time>2021-11-14T10:48:16Z</time>
      </trkpt>
      <trkpt lat="43.06881" lon="5.86459">
        <ele>57.16015625</ele>
        <time>2021-11-14T10:48:17Z</time>
      </trkpt>
      <trkpt lat="43.06909" lon="5.86447">
        <ele>54.390625</ele>
        <time>2021-11-14T10:48:25Z</time>
      </trkpt>
      <trkpt lat="43.06952" lon="5.86407">
        <ele>55.55859375</ele>
        <time>2021-11-14T10:48:38Z</time>
      </trkpt>
      <trkpt lat="43.06971" lon="5.8637">
        <ele>58.28515625</ele>
        <time>2021-11-14T10:48:49Z</time>
      </trkpt>
      <trkpt lat="43.06975" lon="5.86314">
        <ele>62.9375</ele>
        <time>2021-11-14T10:49:02Z</time>
      </trkpt>
      <trkpt lat="43.06978" lon="5.86273">
        <ele>64.82421875</ele>
        <time>2021-11-14T10:49:13Z</time>
      </trkpt>
      <trkpt lat="43.0695" lon="5.8622">
        <ele>74.578125</ele>
        <time>2021-11-14T10:49:29Z</time>
      </trkpt>
      <trkpt lat="43.06927" lon="5.86183">
        <ele>77.8125</ele>
        <time>2021-11-14T10:49:42Z</time>
      </trkpt>
      <trkpt lat="43.06907" lon="5.86136">
        <ele>79.7421875</ele>
        <time>2021-11-14T10:49:55Z</time>
      </trkpt>
      <trkpt lat="43.06898" lon="5.86128">
        <ele>81.83984375</ele>
        <time>2021-11-14T10:49:58Z</time>
      </trkpt>
      <trkpt lat="43.06853" lon="5.86093">
        <ele>88.875</ele>
        <time>2021-11-14T10:50:11Z</time>
      </trkpt>
      <trkpt lat="43.06826" lon="5.86074">
        <ele>90.546875</ele>
        <time>2021-11-14T10:50:19Z</time>
      </trkpt>
      <trkpt lat="43.06826" lon="5.86068">
        <ele>89.60546875</ele>
        <time>2021-11-14T10:50:20Z</time>
      </trkpt>
      <trkpt lat="43.06828" lon="5.86062">
        <ele>88.34765625</ele>
        <time>2021-11-14T10:50:21Z</time>
      </trkpt>
      <trkpt lat="43.06831" lon="5.86059">
        <ele>87.33203125</ele>
        <time>2021-11-14T10:50:22Z</time>
      </trkpt>
      <trkpt lat="43.06835" lon="5.86057">
        <ele>86.64453125</ele>
        <time>2021-11-14T10:50:23Z</time>
      </trkpt>
      <trkpt lat="43.06839" lon="5.86056">
        <ele>86.015625</ele>
        <time>2021-11-14T10:50:24Z</time>
      </trkpt>
      <trkpt lat="43.06887" lon="5.86022">
        <ele>81.515625</ele>
        <time>2021-11-14T10:50:38Z</time>
      </trkpt>
      <trkpt lat="43.06893" lon="5.8597">
        <ele>92.0625</ele>
        <time>2021-11-14T10:50:49Z</time>
      </trkpt>
      <trkpt lat="43.06895" lon="5.85968">
        <ele>92.328125</ele>
        <time>2021-11-14T10:50:50Z</time>
      </trkpt>
      <trkpt lat="43.06898" lon="5.85967">
        <ele>92.14453125</ele>
        <time>2021-11-14T10:50:51Z</time>
      </trkpt>
      <trkpt lat="43.06902" lon="5.85968">
        <ele>91.7265625</ele>
        <time>2021-11-14T10:50:52Z</time>
      </trkpt>
      <trkpt lat="43.06905" lon="5.85968">
        <ele>91.5390625</ele>
        <time>2021-11-14T10:50:53Z</time>
      </trkpt>
      <trkpt lat="43.06908" lon="5.8597">
        <ele>91.68359375</ele>
        <time>2021-11-14T10:50:54Z</time>
      </trkpt>
      <trkpt lat="43.06911" lon="5.85973">
        <ele>91.734375</ele>
        <time>2021-11-14T10:50:55Z</time>
      </trkpt>
      <trkpt lat="43.06967" lon="5.86006">
        <ele>91.16015625</ele>
        <time>2021-11-14T10:51:10Z</time>
      </trkpt>
      <trkpt lat="43.07006" lon="5.86008">
        <ele>93.8125</ele>
        <time>2021-11-14T10:51:20Z</time>
      </trkpt>
      <trkpt lat="43.0701" lon="5.86008">
        <ele>93.94140625</ele>
        <time>2021-11-14T10:51:21Z</time>
      </trkpt>
      <trkpt lat="43.07014" lon="5.86009">
        <ele>93.9375</ele>
        <time>2021-11-14T10:51:22Z</time>
      </trkpt>
      <trkpt lat="43.07018" lon="5.8601">
        <ele>93.6484375</ele>
        <time>2021-11-14T10:51:23Z</time>
      </trkpt>
      <trkpt lat="43.07022" lon="5.86011">
        <ele>93.29296875</ele>
        <time>2021-11-14T10:51:24Z</time>
      </trkpt>
      <trkpt lat="43.07027" lon="5.86014">
        <ele>92.8203125</ele>
        <time>2021-11-14T10:51:25Z</time>
      </trkpt>
      <trkpt lat="43.07066" lon="5.86018">
        <ele>88.5859375</ele>
        <time>2021-11-14T10:51:37Z</time>
      </trkpt>
      <trkpt lat="43.07075" lon="5.8596">
        <ele>92.88671875</ele>
        <time>2021-11-14T10:51:50Z</time>
      </trkpt>
      <trkpt lat="43.07087" lon="5.85894">
        <ele>92.7890625</ele>
        <time>2021-11-14T10:52:03Z</time>
      </trkpt>
      <trkpt lat="43.07089" lon="5.85875">
        <ele>92.203125</ele>
        <time>2021-11-14T10:52:12Z</time>
      </trkpt>
      <trkpt lat="43.07091" lon="5.85879">
        <ele>91.74609375</ele>
        <time>2021-11-14T10:52:27Z</time>
      </trkpt>
      <trkpt lat="43.07091" lon="5.85876">
        <ele>91.875</ele>
        <time>2021-11-14T10:52:40Z</time>
      </trkpt>
      <trkpt lat="43.07092" lon="5.85875">
        <ele>91.578125</ele>
        <time>2021-11-14T10:52:41Z</time>
      </trkpt>
      <trkpt lat="43.07107" lon="5.85859">
        <ele>88.06640625</ele>
        <time>2021-11-14T10:52:46Z</time>
      </trkpt>
      <trkpt lat="43.07113" lon="5.85845">
        <ele>86.80078125</ele>
        <time>2021-11-14T10:52:48Z</time>
      </trkpt>
      <trkpt lat="43.07121" lon="5.85832">
        <ele>84.9296875</ele>
        <time>2021-11-14T10:52:50Z</time>
      </trkpt>
      <trkpt lat="43.07126" lon="5.85825">
        <ele>83.921875</ele>
        <time>2021-11-14T10:52:51Z</time>
      </trkpt>
      <trkpt lat="43.0713" lon="5.8582">
        <ele>83.41796875</ele>
        <time>2021-11-14T10:52:52Z</time>
      </trkpt>
      <trkpt lat="43.07132" lon="5.85814">
        <ele>83.109375</ele>
        <time>2021-11-14T10:52:53Z</time>
      </trkpt>
      <trkpt lat="43.07134" lon="5.85808">
        <ele>82.765625</ele>
        <time>2021-11-14T10:52:54Z</time>
      </trkpt>
      <trkpt lat="43.07137" lon="5.85802">
        <ele>82.16796875</ele>
        <time>2021-11-14T10:52:55Z</time>
      </trkpt>
      <trkpt lat="43.0714" lon="5.85796">
        <ele>81.4921875</ele>
        <time>2021-11-14T10:52:56Z</time>
      </trkpt>
      <trkpt lat="43.07143" lon="5.85791">
        <ele>80.82421875</ele>
        <time>2021-11-14T10:52:57Z</time>
      </trkpt>
      <trkpt lat="43.07146" lon="5.85785">
        <ele>80.23828125</ele>
        <time>2021-11-14T10:52:58Z</time>
      </trkpt>
      <trkpt lat="43.07148" lon="5.8578">
        <ele>79.8046875</ele>
        <time>2021-11-14T10:52:59Z</time>
      </trkpt>
      <trkpt lat="43.07152" lon="5.85769">
        <ele>79.18359375</ele>
        <time>2021-11-14T10:53:01Z</time>
      </trkpt>
      <trkpt lat="43.07156" lon="5.85755">
        <ele>78.78125</ele>
        <time>2021-11-14T10:53:06Z</time>
      </trkpt>
      <trkpt lat="43.07158" lon="5.85754">
        <ele>78.703125</ele>
        <time>2021-11-14T10:53:07Z</time>
      </trkpt>
      <trkpt lat="43.07159" lon="5.85752">
        <ele>78.609375</ele>
        <time>2021-11-14T10:53:08Z</time>
      </trkpt>
      <trkpt lat="43.0716" lon="5.85751">
        <ele>78.5078125</ele>
        <time>2021-11-14T10:53:09Z</time>
      </trkpt>
      <trkpt lat="43.07161" lon="5.8575">
        <ele>78.390625</ele>
        <time>2021-11-14T10:53:10Z</time>
      </trkpt>
      <trkpt lat="43.07163" lon="5.85748">
        <ele>78.22265625</ele>
        <time>2021-11-14T10:53:18Z</time>
      </trkpt>
      <trkpt lat="43.07163" lon="5.85746">
        <ele>78.1953125</ele>
        <time>2021-11-14T10:53:19Z</time>
      </trkpt>
      <trkpt lat="43.07164" lon="5.85744">
        <ele>78.1171875</ele>
        <time>2021-11-14T10:53:20Z</time>
      </trkpt>
      <trkpt lat="43.07165" lon="5.85742">
        <ele>77.984375</ele>
        <time>2021-11-14T10:53:21Z</time>
      </trkpt>
      <trkpt lat="43.07167" lon="5.85741">
        <ele>77.80078125</ele>
        <time>2021-11-14T10:53:22Z</time>
      </trkpt>
      <trkpt lat="43.07168" lon="5.8574">
        <ele>77.6484375</ele>
        <time>2021-11-14T10:53:23Z</time>
      </trkpt>
      <trkpt lat="43.0717" lon="5.85738">
        <ele>77.484375</ele>
        <time>2021-11-14T10:53:24Z</time>
      </trkpt>
      <trkpt lat="43.07175" lon="5.85731">
        <ele>76.82421875</ele>
        <time>2021-11-14T10:53:27Z</time>
      </trkpt>
      <trkpt lat="43.07175" lon="5.85728">
        <ele>76.73828125</ele>
        <time>2021-11-14T10:53:28Z</time>
      </trkpt>
      <trkpt lat="43.07175" lon="5.85726">
        <ele>76.68359375</ele>
        <time>2021-11-14T10:53:29Z</time>
      </trkpt>
      <trkpt lat="43.07174" lon="5.85723">
        <ele>76.71875</ele>
        <time>2021-11-14T10:53:30Z</time>
      </trkpt>
      <trkpt lat="43.07173" lon="5.85721">
        <ele>76.8046875</ele>
        <time>2021-11-14T10:53:31Z</time>
      </trkpt>
      <trkpt lat="43.07168" lon="5.85712">
        <ele>77.16015625</ele>
        <time>2021-11-14T10:53:36Z</time>
      </trkpt>
      <trkpt lat="43.07169" lon="5.85708">
        <ele>77.046875</ele>
        <time>2021-11-14T10:53:37Z</time>
      </trkpt>
      <trkpt lat="43.07168" lon="5.85691">
        <ele>76.92578125</ele>
        <time>2021-11-14T10:53:41Z</time>
      </trkpt>
      <trkpt lat="43.07166" lon="5.85689">
        <ele>77.09765625</ele>
        <time>2021-11-14T10:53:42Z</time>
      </trkpt>
      <trkpt lat="43.07162" lon="5.85683">
        <ele>77.359375</ele>
        <time>2021-11-14T10:53:45Z</time>
      </trkpt>
      <trkpt lat="43.07162" lon="5.85679">
        <ele>77.37890625</ele>
        <time>2021-11-14T10:53:46Z</time>
      </trkpt>
      <trkpt lat="43.07162" lon="5.85675">
        <ele>77.40234375</ele>
        <time>2021-11-14T10:53:47Z</time>
      </trkpt>
      <trkpt lat="43.07158" lon="5.85629">
        <ele>77.6484375</ele>
        <time>2021-11-14T10:53:57Z</time>
      </trkpt>
      <trkpt lat="43.07157" lon="5.85626">
        <ele>77.75</ele>
        <time>2021-11-14T10:53:58Z</time>
      </trkpt>
      <trkpt lat="43.07156" lon="5.85621">
        <ele>77.84375</ele>
        <time>2021-11-14T10:53:59Z</time>
      </trkpt>
      <trkpt lat="43.07155" lon="5.85616">
        <ele>77.90234375</ele>
        <time>2021-11-14T10:54:00Z</time>
      </trkpt>
      <trkpt lat="43.07155" lon="5.8561">
        <ele>77.91015625</ele>
        <time>2021-11-14T10:54:01Z</time>
      </trkpt>
      <trkpt lat="43.07155" lon="5.85605">
        <ele>77.8828125</ele>
        <time>2021-11-14T10:54:02Z</time>
      </trkpt>
      <trkpt lat="43.07155" lon="5.85601">
        <ele>77.86328125</ele>
        <time>2021-11-14T10:54:03Z</time>
      </trkpt>
      <trkpt lat="43.07154" lon="5.8559">
        <ele>77.94921875</ele>
        <time>2021-11-14T10:54:13Z</time>
      </trkpt>
      <trkpt lat="43.07156" lon="5.85582">
        <ele>77.8046875</ele>
        <time>2021-11-14T10:54:22Z</time>
      </trkpt>
      <trkpt lat="43.07155" lon="5.8558">
        <ele>77.87109375</ele>
        <time>2021-11-14T10:54:23Z</time>
      </trkpt>
      <trkpt lat="43.07141" lon="5.85565">
        <ele>78.91796875</ele>
        <time>2021-11-14T10:54:34Z</time>
      </trkpt>
      <trkpt lat="43.07132" lon="5.85531">
        <ele>79.30078125</ele>
        <time>2021-11-14T10:54:47Z</time>
      </trkpt>
      <trkpt lat="43.07136" lon="5.85482">
        <ele>77.8828125</ele>
        <time>2021-11-14T10:55:00Z</time>
      </trkpt>
      <trkpt lat="43.07138" lon="5.85475">
        <ele>77.66796875</ele>
        <time>2021-11-14T10:55:02Z</time>
      </trkpt>
      <trkpt lat="43.0714" lon="5.85472">
        <ele>77.35546875</ele>
        <time>2021-11-14T10:55:03Z</time>
      </trkpt>
      <trkpt lat="43.07143" lon="5.8547">
        <ele>77.015625</ele>
        <time>2021-11-14T10:55:04Z</time>
      </trkpt>
      <trkpt lat="43.07146" lon="5.85469">
        <ele>76.69140625</ele>
        <time>2021-11-14T10:55:05Z</time>
      </trkpt>
      <trkpt lat="43.0715" lon="5.8547">
        <ele>76.3828125</ele>
        <time>2021-11-14T10:55:06Z</time>
      </trkpt>
      <trkpt lat="43.07153" lon="5.85471">
        <ele>76.0546875</ele>
        <time>2021-11-14T10:55:07Z</time>
      </trkpt>
      <trkpt lat="43.07168" lon="5.85482">
        <ele>74.9609375</ele>
        <time>2021-11-14T10:55:11Z</time>
      </trkpt>
      <trkpt lat="43.07172" lon="5.85485">
        <ele>74.69921875</ele>
        <time>2021-11-14T10:55:12Z</time>
      </trkpt>
      <trkpt lat="43.07175" lon="5.8549">
        <ele>74.421875</ele>
        <time>2021-11-14T10:55:13Z</time>
      </trkpt>
      <trkpt lat="43.07179" lon="5.85493">
        <ele>74.1796875</ele>
        <time>2021-11-14T10:55:14Z</time>
      </trkpt>
      <trkpt lat="43.07182" lon="5.85496">
        <ele>73.94140625</ele>
        <time>2021-11-14T10:55:15Z</time>
      </trkpt>
      <trkpt lat="43.07194" lon="5.85509">
        <ele>73.1015625</ele>
        <time>2021-11-14T10:55:19Z</time>
      </trkpt>
      <trkpt lat="43.07225" lon="5.85557">
        <ele>71.1875</ele>
        <time>2021-11-14T10:55:29Z</time>
      </trkpt>
      <trkpt lat="43.07228" lon="5.85565">
        <ele>70.8984375</ele>
        <time>2021-11-14T10:55:30Z</time>
      </trkpt>
      <trkpt lat="43.07241" lon="5.85599">
        <ele>70.34765625</ele>
        <time>2021-11-14T10:55:34Z</time>
      </trkpt>
      <trkpt lat="43.07254" lon="5.85624">
        <ele>70.15625</ele>
        <time>2021-11-14T10:55:37Z</time>
      </trkpt>
      <trkpt lat="43.07273" lon="5.85662">
        <ele>68.67578125</ele>
        <time>2021-11-14T10:55:41Z</time>
      </trkpt>
      <trkpt lat="43.07278" lon="5.85671">
        <ele>68.49609375</ele>
        <time>2021-11-14T10:55:42Z</time>
      </trkpt>
      <trkpt lat="43.07314" lon="5.85718">
        <ele>67</ele>
        <time>2021-11-14T10:55:48Z</time>
      </trkpt>
      <trkpt lat="43.07327" lon="5.85727">
        <ele>66.98046875</ele>
        <time>2021-11-14T10:55:50Z</time>
      </trkpt>
      <trkpt lat="43.07335" lon="5.85728">
        <ele>66.96875</ele>
        <time>2021-11-14T10:55:51Z</time>
      </trkpt>
      <trkpt lat="43.07397" lon="5.85743">
        <ele>69.1796875</ele>
        <time>2021-11-14T10:56:01Z</time>
      </trkpt>
      <trkpt lat="43.07403" lon="5.85744">
        <ele>69.34375</ele>
        <time>2021-11-14T10:56:02Z</time>
      </trkpt>
      <trkpt lat="43.07452" lon="5.85765">
        <ele>70.37890625</ele>
        <time>2021-11-14T10:56:12Z</time>
      </trkpt>
      <trkpt lat="43.0748" lon="5.85796">
        <ele>69.8828125</ele>
        <time>2021-11-14T10:56:19Z</time>
      </trkpt>
      <trkpt lat="43.07488" lon="5.85806">
        <ele>70</ele>
        <time>2021-11-14T10:56:21Z</time>
      </trkpt>
      <trkpt lat="43.07494" lon="5.85816">
        <ele>69.57421875</ele>
        <time>2021-11-14T10:56:23Z</time>
      </trkpt>
      <trkpt lat="43.07498" lon="5.8582">
        <ele>69.23828125</ele>
        <time>2021-11-14T10:56:24Z</time>
      </trkpt>
      <trkpt lat="43.07502" lon="5.85825">
        <ele>68.91015625</ele>
        <time>2021-11-14T10:56:25Z</time>
      </trkpt>
      <trkpt lat="43.07507" lon="5.85828">
        <ele>68.671875</ele>
        <time>2021-11-14T10:56:26Z</time>
      </trkpt>
      <trkpt lat="43.07512" lon="5.85831">
        <ele>68.4609375</ele>
        <time>2021-11-14T10:56:27Z</time>
      </trkpt>
      <trkpt lat="43.07517" lon="5.85834">
        <ele>68.2265625</ele>
        <time>2021-11-14T10:56:28Z</time>
      </trkpt>
      <trkpt lat="43.07537" lon="5.85845">
        <ele>67.73046875</ele>
        <time>2021-11-14T10:56:32Z</time>
      </trkpt>
      <trkpt lat="43.07543" lon="5.85847">
        <ele>67.67578125</ele>
        <time>2021-11-14T10:56:33Z</time>
      </trkpt>
      <trkpt lat="43.07548" lon="5.85849">
        <ele>67.58203125</ele>
        <time>2021-11-14T10:56:34Z</time>
      </trkpt>
      <trkpt lat="43.07551" lon="5.85853">
        <ele>67.4375</ele>
        <time>2021-11-14T10:56:35Z</time>
      </trkpt>
      <trkpt lat="43.07554" lon="5.85856">
        <ele>67.3359375</ele>
        <time>2021-11-14T10:56:36Z</time>
      </trkpt>
      <trkpt lat="43.07558" lon="5.85858">
        <ele>67.265625</ele>
        <time>2021-11-14T10:56:37Z</time>
      </trkpt>
      <trkpt lat="43.07569" lon="5.85865">
        <ele>67</ele>
        <time>2021-11-14T10:56:40Z</time>
      </trkpt>
      <trkpt lat="43.07574" lon="5.85868">
        <ele>66.75390625</ele>
        <time>2021-11-14T10:56:41Z</time>
      </trkpt>
      <trkpt lat="43.07596" lon="5.85883">
        <ele>65.421875</ele>
        <time>2021-11-14T10:56:47Z</time>
      </trkpt>
      <trkpt lat="43.07598" lon="5.85883">
        <ele>65.3359375</ele>
        <time>2021-11-14T10:56:48Z</time>
      </trkpt>
      <trkpt lat="43.07601" lon="5.85884">
        <ele>65.203125</ele>
        <time>2021-11-14T10:56:49Z</time>
      </trkpt>
      <trkpt lat="43.07603" lon="5.85886">
        <ele>65.03515625</ele>
        <time>2021-11-14T10:56:50Z</time>
      </trkpt>
      <trkpt lat="43.07606" lon="5.85888">
        <ele>64.8515625</ele>
        <time>2021-11-14T10:56:51Z</time>
      </trkpt>
      <trkpt lat="43.0761" lon="5.85891">
        <ele>64.6328125</ele>
        <time>2021-11-14T10:56:52Z</time>
      </trkpt>
      <trkpt lat="43.07616" lon="5.85893">
        <ele>64.3515625</ele>
        <time>2021-11-14T10:56:53Z</time>
      </trkpt>
      <trkpt lat="43.0762" lon="5.85897">
        <ele>64.15625</ele>
        <time>2021-11-14T10:56:54Z</time>
      </trkpt>
      <trkpt lat="43.07625" lon="5.85902">
        <ele>64.01953125</ele>
        <time>2021-11-14T10:56:55Z</time>
      </trkpt>
      <trkpt lat="43.07629" lon="5.85906">
        <ele>63.875</ele>
        <time>2021-11-14T10:56:56Z</time>
      </trkpt>
      <trkpt lat="43.07633" lon="5.85909">
        <ele>63.7109375</ele>
        <time>2021-11-14T10:56:57Z</time>
      </trkpt>
      <trkpt lat="43.0764" lon="5.85911">
        <ele>63.48828125</ele>
        <time>2021-11-14T10:56:58Z</time>
      </trkpt>
      <trkpt lat="43.07646" lon="5.85911">
        <ele>63.25390625</ele>
        <time>2021-11-14T10:56:59Z</time>
      </trkpt>
      <trkpt lat="43.07685" lon="5.85924">
        <ele>61.65234375</ele>
        <time>2021-11-14T10:57:04Z</time>
      </trkpt>
      <trkpt lat="43.07782" lon="5.85931">
        <ele>57.76171875</ele>
        <time>2021-11-14T10:57:15Z</time>
      </trkpt>
      <trkpt lat="43.0787" lon="5.85927">
        <ele>55.8359375</ele>
        <time>2021-11-14T10:57:26Z</time>
      </trkpt>
      <trkpt lat="43.07914" lon="5.85925">
        <ele>54.453125</ele>
        <time>2021-11-14T10:57:32Z</time>
      </trkpt>
      <trkpt lat="43.08022" lon="5.85893">
        <ele>51.9921875</ele>
        <time>2021-11-14T10:57:48Z</time>
      </trkpt>
      <trkpt lat="43.08109" lon="5.85878">
        <ele>53</ele>
        <time>2021-11-14T10:58:01Z</time>
      </trkpt>
      <trkpt lat="43.08115" lon="5.85876">
        <ele>53</ele>
        <time>2021-11-14T10:58:02Z</time>
      </trkpt>
      <trkpt lat="43.08121" lon="5.85872">
        <ele>53</ele>
        <time>2021-11-14T10:58:03Z</time>
      </trkpt>
      <trkpt lat="43.08126" lon="5.85868">
        <ele>53</ele>
        <time>2021-11-14T10:58:04Z</time>
      </trkpt>
      <trkpt lat="43.08131" lon="5.85863">
        <ele>53</ele>
        <time>2021-11-14T10:58:05Z</time>
      </trkpt>
      <trkpt lat="43.08193" lon="5.8579">
        <ele>52.5625</ele>
        <time>2021-11-14T10:58:18Z</time>
      </trkpt>
      <trkpt lat="43.08276" lon="5.85691">
        <ele>51</ele>
        <time>2021-11-14T10:58:35Z</time>
      </trkpt>
      <trkpt lat="43.08282" lon="5.85687">
        <ele>51</ele>
        <time>2021-11-14T10:58:36Z</time>
      </trkpt>
      <trkpt lat="43.08288" lon="5.85683">
        <ele>51</ele>
        <time>2021-11-14T10:58:37Z</time>
      </trkpt>
      <trkpt lat="43.08374" lon="5.85658">
        <ele>49</ele>
        <time>2021-11-14T10:58:52Z</time>
      </trkpt>
      <trkpt lat="43.08386" lon="5.85659">
        <ele>48.7890625</ele>
        <time>2021-11-14T10:58:54Z</time>
      </trkpt>
      <trkpt lat="43.08391" lon="5.8566">
        <ele>48.63671875</ele>
        <time>2021-11-14T10:58:55Z</time>
      </trkpt>
      <trkpt lat="43.08397" lon="5.85663">
        <ele>48.42578125</ele>
        <time>2021-11-14T10:58:56Z</time>
      </trkpt>
      <trkpt lat="43.08403" lon="5.85668">
        <ele>48.09765625</ele>
        <time>2021-11-14T10:58:57Z</time>
      </trkpt>
      <trkpt lat="43.08408" lon="5.85675">
        <ele>48</ele>
        <time>2021-11-14T10:58:58Z</time>
      </trkpt>
      <trkpt lat="43.08412" lon="5.85683">
        <ele>48</ele>
        <time>2021-11-14T10:58:59Z</time>
      </trkpt>
      <trkpt lat="43.08416" lon="5.85691">
        <ele>48</ele>
        <time>2021-11-14T10:59:00Z</time>
      </trkpt>
      <trkpt lat="43.0842" lon="5.85699">
        <ele>48</ele>
        <time>2021-11-14T10:59:01Z</time>
      </trkpt>
      <trkpt lat="43.08452" lon="5.85779">
        <ele>47.21484375</ele>
        <time>2021-11-14T10:59:11Z</time>
      </trkpt>
      <trkpt lat="43.08457" lon="5.85785">
        <ele>47.0390625</ele>
        <time>2021-11-14T10:59:12Z</time>
      </trkpt>
      <trkpt lat="43.08483" lon="5.85812">
        <ele>47</ele>
        <time>2021-11-14T10:59:17Z</time>
      </trkpt>
      <trkpt lat="43.08487" lon="5.85819">
        <ele>46.98828125</ele>
        <time>2021-11-14T10:59:18Z</time>
      </trkpt>
      <trkpt lat="43.0849" lon="5.85826">
        <ele>46.9140625</ele>
        <time>2021-11-14T10:59:19Z</time>
      </trkpt>
      <trkpt lat="43.08493" lon="5.85834">
        <ele>46.78515625</ele>
        <time>2021-11-14T10:59:20Z</time>
      </trkpt>
      <trkpt lat="43.08497" lon="5.85839">
        <ele>46.5625</ele>
        <time>2021-11-14T10:59:21Z</time>
      </trkpt>
      <trkpt lat="43.08503" lon="5.85841">
        <ele>46.34765625</ele>
        <time>2021-11-14T10:59:22Z</time>
      </trkpt>
      <trkpt lat="43.08508" lon="5.85839">
        <ele>46.1953125</ele>
        <time>2021-11-14T10:59:23Z</time>
      </trkpt>
      <trkpt lat="43.08512" lon="5.85833">
        <ele>46.21484375</ele>
        <time>2021-11-14T10:59:24Z</time>
      </trkpt>
      <trkpt lat="43.08515" lon="5.85826">
        <ele>46.4453125</ele>
        <time>2021-11-14T10:59:25Z</time>
      </trkpt>
      <trkpt lat="43.08518" lon="5.85818">
        <ele>46.73046875</ele>
        <time>2021-11-14T10:59:26Z</time>
      </trkpt>
      <trkpt lat="43.0852" lon="5.85811">
        <ele>46.95703125</ele>
        <time>2021-11-14T10:59:27Z</time>
      </trkpt>
      <trkpt lat="43.08524" lon="5.85805">
        <ele>47</ele>
        <time>2021-11-14T10:59:28Z</time>
      </trkpt>
      <trkpt lat="43.08528" lon="5.85799">
        <ele>47</ele>
        <time>2021-11-14T10:59:29Z</time>
      </trkpt>
      <trkpt lat="43.08533" lon="5.85793">
        <ele>47</ele>
        <time>2021-11-14T10:59:30Z</time>
      </trkpt>
      <trkpt lat="43.08615" lon="5.85692">
        <ele>46.75</ele>
        <time>2021-11-14T10:59:47Z</time>
      </trkpt>
      <trkpt lat="43.08675" lon="5.85622">
        <ele>45.03125</ele>
        <time>2021-11-14T11:00:00Z</time>
      </trkpt>
      <trkpt lat="43.08721" lon="5.85569">
        <ele>44</ele>
        <time>2021-11-14T11:00:11Z</time>
      </trkpt>
      <trkpt lat="43.08725" lon="5.85569">
        <ele>44</ele>
        <time>2021-11-14T11:00:12Z</time>
      </trkpt>
      <trkpt lat="43.08729" lon="5.85571">
        <ele>44</ele>
        <time>2021-11-14T11:00:13Z</time>
      </trkpt>
      <trkpt lat="43.08733" lon="5.85575">
        <ele>44</ele>
        <time>2021-11-14T11:00:14Z</time>
      </trkpt>
      <trkpt lat="43.08738" lon="5.8558">
        <ele>44</ele>
        <time>2021-11-14T11:00:15Z</time>
      </trkpt>
      <trkpt lat="43.08742" lon="5.85585">
        <ele>44</ele>
        <time>2021-11-14T11:00:16Z</time>
      </trkpt>
      <trkpt lat="43.08746" lon="5.85591">
        <ele>44</ele>
        <time>2021-11-14T11:00:17Z</time>
      </trkpt>
      <trkpt lat="43.0875" lon="5.85597">
        <ele>44</ele>
        <time>2021-11-14T11:00:18Z</time>
      </trkpt>
      <trkpt lat="43.08755" lon="5.85603">
        <ele>44</ele>
        <time>2021-11-14T11:00:19Z</time>
      </trkpt>
      <trkpt lat="43.0876" lon="5.85608">
        <ele>44</ele>
        <time>2021-11-14T11:00:20Z</time>
      </trkpt>
      <trkpt lat="43.08765" lon="5.85613">
        <ele>44.03515625</ele>
        <time>2021-11-14T11:00:21Z</time>
      </trkpt>
      <trkpt lat="43.088" lon="5.85649">
        <ele>46.53125</ele>
        <time>2021-11-14T11:00:28Z</time>
      </trkpt>
      <trkpt lat="43.08808" lon="5.8566">
        <ele>47.21484375</ele>
        <time>2021-11-14T11:00:30Z</time>
      </trkpt>
      <trkpt lat="43.08848" lon="5.85695">
        <ele>49.89453125</ele>
        <time>2021-11-14T11:00:39Z</time>
      </trkpt>
      <trkpt lat="43.08857" lon="5.85702">
        <ele>50.43359375</ele>
        <time>2021-11-14T11:00:41Z</time>
      </trkpt>
      <trkpt lat="43.08873" lon="5.8572">
        <ele>50.984375</ele>
        <time>2021-11-14T11:00:45Z</time>
      </trkpt>
      <trkpt lat="43.08876" lon="5.85726">
        <ele>50.95703125</ele>
        <time>2021-11-14T11:00:46Z</time>
      </trkpt>
      <trkpt lat="43.08881" lon="5.85738">
        <ele>50.76171875</ele>
        <time>2021-11-14T11:00:48Z</time>
      </trkpt>
      <trkpt lat="43.08883" lon="5.85745">
        <ele>50.68359375</ele>
        <time>2021-11-14T11:00:49Z</time>
      </trkpt>
      <trkpt lat="43.08887" lon="5.8576">
        <ele>50.45703125</ele>
        <time>2021-11-14T11:00:51Z</time>
      </trkpt>
      <trkpt lat="43.08887" lon="5.85769">
        <ele>50.328125</ele>
        <time>2021-11-14T11:00:52Z</time>
      </trkpt>
      <trkpt lat="43.08886" lon="5.85777">
        <ele>50.26171875</ele>
        <time>2021-11-14T11:00:53Z</time>
      </trkpt>
      <trkpt lat="43.08868" lon="5.85908">
        <ele>53.2421875</ele>
        <time>2021-11-14T11:01:09Z</time>
      </trkpt>
      <trkpt lat="43.08867" lon="5.85915">
        <ele>53.2578125</ele>
        <time>2021-11-14T11:01:10Z</time>
      </trkpt>
      <trkpt lat="43.08861" lon="5.8602">
        <ele>53.390625</ele>
        <time>2021-11-14T11:01:24Z</time>
      </trkpt>
      <trkpt lat="43.08851" lon="5.8614">
        <ele>52.92578125</ele>
        <time>2021-11-14T11:01:38Z</time>
      </trkpt>
      <trkpt lat="43.08847" lon="5.86258">
        <ele>52.99609375</ele>
        <time>2021-11-14T11:01:52Z</time>
      </trkpt>
      <trkpt lat="43.08849" lon="5.86355">
        <ele>55.0546875</ele>
        <time>2021-11-14T11:02:04Z</time>
      </trkpt>
      <trkpt lat="43.0885" lon="5.86364">
        <ele>55.12109375</ele>
        <time>2021-11-14T11:02:05Z</time>
      </trkpt>
      <trkpt lat="43.08852" lon="5.86372">
        <ele>55.19921875</ele>
        <time>2021-11-14T11:02:06Z</time>
      </trkpt>
      <trkpt lat="43.0886" lon="5.86399">
        <ele>55.46875</ele>
        <time>2021-11-14T11:02:09Z</time>
      </trkpt>
      <trkpt lat="43.08885" lon="5.86456">
        <ele>57.8125</ele>
        <time>2021-11-14T11:02:17Z</time>
      </trkpt>
      <trkpt lat="43.08888" lon="5.86462">
        <ele>58.2421875</ele>
        <time>2021-11-14T11:02:18Z</time>
      </trkpt>
      <trkpt lat="43.08893" lon="5.86467">
        <ele>58.7578125</ele>
        <time>2021-11-14T11:02:19Z</time>
      </trkpt>
      <trkpt lat="43.08897" lon="5.8647">
        <ele>59.30078125</ele>
        <time>2021-11-14T11:02:20Z</time>
      </trkpt>
      <trkpt lat="43.08902" lon="5.86474">
        <ele>59.9296875</ele>
        <time>2021-11-14T11:02:21Z</time>
      </trkpt>
      <trkpt lat="43.08908" lon="5.86478">
        <ele>60.4140625</ele>
        <time>2021-11-14T11:02:22Z</time>
      </trkpt>
      <trkpt lat="43.08913" lon="5.86482">
        <ele>60.91015625</ele>
        <time>2021-11-14T11:02:23Z</time>
      </trkpt>
      <trkpt lat="43.08916" lon="5.86488">
        <ele>61.42578125</ele>
        <time>2021-11-14T11:02:24Z</time>
      </trkpt>
      <trkpt lat="43.08918" lon="5.86495">
        <ele>61.91015625</ele>
        <time>2021-11-14T11:02:25Z</time>
      </trkpt>
      <trkpt lat="43.0892" lon="5.86502">
        <ele>62.4296875</ele>
        <time>2021-11-14T11:02:26Z</time>
      </trkpt>
      <trkpt lat="43.08931" lon="5.86564">
        <ele>66.296875</ele>
        <time>2021-11-14T11:02:34Z</time>
      </trkpt>
      <trkpt lat="43.08932" lon="5.86572">
        <ele>66.63671875</ele>
        <time>2021-11-14T11:02:35Z</time>
      </trkpt>
      <trkpt lat="43.08932" lon="5.86588">
        <ele>67.22265625</ele>
        <time>2021-11-14T11:02:37Z</time>
      </trkpt>
      <trkpt lat="43.08931" lon="5.86596">
        <ele>67.37890625</ele>
        <time>2021-11-14T11:02:38Z</time>
      </trkpt>
      <trkpt lat="43.08926" lon="5.86627">
        <ele>67.91796875</ele>
        <time>2021-11-14T11:02:42Z</time>
      </trkpt>
      <trkpt lat="43.08923" lon="5.86705">
        <ele>70.328125</ele>
        <time>2021-11-14T11:02:52Z</time>
      </trkpt>
      <trkpt lat="43.08925" lon="5.86786">
        <ele>70.51171875</ele>
        <time>2021-11-14T11:03:03Z</time>
      </trkpt>
      <trkpt lat="43.08929" lon="5.86814">
        <ele>69.80859375</ele>
        <time>2021-11-14T11:03:07Z</time>
      </trkpt>
      <trkpt lat="43.08933" lon="5.86826">
        <ele>69.3046875</ele>
        <time>2021-11-14T11:03:09Z</time>
      </trkpt>
      <trkpt lat="43.08937" lon="5.86836">
        <ele>68.7734375</ele>
        <time>2021-11-14T11:03:11Z</time>
      </trkpt>
      <trkpt lat="43.08947" lon="5.86856">
        <ele>66.66015625</ele>
        <time>2021-11-14T11:03:15Z</time>
      </trkpt>
      <trkpt lat="43.08951" lon="5.86858">
        <ele>66.2109375</ele>
        <time>2021-11-14T11:03:16Z</time>
      </trkpt>
      <trkpt lat="43.08956" lon="5.86856">
        <ele>66.09375</ele>
        <time>2021-11-14T11:03:17Z</time>
      </trkpt>
      <trkpt lat="43.0896" lon="5.86852">
        <ele>66.26953125</ele>
        <time>2021-11-14T11:03:18Z</time>
      </trkpt>
      <trkpt lat="43.08964" lon="5.86848">
        <ele>66.4765625</ele>
        <time>2021-11-14T11:03:19Z</time>
      </trkpt>
      <trkpt lat="43.08968" lon="5.86843">
        <ele>66.65625</ele>
        <time>2021-11-14T11:03:20Z</time>
      </trkpt>
      <trkpt lat="43.08971" lon="5.8684">
        <ele>66.80859375</ele>
        <time>2021-11-14T11:03:21Z</time>
      </trkpt>
      <trkpt lat="43.08974" lon="5.86835">
        <ele>66.93359375</ele>
        <time>2021-11-14T11:03:22Z</time>
      </trkpt>
      <trkpt lat="43.08993" lon="5.86791">
        <ele>68.52734375</ele>
        <time>2021-11-14T11:03:30Z</time>
      </trkpt>
      <trkpt lat="43.08994" lon="5.86785">
        <ele>68.79296875</ele>
        <time>2021-11-14T11:03:31Z</time>
      </trkpt>
      <trkpt lat="43.08991" lon="5.86724">
        <ele>70.578125</ele>
        <time>2021-11-14T11:03:42Z</time>
      </trkpt>
      <trkpt lat="43.08993" lon="5.86676">
        <ele>69.4375</ele>
        <time>2021-11-14T11:03:47Z</time>
      </trkpt>
      <trkpt lat="43.08998" lon="5.86647">
        <ele>68.28515625</ele>
        <time>2021-11-14T11:03:50Z</time>
      </trkpt>
      <trkpt lat="43.09001" lon="5.86638">
        <ele>67.91015625</ele>
        <time>2021-11-14T11:03:51Z</time>
      </trkpt>
      <trkpt lat="43.09004" lon="5.8663">
        <ele>67.66796875</ele>
        <time>2021-11-14T11:03:52Z</time>
      </trkpt>
      <trkpt lat="43.09007" lon="5.86623">
        <ele>67.42578125</ele>
        <time>2021-11-14T11:03:53Z</time>
      </trkpt>
      <trkpt lat="43.09011" lon="5.86617">
        <ele>67.19921875</ele>
        <time>2021-11-14T11:03:54Z</time>
      </trkpt>
      <trkpt lat="43.09018" lon="5.86607">
        <ele>66.7109375</ele>
        <time>2021-11-14T11:03:56Z</time>
      </trkpt>
      <trkpt lat="43.09021" lon="5.86604">
        <ele>66.4296875</ele>
        <time>2021-11-14T11:03:57Z</time>
      </trkpt>
      <trkpt lat="43.0906" lon="5.86553">
        <ele>64.38671875</ele>
        <time>2021-11-14T11:04:08Z</time>
      </trkpt>
      <trkpt lat="43.09065" lon="5.86545">
        <ele>63.81640625</ele>
        <time>2021-11-14T11:04:09Z</time>
      </trkpt>
      <trkpt lat="43.09072" lon="5.86537">
        <ele>63.28515625</ele>
        <time>2021-11-14T11:04:10Z</time>
      </trkpt>
      <trkpt lat="43.09079" lon="5.86531">
        <ele>62.98046875</ele>
        <time>2021-11-14T11:04:11Z</time>
      </trkpt>
      <trkpt lat="43.09087" lon="5.86525">
        <ele>62.5390625</ele>
        <time>2021-11-14T11:04:12Z</time>
      </trkpt>
      <trkpt lat="43.09095" lon="5.86519">
        <ele>62.07421875</ele>
        <time>2021-11-14T11:04:13Z</time>
      </trkpt>
      <trkpt lat="43.09125" lon="5.86492">
        <ele>60.36328125</ele>
        <time>2021-11-14T11:04:17Z</time>
      </trkpt>
      <trkpt lat="43.09146" lon="5.8647">
        <ele>59.06640625</ele>
        <time>2021-11-14T11:04:20Z</time>
      </trkpt>
      <trkpt lat="43.09169" lon="5.86445">
        <ele>58.421875</ele>
        <time>2021-11-14T11:04:23Z</time>
      </trkpt>
      <trkpt lat="43.09176" lon="5.86436">
        <ele>58.25390625</ele>
        <time>2021-11-14T11:04:24Z</time>
      </trkpt>
      <trkpt lat="43.09217" lon="5.86382">
        <ele>58.71875</ele>
        <time>2021-11-14T11:04:32Z</time>
      </trkpt>
      <trkpt lat="43.09221" lon="5.86379">
        <ele>58.5546875</ele>
        <time>2021-11-14T11:04:33Z</time>
      </trkpt>
      <trkpt lat="43.09226" lon="5.86379">
        <ele>58.1953125</ele>
        <time>2021-11-14T11:04:34Z</time>
      </trkpt>
      <trkpt lat="43.09232" lon="5.86384">
        <ele>57.6171875</ele>
        <time>2021-11-14T11:04:35Z</time>
      </trkpt>
      <trkpt lat="43.09237" lon="5.8639">
        <ele>56.90625</ele>
        <time>2021-11-14T11:04:36Z</time>
      </trkpt>
      <trkpt lat="43.09243" lon="5.86398">
        <ele>56.08203125</ele>
        <time>2021-11-14T11:04:37Z</time>
      </trkpt>
      <trkpt lat="43.09253" lon="5.86413">
        <ele>54.80078125</ele>
        <time>2021-11-14T11:04:39Z</time>
      </trkpt>
      <trkpt lat="43.09261" lon="5.86427">
        <ele>54.13671875</ele>
        <time>2021-11-14T11:04:41Z</time>
      </trkpt>
      <trkpt lat="43.09263" lon="5.86434">
        <ele>54.0078125</ele>
        <time>2021-11-14T11:04:42Z</time>
      </trkpt>
      <trkpt lat="43.09264" lon="5.86442">
        <ele>53.9296875</ele>
        <time>2021-11-14T11:04:43Z</time>
      </trkpt>
      <trkpt lat="43.09265" lon="5.86449">
        <ele>53.86328125</ele>
        <time>2021-11-14T11:04:44Z</time>
      </trkpt>
      <trkpt lat="43.09267" lon="5.86456">
        <ele>53.7421875</ele>
        <time>2021-11-14T11:04:45Z</time>
      </trkpt>
      <trkpt lat="43.09269" lon="5.86463">
        <ele>53.5625</ele>
        <time>2021-11-14T11:04:46Z</time>
      </trkpt>
      <trkpt lat="43.09272" lon="5.8647">
        <ele>53.375</ele>
        <time>2021-11-14T11:04:47Z</time>
      </trkpt>
      <trkpt lat="43.09275" lon="5.86476">
        <ele>53.15625</ele>
        <time>2021-11-14T11:04:48Z</time>
      </trkpt>
      <trkpt lat="43.09282" lon="5.8649">
        <ele>52.640625</ele>
        <time>2021-11-14T11:04:50Z</time>
      </trkpt>
      <trkpt lat="43.09285" lon="5.86498">
        <ele>52.4296875</ele>
        <time>2021-11-14T11:04:51Z</time>
      </trkpt>
      <trkpt lat="43.09287" lon="5.86507">
        <ele>52.26953125</ele>
        <time>2021-11-14T11:04:52Z</time>
      </trkpt>
      <trkpt lat="43.09288" lon="5.86517">
        <ele>52.15625</ele>
        <time>2021-11-14T11:04:53Z</time>
      </trkpt>
      <trkpt lat="43.09289" lon="5.86527">
        <ele>52.08984375</ele>
        <time>2021-11-14T11:04:54Z</time>
      </trkpt>
      <trkpt lat="43.09289" lon="5.86537">
        <ele>52.234375</ele>
        <time>2021-11-14T11:04:55Z</time>
      </trkpt>
      <trkpt lat="43.09289" lon="5.86547">
        <ele>52.56640625</ele>
        <time>2021-11-14T11:04:56Z</time>
      </trkpt>
      <trkpt lat="43.09286" lon="5.866">
        <ele>52.75</ele>
        <time>2021-11-14T11:05:01Z</time>
      </trkpt>
      <trkpt lat="43.09285" lon="5.86612">
        <ele>52.62109375</ele>
        <time>2021-11-14T11:05:02Z</time>
      </trkpt>
      <trkpt lat="43.09285" lon="5.86623">
        <ele>52.52734375</ele>
        <time>2021-11-14T11:05:03Z</time>
      </trkpt>
      <trkpt lat="43.09286" lon="5.86635">
        <ele>52.546875</ele>
        <time>2021-11-14T11:05:04Z</time>
      </trkpt>
      <trkpt lat="43.09289" lon="5.86645">
        <ele>52.6796875</ele>
        <time>2021-11-14T11:05:05Z</time>
      </trkpt>
      <trkpt lat="43.09293" lon="5.86655">
        <ele>52.80078125</ele>
        <time>2021-11-14T11:05:06Z</time>
      </trkpt>
      <trkpt lat="43.09298" lon="5.86663">
        <ele>53.046875</ele>
        <time>2021-11-14T11:05:07Z</time>
      </trkpt>
      <trkpt lat="43.09313" lon="5.8669">
        <ele>53.62890625</ele>
        <time>2021-11-14T11:05:10Z</time>
      </trkpt>
      <trkpt lat="43.09316" lon="5.867">
        <ele>53.54296875</ele>
        <time>2021-11-14T11:05:11Z</time>
      </trkpt>
      <trkpt lat="43.0932" lon="5.8671">
        <ele>52.890625</ele>
        <time>2021-11-14T11:05:12Z</time>
      </trkpt>
      <trkpt lat="43.09324" lon="5.86719">
        <ele>52.484375</ele>
        <time>2021-11-14T11:05:13Z</time>
      </trkpt>
      <trkpt lat="43.09328" lon="5.86727">
        <ele>52.2265625</ele>
        <time>2021-11-14T11:05:14Z</time>
      </trkpt>
      <trkpt lat="43.09333" lon="5.86734">
        <ele>52.09765625</ele>
        <time>2021-11-14T11:05:15Z</time>
      </trkpt>
      <trkpt lat="43.09339" lon="5.8674">
        <ele>52.015625</ele>
        <time>2021-11-14T11:05:16Z</time>
      </trkpt>
      <trkpt lat="43.09345" lon="5.86746">
        <ele>51.9140625</ele>
        <time>2021-11-14T11:05:17Z</time>
      </trkpt>
      <trkpt lat="43.09374" lon="5.86774">
        <ele>50.28515625</ele>
        <time>2021-11-14T11:05:22Z</time>
      </trkpt>
      <trkpt lat="43.09383" lon="5.86787">
        <ele>48.7734375</ele>
        <time>2021-11-14T11:05:24Z</time>
      </trkpt>
      <trkpt lat="43.09386" lon="5.86794">
        <ele>47.859375</ele>
        <time>2021-11-14T11:05:25Z</time>
      </trkpt>
      <trkpt lat="43.09389" lon="5.86802">
        <ele>46.69140625</ele>
        <time>2021-11-14T11:05:26Z</time>
      </trkpt>
      <trkpt lat="43.09391" lon="5.86811">
        <ele>45.25390625</ele>
        <time>2021-11-14T11:05:27Z</time>
      </trkpt>
      <trkpt lat="43.09392" lon="5.86821">
        <ele>43.6640625</ele>
        <time>2021-11-14T11:05:28Z</time>
      </trkpt>
      <trkpt lat="43.09393" lon="5.86831">
        <ele>42.03125</ele>
        <time>2021-11-14T11:05:29Z</time>
      </trkpt>
      <trkpt lat="43.09396" lon="5.8684">
        <ele>40.6640625</ele>
        <time>2021-11-14T11:05:30Z</time>
      </trkpt>
      <trkpt lat="43.09402" lon="5.86848">
        <ele>39.83984375</ele>
        <time>2021-11-14T11:05:31Z</time>
      </trkpt>
      <trkpt lat="43.09409" lon="5.86854">
        <ele>38.9453125</ele>
        <time>2021-11-14T11:05:32Z</time>
      </trkpt>
      <trkpt lat="43.09417" lon="5.86859">
        <ele>38.09375</ele>
        <time>2021-11-14T11:05:33Z</time>
      </trkpt>
      <trkpt lat="43.09425" lon="5.86862">
        <ele>37.45703125</ele>
        <time>2021-11-14T11:05:34Z</time>
      </trkpt>
      <trkpt lat="43.09432" lon="5.86865">
        <ele>36.91015625</ele>
        <time>2021-11-14T11:05:35Z</time>
      </trkpt>
      <trkpt lat="43.0944" lon="5.86865">
        <ele>36.5703125</ele>
        <time>2021-11-14T11:05:36Z</time>
      </trkpt>
      <trkpt lat="43.0946" lon="5.86864">
        <ele>35.94921875</ele>
        <time>2021-11-14T11:05:40Z</time>
      </trkpt>
      <trkpt lat="43.09509" lon="5.86863">
        <ele>33.33984375</ele>
        <time>2021-11-14T11:05:52Z</time>
      </trkpt>
      <trkpt lat="43.09514" lon="5.86865">
        <ele>32.8671875</ele>
        <time>2021-11-14T11:05:53Z</time>
      </trkpt>
      <trkpt lat="43.09519" lon="5.86868">
        <ele>31.9609375</ele>
        <time>2021-11-14T11:05:54Z</time>
      </trkpt>
      <trkpt lat="43.09524" lon="5.86869">
        <ele>31.13671875</ele>
        <time>2021-11-14T11:05:55Z</time>
      </trkpt>
      <trkpt lat="43.0953" lon="5.8687">
        <ele>30.45703125</ele>
        <time>2021-11-14T11:05:56Z</time>
      </trkpt>
      <trkpt lat="43.09535" lon="5.8687">
        <ele>29.87109375</ele>
        <time>2021-11-14T11:05:57Z</time>
      </trkpt>
      <trkpt lat="43.09542" lon="5.86868">
        <ele>29.38671875</ele>
        <time>2021-11-14T11:05:58Z</time>
      </trkpt>
      <trkpt lat="43.09587" lon="5.86865">
        <ele>26.00390625</ele>
        <time>2021-11-14T11:06:04Z</time>
      </trkpt>
      <trkpt lat="43.09615" lon="5.86865">
        <ele>23.640625</ele>
        <time>2021-11-14T11:06:07Z</time>
      </trkpt>
      <trkpt lat="43.09633" lon="5.86864">
        <ele>22.6953125</ele>
        <time>2021-11-14T11:06:09Z</time>
      </trkpt>
      <trkpt lat="43.09642" lon="5.8686">
        <ele>22.51171875</ele>
        <time>2021-11-14T11:06:10Z</time>
      </trkpt>
      <trkpt lat="43.0965" lon="5.86852">
        <ele>22.1640625</ele>
        <time>2021-11-14T11:06:11Z</time>
      </trkpt>
      <trkpt lat="43.09663" lon="5.8684">
        <ele>21.59375</ele>
        <time>2021-11-14T11:06:13Z</time>
      </trkpt>
      <trkpt lat="43.09669" lon="5.86837">
        <ele>21.40234375</ele>
        <time>2021-11-14T11:06:14Z</time>
      </trkpt>
      <trkpt lat="43.09673" lon="5.86837">
        <ele>21.234375</ele>
        <time>2021-11-14T11:06:15Z</time>
      </trkpt>
      <trkpt lat="43.09678" lon="5.8684">
        <ele>21.07421875</ele>
        <time>2021-11-14T11:06:16Z</time>
      </trkpt>
      <trkpt lat="43.09681" lon="5.86846">
        <ele>21.04296875</ele>
        <time>2021-11-14T11:06:17Z</time>
      </trkpt>
      <trkpt lat="43.09685" lon="5.86853">
        <ele>21.07421875</ele>
        <time>2021-11-14T11:06:18Z</time>
      </trkpt>
      <trkpt lat="43.09696" lon="5.86878">
        <ele>20.515625</ele>
        <time>2021-11-14T11:06:21Z</time>
      </trkpt>
      <trkpt lat="43.09702" lon="5.86896">
        <ele>20</ele>
        <time>2021-11-14T11:06:23Z</time>
      </trkpt>
      <trkpt lat="43.09706" lon="5.86904">
        <ele>20</ele>
        <time>2021-11-14T11:06:24Z</time>
      </trkpt>
      <trkpt lat="43.09711" lon="5.86911">
        <ele>20.0390625</ele>
        <time>2021-11-14T11:06:25Z</time>
      </trkpt>
      <trkpt lat="43.09717" lon="5.86917">
        <ele>20.04296875</ele>
        <time>2021-11-14T11:06:26Z</time>
      </trkpt>
      <trkpt lat="43.09722" lon="5.86922">
        <ele>20.03125</ele>
        <time>2021-11-14T11:06:27Z</time>
      </trkpt>
      <trkpt lat="43.0974" lon="5.86938">
        <ele>19.8984375</ele>
        <time>2021-11-14T11:06:30Z</time>
      </trkpt>
      <trkpt lat="43.09772" lon="5.86973">
        <ele>18.68359375</ele>
        <time>2021-11-14T11:06:36Z</time>
      </trkpt>
      <trkpt lat="43.09778" lon="5.86976">
        <ele>18.4609375</ele>
        <time>2021-11-14T11:06:37Z</time>
      </trkpt>
      <trkpt lat="43.0987" lon="5.87022">
        <ele>17.265625</ele>
        <time>2021-11-14T11:06:51Z</time>
      </trkpt>
      <trkpt lat="43.09923" lon="5.87059">
        <ele>19.953125</ele>
        <time>2021-11-14T11:07:00Z</time>
      </trkpt>
      <trkpt lat="43.09929" lon="5.8706">
        <ele>20.26953125</ele>
        <time>2021-11-14T11:07:01Z</time>
      </trkpt>
      <trkpt lat="43.09935" lon="5.87061">
        <ele>20.203125</ele>
        <time>2021-11-14T11:07:02Z</time>
      </trkpt>
      <trkpt lat="43.09942" lon="5.87061">
        <ele>19.9140625</ele>
        <time>2021-11-14T11:07:03Z</time>
      </trkpt>
      <trkpt lat="43.09948" lon="5.8706">
        <ele>19.5546875</ele>
        <time>2021-11-14T11:07:04Z</time>
      </trkpt>
      <trkpt lat="43.09954" lon="5.87059">
        <ele>19.140625</ele>
        <time>2021-11-14T11:07:05Z</time>
      </trkpt>
      <trkpt lat="43.10031" lon="5.87074">
        <ele>16.06640625</ele>
        <time>2021-11-14T11:07:17Z</time>
      </trkpt>
      <trkpt lat="43.10037" lon="5.87078">
        <ele>15.921875</ele>
        <time>2021-11-14T11:07:18Z</time>
      </trkpt>
      <trkpt lat="43.10055" lon="5.87096">
        <ele>15.140625</ele>
        <time>2021-11-14T11:07:22Z</time>
      </trkpt>
      <trkpt lat="43.10058" lon="5.87101">
        <ele>14.9140625</ele>
        <time>2021-11-14T11:07:23Z</time>
      </trkpt>
      <trkpt lat="43.10062" lon="5.87105">
        <ele>14.61328125</ele>
        <time>2021-11-14T11:07:24Z</time>
      </trkpt>
      <trkpt lat="43.10065" lon="5.87108">
        <ele>14.34375</ele>
        <time>2021-11-14T11:07:25Z</time>
      </trkpt>
      <trkpt lat="43.10067" lon="5.87112">
        <ele>14.16796875</ele>
        <time>2021-11-14T11:07:26Z</time>
      </trkpt>
      <trkpt lat="43.10069" lon="5.87117">
        <ele>13.9921875</ele>
        <time>2021-11-14T11:07:27Z</time>
      </trkpt>
      <trkpt lat="43.10076" lon="5.87134">
        <ele>13.53515625</ele>
        <time>2021-11-14T11:07:30Z</time>
      </trkpt>
      <trkpt lat="43.10078" lon="5.87141">
        <ele>13.30859375</ele>
        <time>2021-11-14T11:07:31Z</time>
      </trkpt>
      <trkpt lat="43.10081" lon="5.87148">
        <ele>13.02734375</ele>
        <time>2021-11-14T11:07:32Z</time>
      </trkpt>
      <trkpt lat="43.10119" lon="5.87236">
        <ele>9.75390625</ele>
        <time>2021-11-14T11:07:43Z</time>
      </trkpt>
      <trkpt lat="43.10148" lon="5.87308">
        <ele>9.13671875</ele>
        <time>2021-11-14T11:07:52Z</time>
      </trkpt>
      <trkpt lat="43.10152" lon="5.87325">
        <ele>8.9921875</ele>
        <time>2021-11-14T11:07:54Z</time>
      </trkpt>
      <trkpt lat="43.10156" lon="5.87351">
        <ele>8.2265625</ele>
        <time>2021-11-14T11:07:57Z</time>
      </trkpt>
      <trkpt lat="43.10159" lon="5.87359">
        <ele>7.87109375</ele>
        <time>2021-11-14T11:07:58Z</time>
      </trkpt>
      <trkpt lat="43.10163" lon="5.87365">
        <ele>7.578125</ele>
        <time>2021-11-14T11:07:59Z</time>
      </trkpt>
      <trkpt lat="43.10169" lon="5.87369">
        <ele>7.37109375</ele>
        <time>2021-11-14T11:08:00Z</time>
      </trkpt>
      <trkpt lat="43.10175" lon="5.87372">
        <ele>7.1484375</ele>
        <time>2021-11-14T11:08:01Z</time>
      </trkpt>
      <trkpt lat="43.10181" lon="5.87375">
        <ele>6.9296875</ele>
        <time>2021-11-14T11:08:02Z</time>
      </trkpt>
      <trkpt lat="43.10188" lon="5.87377">
        <ele>6.70703125</ele>
        <time>2021-11-14T11:08:03Z</time>
      </trkpt>
      <trkpt lat="43.10194" lon="5.8738">
        <ele>6.48828125</ele>
        <time>2021-11-14T11:08:04Z</time>
      </trkpt>
      <trkpt lat="43.10283" lon="5.87425">
        <ele>4.85546875</ele>
        <time>2021-11-14T11:08:18Z</time>
      </trkpt>
      <trkpt lat="43.10347" lon="5.87458">
        <ele>4</ele>
        <time>2021-11-14T11:08:28Z</time>
      </trkpt>
      <trkpt lat="43.10462" lon="5.87515">
        <ele>3.82421875</ele>
        <time>2021-11-14T11:08:46Z</time>
      </trkpt>
      <trkpt lat="43.10571" lon="5.87583">
        <ele>3</ele>
        <time>2021-11-14T11:09:04Z</time>
      </trkpt>
      <trkpt lat="43.10664" lon="5.87651">
        <ele>2</ele>
        <time>2021-11-14T11:09:20Z</time>
      </trkpt>
      <trkpt lat="43.10719" lon="5.87691">
        <ele>2</ele>
        <time>2021-11-14T11:09:32Z</time>
      </trkpt>
      <trkpt lat="43.10729" lon="5.87696">
        <ele>2</ele>
        <time>2021-11-14T11:09:42Z</time>
      </trkpt>
      <trkpt lat="43.1073" lon="5.87698">
        <ele>2</ele>
        <time>2021-11-14T11:10:01Z</time>
      </trkpt>
      <trkpt lat="43.1073" lon="5.87697">
        <ele>2</ele>
        <time>2021-11-14T11:10:27Z</time>
      </trkpt>
      <trkpt lat="43.10755" lon="5.87707">
        <ele>2.49609375</ele>
        <time>2021-11-14T11:10:39Z</time>
      </trkpt>
      <trkpt lat="43.10783" lon="5.87715">
        <ele>2.35546875</ele>
        <time>2021-11-14T11:10:44Z</time>
      </trkpt>
      <trkpt lat="43.10821" lon="5.87726">
        <ele>3</ele>
        <time>2021-11-14T11:10:50Z</time>
      </trkpt>
      <trkpt lat="43.10827" lon="5.87725">
        <ele>3</ele>
        <time>2021-11-14T11:10:51Z</time>
      </trkpt>
      <trkpt lat="43.10833" lon="5.87724">
        <ele>3</ele>
        <time>2021-11-14T11:10:52Z</time>
      </trkpt>
      <trkpt lat="43.10839" lon="5.87724">
        <ele>3</ele>
        <time>2021-11-14T11:10:53Z</time>
      </trkpt>
      <trkpt lat="43.10845" lon="5.87725">
        <ele>3</ele>
        <time>2021-11-14T11:10:54Z</time>
      </trkpt>
      <trkpt lat="43.10852" lon="5.87725">
        <ele>3</ele>
        <time>2021-11-14T11:10:55Z</time>
      </trkpt>
      <trkpt lat="43.10871" lon="5.87726">
        <ele>3</ele>
        <time>2021-11-14T11:10:58Z</time>
      </trkpt>
      <trkpt lat="43.10973" lon="5.87742">
        <ele>4</ele>
        <time>2021-11-14T11:11:14Z</time>
      </trkpt>
      <trkpt lat="43.11073" lon="5.87761">
        <ele>4.76953125</ele>
        <time>2021-11-14T11:11:30Z</time>
      </trkpt>
      <trkpt lat="43.11174" lon="5.8778">
        <ele>9.4375</ele>
        <time>2021-11-14T11:11:46Z</time>
      </trkpt>
      <trkpt lat="43.11229" lon="5.87793">
        <ele>13.7265625</ele>
        <time>2021-11-14T11:11:55Z</time>
      </trkpt>
      <trkpt lat="43.11323" lon="5.87826">
        <ele>11.11328125</ele>
        <time>2021-11-14T11:12:10Z</time>
      </trkpt>
      <trkpt lat="43.1133" lon="5.87828">
        <ele>10.7421875</ele>
        <time>2021-11-14T11:12:11Z</time>
      </trkpt>
      <trkpt lat="43.11337" lon="5.8783">
        <ele>10.390625</ele>
        <time>2021-11-14T11:12:12Z</time>
      </trkpt>
      <trkpt lat="43.11406" lon="5.87837">
        <ele>6.78125</ele>
        <time>2021-11-14T11:12:21Z</time>
      </trkpt>
      <trkpt lat="43.11519" lon="5.87844">
        <ele>4</ele>
        <time>2021-11-14T11:12:35Z</time>
      </trkpt>
      <trkpt lat="43.11591" lon="5.87844">
        <ele>4</ele>
        <time>2021-11-14T11:12:45Z</time>
      </trkpt>
      <trkpt lat="43.11684" lon="5.87845">
        <ele>5</ele>
        <time>2021-11-14T11:12:59Z</time>
      </trkpt>
      <trkpt lat="43.1169" lon="5.87843">
        <ele>5</ele>
        <time>2021-11-14T11:13:00Z</time>
      </trkpt>
      <trkpt lat="43.11695" lon="5.87838">
        <ele>5</ele>
        <time>2021-11-14T11:13:01Z</time>
      </trkpt>
      <trkpt lat="43.11698" lon="5.87831">
        <ele>5</ele>
        <time>2021-11-14T11:13:02Z</time>
      </trkpt>
      <trkpt lat="43.11701" lon="5.87824">
        <ele>5</ele>
        <time>2021-11-14T11:13:03Z</time>
      </trkpt>
      <trkpt lat="43.11703" lon="5.87817">
        <ele>5</ele>
        <time>2021-11-14T11:13:04Z</time>
      </trkpt>
      <trkpt lat="43.11705" lon="5.8781">
        <ele>5</ele>
        <time>2021-11-14T11:13:05Z</time>
      </trkpt>
      <trkpt lat="43.11709" lon="5.87804">
        <ele>5</ele>
        <time>2021-11-14T11:13:06Z</time>
      </trkpt>
      <trkpt lat="43.11713" lon="5.87799">
        <ele>5</ele>
        <time>2021-11-14T11:13:07Z</time>
      </trkpt>
      <trkpt lat="43.11718" lon="5.87794">
        <ele>5</ele>
        <time>2021-11-14T11:13:08Z</time>
      </trkpt>
      <trkpt lat="43.11723" lon="5.87791">
        <ele>5</ele>
        <time>2021-11-14T11:13:09Z</time>
      </trkpt>
      <trkpt lat="43.11729" lon="5.87788">
        <ele>5</ele>
        <time>2021-11-14T11:13:10Z</time>
      </trkpt>
      <trkpt lat="43.11735" lon="5.87786">
        <ele>5.0234375</ele>
        <time>2021-11-14T11:13:11Z</time>
      </trkpt>
      <trkpt lat="43.11741" lon="5.87784">
        <ele>5.21484375</ele>
        <time>2021-11-14T11:13:12Z</time>
      </trkpt>
      <trkpt lat="43.11746" lon="5.87781">
        <ele>5.4296875</ele>
        <time>2021-11-14T11:13:13Z</time>
      </trkpt>
      <trkpt lat="43.11751" lon="5.87778">
        <ele>5.65625</ele>
        <time>2021-11-14T11:13:14Z</time>
      </trkpt>
      <trkpt lat="43.11755" lon="5.87774">
        <ele>5.82421875</ele>
        <time>2021-11-14T11:13:15Z</time>
      </trkpt>
      <trkpt lat="43.1176" lon="5.87772">
        <ele>5.953125</ele>
        <time>2021-11-14T11:13:16Z</time>
      </trkpt>
      <trkpt lat="43.1178" lon="5.87761">
        <ele>6.4609375</ele>
        <time>2021-11-14T11:13:20Z</time>
      </trkpt>
      <trkpt lat="43.11786" lon="5.87759">
        <ele>6.66796875</ele>
        <time>2021-11-14T11:13:21Z</time>
      </trkpt>
      <trkpt lat="43.11791" lon="5.87757">
        <ele>6.921875</ele>
        <time>2021-11-14T11:13:22Z</time>
      </trkpt>
      <trkpt lat="43.11818" lon="5.87745">
        <ele>8.33203125</ele>
        <time>2021-11-14T11:13:28Z</time>
      </trkpt>
      <trkpt lat="43.11827" lon="5.87743">
        <ele>8.71875</ele>
        <time>2021-11-14T11:13:30Z</time>
      </trkpt>
      <trkpt lat="43.11831" lon="5.8774">
        <ele>8.9296875</ele>
        <time>2021-11-14T11:13:31Z</time>
      </trkpt>
      <trkpt lat="43.11834" lon="5.87737">
        <ele>9.15625</ele>
        <time>2021-11-14T11:13:32Z</time>
      </trkpt>
      <trkpt lat="43.11836" lon="5.87733">
        <ele>9.40234375</ele>
        <time>2021-11-14T11:13:33Z</time>
      </trkpt>
      <trkpt lat="43.11839" lon="5.87729">
        <ele>9.6484375</ele>
        <time>2021-11-14T11:13:34Z</time>
      </trkpt>
      <trkpt lat="43.11871" lon="5.87722">
        <ele>10.24609375</ele>
        <time>2021-11-14T11:13:42Z</time>
      </trkpt>
      <trkpt lat="43.11889" lon="5.87717">
        <ele>10.6171875</ele>
        <time>2021-11-14T11:13:46Z</time>
      </trkpt>
      <trkpt lat="43.11904" lon="5.87706">
        <ele>11.3515625</ele>
        <time>2021-11-14T11:13:50Z</time>
      </trkpt>
      <trkpt lat="43.11907" lon="5.87702">
        <ele>11.67578125</ele>
        <time>2021-11-14T11:13:51Z</time>
      </trkpt>
      <trkpt lat="43.11909" lon="5.87697">
        <ele>12.02734375</ele>
        <time>2021-11-14T11:13:52Z</time>
      </trkpt>
      <trkpt lat="43.11909" lon="5.87691">
        <ele>12.22265625</ele>
        <time>2021-11-14T11:13:53Z</time>
      </trkpt>
      <trkpt lat="43.11909" lon="5.87686">
        <ele>12.40234375</ele>
        <time>2021-11-14T11:13:54Z</time>
      </trkpt>
      <trkpt lat="43.11909" lon="5.87681">
        <ele>12.58203125</ele>
        <time>2021-11-14T11:13:55Z</time>
      </trkpt>
      <trkpt lat="43.11907" lon="5.87668">
        <ele>13.07421875</ele>
        <time>2021-11-14T11:13:58Z</time>
      </trkpt>
      <trkpt lat="43.11903" lon="5.87606">
        <ele>16.56640625</ele>
        <time>2021-11-14T11:14:10Z</time>
      </trkpt>
      <trkpt lat="43.11903" lon="5.87596">
        <ele>17.30859375</ele>
        <time>2021-11-14T11:14:12Z</time>
      </trkpt>
      <trkpt lat="43.11902" lon="5.87578">
        <ele>18.96484375</ele>
        <time>2021-11-14T11:14:16Z</time>
      </trkpt>
      <trkpt lat="43.11904" lon="5.87574">
        <ele>19.39453125</ele>
        <time>2021-11-14T11:14:17Z</time>
      </trkpt>
      <trkpt lat="43.11907" lon="5.87571">
        <ele>19.6953125</ele>
        <time>2021-11-14T11:14:18Z</time>
      </trkpt>
      <trkpt lat="43.1191" lon="5.87569">
        <ele>19.87109375</ele>
        <time>2021-11-14T11:14:19Z</time>
      </trkpt>
      <trkpt lat="43.11914" lon="5.87568">
        <ele>19.9453125</ele>
        <time>2021-11-14T11:14:20Z</time>
      </trkpt>
      <trkpt lat="43.11918" lon="5.87568">
        <ele>19.9921875</ele>
        <time>2021-11-14T11:14:21Z</time>
      </trkpt>
      <trkpt lat="43.11958" lon="5.87563">
        <ele>19.55859375</ele>
        <time>2021-11-14T11:14:30Z</time>
      </trkpt>
      <trkpt lat="43.1197" lon="5.87558">
        <ele>19.03125</ele>
        <time>2021-11-14T11:14:33Z</time>
      </trkpt>
      <trkpt lat="43.11974" lon="5.87555">
        <ele>19.12890625</ele>
        <time>2021-11-14T11:14:34Z</time>
      </trkpt>
      <trkpt lat="43.11982" lon="5.87538">
        <ele>20.42578125</ele>
        <time>2021-11-14T11:14:38Z</time>
      </trkpt>
      <trkpt lat="43.11974" lon="5.87504">
        <ele>24.9609375</ele>
        <time>2021-11-14T11:14:45Z</time>
      </trkpt>
      <trkpt lat="43.11959" lon="5.87496">
        <ele>27.38671875</ele>
        <time>2021-11-14T11:14:49Z</time>
      </trkpt>
      <trkpt lat="43.11948" lon="5.87493">
        <ele>28.16015625</ele>
        <time>2021-11-14T11:14:52Z</time>
      </trkpt>
      <trkpt lat="43.1192" lon="5.8749">
        <ele>28.9140625</ele>
        <time>2021-11-14T11:15:00Z</time>
      </trkpt>
      <trkpt lat="43.11903" lon="5.87484">
        <ele>29.765625</ele>
        <time>2021-11-14T11:15:09Z</time>
      </trkpt>
      <trkpt lat="43.11903" lon="5.87483">
        <ele>29.9140625</ele>
        <time>2021-11-14T11:15:22Z</time>
      </trkpt>
      <trkpt lat="43.11901" lon="5.87483">
        <ele>29.93359375</ele>
        <time>2021-11-14T11:16:07Z</time>
      </trkpt>
      <trkpt lat="43.11902" lon="5.87484">
        <ele>29.7578125</ele>
        <time>2021-11-14T11:16:52Z</time>
      </trkpt>
      <trkpt lat="43.11904" lon="5.87482">
        <ele>30.05078125</ele>
        <time>2021-11-14T11:17:32Z</time>
      </trkpt>
      <trkpt lat="43.11904" lon="5.87483">
        <ele>29.875</ele>
        <time>2021-11-14T11:18:02Z</time>
      </trkpt>
      <trkpt lat="43.11903" lon="5.8748">
        <ele>30.30859375</ele>
        <time>2021-11-14T11:18:39Z</time>
      </trkpt>
      <trkpt lat="43.11904" lon="5.87484">
        <ele>29.75</ele>
        <time>2021-11-14T11:18:59Z</time>
      </trkpt>
      <trkpt lat="43.11905" lon="5.87484">
        <ele>29.79296875</ele>
        <time>2021-11-14T11:19:27Z</time>
      </trkpt>
      <trkpt lat="43.11906" lon="5.87483">
        <ele>29.8359375</ele>
        <time>2021-11-14T11:19:58Z</time>
      </trkpt>
    </trkseg>
  </trk>
</gpx>